<?xml version="1.0" encoding="UTF-8" standalone="no" ?>
<gpx xmlns="http://www.topografix.com/GPX/1/1" xmlns:xsi="http://www.w3.org/2001/XMLSchema-instance" xsi:schemaLocation="http://www.topografix.com/GPX/1/1 http://www.topografix.com/GPX/1/1/gpx.xsd" version="1.1" creator="VisuGPX - https://www.visugpx.com">
  <metadata>
    <name>Randonnée La Neuville</name>
    <desc><![CDATA[Circuit au départ de la Neuville chant d'oisel en passant par Romilly]]></desc>
  </metadata>
  <trk>
    <name><![CDATA[Randonnée La Neuville_1]]></name>
    <trkseg>
      <trkpt lat="49.37269" lon="1.23227">
        <ele>156</ele>
        <time>2017-03-14T13:50:56Z</time>
      </trkpt>
      <trkpt lat="49.37269" lon="1.23227">
        <ele>156</ele>
        <time>2017-03-14T13:50:56Z</time>
      </trkpt>
      <trkpt lat="49.37269" lon="1.23227">
        <ele>156</ele>
        <time>2017-03-14T13:50:56Z</time>
      </trkpt>
      <trkpt lat="49.37268" lon="1.23227">
        <ele>156</ele>
        <time>2017-03-14T13:50:56Z</time>
      </trkpt>
      <trkpt lat="49.37268" lon="1.23225">
        <ele>156</ele>
        <time>2017-03-14T13:50:56Z</time>
      </trkpt>
      <trkpt lat="49.3727" lon="1.23226">
        <ele>156</ele>
        <time>2017-03-14T13:51:32Z</time>
      </trkpt>
      <trkpt lat="49.3727" lon="1.23226">
        <ele>156</ele>
        <time>2017-03-14T13:51:32Z</time>
      </trkpt>
      <trkpt lat="49.37272" lon="1.23224">
        <ele>156</ele>
        <time>2017-03-14T13:51:32Z</time>
      </trkpt>
      <trkpt lat="49.37271" lon="1.23216">
        <ele>156</ele>
        <time>2017-03-14T13:51:32Z</time>
      </trkpt>
      <trkpt lat="49.37267" lon="1.23209">
        <ele>156</ele>
        <time>2017-03-14T13:51:32Z</time>
      </trkpt>
      <trkpt lat="49.37266" lon="1.23209">
        <ele>156</ele>
        <time>2017-03-14T13:52:04Z</time>
      </trkpt>
      <trkpt lat="49.37266" lon="1.23207">
        <ele>156</ele>
        <time>2017-03-14T13:52:04Z</time>
      </trkpt>
      <trkpt lat="49.37262" lon="1.232">
        <ele>156</ele>
        <time>2017-03-14T13:52:04Z</time>
      </trkpt>
      <trkpt lat="49.37257" lon="1.23194">
        <ele>156</ele>
        <time>2017-03-14T13:52:04Z</time>
      </trkpt>
      <trkpt lat="49.37256" lon="1.23189">
        <ele>156</ele>
        <time>2017-03-14T13:52:04Z</time>
      </trkpt>
      <trkpt lat="49.37255" lon="1.23184">
        <ele>156</ele>
        <time>2017-03-14T13:52:20Z</time>
      </trkpt>
      <trkpt lat="49.37253" lon="1.23177">
        <ele>156</ele>
        <time>2017-03-14T13:52:20Z</time>
      </trkpt>
      <trkpt lat="49.37252" lon="1.23173">
        <ele>156</ele>
        <time>2017-03-14T13:52:20Z</time>
      </trkpt>
      <trkpt lat="49.3725" lon="1.23164">
        <ele>156</ele>
        <time>2017-03-14T13:52:20Z</time>
      </trkpt>
      <trkpt lat="49.37248" lon="1.23163">
        <ele>156</ele>
        <time>2017-03-14T13:52:40Z</time>
      </trkpt>
      <trkpt lat="49.37246" lon="1.2316">
        <ele>156</ele>
        <time>2017-03-14T13:52:40Z</time>
      </trkpt>
      <trkpt lat="49.37245" lon="1.23164">
        <ele>156</ele>
        <time>2017-03-14T13:52:40Z</time>
      </trkpt>
      <trkpt lat="49.37242" lon="1.23164">
        <ele>156</ele>
        <time>2017-03-14T13:52:40Z</time>
      </trkpt>
      <trkpt lat="49.37238" lon="1.23162">
        <ele>156</ele>
        <time>2017-03-14T13:52:40Z</time>
      </trkpt>
      <trkpt lat="49.37236" lon="1.23156">
        <ele>156</ele>
        <time>2017-03-14T13:52:56Z</time>
      </trkpt>
      <trkpt lat="49.37233" lon="1.23151">
        <ele>156</ele>
        <time>2017-03-14T13:52:56Z</time>
      </trkpt>
      <trkpt lat="49.3723" lon="1.23144">
        <ele>156</ele>
        <time>2017-03-14T13:52:56Z</time>
      </trkpt>
      <trkpt lat="49.37227" lon="1.23138">
        <ele>156</ele>
        <time>2017-03-14T13:52:56Z</time>
      </trkpt>
      <trkpt lat="49.37224" lon="1.23132">
        <ele>156</ele>
        <time>2017-03-14T13:53:12Z</time>
      </trkpt>
      <trkpt lat="49.37222" lon="1.23127">
        <ele>156</ele>
        <time>2017-03-14T13:53:12Z</time>
      </trkpt>
      <trkpt lat="49.37218" lon="1.23121">
        <ele>157</ele>
        <time>2017-03-14T13:53:13Z</time>
      </trkpt>
      <trkpt lat="49.37213" lon="1.23117">
        <ele>157</ele>
        <time>2017-03-14T13:53:13Z</time>
      </trkpt>
      <trkpt lat="49.37209" lon="1.23113">
        <ele>157</ele>
        <time>2017-03-14T13:53:28Z</time>
      </trkpt>
      <trkpt lat="49.37205" lon="1.23106">
        <ele>154</ele>
        <time>2017-03-14T13:53:28Z</time>
      </trkpt>
      <trkpt lat="49.37201" lon="1.231">
        <ele>154</ele>
        <time>2017-03-14T13:53:28Z</time>
      </trkpt>
      <trkpt lat="49.37195" lon="1.23095">
        <ele>154</ele>
        <time>2017-03-14T13:53:28Z</time>
      </trkpt>
      <trkpt lat="49.37192" lon="1.2309">
        <ele>154</ele>
        <time>2017-03-14T13:53:44Z</time>
      </trkpt>
      <trkpt lat="49.3719" lon="1.2308">
        <ele>154</ele>
        <time>2017-03-14T13:53:44Z</time>
      </trkpt>
      <trkpt lat="49.37188" lon="1.23076">
        <ele>154</ele>
        <time>2017-03-14T13:53:44Z</time>
      </trkpt>
      <trkpt lat="49.37185" lon="1.23072">
        <ele>154</ele>
        <time>2017-03-14T13:53:44Z</time>
      </trkpt>
      <trkpt lat="49.37181" lon="1.23065">
        <ele>154</ele>
        <time>2017-03-14T13:53:59Z</time>
      </trkpt>
      <trkpt lat="49.37178" lon="1.2306">
        <ele>154</ele>
        <time>2017-03-14T13:53:59Z</time>
      </trkpt>
      <trkpt lat="49.37174" lon="1.23057">
        <ele>154</ele>
        <time>2017-03-14T13:53:59Z</time>
      </trkpt>
      <trkpt lat="49.37169" lon="1.23057">
        <ele>154</ele>
        <time>2017-03-14T13:53:59Z</time>
      </trkpt>
      <trkpt lat="49.37161" lon="1.23054">
        <ele>154</ele>
        <time>2017-03-14T13:54:16Z</time>
      </trkpt>
      <trkpt lat="49.37157" lon="1.2305">
        <ele>154</ele>
        <time>2017-03-14T13:54:16Z</time>
      </trkpt>
      <trkpt lat="49.37151" lon="1.23048">
        <ele>154</ele>
        <time>2017-03-14T13:54:16Z</time>
      </trkpt>
      <trkpt lat="49.37146" lon="1.23047">
        <ele>154</ele>
        <time>2017-03-14T13:54:16Z</time>
      </trkpt>
      <trkpt lat="49.37139" lon="1.23041">
        <ele>155</ele>
        <time>2017-03-14T13:54:51Z</time>
      </trkpt>
      <trkpt lat="49.37139" lon="1.23041">
        <ele>155</ele>
        <time>2017-03-14T13:54:51Z</time>
      </trkpt>
      <trkpt lat="49.37135" lon="1.23041">
        <ele>155</ele>
        <time>2017-03-14T13:54:51Z</time>
      </trkpt>
      <trkpt lat="49.37132" lon="1.23035">
        <ele>155</ele>
        <time>2017-03-14T13:54:51Z</time>
      </trkpt>
      <trkpt lat="49.37126" lon="1.23034">
        <ele>155</ele>
        <time>2017-03-14T13:54:51Z</time>
      </trkpt>
      <trkpt lat="49.37121" lon="1.23033">
        <ele>153</ele>
        <time>2017-03-14T13:55:07Z</time>
      </trkpt>
      <trkpt lat="49.37118" lon="1.23029">
        <ele>153</ele>
        <time>2017-03-14T13:55:07Z</time>
      </trkpt>
      <trkpt lat="49.37115" lon="1.23024">
        <ele>153</ele>
        <time>2017-03-14T13:55:07Z</time>
      </trkpt>
      <trkpt lat="49.37111" lon="1.23018">
        <ele>153</ele>
        <time>2017-03-14T13:55:07Z</time>
      </trkpt>
      <trkpt lat="49.37107" lon="1.23013">
        <ele>153</ele>
        <time>2017-03-14T13:55:23Z</time>
      </trkpt>
      <trkpt lat="49.37103" lon="1.23008">
        <ele>153</ele>
        <time>2017-03-14T13:55:23Z</time>
      </trkpt>
      <trkpt lat="49.37099" lon="1.23004">
        <ele>153</ele>
        <time>2017-03-14T13:55:23Z</time>
      </trkpt>
      <trkpt lat="49.37094" lon="1.23002">
        <ele>153</ele>
        <time>2017-03-14T13:55:23Z</time>
      </trkpt>
      <trkpt lat="49.37083" lon="1.22995">
        <ele>153</ele>
        <time>2017-03-14T13:55:59Z</time>
      </trkpt>
      <trkpt lat="49.37079" lon="1.22993">
        <ele>153</ele>
        <time>2017-03-14T13:55:59Z</time>
      </trkpt>
      <trkpt lat="49.37076" lon="1.22991">
        <ele>153</ele>
        <time>2017-03-14T13:55:59Z</time>
      </trkpt>
      <trkpt lat="49.37072" lon="1.22988">
        <ele>153</ele>
        <time>2017-03-14T13:55:59Z</time>
      </trkpt>
      <trkpt lat="49.37069" lon="1.22983">
        <ele>153</ele>
        <time>2017-03-14T13:55:59Z</time>
      </trkpt>
      <trkpt lat="49.37066" lon="1.22979">
        <ele>153</ele>
        <time>2017-03-14T13:56:15Z</time>
      </trkpt>
      <trkpt lat="49.37063" lon="1.22978">
        <ele>153</ele>
        <time>2017-03-14T13:56:15Z</time>
      </trkpt>
      <trkpt lat="49.3706" lon="1.22973">
        <ele>153</ele>
        <time>2017-03-14T13:56:15Z</time>
      </trkpt>
      <trkpt lat="49.37058" lon="1.2297">
        <ele>153</ele>
        <time>2017-03-14T13:56:15Z</time>
      </trkpt>
      <trkpt lat="49.37052" lon="1.22965">
        <ele>153</ele>
        <time>2017-03-14T13:56:32Z</time>
      </trkpt>
      <trkpt lat="49.3705" lon="1.22963">
        <ele>153</ele>
        <time>2017-03-14T13:56:32Z</time>
      </trkpt>
      <trkpt lat="49.37046" lon="1.22958">
        <ele>152</ele>
        <time>2017-03-14T13:56:32Z</time>
      </trkpt>
      <trkpt lat="49.37041" lon="1.22954">
        <ele>150</ele>
        <time>2017-03-14T13:56:32Z</time>
      </trkpt>
      <trkpt lat="49.37037" lon="1.22949">
        <ele>150</ele>
        <time>2017-03-14T13:56:48Z</time>
      </trkpt>
      <trkpt lat="49.37033" lon="1.22945">
        <ele>150</ele>
        <time>2017-03-14T13:56:48Z</time>
      </trkpt>
      <trkpt lat="49.37028" lon="1.2294">
        <ele>150</ele>
        <time>2017-03-14T13:56:48Z</time>
      </trkpt>
      <trkpt lat="49.37024" lon="1.22937">
        <ele>150</ele>
        <time>2017-03-14T13:56:48Z</time>
      </trkpt>
      <trkpt lat="49.37019" lon="1.22932">
        <ele>150</ele>
        <time>2017-03-14T13:57:04Z</time>
      </trkpt>
      <trkpt lat="49.37015" lon="1.22927">
        <ele>150</ele>
        <time>2017-03-14T13:57:04Z</time>
      </trkpt>
      <trkpt lat="49.37011" lon="1.22923">
        <ele>150</ele>
        <time>2017-03-14T13:57:04Z</time>
      </trkpt>
      <trkpt lat="49.37009" lon="1.22918">
        <ele>150</ele>
        <time>2017-03-14T13:57:04Z</time>
      </trkpt>
      <trkpt lat="49.37006" lon="1.22914">
        <ele>150</ele>
        <time>2017-03-14T13:57:20Z</time>
      </trkpt>
      <trkpt lat="49.37003" lon="1.2291">
        <ele>150</ele>
        <time>2017-03-14T13:57:20Z</time>
      </trkpt>
      <trkpt lat="49.37" lon="1.22905">
        <ele>150</ele>
        <time>2017-03-14T13:57:20Z</time>
      </trkpt>
      <trkpt lat="49.36995" lon="1.22898">
        <ele>150</ele>
        <time>2017-03-14T13:57:20Z</time>
      </trkpt>
      <trkpt lat="49.36992" lon="1.22894">
        <ele>150</ele>
        <time>2017-03-14T13:57:37Z</time>
      </trkpt>
      <trkpt lat="49.36987" lon="1.22887">
        <ele>150</ele>
        <time>2017-03-14T13:57:37Z</time>
      </trkpt>
      <trkpt lat="49.36983" lon="1.22881">
        <ele>150</ele>
        <time>2017-03-14T13:57:37Z</time>
      </trkpt>
      <trkpt lat="49.36979" lon="1.22877">
        <ele>150</ele>
        <time>2017-03-14T13:57:37Z</time>
      </trkpt>
      <trkpt lat="49.36976" lon="1.22876">
        <ele>150</ele>
        <time>2017-03-14T13:57:52Z</time>
      </trkpt>
      <trkpt lat="49.36973" lon="1.22873">
        <ele>150</ele>
        <time>2017-03-14T13:57:52Z</time>
      </trkpt>
      <trkpt lat="49.3697" lon="1.22868">
        <ele>150</ele>
        <time>2017-03-14T13:57:52Z</time>
      </trkpt>
      <trkpt lat="49.36966" lon="1.22864">
        <ele>150</ele>
        <time>2017-03-14T13:57:52Z</time>
      </trkpt>
      <trkpt lat="49.3696" lon="1.22858">
        <ele>150</ele>
        <time>2017-03-14T13:58:08Z</time>
      </trkpt>
      <trkpt lat="49.36954" lon="1.22853">
        <ele>149</ele>
        <time>2017-03-14T13:58:08Z</time>
      </trkpt>
      <trkpt lat="49.36949" lon="1.22849">
        <ele>149</ele>
        <time>2017-03-14T13:58:08Z</time>
      </trkpt>
      <trkpt lat="49.36945" lon="1.22847">
        <ele>149</ele>
        <time>2017-03-14T13:58:08Z</time>
      </trkpt>
      <trkpt lat="49.36941" lon="1.22842">
        <ele>149</ele>
        <time>2017-03-14T13:58:24Z</time>
      </trkpt>
      <trkpt lat="49.36937" lon="1.22836">
        <ele>149</ele>
        <time>2017-03-14T13:58:24Z</time>
      </trkpt>
      <trkpt lat="49.36933" lon="1.22831">
        <ele>149</ele>
        <time>2017-03-14T13:58:24Z</time>
      </trkpt>
      <trkpt lat="49.36929" lon="1.22826">
        <ele>149</ele>
        <time>2017-03-14T13:58:24Z</time>
      </trkpt>
      <trkpt lat="49.36924" lon="1.22821">
        <ele>149</ele>
        <time>2017-03-14T13:58:40Z</time>
      </trkpt>
      <trkpt lat="49.36919" lon="1.22816">
        <ele>149</ele>
        <time>2017-03-14T13:58:40Z</time>
      </trkpt>
      <trkpt lat="49.36916" lon="1.2281">
        <ele>149</ele>
        <time>2017-03-14T13:58:40Z</time>
      </trkpt>
      <trkpt lat="49.36913" lon="1.22803">
        <ele>149</ele>
        <time>2017-03-14T13:58:40Z</time>
      </trkpt>
      <trkpt lat="49.36909" lon="1.228">
        <ele>149</ele>
        <time>2017-03-14T13:58:56Z</time>
      </trkpt>
      <trkpt lat="49.36905" lon="1.22795">
        <ele>149</ele>
        <time>2017-03-14T13:58:56Z</time>
      </trkpt>
      <trkpt lat="49.369" lon="1.22792">
        <ele>149</ele>
        <time>2017-03-14T13:58:56Z</time>
      </trkpt>
      <trkpt lat="49.36898" lon="1.22789">
        <ele>149</ele>
        <time>2017-03-14T13:58:56Z</time>
      </trkpt>
      <trkpt lat="49.36891" lon="1.22779">
        <ele>149</ele>
        <time>2017-03-14T13:59:12Z</time>
      </trkpt>
      <trkpt lat="49.36887" lon="1.22775">
        <ele>149</ele>
        <time>2017-03-14T13:59:12Z</time>
      </trkpt>
      <trkpt lat="49.36884" lon="1.22772">
        <ele>149</ele>
        <time>2017-03-14T13:59:12Z</time>
      </trkpt>
      <trkpt lat="49.3688" lon="1.22767">
        <ele>149</ele>
        <time>2017-03-14T13:59:12Z</time>
      </trkpt>
      <trkpt lat="49.36874" lon="1.22765">
        <ele>146</ele>
        <time>2017-03-14T13:59:32Z</time>
      </trkpt>
      <trkpt lat="49.36877" lon="1.22763">
        <ele>149</ele>
        <time>2017-03-14T13:59:32Z</time>
      </trkpt>
      <trkpt lat="49.36879" lon="1.22762">
        <ele>149</ele>
        <time>2017-03-14T13:59:32Z</time>
      </trkpt>
      <trkpt lat="49.36881" lon="1.22758">
        <ele>149</ele>
        <time>2017-03-14T13:59:32Z</time>
      </trkpt>
      <trkpt lat="49.36882" lon="1.22752">
        <ele>149</ele>
        <time>2017-03-14T13:59:32Z</time>
      </trkpt>
      <trkpt lat="49.36885" lon="1.22745">
        <ele>149</ele>
        <time>2017-03-14T13:59:47Z</time>
      </trkpt>
      <trkpt lat="49.36888" lon="1.22739">
        <ele>149</ele>
        <time>2017-03-14T13:59:47Z</time>
      </trkpt>
      <trkpt lat="49.36891" lon="1.22736">
        <ele>149</ele>
        <time>2017-03-14T13:59:47Z</time>
      </trkpt>
      <trkpt lat="49.36894" lon="1.22732">
        <ele>149</ele>
        <time>2017-03-14T13:59:47Z</time>
      </trkpt>
      <trkpt lat="49.36897" lon="1.22729">
        <ele>149</ele>
        <time>2017-03-14T14:00:03Z</time>
      </trkpt>
      <trkpt lat="49.369" lon="1.22725">
        <ele>149</ele>
        <time>2017-03-14T14:00:03Z</time>
      </trkpt>
      <trkpt lat="49.36903" lon="1.2272">
        <ele>149</ele>
        <time>2017-03-14T14:00:03Z</time>
      </trkpt>
      <trkpt lat="49.36907" lon="1.22716">
        <ele>149</ele>
        <time>2017-03-14T14:00:03Z</time>
      </trkpt>
      <trkpt lat="49.3691" lon="1.22711">
        <ele>149</ele>
        <time>2017-03-14T14:00:19Z</time>
      </trkpt>
      <trkpt lat="49.36915" lon="1.22704">
        <ele>150</ele>
        <time>2017-03-14T14:00:19Z</time>
      </trkpt>
      <trkpt lat="49.36919" lon="1.22699">
        <ele>150</ele>
        <time>2017-03-14T14:00:19Z</time>
      </trkpt>
      <trkpt lat="49.36923" lon="1.22696">
        <ele>150</ele>
        <time>2017-03-14T14:00:19Z</time>
      </trkpt>
      <trkpt lat="49.36926" lon="1.2269">
        <ele>150</ele>
        <time>2017-03-14T14:00:35Z</time>
      </trkpt>
      <trkpt lat="49.3693" lon="1.22686">
        <ele>150</ele>
        <time>2017-03-14T14:00:35Z</time>
      </trkpt>
      <trkpt lat="49.36933" lon="1.22681">
        <ele>150</ele>
        <time>2017-03-14T14:00:35Z</time>
      </trkpt>
      <trkpt lat="49.36935" lon="1.22678">
        <ele>150</ele>
        <time>2017-03-14T14:00:35Z</time>
      </trkpt>
      <trkpt lat="49.3694" lon="1.22674">
        <ele>150</ele>
        <time>2017-03-14T14:00:51Z</time>
      </trkpt>
      <trkpt lat="49.36944" lon="1.22669">
        <ele>150</ele>
        <time>2017-03-14T14:00:51Z</time>
      </trkpt>
      <trkpt lat="49.36947" lon="1.22664">
        <ele>150</ele>
        <time>2017-03-14T14:00:51Z</time>
      </trkpt>
      <trkpt lat="49.36951" lon="1.22659">
        <ele>150</ele>
        <time>2017-03-14T14:00:51Z</time>
      </trkpt>
      <trkpt lat="49.36955" lon="1.22656">
        <ele>150</ele>
        <time>2017-03-14T14:01:08Z</time>
      </trkpt>
      <trkpt lat="49.36958" lon="1.22651">
        <ele>150</ele>
        <time>2017-03-14T14:01:09Z</time>
      </trkpt>
      <trkpt lat="49.36961" lon="1.22646">
        <ele>152</ele>
        <time>2017-03-14T14:01:09Z</time>
      </trkpt>
      <trkpt lat="49.36967" lon="1.2264">
        <ele>152</ele>
        <time>2017-03-14T14:01:09Z</time>
      </trkpt>
      <trkpt lat="49.3697" lon="1.22636">
        <ele>152</ele>
        <time>2017-03-14T14:01:24Z</time>
      </trkpt>
      <trkpt lat="49.36974" lon="1.22632">
        <ele>152</ele>
        <time>2017-03-14T14:01:24Z</time>
      </trkpt>
      <trkpt lat="49.36977" lon="1.22627">
        <ele>152</ele>
        <time>2017-03-14T14:01:24Z</time>
      </trkpt>
      <trkpt lat="49.36981" lon="1.2262">
        <ele>153</ele>
        <time>2017-03-14T14:01:24Z</time>
      </trkpt>
      <trkpt lat="49.36986" lon="1.22614">
        <ele>153</ele>
        <time>2017-03-14T14:01:40Z</time>
      </trkpt>
      <trkpt lat="49.3699" lon="1.2261">
        <ele>153</ele>
        <time>2017-03-14T14:01:40Z</time>
      </trkpt>
      <trkpt lat="49.36995" lon="1.22606">
        <ele>153</ele>
        <time>2017-03-14T14:01:40Z</time>
      </trkpt>
      <trkpt lat="49.36998" lon="1.226">
        <ele>153</ele>
        <time>2017-03-14T14:01:40Z</time>
      </trkpt>
      <trkpt lat="49.37003" lon="1.22596">
        <ele>153</ele>
        <time>2017-03-14T14:01:56Z</time>
      </trkpt>
      <trkpt lat="49.37007" lon="1.22592">
        <ele>153</ele>
        <time>2017-03-14T14:01:56Z</time>
      </trkpt>
      <trkpt lat="49.3701" lon="1.22589">
        <ele>153</ele>
        <time>2017-03-14T14:01:56Z</time>
      </trkpt>
      <trkpt lat="49.37013" lon="1.22583">
        <ele>153</ele>
        <time>2017-03-14T14:01:56Z</time>
      </trkpt>
      <trkpt lat="49.37015" lon="1.22575">
        <ele>153</ele>
        <time>2017-03-14T14:02:12Z</time>
      </trkpt>
      <trkpt lat="49.37012" lon="1.22568">
        <ele>153</ele>
        <time>2017-03-14T14:02:12Z</time>
      </trkpt>
      <trkpt lat="49.37007" lon="1.22564">
        <ele>153</ele>
        <time>2017-03-14T14:02:12Z</time>
      </trkpt>
      <trkpt lat="49.37002" lon="1.22559">
        <ele>153</ele>
        <time>2017-03-14T14:02:12Z</time>
      </trkpt>
      <trkpt lat="49.36998" lon="1.22554">
        <ele>153</ele>
        <time>2017-03-14T14:02:28Z</time>
      </trkpt>
      <trkpt lat="49.36995" lon="1.22548">
        <ele>153</ele>
        <time>2017-03-14T14:02:28Z</time>
      </trkpt>
      <trkpt lat="49.36992" lon="1.22542">
        <ele>153</ele>
        <time>2017-03-14T14:02:28Z</time>
      </trkpt>
      <trkpt lat="49.36989" lon="1.22538">
        <ele>154</ele>
        <time>2017-03-14T14:02:28Z</time>
      </trkpt>
      <trkpt lat="49.36986" lon="1.22531">
        <ele>154</ele>
        <time>2017-03-14T14:02:44Z</time>
      </trkpt>
      <trkpt lat="49.36982" lon="1.22525">
        <ele>154</ele>
        <time>2017-03-14T14:02:44Z</time>
      </trkpt>
      <trkpt lat="49.36977" lon="1.22519">
        <ele>154</ele>
        <time>2017-03-14T14:02:44Z</time>
      </trkpt>
      <trkpt lat="49.36975" lon="1.22515">
        <ele>154</ele>
        <time>2017-03-14T14:02:44Z</time>
      </trkpt>
      <trkpt lat="49.3697" lon="1.22511">
        <ele>154</ele>
        <time>2017-03-14T14:03:00Z</time>
      </trkpt>
      <trkpt lat="49.36967" lon="1.22505">
        <ele>154</ele>
        <time>2017-03-14T14:03:00Z</time>
      </trkpt>
      <trkpt lat="49.36962" lon="1.22499">
        <ele>154</ele>
        <time>2017-03-14T14:03:00Z</time>
      </trkpt>
      <trkpt lat="49.36959" lon="1.22494">
        <ele>154</ele>
        <time>2017-03-14T14:03:00Z</time>
      </trkpt>
      <trkpt lat="49.36955" lon="1.22489">
        <ele>151</ele>
        <time>2017-03-14T14:03:16Z</time>
      </trkpt>
      <trkpt lat="49.36951" lon="1.22484">
        <ele>151</ele>
        <time>2017-03-14T14:03:16Z</time>
      </trkpt>
      <trkpt lat="49.36947" lon="1.22479">
        <ele>151</ele>
        <time>2017-03-14T14:03:16Z</time>
      </trkpt>
      <trkpt lat="49.36944" lon="1.22474">
        <ele>151</ele>
        <time>2017-03-14T14:03:16Z</time>
      </trkpt>
      <trkpt lat="49.36941" lon="1.22468">
        <ele>151</ele>
        <time>2017-03-14T14:03:32Z</time>
      </trkpt>
      <trkpt lat="49.36939" lon="1.22464">
        <ele>151</ele>
        <time>2017-03-14T14:03:32Z</time>
      </trkpt>
      <trkpt lat="49.36936" lon="1.22458">
        <ele>152</ele>
        <time>2017-03-14T14:03:32Z</time>
      </trkpt>
      <trkpt lat="49.36932" lon="1.22452">
        <ele>152</ele>
        <time>2017-03-14T14:03:32Z</time>
      </trkpt>
      <trkpt lat="49.36929" lon="1.22447">
        <ele>152</ele>
        <time>2017-03-14T14:03:48Z</time>
      </trkpt>
      <trkpt lat="49.36926" lon="1.22441">
        <ele>152</ele>
        <time>2017-03-14T14:03:48Z</time>
      </trkpt>
      <trkpt lat="49.36922" lon="1.22433">
        <ele>152</ele>
        <time>2017-03-14T14:03:48Z</time>
      </trkpt>
      <trkpt lat="49.36919" lon="1.22427">
        <ele>152</ele>
        <time>2017-03-14T14:03:48Z</time>
      </trkpt>
      <trkpt lat="49.36917" lon="1.22422">
        <ele>152</ele>
        <time>2017-03-14T14:04:04Z</time>
      </trkpt>
      <trkpt lat="49.36913" lon="1.22414">
        <ele>152</ele>
        <time>2017-03-14T14:04:04Z</time>
      </trkpt>
      <trkpt lat="49.3691" lon="1.22409">
        <ele>152</ele>
        <time>2017-03-14T14:04:04Z</time>
      </trkpt>
      <trkpt lat="49.36906" lon="1.22401">
        <ele>152</ele>
        <time>2017-03-14T14:04:04Z</time>
      </trkpt>
      <trkpt lat="49.36902" lon="1.22393">
        <ele>152</ele>
        <time>2017-03-14T14:04:20Z</time>
      </trkpt>
      <trkpt lat="49.369" lon="1.22386">
        <ele>152</ele>
        <time>2017-03-14T14:04:20Z</time>
      </trkpt>
      <trkpt lat="49.36897" lon="1.2238">
        <ele>152</ele>
        <time>2017-03-14T14:04:20Z</time>
      </trkpt>
      <trkpt lat="49.36894" lon="1.22374">
        <ele>153</ele>
        <time>2017-03-14T14:04:20Z</time>
      </trkpt>
      <trkpt lat="49.3689" lon="1.22367">
        <ele>153</ele>
        <time>2017-03-14T14:04:36Z</time>
      </trkpt>
      <trkpt lat="49.36888" lon="1.22364">
        <ele>153</ele>
        <time>2017-03-14T14:04:36Z</time>
      </trkpt>
      <trkpt lat="49.36886" lon="1.22359">
        <ele>153</ele>
        <time>2017-03-14T14:04:36Z</time>
      </trkpt>
      <trkpt lat="49.36884" lon="1.22352">
        <ele>153</ele>
        <time>2017-03-14T14:04:36Z</time>
      </trkpt>
      <trkpt lat="49.36881" lon="1.22345">
        <ele>153</ele>
        <time>2017-03-14T14:04:51Z</time>
      </trkpt>
      <trkpt lat="49.36878" lon="1.22342">
        <ele>153</ele>
        <time>2017-03-14T14:04:51Z</time>
      </trkpt>
      <trkpt lat="49.36875" lon="1.22338">
        <ele>153</ele>
        <time>2017-03-14T14:04:51Z</time>
      </trkpt>
      <trkpt lat="49.36872" lon="1.22332">
        <ele>152</ele>
        <time>2017-03-14T14:04:51Z</time>
      </trkpt>
      <trkpt lat="49.36869" lon="1.22324">
        <ele>152</ele>
        <time>2017-03-14T14:05:08Z</time>
      </trkpt>
      <trkpt lat="49.36867" lon="1.22317">
        <ele>152</ele>
        <time>2017-03-14T14:05:08Z</time>
      </trkpt>
      <trkpt lat="49.36864" lon="1.22311">
        <ele>152</ele>
        <time>2017-03-14T14:05:08Z</time>
      </trkpt>
      <trkpt lat="49.3686" lon="1.22302">
        <ele>152</ele>
        <time>2017-03-14T14:05:08Z</time>
      </trkpt>
      <trkpt lat="49.36857" lon="1.22295">
        <ele>152</ele>
        <time>2017-03-14T14:05:24Z</time>
      </trkpt>
      <trkpt lat="49.36854" lon="1.22286">
        <ele>152</ele>
        <time>2017-03-14T14:05:24Z</time>
      </trkpt>
      <trkpt lat="49.36851" lon="1.22278">
        <ele>152</ele>
        <time>2017-03-14T14:05:24Z</time>
      </trkpt>
      <trkpt lat="49.36848" lon="1.22269">
        <ele>152</ele>
        <time>2017-03-14T14:05:24Z</time>
      </trkpt>
      <trkpt lat="49.36846" lon="1.22263">
        <ele>152</ele>
        <time>2017-03-14T14:05:40Z</time>
      </trkpt>
      <trkpt lat="49.36843" lon="1.22256">
        <ele>152</ele>
        <time>2017-03-14T14:05:40Z</time>
      </trkpt>
      <trkpt lat="49.36841" lon="1.22251">
        <ele>152</ele>
        <time>2017-03-14T14:05:40Z</time>
      </trkpt>
      <trkpt lat="49.36839" lon="1.22246">
        <ele>152</ele>
        <time>2017-03-14T14:05:40Z</time>
      </trkpt>
      <trkpt lat="49.36837" lon="1.22241">
        <ele>152</ele>
        <time>2017-03-14T14:05:56Z</time>
      </trkpt>
      <trkpt lat="49.36836" lon="1.22235">
        <ele>152</ele>
        <time>2017-03-14T14:05:56Z</time>
      </trkpt>
      <trkpt lat="49.36833" lon="1.22226">
        <ele>152</ele>
        <time>2017-03-14T14:05:56Z</time>
      </trkpt>
      <trkpt lat="49.36831" lon="1.22217">
        <ele>152</ele>
        <time>2017-03-14T14:05:56Z</time>
      </trkpt>
      <trkpt lat="49.36828" lon="1.22208">
        <ele>152</ele>
        <time>2017-03-14T14:06:12Z</time>
      </trkpt>
      <trkpt lat="49.36826" lon="1.22201">
        <ele>152</ele>
        <time>2017-03-14T14:06:12Z</time>
      </trkpt>
      <trkpt lat="49.36825" lon="1.22194">
        <ele>152</ele>
        <time>2017-03-14T14:06:12Z</time>
      </trkpt>
      <trkpt lat="49.36822" lon="1.22186">
        <ele>152</ele>
        <time>2017-03-14T14:06:12Z</time>
      </trkpt>
      <trkpt lat="49.36821" lon="1.22179">
        <ele>152</ele>
        <time>2017-03-14T14:06:28Z</time>
      </trkpt>
      <trkpt lat="49.36819" lon="1.22172">
        <ele>152</ele>
        <time>2017-03-14T14:06:28Z</time>
      </trkpt>
      <trkpt lat="49.36817" lon="1.22167">
        <ele>152</ele>
        <time>2017-03-14T14:06:28Z</time>
      </trkpt>
      <trkpt lat="49.36815" lon="1.22161">
        <ele>152</ele>
        <time>2017-03-14T14:06:28Z</time>
      </trkpt>
      <trkpt lat="49.36813" lon="1.22156">
        <ele>152</ele>
        <time>2017-03-14T14:06:44Z</time>
      </trkpt>
      <trkpt lat="49.36811" lon="1.22148">
        <ele>152</ele>
        <time>2017-03-14T14:06:44Z</time>
      </trkpt>
      <trkpt lat="49.36808" lon="1.2214">
        <ele>152</ele>
        <time>2017-03-14T14:06:44Z</time>
      </trkpt>
      <trkpt lat="49.36805" lon="1.22133">
        <ele>152</ele>
        <time>2017-03-14T14:06:44Z</time>
      </trkpt>
      <trkpt lat="49.36803" lon="1.22126">
        <ele>152</ele>
        <time>2017-03-14T14:06:59Z</time>
      </trkpt>
      <trkpt lat="49.368" lon="1.22119">
        <ele>151</ele>
        <time>2017-03-14T14:06:59Z</time>
      </trkpt>
      <trkpt lat="49.36798" lon="1.22111">
        <ele>151</ele>
        <time>2017-03-14T14:06:59Z</time>
      </trkpt>
      <trkpt lat="49.36795" lon="1.22103">
        <ele>151</ele>
        <time>2017-03-14T14:06:59Z</time>
      </trkpt>
      <trkpt lat="49.3679" lon="1.22093">
        <ele>152</ele>
        <time>2017-03-14T14:07:16Z</time>
      </trkpt>
      <trkpt lat="49.36788" lon="1.22086">
        <ele>152</ele>
        <time>2017-03-14T14:07:16Z</time>
      </trkpt>
      <trkpt lat="49.36786" lon="1.22082">
        <ele>152</ele>
        <time>2017-03-14T14:07:16Z</time>
      </trkpt>
      <trkpt lat="49.36785" lon="1.22076">
        <ele>152</ele>
        <time>2017-03-14T14:07:16Z</time>
      </trkpt>
      <trkpt lat="49.36784" lon="1.2207">
        <ele>152</ele>
        <time>2017-03-14T14:07:31Z</time>
      </trkpt>
      <trkpt lat="49.3678" lon="1.2206">
        <ele>152</ele>
        <time>2017-03-14T14:07:31Z</time>
      </trkpt>
      <trkpt lat="49.36779" lon="1.22054">
        <ele>152</ele>
        <time>2017-03-14T14:07:31Z</time>
      </trkpt>
      <trkpt lat="49.36777" lon="1.22048">
        <ele>152</ele>
        <time>2017-03-14T14:07:31Z</time>
      </trkpt>
      <trkpt lat="49.36774" lon="1.22039">
        <ele>151</ele>
        <time>2017-03-14T14:07:48Z</time>
      </trkpt>
      <trkpt lat="49.36773" lon="1.22037">
        <ele>151</ele>
        <time>2017-03-14T14:07:48Z</time>
      </trkpt>
      <trkpt lat="49.36771" lon="1.22032">
        <ele>151</ele>
        <time>2017-03-14T14:07:48Z</time>
      </trkpt>
      <trkpt lat="49.36768" lon="1.22027">
        <ele>151</ele>
        <time>2017-03-14T14:07:48Z</time>
      </trkpt>
      <trkpt lat="49.36765" lon="1.2202">
        <ele>151</ele>
        <time>2017-03-14T14:08:03Z</time>
      </trkpt>
      <trkpt lat="49.36762" lon="1.22015">
        <ele>151</ele>
        <time>2017-03-14T14:08:03Z</time>
      </trkpt>
      <trkpt lat="49.36758" lon="1.22006">
        <ele>151</ele>
        <time>2017-03-14T14:08:03Z</time>
      </trkpt>
      <trkpt lat="49.36754" lon="1.21998">
        <ele>151</ele>
        <time>2017-03-14T14:08:03Z</time>
      </trkpt>
      <trkpt lat="49.36751" lon="1.2199">
        <ele>151</ele>
        <time>2017-03-14T14:08:20Z</time>
      </trkpt>
      <trkpt lat="49.36748" lon="1.21984">
        <ele>151</ele>
        <time>2017-03-14T14:08:20Z</time>
      </trkpt>
      <trkpt lat="49.36745" lon="1.2198">
        <ele>151</ele>
        <time>2017-03-14T14:08:20Z</time>
      </trkpt>
      <trkpt lat="49.3674" lon="1.21973">
        <ele>151</ele>
        <time>2017-03-14T14:08:20Z</time>
      </trkpt>
      <trkpt lat="49.36737" lon="1.21969">
        <ele>151</ele>
        <time>2017-03-14T14:08:36Z</time>
      </trkpt>
      <trkpt lat="49.36734" lon="1.21965">
        <ele>151</ele>
        <time>2017-03-14T14:08:36Z</time>
      </trkpt>
      <trkpt lat="49.36731" lon="1.21961">
        <ele>151</ele>
        <time>2017-03-14T14:08:36Z</time>
      </trkpt>
      <trkpt lat="49.36726" lon="1.21957">
        <ele>150</ele>
        <time>2017-03-14T14:08:36Z</time>
      </trkpt>
      <trkpt lat="49.36721" lon="1.21952">
        <ele>150</ele>
        <time>2017-03-14T14:08:52Z</time>
      </trkpt>
      <trkpt lat="49.36717" lon="1.21948">
        <ele>150</ele>
        <time>2017-03-14T14:08:52Z</time>
      </trkpt>
      <trkpt lat="49.36712" lon="1.21945">
        <ele>150</ele>
        <time>2017-03-14T14:08:52Z</time>
      </trkpt>
      <trkpt lat="49.36709" lon="1.2194">
        <ele>150</ele>
        <time>2017-03-14T14:08:52Z</time>
      </trkpt>
      <trkpt lat="49.36705" lon="1.21937">
        <ele>150</ele>
        <time>2017-03-14T14:09:07Z</time>
      </trkpt>
      <trkpt lat="49.367" lon="1.21932">
        <ele>150</ele>
        <time>2017-03-14T14:09:07Z</time>
      </trkpt>
      <trkpt lat="49.36695" lon="1.21926">
        <ele>150</ele>
        <time>2017-03-14T14:09:07Z</time>
      </trkpt>
      <trkpt lat="49.36692" lon="1.21922">
        <ele>150</ele>
        <time>2017-03-14T14:09:07Z</time>
      </trkpt>
      <trkpt lat="49.36685" lon="1.21915">
        <ele>150</ele>
        <time>2017-03-14T14:09:24Z</time>
      </trkpt>
      <trkpt lat="49.36682" lon="1.21911">
        <ele>150</ele>
        <time>2017-03-14T14:09:24Z</time>
      </trkpt>
      <trkpt lat="49.36678" lon="1.21907">
        <ele>150</ele>
        <time>2017-03-14T14:09:24Z</time>
      </trkpt>
      <trkpt lat="49.36674" lon="1.21901">
        <ele>150</ele>
        <time>2017-03-14T14:09:24Z</time>
      </trkpt>
      <trkpt lat="49.3667" lon="1.21898">
        <ele>150</ele>
        <time>2017-03-14T14:09:40Z</time>
      </trkpt>
      <trkpt lat="49.36666" lon="1.21893">
        <ele>150</ele>
        <time>2017-03-14T14:09:40Z</time>
      </trkpt>
      <trkpt lat="49.36663" lon="1.21889">
        <ele>150</ele>
        <time>2017-03-14T14:09:40Z</time>
      </trkpt>
      <trkpt lat="49.36659" lon="1.21883">
        <ele>150</ele>
        <time>2017-03-14T14:09:40Z</time>
      </trkpt>
      <trkpt lat="49.36655" lon="1.21876">
        <ele>150</ele>
        <time>2017-03-14T14:09:56Z</time>
      </trkpt>
      <trkpt lat="49.3665" lon="1.2187">
        <ele>150</ele>
        <time>2017-03-14T14:09:56Z</time>
      </trkpt>
      <trkpt lat="49.36646" lon="1.21865">
        <ele>150</ele>
        <time>2017-03-14T14:09:56Z</time>
      </trkpt>
      <trkpt lat="49.36642" lon="1.21861">
        <ele>150</ele>
        <time>2017-03-14T14:09:56Z</time>
      </trkpt>
      <trkpt lat="49.36638" lon="1.21857">
        <ele>150</ele>
        <time>2017-03-14T14:10:12Z</time>
      </trkpt>
      <trkpt lat="49.36635" lon="1.21852">
        <ele>150</ele>
        <time>2017-03-14T14:10:12Z</time>
      </trkpt>
      <trkpt lat="49.36631" lon="1.21847">
        <ele>150</ele>
        <time>2017-03-14T14:10:12Z</time>
      </trkpt>
      <trkpt lat="49.36628" lon="1.21843">
        <ele>150</ele>
        <time>2017-03-14T14:10:12Z</time>
      </trkpt>
      <trkpt lat="49.36624" lon="1.21837">
        <ele>151</ele>
        <time>2017-03-14T14:10:27Z</time>
      </trkpt>
      <trkpt lat="49.36619" lon="1.21832">
        <ele>151</ele>
        <time>2017-03-14T14:10:28Z</time>
      </trkpt>
      <trkpt lat="49.36615" lon="1.21826">
        <ele>151</ele>
        <time>2017-03-14T14:10:28Z</time>
      </trkpt>
      <trkpt lat="49.36612" lon="1.21821">
        <ele>151</ele>
        <time>2017-03-14T14:10:28Z</time>
      </trkpt>
      <trkpt lat="49.36608" lon="1.21815">
        <ele>151</ele>
        <time>2017-03-14T14:10:44Z</time>
      </trkpt>
      <trkpt lat="49.36604" lon="1.21812">
        <ele>151</ele>
        <time>2017-03-14T14:10:44Z</time>
      </trkpt>
      <trkpt lat="49.36599" lon="1.21808">
        <ele>151</ele>
        <time>2017-03-14T14:10:44Z</time>
      </trkpt>
      <trkpt lat="49.36596" lon="1.21803">
        <ele>151</ele>
        <time>2017-03-14T14:10:44Z</time>
      </trkpt>
      <trkpt lat="49.36591" lon="1.21799">
        <ele>151</ele>
        <time>2017-03-14T14:11:00Z</time>
      </trkpt>
      <trkpt lat="49.36587" lon="1.21793">
        <ele>151</ele>
        <time>2017-03-14T14:11:00Z</time>
      </trkpt>
      <trkpt lat="49.36584" lon="1.2179">
        <ele>150</ele>
        <time>2017-03-14T14:11:00Z</time>
      </trkpt>
      <trkpt lat="49.36579" lon="1.21786">
        <ele>150</ele>
        <time>2017-03-14T14:11:00Z</time>
      </trkpt>
      <trkpt lat="49.36574" lon="1.21783">
        <ele>150</ele>
        <time>2017-03-14T14:11:16Z</time>
      </trkpt>
      <trkpt lat="49.36568" lon="1.21779">
        <ele>150</ele>
        <time>2017-03-14T14:11:16Z</time>
      </trkpt>
      <trkpt lat="49.36564" lon="1.21776">
        <ele>150</ele>
        <time>2017-03-14T14:11:16Z</time>
      </trkpt>
      <trkpt lat="49.36558" lon="1.21771">
        <ele>150</ele>
        <time>2017-03-14T14:11:16Z</time>
      </trkpt>
      <trkpt lat="49.36554" lon="1.21767">
        <ele>150</ele>
        <time>2017-03-14T14:11:32Z</time>
      </trkpt>
      <trkpt lat="49.3655" lon="1.21764">
        <ele>150</ele>
        <time>2017-03-14T14:11:32Z</time>
      </trkpt>
      <trkpt lat="49.36546" lon="1.21761">
        <ele>150</ele>
        <time>2017-03-14T14:11:32Z</time>
      </trkpt>
      <trkpt lat="49.36541" lon="1.21758">
        <ele>149</ele>
        <time>2017-03-14T14:11:32Z</time>
      </trkpt>
      <trkpt lat="49.36538" lon="1.21755">
        <ele>149</ele>
        <time>2017-03-14T14:11:48Z</time>
      </trkpt>
      <trkpt lat="49.36533" lon="1.21751">
        <ele>149</ele>
        <time>2017-03-14T14:11:48Z</time>
      </trkpt>
      <trkpt lat="49.36528" lon="1.21748">
        <ele>149</ele>
        <time>2017-03-14T14:11:48Z</time>
      </trkpt>
      <trkpt lat="49.36524" lon="1.21746">
        <ele>149</ele>
        <time>2017-03-14T14:11:48Z</time>
      </trkpt>
      <trkpt lat="49.36519" lon="1.21744">
        <ele>149</ele>
        <time>2017-03-14T14:12:03Z</time>
      </trkpt>
      <trkpt lat="49.36514" lon="1.21742">
        <ele>149</ele>
        <time>2017-03-14T14:12:03Z</time>
      </trkpt>
      <trkpt lat="49.36509" lon="1.2174">
        <ele>149</ele>
        <time>2017-03-14T14:12:03Z</time>
      </trkpt>
      <trkpt lat="49.36505" lon="1.21737">
        <ele>149</ele>
        <time>2017-03-14T14:12:03Z</time>
      </trkpt>
      <trkpt lat="49.36502" lon="1.21733">
        <ele>149</ele>
        <time>2017-03-14T14:12:20Z</time>
      </trkpt>
      <trkpt lat="49.36499" lon="1.21732">
        <ele>149</ele>
        <time>2017-03-14T14:12:20Z</time>
      </trkpt>
      <trkpt lat="49.36497" lon="1.21731">
        <ele>149</ele>
        <time>2017-03-14T14:12:20Z</time>
      </trkpt>
      <trkpt lat="49.3649" lon="1.21728">
        <ele>149</ele>
        <time>2017-03-14T14:12:20Z</time>
      </trkpt>
      <trkpt lat="49.36485" lon="1.21724">
        <ele>149</ele>
        <time>2017-03-14T14:12:36Z</time>
      </trkpt>
      <trkpt lat="49.3648" lon="1.21721">
        <ele>149</ele>
        <time>2017-03-14T14:12:36Z</time>
      </trkpt>
      <trkpt lat="49.36474" lon="1.21719">
        <ele>149</ele>
        <time>2017-03-14T14:12:36Z</time>
      </trkpt>
      <trkpt lat="49.36469" lon="1.21716">
        <ele>149</ele>
        <time>2017-03-14T14:12:36Z</time>
      </trkpt>
      <trkpt lat="49.36464" lon="1.21714">
        <ele>149</ele>
        <time>2017-03-14T14:12:52Z</time>
      </trkpt>
      <trkpt lat="49.36459" lon="1.21711">
        <ele>149</ele>
        <time>2017-03-14T14:12:52Z</time>
      </trkpt>
      <trkpt lat="49.36453" lon="1.21708">
        <ele>149</ele>
        <time>2017-03-14T14:12:52Z</time>
      </trkpt>
      <trkpt lat="49.36448" lon="1.21703">
        <ele>149</ele>
        <time>2017-03-14T14:12:52Z</time>
      </trkpt>
      <trkpt lat="49.36443" lon="1.21698">
        <ele>149</ele>
        <time>2017-03-14T14:13:07Z</time>
      </trkpt>
      <trkpt lat="49.3644" lon="1.21696">
        <ele>149</ele>
        <time>2017-03-14T14:13:07Z</time>
      </trkpt>
      <trkpt lat="49.36436" lon="1.21693">
        <ele>149</ele>
        <time>2017-03-14T14:13:07Z</time>
      </trkpt>
      <trkpt lat="49.36432" lon="1.21691">
        <ele>149</ele>
        <time>2017-03-14T14:13:07Z</time>
      </trkpt>
      <trkpt lat="49.36425" lon="1.21688">
        <ele>149</ele>
        <time>2017-03-14T14:13:24Z</time>
      </trkpt>
      <trkpt lat="49.36421" lon="1.21685">
        <ele>149</ele>
        <time>2017-03-14T14:13:24Z</time>
      </trkpt>
      <trkpt lat="49.36417" lon="1.21681">
        <ele>149</ele>
        <time>2017-03-14T14:13:24Z</time>
      </trkpt>
      <trkpt lat="49.36413" lon="1.21677">
        <ele>149</ele>
        <time>2017-03-14T14:13:24Z</time>
      </trkpt>
      <trkpt lat="49.36408" lon="1.21673">
        <ele>149</ele>
        <time>2017-03-14T14:13:40Z</time>
      </trkpt>
      <trkpt lat="49.36405" lon="1.21669">
        <ele>149</ele>
        <time>2017-03-14T14:13:40Z</time>
      </trkpt>
      <trkpt lat="49.36399" lon="1.21664">
        <ele>149</ele>
        <time>2017-03-14T14:13:40Z</time>
      </trkpt>
      <trkpt lat="49.36393" lon="1.21656">
        <ele>149</ele>
        <time>2017-03-14T14:13:40Z</time>
      </trkpt>
      <trkpt lat="49.36389" lon="1.2165">
        <ele>149</ele>
        <time>2017-03-14T14:13:55Z</time>
      </trkpt>
      <trkpt lat="49.36385" lon="1.21645">
        <ele>149</ele>
        <time>2017-03-14T14:13:55Z</time>
      </trkpt>
      <trkpt lat="49.36381" lon="1.21641">
        <ele>149</ele>
        <time>2017-03-14T14:13:55Z</time>
      </trkpt>
      <trkpt lat="49.36378" lon="1.21638">
        <ele>149</ele>
        <time>2017-03-14T14:13:55Z</time>
      </trkpt>
      <trkpt lat="49.36373" lon="1.21633">
        <ele>147</ele>
        <time>2017-03-14T14:14:12Z</time>
      </trkpt>
      <trkpt lat="49.36368" lon="1.21629">
        <ele>147</ele>
        <time>2017-03-14T14:14:12Z</time>
      </trkpt>
      <trkpt lat="49.36363" lon="1.21624">
        <ele>147</ele>
        <time>2017-03-14T14:14:12Z</time>
      </trkpt>
      <trkpt lat="49.36358" lon="1.2162">
        <ele>147</ele>
        <time>2017-03-14T14:14:12Z</time>
      </trkpt>
      <trkpt lat="49.36352" lon="1.21616">
        <ele>147</ele>
        <time>2017-03-14T14:14:28Z</time>
      </trkpt>
      <trkpt lat="49.36348" lon="1.21613">
        <ele>147</ele>
        <time>2017-03-14T14:14:28Z</time>
      </trkpt>
      <trkpt lat="49.36345" lon="1.21611">
        <ele>147</ele>
        <time>2017-03-14T14:14:28Z</time>
      </trkpt>
      <trkpt lat="49.36342" lon="1.21608">
        <ele>147</ele>
        <time>2017-03-14T14:14:28Z</time>
      </trkpt>
      <trkpt lat="49.36338" lon="1.21605">
        <ele>147</ele>
        <time>2017-03-14T14:14:44Z</time>
      </trkpt>
      <trkpt lat="49.36332" lon="1.21601">
        <ele>147</ele>
        <time>2017-03-14T14:14:44Z</time>
      </trkpt>
      <trkpt lat="49.36327" lon="1.21597">
        <ele>147</ele>
        <time>2017-03-14T14:14:44Z</time>
      </trkpt>
      <trkpt lat="49.36321" lon="1.21594">
        <ele>147</ele>
        <time>2017-03-14T14:14:44Z</time>
      </trkpt>
      <trkpt lat="49.36317" lon="1.21589">
        <ele>147</ele>
        <time>2017-03-14T14:15:00Z</time>
      </trkpt>
      <trkpt lat="49.36312" lon="1.21583">
        <ele>147</ele>
        <time>2017-03-14T14:15:00Z</time>
      </trkpt>
      <trkpt lat="49.36307" lon="1.21579">
        <ele>147</ele>
        <time>2017-03-14T14:15:00Z</time>
      </trkpt>
      <trkpt lat="49.36304" lon="1.21576">
        <ele>147</ele>
        <time>2017-03-14T14:15:00Z</time>
      </trkpt>
      <trkpt lat="49.36298" lon="1.21574">
        <ele>147</ele>
        <time>2017-03-14T14:15:15Z</time>
      </trkpt>
      <trkpt lat="49.36294" lon="1.21572">
        <ele>147</ele>
        <time>2017-03-14T14:15:15Z</time>
      </trkpt>
      <trkpt lat="49.3629" lon="1.21569">
        <ele>147</ele>
        <time>2017-03-14T14:15:15Z</time>
      </trkpt>
      <trkpt lat="49.36285" lon="1.21565">
        <ele>147</ele>
        <time>2017-03-14T14:15:15Z</time>
      </trkpt>
      <trkpt lat="49.3628" lon="1.21563">
        <ele>147</ele>
        <time>2017-03-14T14:15:31Z</time>
      </trkpt>
      <trkpt lat="49.36275" lon="1.21559">
        <ele>147</ele>
        <time>2017-03-14T14:15:31Z</time>
      </trkpt>
      <trkpt lat="49.3627" lon="1.21555">
        <ele>147</ele>
        <time>2017-03-14T14:15:31Z</time>
      </trkpt>
      <trkpt lat="49.36265" lon="1.21553">
        <ele>147</ele>
        <time>2017-03-14T14:15:31Z</time>
      </trkpt>
      <trkpt lat="49.36259" lon="1.2155">
        <ele>147</ele>
        <time>2017-03-14T14:15:47Z</time>
      </trkpt>
      <trkpt lat="49.36254" lon="1.21549">
        <ele>147</ele>
        <time>2017-03-14T14:15:47Z</time>
      </trkpt>
      <trkpt lat="49.36248" lon="1.21546">
        <ele>147</ele>
        <time>2017-03-14T14:15:47Z</time>
      </trkpt>
      <trkpt lat="49.36242" lon="1.2154">
        <ele>148</ele>
        <time>2017-03-14T14:15:47Z</time>
      </trkpt>
      <trkpt lat="49.36236" lon="1.21534">
        <ele>148</ele>
        <time>2017-03-14T14:16:03Z</time>
      </trkpt>
      <trkpt lat="49.36233" lon="1.21531">
        <ele>148</ele>
        <time>2017-03-14T14:16:03Z</time>
      </trkpt>
      <trkpt lat="49.3623" lon="1.21531">
        <ele>148</ele>
        <time>2017-03-14T14:16:03Z</time>
      </trkpt>
      <trkpt lat="49.36227" lon="1.2153">
        <ele>148</ele>
        <time>2017-03-14T14:16:03Z</time>
      </trkpt>
      <trkpt lat="49.36222" lon="1.21527">
        <ele>148</ele>
        <time>2017-03-14T14:16:20Z</time>
      </trkpt>
      <trkpt lat="49.36216" lon="1.21525">
        <ele>148</ele>
        <time>2017-03-14T14:16:20Z</time>
      </trkpt>
      <trkpt lat="49.36211" lon="1.2152">
        <ele>148</ele>
        <time>2017-03-14T14:16:20Z</time>
      </trkpt>
      <trkpt lat="49.36206" lon="1.21517">
        <ele>145</ele>
        <time>2017-03-14T14:16:20Z</time>
      </trkpt>
      <trkpt lat="49.36202" lon="1.21514">
        <ele>145</ele>
        <time>2017-03-14T14:16:36Z</time>
      </trkpt>
      <trkpt lat="49.36197" lon="1.21511">
        <ele>145</ele>
        <time>2017-03-14T14:16:36Z</time>
      </trkpt>
      <trkpt lat="49.36192" lon="1.2151">
        <ele>145</ele>
        <time>2017-03-14T14:16:36Z</time>
      </trkpt>
      <trkpt lat="49.36186" lon="1.21508">
        <ele>145</ele>
        <time>2017-03-14T14:16:36Z</time>
      </trkpt>
      <trkpt lat="49.36183" lon="1.21505">
        <ele>145</ele>
        <time>2017-03-14T14:16:51Z</time>
      </trkpt>
      <trkpt lat="49.36179" lon="1.21501">
        <ele>145</ele>
        <time>2017-03-14T14:16:51Z</time>
      </trkpt>
      <trkpt lat="49.36174" lon="1.21497">
        <ele>145</ele>
        <time>2017-03-14T14:16:51Z</time>
      </trkpt>
      <trkpt lat="49.3617" lon="1.21494">
        <ele>145</ele>
        <time>2017-03-14T14:16:51Z</time>
      </trkpt>
      <trkpt lat="49.36162" lon="1.21489">
        <ele>145</ele>
        <time>2017-03-14T14:17:07Z</time>
      </trkpt>
      <trkpt lat="49.36158" lon="1.21486">
        <ele>145</ele>
        <time>2017-03-14T14:17:07Z</time>
      </trkpt>
      <trkpt lat="49.36155" lon="1.21484">
        <ele>145</ele>
        <time>2017-03-14T14:17:07Z</time>
      </trkpt>
      <trkpt lat="49.36152" lon="1.21482">
        <ele>145</ele>
        <time>2017-03-14T14:17:07Z</time>
      </trkpt>
      <trkpt lat="49.36145" lon="1.21476">
        <ele>145</ele>
        <time>2017-03-14T14:17:24Z</time>
      </trkpt>
      <trkpt lat="49.36139" lon="1.21469">
        <ele>145</ele>
        <time>2017-03-14T14:17:24Z</time>
      </trkpt>
      <trkpt lat="49.36135" lon="1.21465">
        <ele>145</ele>
        <time>2017-03-14T14:17:24Z</time>
      </trkpt>
      <trkpt lat="49.36131" lon="1.21461">
        <ele>145</ele>
        <time>2017-03-14T14:17:24Z</time>
      </trkpt>
      <trkpt lat="49.36126" lon="1.2146">
        <ele>145</ele>
        <time>2017-03-14T14:17:39Z</time>
      </trkpt>
      <trkpt lat="49.36121" lon="1.21457">
        <ele>144</ele>
        <time>2017-03-14T14:17:39Z</time>
      </trkpt>
      <trkpt lat="49.36115" lon="1.21454">
        <ele>144</ele>
        <time>2017-03-14T14:17:39Z</time>
      </trkpt>
      <trkpt lat="49.36111" lon="1.21452">
        <ele>144</ele>
        <time>2017-03-14T14:17:39Z</time>
      </trkpt>
      <trkpt lat="49.36104" lon="1.2145">
        <ele>144</ele>
        <time>2017-03-14T14:17:56Z</time>
      </trkpt>
      <trkpt lat="49.36099" lon="1.21449">
        <ele>144</ele>
        <time>2017-03-14T14:17:56Z</time>
      </trkpt>
      <trkpt lat="49.36094" lon="1.2145">
        <ele>144</ele>
        <time>2017-03-14T14:17:56Z</time>
      </trkpt>
      <trkpt lat="49.36091" lon="1.21453">
        <ele>144</ele>
        <time>2017-03-14T14:17:56Z</time>
      </trkpt>
      <trkpt lat="49.36087" lon="1.21454">
        <ele>144</ele>
        <time>2017-03-14T14:18:12Z</time>
      </trkpt>
      <trkpt lat="49.36082" lon="1.21453">
        <ele>144</ele>
        <time>2017-03-14T14:18:12Z</time>
      </trkpt>
      <trkpt lat="49.36076" lon="1.21453">
        <ele>144</ele>
        <time>2017-03-14T14:18:12Z</time>
      </trkpt>
      <trkpt lat="49.36072" lon="1.21453">
        <ele>144</ele>
        <time>2017-03-14T14:18:12Z</time>
      </trkpt>
      <trkpt lat="49.36066" lon="1.21454">
        <ele>144</ele>
        <time>2017-03-14T14:18:28Z</time>
      </trkpt>
      <trkpt lat="49.36061" lon="1.21457">
        <ele>144</ele>
        <time>2017-03-14T14:18:28Z</time>
      </trkpt>
      <trkpt lat="49.36056" lon="1.21457">
        <ele>144</ele>
        <time>2017-03-14T14:18:28Z</time>
      </trkpt>
      <trkpt lat="49.36051" lon="1.21457">
        <ele>144</ele>
        <time>2017-03-14T14:18:28Z</time>
      </trkpt>
      <trkpt lat="49.36046" lon="1.21458">
        <ele>144</ele>
        <time>2017-03-14T14:18:44Z</time>
      </trkpt>
      <trkpt lat="49.36039" lon="1.21459">
        <ele>144</ele>
        <time>2017-03-14T14:18:44Z</time>
      </trkpt>
      <trkpt lat="49.36034" lon="1.2146">
        <ele>144</ele>
        <time>2017-03-14T14:18:44Z</time>
      </trkpt>
      <trkpt lat="49.36027" lon="1.2146">
        <ele>144</ele>
        <time>2017-03-14T14:18:44Z</time>
      </trkpt>
      <trkpt lat="49.36024" lon="1.21461">
        <ele>144</ele>
        <time>2017-03-14T14:19:00Z</time>
      </trkpt>
      <trkpt lat="49.36018" lon="1.21463">
        <ele>144</ele>
        <time>2017-03-14T14:19:00Z</time>
      </trkpt>
      <trkpt lat="49.36014" lon="1.21465">
        <ele>144</ele>
        <time>2017-03-14T14:19:00Z</time>
      </trkpt>
      <trkpt lat="49.3601" lon="1.21465">
        <ele>144</ele>
        <time>2017-03-14T14:19:00Z</time>
      </trkpt>
      <trkpt lat="49.36003" lon="1.21468">
        <ele>144</ele>
        <time>2017-03-14T14:19:16Z</time>
      </trkpt>
      <trkpt lat="49.35997" lon="1.2147">
        <ele>144</ele>
        <time>2017-03-14T14:19:16Z</time>
      </trkpt>
      <trkpt lat="49.35992" lon="1.21471">
        <ele>144</ele>
        <time>2017-03-14T14:19:16Z</time>
      </trkpt>
      <trkpt lat="49.35985" lon="1.21471">
        <ele>144</ele>
        <time>2017-03-14T14:19:16Z</time>
      </trkpt>
      <trkpt lat="49.3598" lon="1.2147">
        <ele>144</ele>
        <time>2017-03-14T14:19:31Z</time>
      </trkpt>
      <trkpt lat="49.35975" lon="1.21472">
        <ele>144</ele>
        <time>2017-03-14T14:19:31Z</time>
      </trkpt>
      <trkpt lat="49.35969" lon="1.21472">
        <ele>144</ele>
        <time>2017-03-14T14:19:31Z</time>
      </trkpt>
      <trkpt lat="49.35963" lon="1.21473">
        <ele>144</ele>
        <time>2017-03-14T14:19:31Z</time>
      </trkpt>
      <trkpt lat="49.35957" lon="1.21474">
        <ele>145</ele>
        <time>2017-03-14T14:19:48Z</time>
      </trkpt>
      <trkpt lat="49.35952" lon="1.21475">
        <ele>145</ele>
        <time>2017-03-14T14:19:48Z</time>
      </trkpt>
      <trkpt lat="49.35947" lon="1.21477">
        <ele>145</ele>
        <time>2017-03-14T14:19:48Z</time>
      </trkpt>
      <trkpt lat="49.35942" lon="1.21478">
        <ele>145</ele>
        <time>2017-03-14T14:19:48Z</time>
      </trkpt>
      <trkpt lat="49.35939" lon="1.21479">
        <ele>145</ele>
        <time>2017-03-14T14:20:04Z</time>
      </trkpt>
      <trkpt lat="49.35934" lon="1.21477">
        <ele>145</ele>
        <time>2017-03-14T14:20:04Z</time>
      </trkpt>
      <trkpt lat="49.35929" lon="1.21479">
        <ele>145</ele>
        <time>2017-03-14T14:20:04Z</time>
      </trkpt>
      <trkpt lat="49.35923" lon="1.21483">
        <ele>145</ele>
        <time>2017-03-14T14:20:04Z</time>
      </trkpt>
      <trkpt lat="49.35916" lon="1.21482">
        <ele>145</ele>
        <time>2017-03-14T14:20:19Z</time>
      </trkpt>
      <trkpt lat="49.35911" lon="1.21482">
        <ele>145</ele>
        <time>2017-03-14T14:20:19Z</time>
      </trkpt>
      <trkpt lat="49.35907" lon="1.21481">
        <ele>145</ele>
        <time>2017-03-14T14:20:19Z</time>
      </trkpt>
      <trkpt lat="49.35902" lon="1.2148">
        <ele>145</ele>
        <time>2017-03-14T14:20:19Z</time>
      </trkpt>
      <trkpt lat="49.35897" lon="1.2148">
        <ele>145</ele>
        <time>2017-03-14T14:20:35Z</time>
      </trkpt>
      <trkpt lat="49.35893" lon="1.21481">
        <ele>145</ele>
        <time>2017-03-14T14:20:35Z</time>
      </trkpt>
      <trkpt lat="49.35889" lon="1.21481">
        <ele>145</ele>
        <time>2017-03-14T14:20:35Z</time>
      </trkpt>
      <trkpt lat="49.35884" lon="1.21483">
        <ele>145</ele>
        <time>2017-03-14T14:20:35Z</time>
      </trkpt>
      <trkpt lat="49.35877" lon="1.21484">
        <ele>145</ele>
        <time>2017-03-14T14:20:51Z</time>
      </trkpt>
      <trkpt lat="49.35871" lon="1.21486">
        <ele>144</ele>
        <time>2017-03-14T14:20:51Z</time>
      </trkpt>
      <trkpt lat="49.35867" lon="1.21487">
        <ele>144</ele>
        <time>2017-03-14T14:20:51Z</time>
      </trkpt>
      <trkpt lat="49.35861" lon="1.21489">
        <ele>144</ele>
        <time>2017-03-14T14:20:51Z</time>
      </trkpt>
      <trkpt lat="49.35855" lon="1.21492">
        <ele>144</ele>
        <time>2017-03-14T14:21:07Z</time>
      </trkpt>
      <trkpt lat="49.35849" lon="1.21493">
        <ele>144</ele>
        <time>2017-03-14T14:21:07Z</time>
      </trkpt>
      <trkpt lat="49.35844" lon="1.21496">
        <ele>144</ele>
        <time>2017-03-14T14:21:07Z</time>
      </trkpt>
      <trkpt lat="49.35839" lon="1.21502">
        <ele>144</ele>
        <time>2017-03-14T14:21:07Z</time>
      </trkpt>
      <trkpt lat="49.35834" lon="1.21504">
        <ele>144</ele>
        <time>2017-03-14T14:21:24Z</time>
      </trkpt>
      <trkpt lat="49.35829" lon="1.21507">
        <ele>144</ele>
        <time>2017-03-14T14:21:24Z</time>
      </trkpt>
      <trkpt lat="49.35824" lon="1.21508">
        <ele>144</ele>
        <time>2017-03-14T14:21:24Z</time>
      </trkpt>
      <trkpt lat="49.35821" lon="1.21511">
        <ele>144</ele>
        <time>2017-03-14T14:21:24Z</time>
      </trkpt>
      <trkpt lat="49.35817" lon="1.21515">
        <ele>144</ele>
        <time>2017-03-14T14:21:40Z</time>
      </trkpt>
      <trkpt lat="49.35813" lon="1.21519">
        <ele>144</ele>
        <time>2017-03-14T14:21:40Z</time>
      </trkpt>
      <trkpt lat="49.35808" lon="1.21521">
        <ele>144</ele>
        <time>2017-03-14T14:21:40Z</time>
      </trkpt>
      <trkpt lat="49.35803" lon="1.21522">
        <ele>144</ele>
        <time>2017-03-14T14:21:40Z</time>
      </trkpt>
      <trkpt lat="49.35797" lon="1.21523">
        <ele>144</ele>
        <time>2017-03-14T14:21:56Z</time>
      </trkpt>
      <trkpt lat="49.35791" lon="1.21523">
        <ele>143</ele>
        <time>2017-03-14T14:21:56Z</time>
      </trkpt>
      <trkpt lat="49.35788" lon="1.21525">
        <ele>143</ele>
        <time>2017-03-14T14:21:56Z</time>
      </trkpt>
      <trkpt lat="49.35785" lon="1.21526">
        <ele>143</ele>
        <time>2017-03-14T14:21:56Z</time>
      </trkpt>
      <trkpt lat="49.35781" lon="1.21526">
        <ele>143</ele>
        <time>2017-03-14T14:22:12Z</time>
      </trkpt>
      <trkpt lat="49.35775" lon="1.21526">
        <ele>143</ele>
        <time>2017-03-14T14:22:12Z</time>
      </trkpt>
      <trkpt lat="49.35769" lon="1.21529">
        <ele>143</ele>
        <time>2017-03-14T14:22:12Z</time>
      </trkpt>
      <trkpt lat="49.35764" lon="1.21532">
        <ele>143</ele>
        <time>2017-03-14T14:22:12Z</time>
      </trkpt>
      <trkpt lat="49.3576" lon="1.21535">
        <ele>143</ele>
        <time>2017-03-14T14:22:27Z</time>
      </trkpt>
      <trkpt lat="49.35755" lon="1.21537">
        <ele>143</ele>
        <time>2017-03-14T14:22:27Z</time>
      </trkpt>
      <trkpt lat="49.35749" lon="1.21538">
        <ele>143</ele>
        <time>2017-03-14T14:22:27Z</time>
      </trkpt>
      <trkpt lat="49.35743" lon="1.21538">
        <ele>143</ele>
        <time>2017-03-14T14:22:27Z</time>
      </trkpt>
      <trkpt lat="49.3574" lon="1.21538">
        <ele>143</ele>
        <time>2017-03-14T14:22:43Z</time>
      </trkpt>
      <trkpt lat="49.35737" lon="1.21538">
        <ele>143</ele>
        <time>2017-03-14T14:22:43Z</time>
      </trkpt>
      <trkpt lat="49.35728" lon="1.21539">
        <ele>143</ele>
        <time>2017-03-14T14:22:43Z</time>
      </trkpt>
      <trkpt lat="49.35725" lon="1.21543">
        <ele>140</ele>
        <time>2017-03-14T14:22:43Z</time>
      </trkpt>
      <trkpt lat="49.35722" lon="1.21545">
        <ele>140</ele>
        <time>2017-03-14T14:22:59Z</time>
      </trkpt>
      <trkpt lat="49.35717" lon="1.21546">
        <ele>140</ele>
        <time>2017-03-14T14:22:59Z</time>
      </trkpt>
      <trkpt lat="49.35712" lon="1.21549">
        <ele>140</ele>
        <time>2017-03-14T14:22:59Z</time>
      </trkpt>
      <trkpt lat="49.35708" lon="1.21549">
        <ele>140</ele>
        <time>2017-03-14T14:22:59Z</time>
      </trkpt>
      <trkpt lat="49.35704" lon="1.21551">
        <ele>138</ele>
        <time>2017-03-14T14:23:15Z</time>
      </trkpt>
      <trkpt lat="49.35695" lon="1.21553">
        <ele>138</ele>
        <time>2017-03-14T14:23:15Z</time>
      </trkpt>
      <trkpt lat="49.35691" lon="1.21556">
        <ele>138</ele>
        <time>2017-03-14T14:23:15Z</time>
      </trkpt>
      <trkpt lat="49.35685" lon="1.21558">
        <ele>138</ele>
        <time>2017-03-14T14:23:15Z</time>
      </trkpt>
      <trkpt lat="49.35678" lon="1.21559">
        <ele>138</ele>
        <time>2017-03-14T14:23:31Z</time>
      </trkpt>
      <trkpt lat="49.35673" lon="1.2156">
        <ele>138</ele>
        <time>2017-03-14T14:23:31Z</time>
      </trkpt>
      <trkpt lat="49.35668" lon="1.21561">
        <ele>138</ele>
        <time>2017-03-14T14:23:31Z</time>
      </trkpt>
      <trkpt lat="49.35664" lon="1.21564">
        <ele>138</ele>
        <time>2017-03-14T14:23:31Z</time>
      </trkpt>
      <trkpt lat="49.35659" lon="1.21567">
        <ele>138</ele>
        <time>2017-03-14T14:23:48Z</time>
      </trkpt>
      <trkpt lat="49.35655" lon="1.21571">
        <ele>138</ele>
        <time>2017-03-14T14:23:48Z</time>
      </trkpt>
      <trkpt lat="49.35649" lon="1.21572">
        <ele>138</ele>
        <time>2017-03-14T14:23:48Z</time>
      </trkpt>
      <trkpt lat="49.35644" lon="1.21572">
        <ele>138</ele>
        <time>2017-03-14T14:23:48Z</time>
      </trkpt>
      <trkpt lat="49.3564" lon="1.21573">
        <ele>138</ele>
        <time>2017-03-14T14:24:03Z</time>
      </trkpt>
      <trkpt lat="49.35635" lon="1.21576">
        <ele>138</ele>
        <time>2017-03-14T14:24:03Z</time>
      </trkpt>
      <trkpt lat="49.35631" lon="1.21577">
        <ele>138</ele>
        <time>2017-03-14T14:24:03Z</time>
      </trkpt>
      <trkpt lat="49.35627" lon="1.21579">
        <ele>138</ele>
        <time>2017-03-14T14:24:03Z</time>
      </trkpt>
      <trkpt lat="49.35621" lon="1.2158">
        <ele>137</ele>
        <time>2017-03-14T14:24:19Z</time>
      </trkpt>
      <trkpt lat="49.35616" lon="1.21579">
        <ele>137</ele>
        <time>2017-03-14T14:24:19Z</time>
      </trkpt>
      <trkpt lat="49.3561" lon="1.21578">
        <ele>137</ele>
        <time>2017-03-14T14:24:19Z</time>
      </trkpt>
      <trkpt lat="49.35603" lon="1.21577">
        <ele>137</ele>
        <time>2017-03-14T14:24:19Z</time>
      </trkpt>
      <trkpt lat="49.35597" lon="1.21577">
        <ele>137</ele>
        <time>2017-03-14T14:24:36Z</time>
      </trkpt>
      <trkpt lat="49.35591" lon="1.21577">
        <ele>137</ele>
        <time>2017-03-14T14:24:36Z</time>
      </trkpt>
      <trkpt lat="49.35586" lon="1.21577">
        <ele>137</ele>
        <time>2017-03-14T14:24:36Z</time>
      </trkpt>
      <trkpt lat="49.35582" lon="1.21577">
        <ele>137</ele>
        <time>2017-03-14T14:24:36Z</time>
      </trkpt>
      <trkpt lat="49.35577" lon="1.21576">
        <ele>137</ele>
        <time>2017-03-14T14:24:52Z</time>
      </trkpt>
      <trkpt lat="49.35572" lon="1.21578">
        <ele>137</ele>
        <time>2017-03-14T14:24:52Z</time>
      </trkpt>
      <trkpt lat="49.35566" lon="1.21579">
        <ele>137</ele>
        <time>2017-03-14T14:24:52Z</time>
      </trkpt>
      <trkpt lat="49.35561" lon="1.2158">
        <ele>137</ele>
        <time>2017-03-14T14:24:52Z</time>
      </trkpt>
      <trkpt lat="49.35556" lon="1.21578">
        <ele>137</ele>
        <time>2017-03-14T14:25:08Z</time>
      </trkpt>
      <trkpt lat="49.35552" lon="1.21577">
        <ele>137</ele>
        <time>2017-03-14T14:25:08Z</time>
      </trkpt>
      <trkpt lat="49.35548" lon="1.2158">
        <ele>137</ele>
        <time>2017-03-14T14:25:08Z</time>
      </trkpt>
      <trkpt lat="49.35543" lon="1.21579">
        <ele>137</ele>
        <time>2017-03-14T14:25:08Z</time>
      </trkpt>
      <trkpt lat="49.35538" lon="1.21578">
        <ele>138</ele>
        <time>2017-03-14T14:25:24Z</time>
      </trkpt>
      <trkpt lat="49.35533" lon="1.21577">
        <ele>138</ele>
        <time>2017-03-14T14:25:24Z</time>
      </trkpt>
      <trkpt lat="49.35531" lon="1.21577">
        <ele>138</ele>
        <time>2017-03-14T14:25:24Z</time>
      </trkpt>
      <trkpt lat="49.35521" lon="1.21576">
        <ele>138</ele>
        <time>2017-03-14T14:25:24Z</time>
      </trkpt>
      <trkpt lat="49.35516" lon="1.21576">
        <ele>138</ele>
        <time>2017-03-14T14:25:40Z</time>
      </trkpt>
      <trkpt lat="49.35511" lon="1.21575">
        <ele>138</ele>
        <time>2017-03-14T14:25:40Z</time>
      </trkpt>
      <trkpt lat="49.35507" lon="1.21574">
        <ele>138</ele>
        <time>2017-03-14T14:25:40Z</time>
      </trkpt>
      <trkpt lat="49.35502" lon="1.21577">
        <ele>138</ele>
        <time>2017-03-14T14:25:40Z</time>
      </trkpt>
      <trkpt lat="49.35494" lon="1.2158">
        <ele>138</ele>
        <time>2017-03-14T14:25:56Z</time>
      </trkpt>
      <trkpt lat="49.35489" lon="1.2158">
        <ele>138</ele>
        <time>2017-03-14T14:25:56Z</time>
      </trkpt>
      <trkpt lat="49.35483" lon="1.2158">
        <ele>138</ele>
        <time>2017-03-14T14:25:56Z</time>
      </trkpt>
      <trkpt lat="49.35476" lon="1.2158">
        <ele>138</ele>
        <time>2017-03-14T14:25:56Z</time>
      </trkpt>
      <trkpt lat="49.35472" lon="1.21579">
        <ele>138</ele>
        <time>2017-03-14T14:26:11Z</time>
      </trkpt>
      <trkpt lat="49.35467" lon="1.21578">
        <ele>138</ele>
        <time>2017-03-14T14:26:11Z</time>
      </trkpt>
      <trkpt lat="49.35461" lon="1.21579">
        <ele>138</ele>
        <time>2017-03-14T14:26:11Z</time>
      </trkpt>
      <trkpt lat="49.35457" lon="1.21579">
        <ele>140</ele>
        <time>2017-03-14T14:26:11Z</time>
      </trkpt>
      <trkpt lat="49.35448" lon="1.21578">
        <ele>140</ele>
        <time>2017-03-14T14:26:28Z</time>
      </trkpt>
      <trkpt lat="49.35443" lon="1.21578">
        <ele>140</ele>
        <time>2017-03-14T14:26:28Z</time>
      </trkpt>
      <trkpt lat="49.35437" lon="1.21576">
        <ele>140</ele>
        <time>2017-03-14T14:26:28Z</time>
      </trkpt>
      <trkpt lat="49.35433" lon="1.21576">
        <ele>140</ele>
        <time>2017-03-14T14:26:28Z</time>
      </trkpt>
      <trkpt lat="49.35427" lon="1.21576">
        <ele>140</ele>
        <time>2017-03-14T14:26:44Z</time>
      </trkpt>
      <trkpt lat="49.35423" lon="1.21575">
        <ele>140</ele>
        <time>2017-03-14T14:26:44Z</time>
      </trkpt>
      <trkpt lat="49.35417" lon="1.21577">
        <ele>140</ele>
        <time>2017-03-14T14:26:44Z</time>
      </trkpt>
      <trkpt lat="49.35411" lon="1.21578">
        <ele>140</ele>
        <time>2017-03-14T14:26:44Z</time>
      </trkpt>
      <trkpt lat="49.35406" lon="1.21578">
        <ele>140</ele>
        <time>2017-03-14T14:27:00Z</time>
      </trkpt>
      <trkpt lat="49.35402" lon="1.21578">
        <ele>140</ele>
        <time>2017-03-14T14:27:00Z</time>
      </trkpt>
      <trkpt lat="49.35396" lon="1.21577">
        <ele>140</ele>
        <time>2017-03-14T14:27:00Z</time>
      </trkpt>
      <trkpt lat="49.3539" lon="1.21576">
        <ele>140</ele>
        <time>2017-03-14T14:27:00Z</time>
      </trkpt>
      <trkpt lat="49.35384" lon="1.21576">
        <ele>140</ele>
        <time>2017-03-14T14:27:15Z</time>
      </trkpt>
      <trkpt lat="49.35378" lon="1.21576">
        <ele>140</ele>
        <time>2017-03-14T14:27:15Z</time>
      </trkpt>
      <trkpt lat="49.35372" lon="1.21576">
        <ele>140</ele>
        <time>2017-03-14T14:27:15Z</time>
      </trkpt>
      <trkpt lat="49.35369" lon="1.21576">
        <ele>140</ele>
        <time>2017-03-14T14:27:15Z</time>
      </trkpt>
      <trkpt lat="49.35362" lon="1.21576">
        <ele>140</ele>
        <time>2017-03-14T14:27:32Z</time>
      </trkpt>
      <trkpt lat="49.35359" lon="1.21576">
        <ele>140</ele>
        <time>2017-03-14T14:27:32Z</time>
      </trkpt>
      <trkpt lat="49.35355" lon="1.21575">
        <ele>140</ele>
        <time>2017-03-14T14:27:32Z</time>
      </trkpt>
      <trkpt lat="49.35349" lon="1.21574">
        <ele>140</ele>
        <time>2017-03-14T14:27:32Z</time>
      </trkpt>
      <trkpt lat="49.35343" lon="1.21573">
        <ele>140</ele>
        <time>2017-03-14T14:27:48Z</time>
      </trkpt>
      <trkpt lat="49.35337" lon="1.21572">
        <ele>140</ele>
        <time>2017-03-14T14:27:48Z</time>
      </trkpt>
      <trkpt lat="49.35331" lon="1.2157">
        <ele>140</ele>
        <time>2017-03-14T14:27:48Z</time>
      </trkpt>
      <trkpt lat="49.35328" lon="1.21569">
        <ele>140</ele>
        <time>2017-03-14T14:27:48Z</time>
      </trkpt>
      <trkpt lat="49.35318" lon="1.21571">
        <ele>140</ele>
        <time>2017-03-14T14:28:08Z</time>
      </trkpt>
      <trkpt lat="49.35313" lon="1.21567">
        <ele>140</ele>
        <time>2017-03-14T14:28:08Z</time>
      </trkpt>
      <trkpt lat="49.35307" lon="1.21566">
        <ele>140</ele>
        <time>2017-03-14T14:28:08Z</time>
      </trkpt>
      <trkpt lat="49.35301" lon="1.21564">
        <ele>140</ele>
        <time>2017-03-14T14:28:08Z</time>
      </trkpt>
      <trkpt lat="49.35295" lon="1.21564">
        <ele>140</ele>
        <time>2017-03-14T14:28:24Z</time>
      </trkpt>
      <trkpt lat="49.35288" lon="1.21564">
        <ele>137</ele>
        <time>2017-03-14T14:28:24Z</time>
      </trkpt>
      <trkpt lat="49.35284" lon="1.21563">
        <ele>137</ele>
        <time>2017-03-14T14:28:24Z</time>
      </trkpt>
      <trkpt lat="49.35279" lon="1.21563">
        <ele>137</ele>
        <time>2017-03-14T14:28:24Z</time>
      </trkpt>
      <trkpt lat="49.35274" lon="1.21562">
        <ele>137</ele>
        <time>2017-03-14T14:28:39Z</time>
      </trkpt>
      <trkpt lat="49.35268" lon="1.21561">
        <ele>137</ele>
        <time>2017-03-14T14:28:39Z</time>
      </trkpt>
      <trkpt lat="49.35262" lon="1.2156">
        <ele>137</ele>
        <time>2017-03-14T14:28:39Z</time>
      </trkpt>
      <trkpt lat="49.35258" lon="1.2156">
        <ele>137</ele>
        <time>2017-03-14T14:28:39Z</time>
      </trkpt>
      <trkpt lat="49.35253" lon="1.21561">
        <ele>137</ele>
        <time>2017-03-14T14:28:56Z</time>
      </trkpt>
      <trkpt lat="49.35249" lon="1.21561">
        <ele>137</ele>
        <time>2017-03-14T14:28:56Z</time>
      </trkpt>
      <trkpt lat="49.35244" lon="1.21561">
        <ele>137</ele>
        <time>2017-03-14T14:28:56Z</time>
      </trkpt>
      <trkpt lat="49.35238" lon="1.21559">
        <ele>137</ele>
        <time>2017-03-14T14:28:56Z</time>
      </trkpt>
      <trkpt lat="49.35234" lon="1.21556">
        <ele>137</ele>
        <time>2017-03-14T14:29:12Z</time>
      </trkpt>
      <trkpt lat="49.35229" lon="1.21555">
        <ele>137</ele>
        <time>2017-03-14T14:29:12Z</time>
      </trkpt>
      <trkpt lat="49.35223" lon="1.21555">
        <ele>137</ele>
        <time>2017-03-14T14:29:12Z</time>
      </trkpt>
      <trkpt lat="49.35218" lon="1.21553">
        <ele>137</ele>
        <time>2017-03-14T14:29:12Z</time>
      </trkpt>
      <trkpt lat="49.35213" lon="1.21553">
        <ele>137</ele>
        <time>2017-03-14T14:29:28Z</time>
      </trkpt>
      <trkpt lat="49.35208" lon="1.21553">
        <ele>136</ele>
        <time>2017-03-14T14:29:28Z</time>
      </trkpt>
      <trkpt lat="49.35203" lon="1.21552">
        <ele>136</ele>
        <time>2017-03-14T14:29:28Z</time>
      </trkpt>
      <trkpt lat="49.35198" lon="1.21551">
        <ele>136</ele>
        <time>2017-03-14T14:29:28Z</time>
      </trkpt>
      <trkpt lat="49.35193" lon="1.21549">
        <ele>136</ele>
        <time>2017-03-14T14:29:44Z</time>
      </trkpt>
      <trkpt lat="49.35187" lon="1.2155">
        <ele>136</ele>
        <time>2017-03-14T14:29:44Z</time>
      </trkpt>
      <trkpt lat="49.35182" lon="1.21548">
        <ele>136</ele>
        <time>2017-03-14T14:29:44Z</time>
      </trkpt>
      <trkpt lat="49.35176" lon="1.21547">
        <ele>136</ele>
        <time>2017-03-14T14:29:44Z</time>
      </trkpt>
      <trkpt lat="49.35171" lon="1.21545">
        <ele>136</ele>
        <time>2017-03-14T14:30:00Z</time>
      </trkpt>
      <trkpt lat="49.35167" lon="1.21542">
        <ele>136</ele>
        <time>2017-03-14T14:30:00Z</time>
      </trkpt>
      <trkpt lat="49.35161" lon="1.2154">
        <ele>137</ele>
        <time>2017-03-14T14:30:00Z</time>
      </trkpt>
      <trkpt lat="49.35156" lon="1.2154">
        <ele>137</ele>
        <time>2017-03-14T14:30:00Z</time>
      </trkpt>
      <trkpt lat="49.3515" lon="1.2154">
        <ele>137</ele>
        <time>2017-03-14T14:30:15Z</time>
      </trkpt>
      <trkpt lat="49.35146" lon="1.21538">
        <ele>137</ele>
        <time>2017-03-14T14:30:15Z</time>
      </trkpt>
      <trkpt lat="49.3514" lon="1.21538">
        <ele>137</ele>
        <time>2017-03-14T14:30:15Z</time>
      </trkpt>
      <trkpt lat="49.35136" lon="1.21535">
        <ele>137</ele>
        <time>2017-03-14T14:30:15Z</time>
      </trkpt>
      <trkpt lat="49.35131" lon="1.21533">
        <ele>137</ele>
        <time>2017-03-14T14:30:32Z</time>
      </trkpt>
      <trkpt lat="49.35126" lon="1.21531">
        <ele>137</ele>
        <time>2017-03-14T14:30:32Z</time>
      </trkpt>
      <trkpt lat="49.35119" lon="1.21524">
        <ele>139</ele>
        <time>2017-03-14T14:30:32Z</time>
      </trkpt>
      <trkpt lat="49.35116" lon="1.21522">
        <ele>139</ele>
        <time>2017-03-14T14:30:32Z</time>
      </trkpt>
      <trkpt lat="49.35112" lon="1.21517">
        <ele>139</ele>
        <time>2017-03-14T14:30:48Z</time>
      </trkpt>
      <trkpt lat="49.35108" lon="1.2151">
        <ele>139</ele>
        <time>2017-03-14T14:30:48Z</time>
      </trkpt>
      <trkpt lat="49.35103" lon="1.21502">
        <ele>139</ele>
        <time>2017-03-14T14:30:48Z</time>
      </trkpt>
      <trkpt lat="49.35097" lon="1.21498">
        <ele>139</ele>
        <time>2017-03-14T14:30:48Z</time>
      </trkpt>
      <trkpt lat="49.35094" lon="1.21489">
        <ele>139</ele>
        <time>2017-03-14T14:31:03Z</time>
      </trkpt>
      <trkpt lat="49.35089" lon="1.21486">
        <ele>139</ele>
        <time>2017-03-14T14:31:03Z</time>
      </trkpt>
      <trkpt lat="49.35085" lon="1.21483">
        <ele>139</ele>
        <time>2017-03-14T14:31:03Z</time>
      </trkpt>
      <trkpt lat="49.35081" lon="1.21482">
        <ele>139</ele>
        <time>2017-03-14T14:31:03Z</time>
      </trkpt>
      <trkpt lat="49.35079" lon="1.21479">
        <ele>139</ele>
        <time>2017-03-14T14:31:20Z</time>
      </trkpt>
      <trkpt lat="49.35078" lon="1.21476">
        <ele>139</ele>
        <time>2017-03-14T14:31:20Z</time>
      </trkpt>
      <trkpt lat="49.35073" lon="1.21478">
        <ele>139</ele>
        <time>2017-03-14T14:31:20Z</time>
      </trkpt>
      <trkpt lat="49.35069" lon="1.21481">
        <ele>139</ele>
        <time>2017-03-14T14:31:20Z</time>
      </trkpt>
      <trkpt lat="49.35068" lon="1.21478">
        <ele>139</ele>
        <time>2017-03-14T14:31:36Z</time>
      </trkpt>
      <trkpt lat="49.35067" lon="1.21469">
        <ele>139</ele>
        <time>2017-03-14T14:31:36Z</time>
      </trkpt>
      <trkpt lat="49.35063" lon="1.21462">
        <ele>139</ele>
        <time>2017-03-14T14:31:36Z</time>
      </trkpt>
      <trkpt lat="49.35059" lon="1.21457">
        <ele>138</ele>
        <time>2017-03-14T14:31:36Z</time>
      </trkpt>
      <trkpt lat="49.35057" lon="1.21449">
        <ele>138</ele>
        <time>2017-03-14T14:31:52Z</time>
      </trkpt>
      <trkpt lat="49.35055" lon="1.21443">
        <ele>138</ele>
        <time>2017-03-14T14:31:52Z</time>
      </trkpt>
      <trkpt lat="49.35053" lon="1.2144">
        <ele>138</ele>
        <time>2017-03-14T14:31:52Z</time>
      </trkpt>
      <trkpt lat="49.35051" lon="1.21433">
        <ele>138</ele>
        <time>2017-03-14T14:31:52Z</time>
      </trkpt>
      <trkpt lat="49.35047" lon="1.21426">
        <ele>138</ele>
        <time>2017-03-14T14:32:08Z</time>
      </trkpt>
      <trkpt lat="49.35042" lon="1.21422">
        <ele>138</ele>
        <time>2017-03-14T14:32:08Z</time>
      </trkpt>
      <trkpt lat="49.35038" lon="1.21416">
        <ele>140</ele>
        <time>2017-03-14T14:32:08Z</time>
      </trkpt>
      <trkpt lat="49.35034" lon="1.21409">
        <ele>140</ele>
        <time>2017-03-14T14:32:08Z</time>
      </trkpt>
      <trkpt lat="49.35031" lon="1.21406">
        <ele>140</ele>
        <time>2017-03-14T14:32:23Z</time>
      </trkpt>
      <trkpt lat="49.35027" lon="1.21406">
        <ele>140</ele>
        <time>2017-03-14T14:32:23Z</time>
      </trkpt>
      <trkpt lat="49.35024" lon="1.21399">
        <ele>140</ele>
        <time>2017-03-14T14:32:23Z</time>
      </trkpt>
      <trkpt lat="49.35018" lon="1.21394">
        <ele>140</ele>
        <time>2017-03-14T14:32:23Z</time>
      </trkpt>
      <trkpt lat="49.35018" lon="1.21385">
        <ele>140</ele>
        <time>2017-03-14T14:32:40Z</time>
      </trkpt>
      <trkpt lat="49.35015" lon="1.21379">
        <ele>140</ele>
        <time>2017-03-14T14:32:40Z</time>
      </trkpt>
      <trkpt lat="49.35011" lon="1.21377">
        <ele>140</ele>
        <time>2017-03-14T14:32:40Z</time>
      </trkpt>
      <trkpt lat="49.35009" lon="1.21371">
        <ele>141</ele>
        <time>2017-03-14T14:32:40Z</time>
      </trkpt>
      <trkpt lat="49.35004" lon="1.21365">
        <ele>141</ele>
        <time>2017-03-14T14:32:56Z</time>
      </trkpt>
      <trkpt lat="49.35" lon="1.21361">
        <ele>141</ele>
        <time>2017-03-14T14:32:56Z</time>
      </trkpt>
      <trkpt lat="49.34995" lon="1.21357">
        <ele>141</ele>
        <time>2017-03-14T14:32:56Z</time>
      </trkpt>
      <trkpt lat="49.34992" lon="1.21351">
        <ele>141</ele>
        <time>2017-03-14T14:32:56Z</time>
      </trkpt>
      <trkpt lat="49.34991" lon="1.21345">
        <ele>141</ele>
        <time>2017-03-14T14:33:13Z</time>
      </trkpt>
      <trkpt lat="49.34988" lon="1.21339">
        <ele>141</ele>
        <time>2017-03-14T14:33:13Z</time>
      </trkpt>
      <trkpt lat="49.34983" lon="1.21337">
        <ele>141</ele>
        <time>2017-03-14T14:33:13Z</time>
      </trkpt>
      <trkpt lat="49.34977" lon="1.21333">
        <ele>141</ele>
        <time>2017-03-14T14:33:13Z</time>
      </trkpt>
      <trkpt lat="49.34973" lon="1.21337">
        <ele>141</ele>
        <time>2017-03-14T14:34:47Z</time>
      </trkpt>
      <trkpt lat="49.34976" lon="1.21344">
        <ele>141</ele>
        <time>2017-03-14T14:34:47Z</time>
      </trkpt>
      <trkpt lat="49.34972" lon="1.21355">
        <ele>141</ele>
        <time>2017-03-14T14:34:47Z</time>
      </trkpt>
      <trkpt lat="49.3497" lon="1.2136">
        <ele>141</ele>
        <time>2017-03-14T14:34:47Z</time>
      </trkpt>
      <trkpt lat="49.3497" lon="1.21361">
        <ele>141</ele>
        <time>2017-03-14T14:34:47Z</time>
      </trkpt>
      <trkpt lat="49.34969" lon="1.2136">
        <ele>141</ele>
        <time>2017-03-14T14:35:56Z</time>
      </trkpt>
      <trkpt lat="49.34965" lon="1.21354">
        <ele>141</ele>
        <time>2017-03-14T14:35:56Z</time>
      </trkpt>
      <trkpt lat="49.34959" lon="1.21343">
        <ele>141</ele>
        <time>2017-03-14T14:35:56Z</time>
      </trkpt>
      <trkpt lat="49.34955" lon="1.21339">
        <ele>139</ele>
        <time>2017-03-14T14:35:56Z</time>
      </trkpt>
      <trkpt lat="49.34951" lon="1.21338">
        <ele>139</ele>
        <time>2017-03-14T14:35:56Z</time>
      </trkpt>
      <trkpt lat="49.34947" lon="1.21332">
        <ele>139</ele>
        <time>2017-03-14T14:36:16Z</time>
      </trkpt>
      <trkpt lat="49.34942" lon="1.21331">
        <ele>139</ele>
        <time>2017-03-14T14:36:16Z</time>
      </trkpt>
      <trkpt lat="49.34938" lon="1.2133">
        <ele>139</ele>
        <time>2017-03-14T14:36:16Z</time>
      </trkpt>
      <trkpt lat="49.34926" lon="1.2132">
        <ele>139</ele>
        <time>2017-03-14T14:36:16Z</time>
      </trkpt>
      <trkpt lat="49.34921" lon="1.21317">
        <ele>139</ele>
        <time>2017-03-14T14:36:32Z</time>
      </trkpt>
      <trkpt lat="49.34916" lon="1.21315">
        <ele>139</ele>
        <time>2017-03-14T14:36:32Z</time>
      </trkpt>
      <trkpt lat="49.34912" lon="1.21319">
        <ele>139</ele>
        <time>2017-03-14T14:36:32Z</time>
      </trkpt>
      <trkpt lat="49.34904" lon="1.21321">
        <ele>139</ele>
        <time>2017-03-14T14:36:32Z</time>
      </trkpt>
      <trkpt lat="49.34899" lon="1.21326">
        <ele>139</ele>
        <time>2017-03-14T14:36:48Z</time>
      </trkpt>
      <trkpt lat="49.34896" lon="1.2133">
        <ele>139</ele>
        <time>2017-03-14T14:36:48Z</time>
      </trkpt>
      <trkpt lat="49.34892" lon="1.21335">
        <ele>139</ele>
        <time>2017-03-14T14:36:48Z</time>
      </trkpt>
      <trkpt lat="49.34886" lon="1.21332">
        <ele>139</ele>
        <time>2017-03-14T14:36:48Z</time>
      </trkpt>
      <trkpt lat="49.34881" lon="1.21335">
        <ele>139</ele>
        <time>2017-03-14T14:37:04Z</time>
      </trkpt>
      <trkpt lat="49.34875" lon="1.21334">
        <ele>139</ele>
        <time>2017-03-14T14:37:04Z</time>
      </trkpt>
      <trkpt lat="49.3487" lon="1.21335">
        <ele>137</ele>
        <time>2017-03-14T14:37:04Z</time>
      </trkpt>
      <trkpt lat="49.34865" lon="1.21334">
        <ele>137</ele>
        <time>2017-03-14T14:37:04Z</time>
      </trkpt>
      <trkpt lat="49.34861" lon="1.21336">
        <ele>137</ele>
        <time>2017-03-14T14:37:20Z</time>
      </trkpt>
      <trkpt lat="49.34855" lon="1.21336">
        <ele>137</ele>
        <time>2017-03-14T14:37:20Z</time>
      </trkpt>
      <trkpt lat="49.34849" lon="1.21338">
        <ele>137</ele>
        <time>2017-03-14T14:37:20Z</time>
      </trkpt>
      <trkpt lat="49.34844" lon="1.21338">
        <ele>137</ele>
        <time>2017-03-14T14:37:20Z</time>
      </trkpt>
      <trkpt lat="49.3484" lon="1.21335">
        <ele>137</ele>
        <time>2017-03-14T14:37:36Z</time>
      </trkpt>
      <trkpt lat="49.34836" lon="1.21334">
        <ele>137</ele>
        <time>2017-03-14T14:37:36Z</time>
      </trkpt>
      <trkpt lat="49.3483" lon="1.2134">
        <ele>137</ele>
        <time>2017-03-14T14:37:36Z</time>
      </trkpt>
      <trkpt lat="49.34824" lon="1.2134">
        <ele>137</ele>
        <time>2017-03-14T14:37:36Z</time>
      </trkpt>
      <trkpt lat="49.34819" lon="1.21337">
        <ele>137</ele>
        <time>2017-03-14T14:37:51Z</time>
      </trkpt>
      <trkpt lat="49.34815" lon="1.21335">
        <ele>137</ele>
        <time>2017-03-14T14:37:51Z</time>
      </trkpt>
      <trkpt lat="49.3481" lon="1.21332">
        <ele>137</ele>
        <time>2017-03-14T14:37:51Z</time>
      </trkpt>
      <trkpt lat="49.34806" lon="1.21332">
        <ele>137</ele>
        <time>2017-03-14T14:37:51Z</time>
      </trkpt>
      <trkpt lat="49.34801" lon="1.21332">
        <ele>137</ele>
        <time>2017-03-14T14:38:08Z</time>
      </trkpt>
      <trkpt lat="49.34794" lon="1.21336">
        <ele>137</ele>
        <time>2017-03-14T14:38:08Z</time>
      </trkpt>
      <trkpt lat="49.34791" lon="1.21345">
        <ele>131</ele>
        <time>2017-03-14T14:38:08Z</time>
      </trkpt>
      <trkpt lat="49.34786" lon="1.21351">
        <ele>131</ele>
        <time>2017-03-14T14:38:08Z</time>
      </trkpt>
      <trkpt lat="49.3478" lon="1.21348">
        <ele>131</ele>
        <time>2017-03-14T14:38:24Z</time>
      </trkpt>
      <trkpt lat="49.34775" lon="1.21353">
        <ele>131</ele>
        <time>2017-03-14T14:38:24Z</time>
      </trkpt>
      <trkpt lat="49.34771" lon="1.21365">
        <ele>131</ele>
        <time>2017-03-14T14:38:24Z</time>
      </trkpt>
      <trkpt lat="49.34768" lon="1.2137">
        <ele>131</ele>
        <time>2017-03-14T14:38:24Z</time>
      </trkpt>
      <trkpt lat="49.34765" lon="1.21376">
        <ele>128</ele>
        <time>2017-03-14T14:38:40Z</time>
      </trkpt>
      <trkpt lat="49.34763" lon="1.21384">
        <ele>128</ele>
        <time>2017-03-14T14:38:40Z</time>
      </trkpt>
      <trkpt lat="49.34758" lon="1.21385">
        <ele>128</ele>
        <time>2017-03-14T14:38:40Z</time>
      </trkpt>
      <trkpt lat="49.34752" lon="1.21385">
        <ele>128</ele>
        <time>2017-03-14T14:38:40Z</time>
      </trkpt>
      <trkpt lat="49.34747" lon="1.21389">
        <ele>128</ele>
        <time>2017-03-14T14:38:56Z</time>
      </trkpt>
      <trkpt lat="49.34743" lon="1.21388">
        <ele>128</ele>
        <time>2017-03-14T14:38:56Z</time>
      </trkpt>
      <trkpt lat="49.34738" lon="1.21382">
        <ele>128</ele>
        <time>2017-03-14T14:38:56Z</time>
      </trkpt>
      <trkpt lat="49.34734" lon="1.21375">
        <ele>128</ele>
        <time>2017-03-14T14:38:56Z</time>
      </trkpt>
      <trkpt lat="49.3473" lon="1.21371">
        <ele>131</ele>
        <time>2017-03-14T14:39:12Z</time>
      </trkpt>
      <trkpt lat="49.34727" lon="1.21368">
        <ele>131</ele>
        <time>2017-03-14T14:39:12Z</time>
      </trkpt>
      <trkpt lat="49.34723" lon="1.21359">
        <ele>131</ele>
        <time>2017-03-14T14:39:12Z</time>
      </trkpt>
      <trkpt lat="49.34719" lon="1.21359">
        <ele>131</ele>
        <time>2017-03-14T14:39:12Z</time>
      </trkpt>
      <trkpt lat="49.34715" lon="1.21359">
        <ele>131</ele>
        <time>2017-03-14T14:39:27Z</time>
      </trkpt>
      <trkpt lat="49.3471" lon="1.21357">
        <ele>131</ele>
        <time>2017-03-14T14:39:27Z</time>
      </trkpt>
      <trkpt lat="49.34705" lon="1.21353">
        <ele>127</ele>
        <time>2017-03-14T14:39:27Z</time>
      </trkpt>
      <trkpt lat="49.34704" lon="1.21353">
        <ele>127</ele>
        <time>2017-03-14T14:39:27Z</time>
      </trkpt>
      <trkpt lat="49.347" lon="1.21348">
        <ele>127</ele>
        <time>2017-03-14T14:39:44Z</time>
      </trkpt>
      <trkpt lat="49.34697" lon="1.21339">
        <ele>127</ele>
        <time>2017-03-14T14:39:44Z</time>
      </trkpt>
      <trkpt lat="49.34693" lon="1.21331">
        <ele>127</ele>
        <time>2017-03-14T14:39:44Z</time>
      </trkpt>
      <trkpt lat="49.34689" lon="1.21326">
        <ele>127</ele>
        <time>2017-03-14T14:39:44Z</time>
      </trkpt>
      <trkpt lat="49.34686" lon="1.21321">
        <ele>127</ele>
        <time>2017-03-14T14:40:00Z</time>
      </trkpt>
      <trkpt lat="49.34681" lon="1.2132">
        <ele>127</ele>
        <time>2017-03-14T14:40:00Z</time>
      </trkpt>
      <trkpt lat="49.34675" lon="1.21321">
        <ele>127</ele>
        <time>2017-03-14T14:40:00Z</time>
      </trkpt>
      <trkpt lat="49.3467" lon="1.21325">
        <ele>127</ele>
        <time>2017-03-14T14:40:00Z</time>
      </trkpt>
      <trkpt lat="49.34666" lon="1.21334">
        <ele>127</ele>
        <time>2017-03-14T14:40:16Z</time>
      </trkpt>
      <trkpt lat="49.34663" lon="1.21339">
        <ele>127</ele>
        <time>2017-03-14T14:40:16Z</time>
      </trkpt>
      <trkpt lat="49.3466" lon="1.21345">
        <ele>127</ele>
        <time>2017-03-14T14:40:16Z</time>
      </trkpt>
      <trkpt lat="49.34657" lon="1.21349">
        <ele>127</ele>
        <time>2017-03-14T14:40:16Z</time>
      </trkpt>
      <trkpt lat="49.34656" lon="1.21357">
        <ele>127</ele>
        <time>2017-03-14T14:40:32Z</time>
      </trkpt>
      <trkpt lat="49.34649" lon="1.21356">
        <ele>127</ele>
        <time>2017-03-14T14:40:32Z</time>
      </trkpt>
      <trkpt lat="49.34644" lon="1.21356">
        <ele>127</ele>
        <time>2017-03-14T14:40:32Z</time>
      </trkpt>
      <trkpt lat="49.34639" lon="1.21349">
        <ele>127</ele>
        <time>2017-03-14T14:40:32Z</time>
      </trkpt>
      <trkpt lat="49.34634" lon="1.21346">
        <ele>127</ele>
        <time>2017-03-14T14:40:47Z</time>
      </trkpt>
      <trkpt lat="49.3463" lon="1.21351">
        <ele>127</ele>
        <time>2017-03-14T14:40:47Z</time>
      </trkpt>
      <trkpt lat="49.34629" lon="1.2136">
        <ele>127</ele>
        <time>2017-03-14T14:40:47Z</time>
      </trkpt>
      <trkpt lat="49.34629" lon="1.21366">
        <ele>127</ele>
        <time>2017-03-14T14:40:47Z</time>
      </trkpt>
      <trkpt lat="49.34623" lon="1.21366">
        <ele>132</ele>
        <time>2017-03-14T14:41:04Z</time>
      </trkpt>
      <trkpt lat="49.3462" lon="1.21367">
        <ele>132</ele>
        <time>2017-03-14T14:41:04Z</time>
      </trkpt>
      <trkpt lat="49.34615" lon="1.21372">
        <ele>132</ele>
        <time>2017-03-14T14:41:04Z</time>
      </trkpt>
      <trkpt lat="49.34611" lon="1.21378">
        <ele>131</ele>
        <time>2017-03-14T14:41:04Z</time>
      </trkpt>
      <trkpt lat="49.34612" lon="1.21386">
        <ele>131</ele>
        <time>2017-03-14T14:41:20Z</time>
      </trkpt>
      <trkpt lat="49.34611" lon="1.21399">
        <ele>131</ele>
        <time>2017-03-14T14:41:20Z</time>
      </trkpt>
      <trkpt lat="49.34608" lon="1.21402">
        <ele>131</ele>
        <time>2017-03-14T14:41:20Z</time>
      </trkpt>
      <trkpt lat="49.34602" lon="1.21404">
        <ele>131</ele>
        <time>2017-03-14T14:41:20Z</time>
      </trkpt>
      <trkpt lat="49.34596" lon="1.214">
        <ele>131</ele>
        <time>2017-03-14T14:41:36Z</time>
      </trkpt>
      <trkpt lat="49.34592" lon="1.21398">
        <ele>131</ele>
        <time>2017-03-14T14:41:36Z</time>
      </trkpt>
      <trkpt lat="49.34588" lon="1.21399">
        <ele>131</ele>
        <time>2017-03-14T14:41:36Z</time>
      </trkpt>
      <trkpt lat="49.34582" lon="1.21398">
        <ele>131</ele>
        <time>2017-03-14T14:41:36Z</time>
      </trkpt>
      <trkpt lat="49.34579" lon="1.21397">
        <ele>131</ele>
        <time>2017-03-14T14:41:52Z</time>
      </trkpt>
      <trkpt lat="49.34577" lon="1.21408">
        <ele>131</ele>
        <time>2017-03-14T14:41:52Z</time>
      </trkpt>
      <trkpt lat="49.34574" lon="1.21416">
        <ele>131</ele>
        <time>2017-03-14T14:41:52Z</time>
      </trkpt>
      <trkpt lat="49.34575" lon="1.21425">
        <ele>131</ele>
        <time>2017-03-14T14:41:52Z</time>
      </trkpt>
      <trkpt lat="49.34572" lon="1.21429">
        <ele>131</ele>
        <time>2017-03-14T14:42:07Z</time>
      </trkpt>
      <trkpt lat="49.34567" lon="1.2143">
        <ele>131</ele>
        <time>2017-03-14T14:42:07Z</time>
      </trkpt>
      <trkpt lat="49.34563" lon="1.21432">
        <ele>131</ele>
        <time>2017-03-14T14:42:07Z</time>
      </trkpt>
      <trkpt lat="49.34557" lon="1.21428">
        <ele>131</ele>
        <time>2017-03-14T14:42:07Z</time>
      </trkpt>
      <trkpt lat="49.34551" lon="1.21428">
        <ele>131</ele>
        <time>2017-03-14T14:42:24Z</time>
      </trkpt>
      <trkpt lat="49.34547" lon="1.21429">
        <ele>131</ele>
        <time>2017-03-14T14:42:24Z</time>
      </trkpt>
      <trkpt lat="49.34544" lon="1.21444">
        <ele>131</ele>
        <time>2017-03-14T14:42:24Z</time>
      </trkpt>
      <trkpt lat="49.34542" lon="1.21448">
        <ele>131</ele>
        <time>2017-03-14T14:42:24Z</time>
      </trkpt>
      <trkpt lat="49.34539" lon="1.21453">
        <ele>133</ele>
        <time>2017-03-14T14:42:40Z</time>
      </trkpt>
      <trkpt lat="49.34536" lon="1.2146">
        <ele>134</ele>
        <time>2017-03-14T14:42:40Z</time>
      </trkpt>
      <trkpt lat="49.34533" lon="1.21465">
        <ele>134</ele>
        <time>2017-03-14T14:42:40Z</time>
      </trkpt>
      <trkpt lat="49.3453" lon="1.21469">
        <ele>134</ele>
        <time>2017-03-14T14:42:40Z</time>
      </trkpt>
      <trkpt lat="49.34528" lon="1.21475">
        <ele>134</ele>
        <time>2017-03-14T14:42:56Z</time>
      </trkpt>
      <trkpt lat="49.34524" lon="1.21476">
        <ele>134</ele>
        <time>2017-03-14T14:42:56Z</time>
      </trkpt>
      <trkpt lat="49.34519" lon="1.21476">
        <ele>134</ele>
        <time>2017-03-14T14:42:56Z</time>
      </trkpt>
      <trkpt lat="49.34516" lon="1.21477">
        <ele>134</ele>
        <time>2017-03-14T14:42:56Z</time>
      </trkpt>
      <trkpt lat="49.34511" lon="1.21481">
        <ele>134</ele>
        <time>2017-03-14T14:43:12Z</time>
      </trkpt>
      <trkpt lat="49.34508" lon="1.21489">
        <ele>134</ele>
        <time>2017-03-14T14:43:12Z</time>
      </trkpt>
      <trkpt lat="49.34505" lon="1.21495">
        <ele>134</ele>
        <time>2017-03-14T14:43:12Z</time>
      </trkpt>
      <trkpt lat="49.34501" lon="1.21497">
        <ele>134</ele>
        <time>2017-03-14T14:43:12Z</time>
      </trkpt>
      <trkpt lat="49.34497" lon="1.2149">
        <ele>134</ele>
        <time>2017-03-14T14:43:28Z</time>
      </trkpt>
      <trkpt lat="49.34492" lon="1.21485">
        <ele>134</ele>
        <time>2017-03-14T14:43:28Z</time>
      </trkpt>
      <trkpt lat="49.34488" lon="1.21481">
        <ele>134</ele>
        <time>2017-03-14T14:43:28Z</time>
      </trkpt>
      <trkpt lat="49.34484" lon="1.2148">
        <ele>134</ele>
        <time>2017-03-14T14:43:28Z</time>
      </trkpt>
      <trkpt lat="49.34481" lon="1.21481">
        <ele>134</ele>
        <time>2017-03-14T14:43:44Z</time>
      </trkpt>
      <trkpt lat="49.34478" lon="1.21472">
        <ele>134</ele>
        <time>2017-03-14T14:43:44Z</time>
      </trkpt>
      <trkpt lat="49.34475" lon="1.21467">
        <ele>134</ele>
        <time>2017-03-14T14:43:44Z</time>
      </trkpt>
      <trkpt lat="49.34474" lon="1.2146">
        <ele>134</ele>
        <time>2017-03-14T14:43:44Z</time>
      </trkpt>
      <trkpt lat="49.34464" lon="1.21451">
        <ele>133</ele>
        <time>2017-03-14T14:44:16Z</time>
      </trkpt>
      <trkpt lat="49.34462" lon="1.21459">
        <ele>134</ele>
        <time>2017-03-14T14:44:16Z</time>
      </trkpt>
      <trkpt lat="49.34456" lon="1.21462">
        <ele>135</ele>
        <time>2017-03-14T14:44:16Z</time>
      </trkpt>
      <trkpt lat="49.34451" lon="1.21458">
        <ele>134</ele>
        <time>2017-03-14T14:44:16Z</time>
      </trkpt>
      <trkpt lat="49.34445" lon="1.21457">
        <ele>134</ele>
        <time>2017-03-14T14:44:16Z</time>
      </trkpt>
      <trkpt lat="49.34441" lon="1.21458">
        <ele>134</ele>
        <time>2017-03-14T14:44:32Z</time>
      </trkpt>
      <trkpt lat="49.34435" lon="1.21459">
        <ele>135</ele>
        <time>2017-03-14T14:44:32Z</time>
      </trkpt>
      <trkpt lat="49.34432" lon="1.21466">
        <ele>135</ele>
        <time>2017-03-14T14:44:32Z</time>
      </trkpt>
      <trkpt lat="49.3443" lon="1.21472">
        <ele>135</ele>
        <time>2017-03-14T14:44:32Z</time>
      </trkpt>
      <trkpt lat="49.34427" lon="1.21478">
        <ele>135</ele>
        <time>2017-03-14T14:44:48Z</time>
      </trkpt>
      <trkpt lat="49.34425" lon="1.21485">
        <ele>135</ele>
        <time>2017-03-14T14:44:48Z</time>
      </trkpt>
      <trkpt lat="49.34425" lon="1.21491">
        <ele>135</ele>
        <time>2017-03-14T14:44:48Z</time>
      </trkpt>
      <trkpt lat="49.34423" lon="1.21497">
        <ele>135</ele>
        <time>2017-03-14T14:44:48Z</time>
      </trkpt>
      <trkpt lat="49.3442" lon="1.21502">
        <ele>135</ele>
        <time>2017-03-14T14:45:04Z</time>
      </trkpt>
      <trkpt lat="49.34419" lon="1.21508">
        <ele>135</ele>
        <time>2017-03-14T14:45:04Z</time>
      </trkpt>
      <trkpt lat="49.34415" lon="1.21512">
        <ele>135</ele>
        <time>2017-03-14T14:45:04Z</time>
      </trkpt>
      <trkpt lat="49.34409" lon="1.21514">
        <ele>135</ele>
        <time>2017-03-14T14:45:04Z</time>
      </trkpt>
      <trkpt lat="49.34406" lon="1.21519">
        <ele>135</ele>
        <time>2017-03-14T14:45:19Z</time>
      </trkpt>
      <trkpt lat="49.34402" lon="1.21524">
        <ele>135</ele>
        <time>2017-03-14T14:45:19Z</time>
      </trkpt>
      <trkpt lat="49.344" lon="1.21533">
        <ele>135</ele>
        <time>2017-03-14T14:45:19Z</time>
      </trkpt>
      <trkpt lat="49.34398" lon="1.2154">
        <ele>135</ele>
        <time>2017-03-14T14:45:19Z</time>
      </trkpt>
      <trkpt lat="49.34397" lon="1.21547">
        <ele>134</ele>
        <time>2017-03-14T14:45:35Z</time>
      </trkpt>
      <trkpt lat="49.34395" lon="1.21554">
        <ele>134</ele>
        <time>2017-03-14T14:45:35Z</time>
      </trkpt>
      <trkpt lat="49.34393" lon="1.2156">
        <ele>134</ele>
        <time>2017-03-14T14:45:35Z</time>
      </trkpt>
      <trkpt lat="49.34391" lon="1.21567">
        <ele>134</ele>
        <time>2017-03-14T14:45:35Z</time>
      </trkpt>
      <trkpt lat="49.34389" lon="1.21573">
        <ele>134</ele>
        <time>2017-03-14T14:45:51Z</time>
      </trkpt>
      <trkpt lat="49.34388" lon="1.21579">
        <ele>134</ele>
        <time>2017-03-14T14:45:51Z</time>
      </trkpt>
      <trkpt lat="49.34384" lon="1.21586">
        <ele>134</ele>
        <time>2017-03-14T14:45:51Z</time>
      </trkpt>
      <trkpt lat="49.3438" lon="1.21588">
        <ele>134</ele>
        <time>2017-03-14T14:45:51Z</time>
      </trkpt>
      <trkpt lat="49.34375" lon="1.21589">
        <ele>134</ele>
        <time>2017-03-14T14:46:07Z</time>
      </trkpt>
      <trkpt lat="49.3437" lon="1.21589">
        <ele>134</ele>
        <time>2017-03-14T14:46:07Z</time>
      </trkpt>
      <trkpt lat="49.34365" lon="1.21593">
        <ele>134</ele>
        <time>2017-03-14T14:46:07Z</time>
      </trkpt>
      <trkpt lat="49.34359" lon="1.21597">
        <ele>134</ele>
        <time>2017-03-14T14:46:07Z</time>
      </trkpt>
      <trkpt lat="49.34355" lon="1.216">
        <ele>134</ele>
        <time>2017-03-14T14:46:24Z</time>
      </trkpt>
      <trkpt lat="49.34351" lon="1.21603">
        <ele>134</ele>
        <time>2017-03-14T14:46:24Z</time>
      </trkpt>
      <trkpt lat="49.34348" lon="1.21606">
        <ele>134</ele>
        <time>2017-03-14T14:46:24Z</time>
      </trkpt>
      <trkpt lat="49.34344" lon="1.21606">
        <ele>134</ele>
        <time>2017-03-14T14:46:24Z</time>
      </trkpt>
      <trkpt lat="49.3434" lon="1.21608">
        <ele>134</ele>
        <time>2017-03-14T14:46:40Z</time>
      </trkpt>
      <trkpt lat="49.34334" lon="1.2161">
        <ele>134</ele>
        <time>2017-03-14T14:46:40Z</time>
      </trkpt>
      <trkpt lat="49.34331" lon="1.21612">
        <ele>134</ele>
        <time>2017-03-14T14:46:40Z</time>
      </trkpt>
      <trkpt lat="49.34328" lon="1.21613">
        <ele>134</ele>
        <time>2017-03-14T14:46:40Z</time>
      </trkpt>
      <trkpt lat="49.34324" lon="1.21613">
        <ele>134</ele>
        <time>2017-03-14T14:46:56Z</time>
      </trkpt>
      <trkpt lat="49.34319" lon="1.21616">
        <ele>134</ele>
        <time>2017-03-14T14:46:56Z</time>
      </trkpt>
      <trkpt lat="49.34314" lon="1.21615">
        <ele>134</ele>
        <time>2017-03-14T14:46:56Z</time>
      </trkpt>
      <trkpt lat="49.34311" lon="1.21618">
        <ele>134</ele>
        <time>2017-03-14T14:46:56Z</time>
      </trkpt>
      <trkpt lat="49.34307" lon="1.21619">
        <ele>134</ele>
        <time>2017-03-14T14:47:11Z</time>
      </trkpt>
      <trkpt lat="49.34303" lon="1.21621">
        <ele>134</ele>
        <time>2017-03-14T14:47:11Z</time>
      </trkpt>
      <trkpt lat="49.34298" lon="1.21622">
        <ele>134</ele>
        <time>2017-03-14T14:47:11Z</time>
      </trkpt>
      <trkpt lat="49.34294" lon="1.21623">
        <ele>134</ele>
        <time>2017-03-14T14:47:11Z</time>
      </trkpt>
      <trkpt lat="49.34289" lon="1.21625">
        <ele>133</ele>
        <time>2017-03-14T14:47:28Z</time>
      </trkpt>
      <trkpt lat="49.34286" lon="1.21627">
        <ele>133</ele>
        <time>2017-03-14T14:47:28Z</time>
      </trkpt>
      <trkpt lat="49.34282" lon="1.21629">
        <ele>133</ele>
        <time>2017-03-14T14:47:28Z</time>
      </trkpt>
      <trkpt lat="49.34279" lon="1.21631">
        <ele>133</ele>
        <time>2017-03-14T14:47:28Z</time>
      </trkpt>
      <trkpt lat="49.34276" lon="1.21632">
        <ele>133</ele>
        <time>2017-03-14T14:47:44Z</time>
      </trkpt>
      <trkpt lat="49.34277" lon="1.21633">
        <ele>133</ele>
        <time>2017-03-14T14:47:44Z</time>
      </trkpt>
      <trkpt lat="49.3427" lon="1.21634">
        <ele>133</ele>
        <time>2017-03-14T14:47:44Z</time>
      </trkpt>
      <trkpt lat="49.34265" lon="1.21636">
        <ele>133</ele>
        <time>2017-03-14T14:47:44Z</time>
      </trkpt>
      <trkpt lat="49.34259" lon="1.21638">
        <ele>133</ele>
        <time>2017-03-14T14:48:00Z</time>
      </trkpt>
      <trkpt lat="49.34253" lon="1.21638">
        <ele>133</ele>
        <time>2017-03-14T14:48:00Z</time>
      </trkpt>
      <trkpt lat="49.34248" lon="1.21638">
        <ele>133</ele>
        <time>2017-03-14T14:48:00Z</time>
      </trkpt>
      <trkpt lat="49.34244" lon="1.21642">
        <ele>133</ele>
        <time>2017-03-14T14:48:00Z</time>
      </trkpt>
      <trkpt lat="49.3424" lon="1.21646">
        <ele>133</ele>
        <time>2017-03-14T14:48:15Z</time>
      </trkpt>
      <trkpt lat="49.34236" lon="1.21648">
        <ele>133</ele>
        <time>2017-03-14T14:48:15Z</time>
      </trkpt>
      <trkpt lat="49.34231" lon="1.2165">
        <ele>133</ele>
        <time>2017-03-14T14:48:15Z</time>
      </trkpt>
      <trkpt lat="49.34227" lon="1.21651">
        <ele>133</ele>
        <time>2017-03-14T14:48:15Z</time>
      </trkpt>
      <trkpt lat="49.34221" lon="1.21652">
        <ele>133</ele>
        <time>2017-03-14T14:48:32Z</time>
      </trkpt>
      <trkpt lat="49.34216" lon="1.21655">
        <ele>133</ele>
        <time>2017-03-14T14:48:32Z</time>
      </trkpt>
      <trkpt lat="49.34212" lon="1.21659">
        <ele>133</ele>
        <time>2017-03-14T14:48:32Z</time>
      </trkpt>
      <trkpt lat="49.34209" lon="1.21662">
        <ele>133</ele>
        <time>2017-03-14T14:48:32Z</time>
      </trkpt>
      <trkpt lat="49.34203" lon="1.21662">
        <ele>132</ele>
        <time>2017-03-14T14:48:48Z</time>
      </trkpt>
      <trkpt lat="49.34196" lon="1.21661">
        <ele>132</ele>
        <time>2017-03-14T14:48:48Z</time>
      </trkpt>
      <trkpt lat="49.3419" lon="1.21663">
        <ele>132</ele>
        <time>2017-03-14T14:48:48Z</time>
      </trkpt>
      <trkpt lat="49.34186" lon="1.21667">
        <ele>132</ele>
        <time>2017-03-14T14:48:48Z</time>
      </trkpt>
      <trkpt lat="49.34182" lon="1.21671">
        <ele>132</ele>
        <time>2017-03-14T14:49:04Z</time>
      </trkpt>
      <trkpt lat="49.34176" lon="1.21671">
        <ele>132</ele>
        <time>2017-03-14T14:49:04Z</time>
      </trkpt>
      <trkpt lat="49.3417" lon="1.21668">
        <ele>132</ele>
        <time>2017-03-14T14:49:04Z</time>
      </trkpt>
      <trkpt lat="49.34165" lon="1.21667">
        <ele>132</ele>
        <time>2017-03-14T14:49:04Z</time>
      </trkpt>
      <trkpt lat="49.3416" lon="1.21664">
        <ele>132</ele>
        <time>2017-03-14T14:49:20Z</time>
      </trkpt>
      <trkpt lat="49.34157" lon="1.21661">
        <ele>132</ele>
        <time>2017-03-14T14:49:21Z</time>
      </trkpt>
      <trkpt lat="49.34151" lon="1.21657">
        <ele>132</ele>
        <time>2017-03-14T14:49:21Z</time>
      </trkpt>
      <trkpt lat="49.34145" lon="1.21662">
        <ele>132</ele>
        <time>2017-03-14T14:49:21Z</time>
      </trkpt>
      <trkpt lat="49.34143" lon="1.21663">
        <ele>132</ele>
        <time>2017-03-14T14:49:36Z</time>
      </trkpt>
      <trkpt lat="49.34136" lon="1.21661">
        <ele>132</ele>
        <time>2017-03-14T14:49:36Z</time>
      </trkpt>
      <trkpt lat="49.34131" lon="1.21661">
        <ele>132</ele>
        <time>2017-03-14T14:49:36Z</time>
      </trkpt>
      <trkpt lat="49.34125" lon="1.21662">
        <ele>132</ele>
        <time>2017-03-14T14:49:36Z</time>
      </trkpt>
      <trkpt lat="49.34119" lon="1.21665">
        <ele>133</ele>
        <time>2017-03-14T14:49:52Z</time>
      </trkpt>
      <trkpt lat="49.34114" lon="1.21667">
        <ele>133</ele>
        <time>2017-03-14T14:49:52Z</time>
      </trkpt>
      <trkpt lat="49.34111" lon="1.21675">
        <ele>133</ele>
        <time>2017-03-14T14:49:52Z</time>
      </trkpt>
      <trkpt lat="49.34106" lon="1.21678">
        <ele>133</ele>
        <time>2017-03-14T14:49:52Z</time>
      </trkpt>
      <trkpt lat="49.34101" lon="1.21681">
        <ele>133</ele>
        <time>2017-03-14T14:50:08Z</time>
      </trkpt>
      <trkpt lat="49.34098" lon="1.21688">
        <ele>133</ele>
        <time>2017-03-14T14:50:08Z</time>
      </trkpt>
      <trkpt lat="49.34093" lon="1.21691">
        <ele>133</ele>
        <time>2017-03-14T14:50:08Z</time>
      </trkpt>
      <trkpt lat="49.34089" lon="1.21697">
        <ele>133</ele>
        <time>2017-03-14T14:50:08Z</time>
      </trkpt>
      <trkpt lat="49.34086" lon="1.21704">
        <ele>133</ele>
        <time>2017-03-14T14:50:24Z</time>
      </trkpt>
      <trkpt lat="49.34082" lon="1.21711">
        <ele>132</ele>
        <time>2017-03-14T14:50:24Z</time>
      </trkpt>
      <trkpt lat="49.34077" lon="1.21712">
        <ele>132</ele>
        <time>2017-03-14T14:50:24Z</time>
      </trkpt>
      <trkpt lat="49.34073" lon="1.21715">
        <ele>132</ele>
        <time>2017-03-14T14:50:24Z</time>
      </trkpt>
      <trkpt lat="49.34069" lon="1.2172">
        <ele>132</ele>
        <time>2017-03-14T14:50:40Z</time>
      </trkpt>
      <trkpt lat="49.34066" lon="1.21724">
        <ele>132</ele>
        <time>2017-03-14T14:50:40Z</time>
      </trkpt>
      <trkpt lat="49.34062" lon="1.21728">
        <ele>132</ele>
        <time>2017-03-14T14:50:40Z</time>
      </trkpt>
      <trkpt lat="49.34055" lon="1.21729">
        <ele>132</ele>
        <time>2017-03-14T14:50:40Z</time>
      </trkpt>
      <trkpt lat="49.3405" lon="1.21732">
        <ele>132</ele>
        <time>2017-03-14T14:50:56Z</time>
      </trkpt>
      <trkpt lat="49.34046" lon="1.21736">
        <ele>132</ele>
        <time>2017-03-14T14:50:56Z</time>
      </trkpt>
      <trkpt lat="49.34041" lon="1.21739">
        <ele>131</ele>
        <time>2017-03-14T14:50:56Z</time>
      </trkpt>
      <trkpt lat="49.3404" lon="1.21747">
        <ele>131</ele>
        <time>2017-03-14T14:50:56Z</time>
      </trkpt>
      <trkpt lat="49.34038" lon="1.21755">
        <ele>131</ele>
        <time>2017-03-14T14:51:11Z</time>
      </trkpt>
      <trkpt lat="49.34034" lon="1.2176">
        <ele>131</ele>
        <time>2017-03-14T14:51:11Z</time>
      </trkpt>
      <trkpt lat="49.3403" lon="1.21767">
        <ele>131</ele>
        <time>2017-03-14T14:51:11Z</time>
      </trkpt>
      <trkpt lat="49.34027" lon="1.21771">
        <ele>131</ele>
        <time>2017-03-14T14:51:11Z</time>
      </trkpt>
      <trkpt lat="49.34022" lon="1.21775">
        <ele>131</ele>
        <time>2017-03-14T14:51:27Z</time>
      </trkpt>
      <trkpt lat="49.34019" lon="1.21771">
        <ele>131</ele>
        <time>2017-03-14T14:51:27Z</time>
      </trkpt>
      <trkpt lat="49.34013" lon="1.21769">
        <ele>131</ele>
        <time>2017-03-14T14:51:27Z</time>
      </trkpt>
      <trkpt lat="49.34008" lon="1.21768">
        <ele>131</ele>
        <time>2017-03-14T14:51:27Z</time>
      </trkpt>
      <trkpt lat="49.34003" lon="1.21771">
        <ele>131</ele>
        <time>2017-03-14T14:51:44Z</time>
      </trkpt>
      <trkpt lat="49.33999" lon="1.21775">
        <ele>131</ele>
        <time>2017-03-14T14:51:44Z</time>
      </trkpt>
      <trkpt lat="49.33995" lon="1.21781">
        <ele>131</ele>
        <time>2017-03-14T14:51:44Z</time>
      </trkpt>
      <trkpt lat="49.33991" lon="1.21787">
        <ele>131</ele>
        <time>2017-03-14T14:51:44Z</time>
      </trkpt>
      <trkpt lat="49.33989" lon="1.21791">
        <ele>131</ele>
        <time>2017-03-14T14:52:00Z</time>
      </trkpt>
      <trkpt lat="49.33984" lon="1.21798">
        <ele>130</ele>
        <time>2017-03-14T14:52:00Z</time>
      </trkpt>
      <trkpt lat="49.33979" lon="1.218">
        <ele>130</ele>
        <time>2017-03-14T14:52:00Z</time>
      </trkpt>
      <trkpt lat="49.33973" lon="1.21798">
        <ele>130</ele>
        <time>2017-03-14T14:52:00Z</time>
      </trkpt>
      <trkpt lat="49.33968" lon="1.21801">
        <ele>130</ele>
        <time>2017-03-14T14:52:15Z</time>
      </trkpt>
      <trkpt lat="49.33964" lon="1.21804">
        <ele>130</ele>
        <time>2017-03-14T14:52:15Z</time>
      </trkpt>
      <trkpt lat="49.33957" lon="1.21804">
        <ele>124</ele>
        <time>2017-03-14T14:52:15Z</time>
      </trkpt>
      <trkpt lat="49.33953" lon="1.21804">
        <ele>124</ele>
        <time>2017-03-14T14:52:15Z</time>
      </trkpt>
      <trkpt lat="49.33948" lon="1.21808">
        <ele>124</ele>
        <time>2017-03-14T14:52:32Z</time>
      </trkpt>
      <trkpt lat="49.33944" lon="1.21809">
        <ele>124</ele>
        <time>2017-03-14T14:52:32Z</time>
      </trkpt>
      <trkpt lat="49.3394" lon="1.21812">
        <ele>124</ele>
        <time>2017-03-14T14:52:32Z</time>
      </trkpt>
      <trkpt lat="49.33936" lon="1.21817">
        <ele>124</ele>
        <time>2017-03-14T14:52:32Z</time>
      </trkpt>
      <trkpt lat="49.33932" lon="1.21822">
        <ele>124</ele>
        <time>2017-03-14T14:52:48Z</time>
      </trkpt>
      <trkpt lat="49.33926" lon="1.21827">
        <ele>124</ele>
        <time>2017-03-14T14:52:48Z</time>
      </trkpt>
      <trkpt lat="49.33923" lon="1.21832">
        <ele>124</ele>
        <time>2017-03-14T14:52:48Z</time>
      </trkpt>
      <trkpt lat="49.33918" lon="1.21833">
        <ele>124</ele>
        <time>2017-03-14T14:52:48Z</time>
      </trkpt>
      <trkpt lat="49.33912" lon="1.21833">
        <ele>124</ele>
        <time>2017-03-14T14:53:08Z</time>
      </trkpt>
      <trkpt lat="49.33906" lon="1.21846">
        <ele>124</ele>
        <time>2017-03-14T14:53:08Z</time>
      </trkpt>
      <trkpt lat="49.33902" lon="1.21851">
        <ele>124</ele>
        <time>2017-03-14T14:53:08Z</time>
      </trkpt>
      <trkpt lat="49.33896" lon="1.21853">
        <ele>124</ele>
        <time>2017-03-14T14:53:08Z</time>
      </trkpt>
      <trkpt lat="49.33892" lon="1.21856">
        <ele>124</ele>
        <time>2017-03-14T14:53:24Z</time>
      </trkpt>
      <trkpt lat="49.33891" lon="1.21861">
        <ele>124</ele>
        <time>2017-03-14T14:53:24Z</time>
      </trkpt>
      <trkpt lat="49.33885" lon="1.21871">
        <ele>124</ele>
        <time>2017-03-14T14:53:24Z</time>
      </trkpt>
      <trkpt lat="49.33883" lon="1.21876">
        <ele>121</ele>
        <time>2017-03-14T14:53:24Z</time>
      </trkpt>
      <trkpt lat="49.33882" lon="1.21885">
        <ele>121</ele>
        <time>2017-03-14T14:53:40Z</time>
      </trkpt>
      <trkpt lat="49.3388" lon="1.2189">
        <ele>121</ele>
        <time>2017-03-14T14:53:40Z</time>
      </trkpt>
      <trkpt lat="49.33879" lon="1.21896">
        <ele>121</ele>
        <time>2017-03-14T14:53:40Z</time>
      </trkpt>
      <trkpt lat="49.33879" lon="1.21902">
        <ele>121</ele>
        <time>2017-03-14T14:53:40Z</time>
      </trkpt>
      <trkpt lat="49.33878" lon="1.21909">
        <ele>121</ele>
        <time>2017-03-14T14:53:56Z</time>
      </trkpt>
      <trkpt lat="49.33878" lon="1.21915">
        <ele>121</ele>
        <time>2017-03-14T14:53:56Z</time>
      </trkpt>
      <trkpt lat="49.33873" lon="1.21917">
        <ele>116</ele>
        <time>2017-03-14T14:53:56Z</time>
      </trkpt>
      <trkpt lat="49.33869" lon="1.21918">
        <ele>116</ele>
        <time>2017-03-14T14:53:56Z</time>
      </trkpt>
      <trkpt lat="49.33867" lon="1.21925">
        <ele>116</ele>
        <time>2017-03-14T14:54:12Z</time>
      </trkpt>
      <trkpt lat="49.33863" lon="1.21931">
        <ele>116</ele>
        <time>2017-03-14T14:54:12Z</time>
      </trkpt>
      <trkpt lat="49.33859" lon="1.21938">
        <ele>116</ele>
        <time>2017-03-14T14:54:12Z</time>
      </trkpt>
      <trkpt lat="49.33855" lon="1.21942">
        <ele>116</ele>
        <time>2017-03-14T14:54:12Z</time>
      </trkpt>
      <trkpt lat="49.33852" lon="1.2195">
        <ele>116</ele>
        <time>2017-03-14T14:54:28Z</time>
      </trkpt>
      <trkpt lat="49.33849" lon="1.21956">
        <ele>116</ele>
        <time>2017-03-14T14:54:28Z</time>
      </trkpt>
      <trkpt lat="49.33846" lon="1.21961">
        <ele>111</ele>
        <time>2017-03-14T14:54:28Z</time>
      </trkpt>
      <trkpt lat="49.33842" lon="1.21968">
        <ele>111</ele>
        <time>2017-03-14T14:54:28Z</time>
      </trkpt>
      <trkpt lat="49.33839" lon="1.21974">
        <ele>111</ele>
        <time>2017-03-14T14:54:44Z</time>
      </trkpt>
      <trkpt lat="49.33835" lon="1.21978">
        <ele>111</ele>
        <time>2017-03-14T14:54:44Z</time>
      </trkpt>
      <trkpt lat="49.33832" lon="1.21984">
        <ele>111</ele>
        <time>2017-03-14T14:54:44Z</time>
      </trkpt>
      <trkpt lat="49.3383" lon="1.21991">
        <ele>111</ele>
        <time>2017-03-14T14:54:44Z</time>
      </trkpt>
      <trkpt lat="49.3383" lon="1.21996">
        <ele>111</ele>
        <time>2017-03-14T14:55:00Z</time>
      </trkpt>
      <trkpt lat="49.33827" lon="1.22002">
        <ele>111</ele>
        <time>2017-03-14T14:55:00Z</time>
      </trkpt>
      <trkpt lat="49.33823" lon="1.22007">
        <ele>111</ele>
        <time>2017-03-14T14:55:00Z</time>
      </trkpt>
      <trkpt lat="49.33818" lon="1.2201">
        <ele>111</ele>
        <time>2017-03-14T14:55:00Z</time>
      </trkpt>
      <trkpt lat="49.33816" lon="1.22016">
        <ele>111</ele>
        <time>2017-03-14T14:55:16Z</time>
      </trkpt>
      <trkpt lat="49.33811" lon="1.22021">
        <ele>111</ele>
        <time>2017-03-14T14:55:16Z</time>
      </trkpt>
      <trkpt lat="49.33808" lon="1.22025">
        <ele>111</ele>
        <time>2017-03-14T14:55:16Z</time>
      </trkpt>
      <trkpt lat="49.33805" lon="1.22027">
        <ele>111</ele>
        <time>2017-03-14T14:55:16Z</time>
      </trkpt>
      <trkpt lat="49.33799" lon="1.22035">
        <ele>111</ele>
        <time>2017-03-14T14:55:31Z</time>
      </trkpt>
      <trkpt lat="49.33796" lon="1.2204">
        <ele>111</ele>
        <time>2017-03-14T14:55:31Z</time>
      </trkpt>
      <trkpt lat="49.33791" lon="1.22045">
        <ele>94</ele>
        <time>2017-03-14T14:55:31Z</time>
      </trkpt>
      <trkpt lat="49.33787" lon="1.22051">
        <ele>94</ele>
        <time>2017-03-14T14:55:31Z</time>
      </trkpt>
      <trkpt lat="49.33785" lon="1.22058">
        <ele>94</ele>
        <time>2017-03-14T14:55:48Z</time>
      </trkpt>
      <trkpt lat="49.33781" lon="1.22064">
        <ele>94</ele>
        <time>2017-03-14T14:55:48Z</time>
      </trkpt>
      <trkpt lat="49.33779" lon="1.22067">
        <ele>94</ele>
        <time>2017-03-14T14:55:48Z</time>
      </trkpt>
      <trkpt lat="49.33776" lon="1.2207">
        <ele>94</ele>
        <time>2017-03-14T14:55:48Z</time>
      </trkpt>
      <trkpt lat="49.33773" lon="1.22075">
        <ele>94</ele>
        <time>2017-03-14T14:56:04Z</time>
      </trkpt>
      <trkpt lat="49.33768" lon="1.22078">
        <ele>94</ele>
        <time>2017-03-14T14:56:04Z</time>
      </trkpt>
      <trkpt lat="49.33763" lon="1.2208">
        <ele>94</ele>
        <time>2017-03-14T14:56:04Z</time>
      </trkpt>
      <trkpt lat="49.33758" lon="1.22083">
        <ele>94</ele>
        <time>2017-03-14T14:56:04Z</time>
      </trkpt>
      <trkpt lat="49.33754" lon="1.22089">
        <ele>94</ele>
        <time>2017-03-14T14:56:19Z</time>
      </trkpt>
      <trkpt lat="49.3375" lon="1.22093">
        <ele>94</ele>
        <time>2017-03-14T14:56:19Z</time>
      </trkpt>
      <trkpt lat="49.33745" lon="1.22093">
        <ele>94</ele>
        <time>2017-03-14T14:56:19Z</time>
      </trkpt>
      <trkpt lat="49.3374" lon="1.22096">
        <ele>94</ele>
        <time>2017-03-14T14:56:19Z</time>
      </trkpt>
      <trkpt lat="49.33737" lon="1.22102">
        <ele>94</ele>
        <time>2017-03-14T14:56:36Z</time>
      </trkpt>
      <trkpt lat="49.33732" lon="1.22106">
        <ele>94</ele>
        <time>2017-03-14T14:56:36Z</time>
      </trkpt>
      <trkpt lat="49.33729" lon="1.22113">
        <ele>94</ele>
        <time>2017-03-14T14:56:36Z</time>
      </trkpt>
      <trkpt lat="49.33726" lon="1.22118">
        <ele>94</ele>
        <time>2017-03-14T14:56:36Z</time>
      </trkpt>
      <trkpt lat="49.33721" lon="1.2212">
        <ele>94</ele>
        <time>2017-03-14T14:56:52Z</time>
      </trkpt>
      <trkpt lat="49.3372" lon="1.22125">
        <ele>81</ele>
        <time>2017-03-14T14:56:52Z</time>
      </trkpt>
      <trkpt lat="49.3372" lon="1.2213">
        <ele>81</ele>
        <time>2017-03-14T14:56:52Z</time>
      </trkpt>
      <trkpt lat="49.33715" lon="1.22132">
        <ele>81</ele>
        <time>2017-03-14T14:56:52Z</time>
      </trkpt>
      <trkpt lat="49.3371" lon="1.22136">
        <ele>81</ele>
        <time>2017-03-14T14:57:08Z</time>
      </trkpt>
      <trkpt lat="49.33709" lon="1.22145">
        <ele>81</ele>
        <time>2017-03-14T14:57:08Z</time>
      </trkpt>
      <trkpt lat="49.33707" lon="1.22151">
        <ele>86</ele>
        <time>2017-03-14T14:57:08Z</time>
      </trkpt>
      <trkpt lat="49.33704" lon="1.22157">
        <ele>86</ele>
        <time>2017-03-14T14:57:08Z</time>
      </trkpt>
      <trkpt lat="49.33702" lon="1.22163">
        <ele>86</ele>
        <time>2017-03-14T14:57:24Z</time>
      </trkpt>
      <trkpt lat="49.337" lon="1.2217">
        <ele>86</ele>
        <time>2017-03-14T14:57:24Z</time>
      </trkpt>
      <trkpt lat="49.33698" lon="1.22174">
        <ele>86</ele>
        <time>2017-03-14T14:57:24Z</time>
      </trkpt>
      <trkpt lat="49.33694" lon="1.22177">
        <ele>86</ele>
        <time>2017-03-14T14:57:24Z</time>
      </trkpt>
      <trkpt lat="49.33691" lon="1.22181">
        <ele>86</ele>
        <time>2017-03-14T14:57:39Z</time>
      </trkpt>
      <trkpt lat="49.33686" lon="1.22184">
        <ele>86</ele>
        <time>2017-03-14T14:57:39Z</time>
      </trkpt>
      <trkpt lat="49.33683" lon="1.22186">
        <ele>86</ele>
        <time>2017-03-14T14:57:39Z</time>
      </trkpt>
      <trkpt lat="49.33682" lon="1.22189">
        <ele>86</ele>
        <time>2017-03-14T14:57:39Z</time>
      </trkpt>
      <trkpt lat="49.33683" lon="1.22187">
        <ele>86</ele>
        <time>2017-03-14T14:58:52Z</time>
      </trkpt>
      <trkpt lat="49.33683" lon="1.22188">
        <ele>86</ele>
        <time>2017-03-14T14:58:52Z</time>
      </trkpt>
      <trkpt lat="49.3368" lon="1.22194">
        <ele>86</ele>
        <time>2017-03-14T14:58:52Z</time>
      </trkpt>
      <trkpt lat="49.33678" lon="1.22199">
        <ele>86</ele>
        <time>2017-03-14T14:58:52Z</time>
      </trkpt>
      <trkpt lat="49.33675" lon="1.22205">
        <ele>86</ele>
        <time>2017-03-14T14:58:52Z</time>
      </trkpt>
      <trkpt lat="49.33671" lon="1.22211">
        <ele>78</ele>
        <time>2017-03-14T14:59:08Z</time>
      </trkpt>
      <trkpt lat="49.33667" lon="1.22217">
        <ele>78</ele>
        <time>2017-03-14T14:59:08Z</time>
      </trkpt>
      <trkpt lat="49.33661" lon="1.22223">
        <ele>78</ele>
        <time>2017-03-14T14:59:08Z</time>
      </trkpt>
      <trkpt lat="49.3366" lon="1.22229">
        <ele>78</ele>
        <time>2017-03-14T14:59:08Z</time>
      </trkpt>
      <trkpt lat="49.33656" lon="1.22236">
        <ele>78</ele>
        <time>2017-03-14T14:59:23Z</time>
      </trkpt>
      <trkpt lat="49.33653" lon="1.22241">
        <ele>78</ele>
        <time>2017-03-14T14:59:23Z</time>
      </trkpt>
      <trkpt lat="49.33647" lon="1.22244">
        <ele>78</ele>
        <time>2017-03-14T14:59:23Z</time>
      </trkpt>
      <trkpt lat="49.33644" lon="1.22246">
        <ele>78</ele>
        <time>2017-03-14T14:59:23Z</time>
      </trkpt>
      <trkpt lat="49.3364" lon="1.22249">
        <ele>78</ele>
        <time>2017-03-14T14:59:40Z</time>
      </trkpt>
      <trkpt lat="49.33637" lon="1.22253">
        <ele>78</ele>
        <time>2017-03-14T14:59:40Z</time>
      </trkpt>
      <trkpt lat="49.33638" lon="1.22261">
        <ele>78</ele>
        <time>2017-03-14T14:59:40Z</time>
      </trkpt>
      <trkpt lat="49.33635" lon="1.22267">
        <ele>78</ele>
        <time>2017-03-14T14:59:40Z</time>
      </trkpt>
      <trkpt lat="49.33635" lon="1.22275">
        <ele>78</ele>
        <time>2017-03-14T14:59:56Z</time>
      </trkpt>
      <trkpt lat="49.33637" lon="1.22283">
        <ele>78</ele>
        <time>2017-03-14T14:59:56Z</time>
      </trkpt>
      <trkpt lat="49.33632" lon="1.22291">
        <ele>78</ele>
        <time>2017-03-14T14:59:56Z</time>
      </trkpt>
      <trkpt lat="49.33634" lon="1.223">
        <ele>71</ele>
        <time>2017-03-14T14:59:56Z</time>
      </trkpt>
      <trkpt lat="49.33636" lon="1.22308">
        <ele>71</ele>
        <time>2017-03-14T15:00:12Z</time>
      </trkpt>
      <trkpt lat="49.33635" lon="1.22314">
        <ele>71</ele>
        <time>2017-03-14T15:00:12Z</time>
      </trkpt>
      <trkpt lat="49.33631" lon="1.2232">
        <ele>71</ele>
        <time>2017-03-14T15:00:12Z</time>
      </trkpt>
      <trkpt lat="49.33626" lon="1.22326">
        <ele>71</ele>
        <time>2017-03-14T15:00:12Z</time>
      </trkpt>
      <trkpt lat="49.3362" lon="1.2233">
        <ele>78</ele>
        <time>2017-03-14T15:00:27Z</time>
      </trkpt>
      <trkpt lat="49.33616" lon="1.22334">
        <ele>78</ele>
        <time>2017-03-14T15:00:27Z</time>
      </trkpt>
      <trkpt lat="49.33614" lon="1.22345">
        <ele>78</ele>
        <time>2017-03-14T15:00:27Z</time>
      </trkpt>
      <trkpt lat="49.3361" lon="1.22351">
        <ele>78</ele>
        <time>2017-03-14T15:00:27Z</time>
      </trkpt>
      <trkpt lat="49.33608" lon="1.22357">
        <ele>78</ele>
        <time>2017-03-14T15:00:43Z</time>
      </trkpt>
      <trkpt lat="49.33606" lon="1.22359">
        <ele>78</ele>
        <time>2017-03-14T15:00:43Z</time>
      </trkpt>
      <trkpt lat="49.33603" lon="1.22362">
        <ele>78</ele>
        <time>2017-03-14T15:00:43Z</time>
      </trkpt>
      <trkpt lat="49.33599" lon="1.22365">
        <ele>78</ele>
        <time>2017-03-14T15:00:43Z</time>
      </trkpt>
      <trkpt lat="49.33594" lon="1.22363">
        <ele>78</ele>
        <time>2017-03-14T15:00:59Z</time>
      </trkpt>
      <trkpt lat="49.3359" lon="1.2237">
        <ele>78</ele>
        <time>2017-03-14T15:00:59Z</time>
      </trkpt>
      <trkpt lat="49.33587" lon="1.22373">
        <ele>78</ele>
        <time>2017-03-14T15:00:59Z</time>
      </trkpt>
      <trkpt lat="49.33582" lon="1.22371">
        <ele>78</ele>
        <time>2017-03-14T15:00:59Z</time>
      </trkpt>
      <trkpt lat="49.33572" lon="1.22379">
        <ele>70</ele>
        <time>2017-03-14T15:01:27Z</time>
      </trkpt>
      <trkpt lat="49.3357" lon="1.22372">
        <ele>78</ele>
        <time>2017-03-14T15:01:28Z</time>
      </trkpt>
      <trkpt lat="49.33565" lon="1.22375">
        <ele>70</ele>
        <time>2017-03-14T15:01:28Z</time>
      </trkpt>
      <trkpt lat="49.33561" lon="1.22383">
        <ele>70</ele>
        <time>2017-03-14T15:01:28Z</time>
      </trkpt>
      <trkpt lat="49.33556" lon="1.22391">
        <ele>70</ele>
        <time>2017-03-14T15:01:28Z</time>
      </trkpt>
      <trkpt lat="49.33549" lon="1.22397">
        <ele>70</ele>
        <time>2017-03-14T15:01:44Z</time>
      </trkpt>
      <trkpt lat="49.33543" lon="1.22401">
        <ele>70</ele>
        <time>2017-03-14T15:01:44Z</time>
      </trkpt>
      <trkpt lat="49.33539" lon="1.22406">
        <ele>70</ele>
        <time>2017-03-14T15:01:44Z</time>
      </trkpt>
      <trkpt lat="49.33535" lon="1.2241">
        <ele>70</ele>
        <time>2017-03-14T15:01:44Z</time>
      </trkpt>
      <trkpt lat="49.3353" lon="1.22413">
        <ele>70</ele>
        <time>2017-03-14T15:01:59Z</time>
      </trkpt>
      <trkpt lat="49.33525" lon="1.22415">
        <ele>70</ele>
        <time>2017-03-14T15:01:59Z</time>
      </trkpt>
      <trkpt lat="49.33521" lon="1.22423">
        <ele>70</ele>
        <time>2017-03-14T15:01:59Z</time>
      </trkpt>
      <trkpt lat="49.33517" lon="1.22429">
        <ele>70</ele>
        <time>2017-03-14T15:01:59Z</time>
      </trkpt>
      <trkpt lat="49.33514" lon="1.22435">
        <ele>70</ele>
        <time>2017-03-14T15:02:16Z</time>
      </trkpt>
      <trkpt lat="49.3351" lon="1.22437">
        <ele>70</ele>
        <time>2017-03-14T15:02:16Z</time>
      </trkpt>
      <trkpt lat="49.33506" lon="1.22437">
        <ele>70</ele>
        <time>2017-03-14T15:02:16Z</time>
      </trkpt>
      <trkpt lat="49.33502" lon="1.22439">
        <ele>70</ele>
        <time>2017-03-14T15:02:16Z</time>
      </trkpt>
      <trkpt lat="49.33499" lon="1.22444">
        <ele>70</ele>
        <time>2017-03-14T15:02:36Z</time>
      </trkpt>
      <trkpt lat="49.33498" lon="1.22445">
        <ele>70</ele>
        <time>2017-03-14T15:02:36Z</time>
      </trkpt>
      <trkpt lat="49.33495" lon="1.22445">
        <ele>70</ele>
        <time>2017-03-14T15:02:36Z</time>
      </trkpt>
      <trkpt lat="49.33492" lon="1.22448">
        <ele>70</ele>
        <time>2017-03-14T15:02:36Z</time>
      </trkpt>
      <trkpt lat="49.33489" lon="1.22455">
        <ele>70</ele>
        <time>2017-03-14T15:02:36Z</time>
      </trkpt>
      <trkpt lat="49.33485" lon="1.22459">
        <ele>63</ele>
        <time>2017-03-14T15:02:52Z</time>
      </trkpt>
      <trkpt lat="49.3348" lon="1.22461">
        <ele>63</ele>
        <time>2017-03-14T15:02:52Z</time>
      </trkpt>
      <trkpt lat="49.33476" lon="1.22467">
        <ele>63</ele>
        <time>2017-03-14T15:02:52Z</time>
      </trkpt>
      <trkpt lat="49.33474" lon="1.22473">
        <ele>63</ele>
        <time>2017-03-14T15:02:52Z</time>
      </trkpt>
      <trkpt lat="49.3347" lon="1.2248">
        <ele>63</ele>
        <time>2017-03-14T15:03:08Z</time>
      </trkpt>
      <trkpt lat="49.33466" lon="1.22484">
        <ele>63</ele>
        <time>2017-03-14T15:03:08Z</time>
      </trkpt>
      <trkpt lat="49.33461" lon="1.22487">
        <ele>63</ele>
        <time>2017-03-14T15:03:08Z</time>
      </trkpt>
      <trkpt lat="49.33455" lon="1.22485">
        <ele>59</ele>
        <time>2017-03-14T15:03:08Z</time>
      </trkpt>
      <trkpt lat="49.33449" lon="1.22481">
        <ele>59</ele>
        <time>2017-03-14T15:03:23Z</time>
      </trkpt>
      <trkpt lat="49.33445" lon="1.22483">
        <ele>59</ele>
        <time>2017-03-14T15:03:23Z</time>
      </trkpt>
      <trkpt lat="49.33439" lon="1.22483">
        <ele>59</ele>
        <time>2017-03-14T15:03:23Z</time>
      </trkpt>
      <trkpt lat="49.33435" lon="1.22482">
        <ele>59</ele>
        <time>2017-03-14T15:03:23Z</time>
      </trkpt>
      <trkpt lat="49.33429" lon="1.22483">
        <ele>59</ele>
        <time>2017-03-14T15:03:40Z</time>
      </trkpt>
      <trkpt lat="49.33424" lon="1.22484">
        <ele>59</ele>
        <time>2017-03-14T15:03:40Z</time>
      </trkpt>
      <trkpt lat="49.33419" lon="1.22484">
        <ele>59</ele>
        <time>2017-03-14T15:03:40Z</time>
      </trkpt>
      <trkpt lat="49.33414" lon="1.22484">
        <ele>59</ele>
        <time>2017-03-14T15:03:40Z</time>
      </trkpt>
      <trkpt lat="49.33411" lon="1.22484">
        <ele>59</ele>
        <time>2017-03-14T15:03:56Z</time>
      </trkpt>
      <trkpt lat="49.33406" lon="1.22484">
        <ele>59</ele>
        <time>2017-03-14T15:03:56Z</time>
      </trkpt>
      <trkpt lat="49.33401" lon="1.22482">
        <ele>59</ele>
        <time>2017-03-14T15:03:56Z</time>
      </trkpt>
      <trkpt lat="49.33396" lon="1.22482">
        <ele>59</ele>
        <time>2017-03-14T15:03:56Z</time>
      </trkpt>
      <trkpt lat="49.33392" lon="1.22479">
        <ele>59</ele>
        <time>2017-03-14T15:04:12Z</time>
      </trkpt>
      <trkpt lat="49.33388" lon="1.22482">
        <ele>59</ele>
        <time>2017-03-14T15:04:12Z</time>
      </trkpt>
      <trkpt lat="49.33382" lon="1.22485">
        <ele>59</ele>
        <time>2017-03-14T15:04:12Z</time>
      </trkpt>
      <trkpt lat="49.33377" lon="1.22488">
        <ele>59</ele>
        <time>2017-03-14T15:04:12Z</time>
      </trkpt>
      <trkpt lat="49.33372" lon="1.22492">
        <ele>52</ele>
        <time>2017-03-14T15:04:27Z</time>
      </trkpt>
      <trkpt lat="49.33366" lon="1.22491">
        <ele>52</ele>
        <time>2017-03-14T15:04:27Z</time>
      </trkpt>
      <trkpt lat="49.33361" lon="1.22488">
        <ele>52</ele>
        <time>2017-03-14T15:04:27Z</time>
      </trkpt>
      <trkpt lat="49.33355" lon="1.22485">
        <ele>52</ele>
        <time>2017-03-14T15:04:27Z</time>
      </trkpt>
      <trkpt lat="49.3335" lon="1.22483">
        <ele>52</ele>
        <time>2017-03-14T15:04:44Z</time>
      </trkpt>
      <trkpt lat="49.33345" lon="1.22479">
        <ele>52</ele>
        <time>2017-03-14T15:04:44Z</time>
      </trkpt>
      <trkpt lat="49.33342" lon="1.22479">
        <ele>52</ele>
        <time>2017-03-14T15:04:44Z</time>
      </trkpt>
      <trkpt lat="49.33338" lon="1.22475">
        <ele>52</ele>
        <time>2017-03-14T15:04:44Z</time>
      </trkpt>
      <trkpt lat="49.33333" lon="1.22471">
        <ele>52</ele>
        <time>2017-03-14T15:05:00Z</time>
      </trkpt>
      <trkpt lat="49.33327" lon="1.22466">
        <ele>52</ele>
        <time>2017-03-14T15:05:00Z</time>
      </trkpt>
      <trkpt lat="49.33322" lon="1.22466">
        <ele>52</ele>
        <time>2017-03-14T15:05:00Z</time>
      </trkpt>
      <trkpt lat="49.33317" lon="1.22467">
        <ele>52</ele>
        <time>2017-03-14T15:05:00Z</time>
      </trkpt>
      <trkpt lat="49.33311" lon="1.22468">
        <ele>52</ele>
        <time>2017-03-14T15:05:16Z</time>
      </trkpt>
      <trkpt lat="49.33305" lon="1.22469">
        <ele>52</ele>
        <time>2017-03-14T15:05:16Z</time>
      </trkpt>
      <trkpt lat="49.333" lon="1.22468">
        <ele>52</ele>
        <time>2017-03-14T15:05:16Z</time>
      </trkpt>
      <trkpt lat="49.33294" lon="1.22468">
        <ele>52</ele>
        <time>2017-03-14T15:05:16Z</time>
      </trkpt>
      <trkpt lat="49.33289" lon="1.2247">
        <ele>41</ele>
        <time>2017-03-14T15:05:32Z</time>
      </trkpt>
      <trkpt lat="49.33284" lon="1.22472">
        <ele>41</ele>
        <time>2017-03-14T15:05:32Z</time>
      </trkpt>
      <trkpt lat="49.33279" lon="1.22475">
        <ele>41</ele>
        <time>2017-03-14T15:05:32Z</time>
      </trkpt>
      <trkpt lat="49.33275" lon="1.22475">
        <ele>41</ele>
        <time>2017-03-14T15:05:32Z</time>
      </trkpt>
      <trkpt lat="49.33261" lon="1.22479">
        <ele>41</ele>
        <time>2017-03-14T15:06:04Z</time>
      </trkpt>
      <trkpt lat="49.33259" lon="1.2248">
        <ele>41</ele>
        <time>2017-03-14T15:06:04Z</time>
      </trkpt>
      <trkpt lat="49.33254" lon="1.22481">
        <ele>41</ele>
        <time>2017-03-14T15:06:04Z</time>
      </trkpt>
      <trkpt lat="49.3325" lon="1.22481">
        <ele>41</ele>
        <time>2017-03-14T15:06:04Z</time>
      </trkpt>
      <trkpt lat="49.33246" lon="1.22484">
        <ele>41</ele>
        <time>2017-03-14T15:06:04Z</time>
      </trkpt>
      <trkpt lat="49.33241" lon="1.22484">
        <ele>41</ele>
        <time>2017-03-14T15:06:19Z</time>
      </trkpt>
      <trkpt lat="49.33236" lon="1.22481">
        <ele>41</ele>
        <time>2017-03-14T15:06:19Z</time>
      </trkpt>
      <trkpt lat="49.33231" lon="1.22482">
        <ele>41</ele>
        <time>2017-03-14T15:06:19Z</time>
      </trkpt>
      <trkpt lat="49.33227" lon="1.22485">
        <ele>41</ele>
        <time>2017-03-14T15:06:19Z</time>
      </trkpt>
      <trkpt lat="49.33222" lon="1.22488">
        <ele>41</ele>
        <time>2017-03-14T15:06:35Z</time>
      </trkpt>
      <trkpt lat="49.3322" lon="1.2249">
        <ele>41</ele>
        <time>2017-03-14T15:06:35Z</time>
      </trkpt>
      <trkpt lat="49.33217" lon="1.22492">
        <ele>41</ele>
        <time>2017-03-14T15:06:35Z</time>
      </trkpt>
      <trkpt lat="49.33213" lon="1.22493">
        <ele>41</ele>
        <time>2017-03-14T15:06:35Z</time>
      </trkpt>
      <trkpt lat="49.33206" lon="1.2249">
        <ele>32</ele>
        <time>2017-03-14T15:06:51Z</time>
      </trkpt>
      <trkpt lat="49.33201" lon="1.22489">
        <ele>32</ele>
        <time>2017-03-14T15:06:51Z</time>
      </trkpt>
      <trkpt lat="49.33197" lon="1.22489">
        <ele>32</ele>
        <time>2017-03-14T15:06:51Z</time>
      </trkpt>
      <trkpt lat="49.3319" lon="1.22489">
        <ele>32</ele>
        <time>2017-03-14T15:06:51Z</time>
      </trkpt>
      <trkpt lat="49.33183" lon="1.22489">
        <ele>32</ele>
        <time>2017-03-14T15:07:08Z</time>
      </trkpt>
      <trkpt lat="49.33179" lon="1.22489">
        <ele>32</ele>
        <time>2017-03-14T15:07:08Z</time>
      </trkpt>
      <trkpt lat="49.33175" lon="1.22488">
        <ele>32</ele>
        <time>2017-03-14T15:07:08Z</time>
      </trkpt>
      <trkpt lat="49.33171" lon="1.22488">
        <ele>32</ele>
        <time>2017-03-14T15:07:08Z</time>
      </trkpt>
      <trkpt lat="49.33166" lon="1.22489">
        <ele>32</ele>
        <time>2017-03-14T15:07:24Z</time>
      </trkpt>
      <trkpt lat="49.33161" lon="1.22491">
        <ele>32</ele>
        <time>2017-03-14T15:07:24Z</time>
      </trkpt>
      <trkpt lat="49.33157" lon="1.22491">
        <ele>32</ele>
        <time>2017-03-14T15:07:24Z</time>
      </trkpt>
      <trkpt lat="49.33151" lon="1.22488">
        <ele>32</ele>
        <time>2017-03-14T15:07:24Z</time>
      </trkpt>
      <trkpt lat="49.33145" lon="1.22489">
        <ele>32</ele>
        <time>2017-03-14T15:07:40Z</time>
      </trkpt>
      <trkpt lat="49.3314" lon="1.22497">
        <ele>32</ele>
        <time>2017-03-14T15:07:40Z</time>
      </trkpt>
      <trkpt lat="49.33138" lon="1.22501">
        <ele>32</ele>
        <time>2017-03-14T15:07:40Z</time>
      </trkpt>
      <trkpt lat="49.33133" lon="1.22503">
        <ele>32</ele>
        <time>2017-03-14T15:07:40Z</time>
      </trkpt>
      <trkpt lat="49.33126" lon="1.22504">
        <ele>32</ele>
        <time>2017-03-14T15:12:51Z</time>
      </trkpt>
      <trkpt lat="49.33124" lon="1.22508">
        <ele>23</ele>
        <time>2017-03-14T15:12:51Z</time>
      </trkpt>
      <trkpt lat="49.33119" lon="1.22513">
        <ele>23</ele>
        <time>2017-03-14T15:12:51Z</time>
      </trkpt>
      <trkpt lat="49.3312" lon="1.2252">
        <ele>23</ele>
        <time>2017-03-14T15:12:51Z</time>
      </trkpt>
      <trkpt lat="49.33122" lon="1.22526">
        <ele>23</ele>
        <time>2017-03-14T15:12:51Z</time>
      </trkpt>
      <trkpt lat="49.33128" lon="1.2253">
        <ele>32</ele>
        <time>2017-03-14T15:13:07Z</time>
      </trkpt>
      <trkpt lat="49.33131" lon="1.22534">
        <ele>32</ele>
        <time>2017-03-14T15:13:07Z</time>
      </trkpt>
      <trkpt lat="49.33132" lon="1.22539">
        <ele>32</ele>
        <time>2017-03-14T15:13:07Z</time>
      </trkpt>
      <trkpt lat="49.33131" lon="1.22544">
        <ele>33</ele>
        <time>2017-03-14T15:13:07Z</time>
      </trkpt>
      <trkpt lat="49.33134" lon="1.22551">
        <ele>33</ele>
        <time>2017-03-14T15:13:23Z</time>
      </trkpt>
      <trkpt lat="49.33136" lon="1.22555">
        <ele>33</ele>
        <time>2017-03-14T15:13:23Z</time>
      </trkpt>
      <trkpt lat="49.33136" lon="1.22561">
        <ele>33</ele>
        <time>2017-03-14T15:13:23Z</time>
      </trkpt>
      <trkpt lat="49.33139" lon="1.22567">
        <ele>33</ele>
        <time>2017-03-14T15:13:23Z</time>
      </trkpt>
      <trkpt lat="49.33138" lon="1.22573">
        <ele>33</ele>
        <time>2017-03-14T15:13:39Z</time>
      </trkpt>
      <trkpt lat="49.33136" lon="1.22582">
        <ele>33</ele>
        <time>2017-03-14T15:13:39Z</time>
      </trkpt>
      <trkpt lat="49.33136" lon="1.22589">
        <ele>33</ele>
        <time>2017-03-14T15:13:39Z</time>
      </trkpt>
      <trkpt lat="49.33137" lon="1.22594">
        <ele>33</ele>
        <time>2017-03-14T15:13:39Z</time>
      </trkpt>
      <trkpt lat="49.33137" lon="1.22601">
        <ele>33</ele>
        <time>2017-03-14T15:13:55Z</time>
      </trkpt>
      <trkpt lat="49.33139" lon="1.22609">
        <ele>33</ele>
        <time>2017-03-14T15:13:55Z</time>
      </trkpt>
      <trkpt lat="49.33141" lon="1.22617">
        <ele>33</ele>
        <time>2017-03-14T15:13:55Z</time>
      </trkpt>
      <trkpt lat="49.33143" lon="1.22621">
        <ele>33</ele>
        <time>2017-03-14T15:13:55Z</time>
      </trkpt>
      <trkpt lat="49.33144" lon="1.22628">
        <ele>33</ele>
        <time>2017-03-14T15:14:11Z</time>
      </trkpt>
      <trkpt lat="49.33146" lon="1.22634">
        <ele>33</ele>
        <time>2017-03-14T15:14:11Z</time>
      </trkpt>
      <trkpt lat="49.33148" lon="1.22642">
        <ele>33</ele>
        <time>2017-03-14T15:14:11Z</time>
      </trkpt>
      <trkpt lat="49.3315" lon="1.22648">
        <ele>33</ele>
        <time>2017-03-14T15:14:11Z</time>
      </trkpt>
      <trkpt lat="49.33151" lon="1.22655">
        <ele>33</ele>
        <time>2017-03-14T15:14:27Z</time>
      </trkpt>
      <trkpt lat="49.33151" lon="1.22662">
        <ele>33</ele>
        <time>2017-03-14T15:14:27Z</time>
      </trkpt>
      <trkpt lat="49.33151" lon="1.22667">
        <ele>33</ele>
        <time>2017-03-14T15:14:27Z</time>
      </trkpt>
      <trkpt lat="49.33154" lon="1.22673">
        <ele>33</ele>
        <time>2017-03-14T15:14:27Z</time>
      </trkpt>
      <trkpt lat="49.33159" lon="1.22678">
        <ele>33</ele>
        <time>2017-03-14T15:14:43Z</time>
      </trkpt>
      <trkpt lat="49.33158" lon="1.22685">
        <ele>33</ele>
        <time>2017-03-14T15:14:43Z</time>
      </trkpt>
      <trkpt lat="49.33157" lon="1.22691">
        <ele>33</ele>
        <time>2017-03-14T15:14:43Z</time>
      </trkpt>
      <trkpt lat="49.33155" lon="1.22699">
        <ele>33</ele>
        <time>2017-03-14T15:14:43Z</time>
      </trkpt>
      <trkpt lat="49.33154" lon="1.22709">
        <ele>33</ele>
        <time>2017-03-14T15:14:59Z</time>
      </trkpt>
      <trkpt lat="49.33156" lon="1.22716">
        <ele>33</ele>
        <time>2017-03-14T15:14:59Z</time>
      </trkpt>
      <trkpt lat="49.33156" lon="1.22722">
        <ele>33</ele>
        <time>2017-03-14T15:14:59Z</time>
      </trkpt>
      <trkpt lat="49.33155" lon="1.22731">
        <ele>33</ele>
        <time>2017-03-14T15:14:59Z</time>
      </trkpt>
      <trkpt lat="49.33157" lon="1.22739">
        <ele>33</ele>
        <time>2017-03-14T15:15:15Z</time>
      </trkpt>
      <trkpt lat="49.3316" lon="1.22746">
        <ele>33</ele>
        <time>2017-03-14T15:15:15Z</time>
      </trkpt>
      <trkpt lat="49.3316" lon="1.2275">
        <ele>33</ele>
        <time>2017-03-14T15:15:15Z</time>
      </trkpt>
      <trkpt lat="49.3316" lon="1.22758">
        <ele>33</ele>
        <time>2017-03-14T15:15:15Z</time>
      </trkpt>
      <trkpt lat="49.33162" lon="1.22765">
        <ele>33</ele>
        <time>2017-03-14T15:15:31Z</time>
      </trkpt>
      <trkpt lat="49.33161" lon="1.22772">
        <ele>33</ele>
        <time>2017-03-14T15:15:31Z</time>
      </trkpt>
      <trkpt lat="49.3316" lon="1.22777">
        <ele>33</ele>
        <time>2017-03-14T15:15:31Z</time>
      </trkpt>
      <trkpt lat="49.33161" lon="1.22784">
        <ele>33</ele>
        <time>2017-03-14T15:15:31Z</time>
      </trkpt>
      <trkpt lat="49.3316" lon="1.22793">
        <ele>32</ele>
        <time>2017-03-14T15:15:47Z</time>
      </trkpt>
      <trkpt lat="49.33159" lon="1.22802">
        <ele>32</ele>
        <time>2017-03-14T15:15:47Z</time>
      </trkpt>
      <trkpt lat="49.33158" lon="1.2281">
        <ele>32</ele>
        <time>2017-03-14T15:15:47Z</time>
      </trkpt>
      <trkpt lat="49.33158" lon="1.22819">
        <ele>32</ele>
        <time>2017-03-14T15:15:47Z</time>
      </trkpt>
      <trkpt lat="49.33158" lon="1.22825">
        <ele>32</ele>
        <time>2017-03-14T15:16:03Z</time>
      </trkpt>
      <trkpt lat="49.33157" lon="1.22833">
        <ele>32</ele>
        <time>2017-03-14T15:16:03Z</time>
      </trkpt>
      <trkpt lat="49.33155" lon="1.22841">
        <ele>32</ele>
        <time>2017-03-14T15:16:03Z</time>
      </trkpt>
      <trkpt lat="49.33157" lon="1.2285">
        <ele>32</ele>
        <time>2017-03-14T15:16:03Z</time>
      </trkpt>
      <trkpt lat="49.33156" lon="1.22856">
        <ele>32</ele>
        <time>2017-03-14T15:16:19Z</time>
      </trkpt>
      <trkpt lat="49.33159" lon="1.22865">
        <ele>32</ele>
        <time>2017-03-14T15:16:19Z</time>
      </trkpt>
      <trkpt lat="49.33156" lon="1.22873">
        <ele>32</ele>
        <time>2017-03-14T15:16:19Z</time>
      </trkpt>
      <trkpt lat="49.33155" lon="1.22878">
        <ele>31</ele>
        <time>2017-03-14T15:16:19Z</time>
      </trkpt>
      <trkpt lat="49.33153" lon="1.22887">
        <ele>31</ele>
        <time>2017-03-14T15:16:35Z</time>
      </trkpt>
      <trkpt lat="49.33151" lon="1.22894">
        <ele>31</ele>
        <time>2017-03-14T15:16:35Z</time>
      </trkpt>
      <trkpt lat="49.33152" lon="1.22901">
        <ele>31</ele>
        <time>2017-03-14T15:16:35Z</time>
      </trkpt>
      <trkpt lat="49.33153" lon="1.22909">
        <ele>31</ele>
        <time>2017-03-14T15:16:35Z</time>
      </trkpt>
      <trkpt lat="49.33152" lon="1.22916">
        <ele>31</ele>
        <time>2017-03-14T15:16:51Z</time>
      </trkpt>
      <trkpt lat="49.33152" lon="1.22921">
        <ele>31</ele>
        <time>2017-03-14T15:16:51Z</time>
      </trkpt>
      <trkpt lat="49.3315" lon="1.22928">
        <ele>31</ele>
        <time>2017-03-14T15:16:51Z</time>
      </trkpt>
      <trkpt lat="49.33148" lon="1.22938">
        <ele>31</ele>
        <time>2017-03-14T15:16:51Z</time>
      </trkpt>
      <trkpt lat="49.33147" lon="1.22946">
        <ele>31</ele>
        <time>2017-03-14T15:17:07Z</time>
      </trkpt>
      <trkpt lat="49.33146" lon="1.22954">
        <ele>31</ele>
        <time>2017-03-14T15:17:07Z</time>
      </trkpt>
      <trkpt lat="49.33146" lon="1.22959">
        <ele>32</ele>
        <time>2017-03-14T15:17:07Z</time>
      </trkpt>
      <trkpt lat="49.33145" lon="1.22969">
        <ele>32</ele>
        <time>2017-03-14T15:17:07Z</time>
      </trkpt>
      <trkpt lat="49.33144" lon="1.22975">
        <ele>32</ele>
        <time>2017-03-14T15:17:23Z</time>
      </trkpt>
      <trkpt lat="49.33143" lon="1.22982">
        <ele>32</ele>
        <time>2017-03-14T15:17:23Z</time>
      </trkpt>
      <trkpt lat="49.33142" lon="1.22989">
        <ele>32</ele>
        <time>2017-03-14T15:17:23Z</time>
      </trkpt>
      <trkpt lat="49.3314" lon="1.22994">
        <ele>32</ele>
        <time>2017-03-14T15:17:23Z</time>
      </trkpt>
      <trkpt lat="49.33139" lon="1.23003">
        <ele>32</ele>
        <time>2017-03-14T15:17:39Z</time>
      </trkpt>
      <trkpt lat="49.33139" lon="1.23012">
        <ele>32</ele>
        <time>2017-03-14T15:17:39Z</time>
      </trkpt>
      <trkpt lat="49.33137" lon="1.2302">
        <ele>32</ele>
        <time>2017-03-14T15:17:39Z</time>
      </trkpt>
      <trkpt lat="49.33137" lon="1.23027">
        <ele>32</ele>
        <time>2017-03-14T15:17:39Z</time>
      </trkpt>
      <trkpt lat="49.33137" lon="1.23034">
        <ele>32</ele>
        <time>2017-03-14T15:17:55Z</time>
      </trkpt>
      <trkpt lat="49.33135" lon="1.23038">
        <ele>32</ele>
        <time>2017-03-14T15:17:55Z</time>
      </trkpt>
      <trkpt lat="49.33135" lon="1.23045">
        <ele>33</ele>
        <time>2017-03-14T15:17:55Z</time>
      </trkpt>
      <trkpt lat="49.33133" lon="1.23049">
        <ele>33</ele>
        <time>2017-03-14T15:17:55Z</time>
      </trkpt>
      <trkpt lat="49.33131" lon="1.23058">
        <ele>33</ele>
        <time>2017-03-14T15:18:11Z</time>
      </trkpt>
      <trkpt lat="49.3313" lon="1.23064">
        <ele>33</ele>
        <time>2017-03-14T15:18:11Z</time>
      </trkpt>
      <trkpt lat="49.3313" lon="1.23071">
        <ele>33</ele>
        <time>2017-03-14T15:18:11Z</time>
      </trkpt>
      <trkpt lat="49.33129" lon="1.23078">
        <ele>33</ele>
        <time>2017-03-14T15:18:11Z</time>
      </trkpt>
      <trkpt lat="49.33128" lon="1.23084">
        <ele>33</ele>
        <time>2017-03-14T15:18:27Z</time>
      </trkpt>
      <trkpt lat="49.33126" lon="1.2309">
        <ele>33</ele>
        <time>2017-03-14T15:18:27Z</time>
      </trkpt>
      <trkpt lat="49.33128" lon="1.23099">
        <ele>33</ele>
        <time>2017-03-14T15:18:27Z</time>
      </trkpt>
      <trkpt lat="49.33129" lon="1.23104">
        <ele>33</ele>
        <time>2017-03-14T15:18:27Z</time>
      </trkpt>
      <trkpt lat="49.33127" lon="1.23114">
        <ele>33</ele>
        <time>2017-03-14T15:18:43Z</time>
      </trkpt>
      <trkpt lat="49.33127" lon="1.23122">
        <ele>33</ele>
        <time>2017-03-14T15:18:43Z</time>
      </trkpt>
      <trkpt lat="49.33125" lon="1.23127">
        <ele>26</ele>
        <time>2017-03-14T15:18:43Z</time>
      </trkpt>
      <trkpt lat="49.33123" lon="1.23135">
        <ele>26</ele>
        <time>2017-03-14T15:18:43Z</time>
      </trkpt>
      <trkpt lat="49.33122" lon="1.23144">
        <ele>26</ele>
        <time>2017-03-14T15:18:59Z</time>
      </trkpt>
      <trkpt lat="49.33122" lon="1.23151">
        <ele>26</ele>
        <time>2017-03-14T15:18:59Z</time>
      </trkpt>
      <trkpt lat="49.33123" lon="1.23155">
        <ele>26</ele>
        <time>2017-03-14T15:18:59Z</time>
      </trkpt>
      <trkpt lat="49.33125" lon="1.23162">
        <ele>26</ele>
        <time>2017-03-14T15:18:59Z</time>
      </trkpt>
      <trkpt lat="49.33127" lon="1.2317">
        <ele>33</ele>
        <time>2017-03-14T15:19:15Z</time>
      </trkpt>
      <trkpt lat="49.33124" lon="1.23177">
        <ele>26</ele>
        <time>2017-03-14T15:19:15Z</time>
      </trkpt>
      <trkpt lat="49.33121" lon="1.23186">
        <ele>26</ele>
        <time>2017-03-14T15:19:15Z</time>
      </trkpt>
      <trkpt lat="49.33119" lon="1.23194">
        <ele>26</ele>
        <time>2017-03-14T15:19:15Z</time>
      </trkpt>
      <trkpt lat="49.33121" lon="1.23201">
        <ele>26</ele>
        <time>2017-03-14T15:19:31Z</time>
      </trkpt>
      <trkpt lat="49.33119" lon="1.23208">
        <ele>26</ele>
        <time>2017-03-14T15:19:31Z</time>
      </trkpt>
      <trkpt lat="49.33117" lon="1.23214">
        <ele>26</ele>
        <time>2017-03-14T15:19:31Z</time>
      </trkpt>
      <trkpt lat="49.33116" lon="1.23225">
        <ele>26</ele>
        <time>2017-03-14T15:19:31Z</time>
      </trkpt>
      <trkpt lat="49.33115" lon="1.23233">
        <ele>26</ele>
        <time>2017-03-14T15:19:47Z</time>
      </trkpt>
      <trkpt lat="49.33114" lon="1.23241">
        <ele>26</ele>
        <time>2017-03-14T15:19:47Z</time>
      </trkpt>
      <trkpt lat="49.33113" lon="1.23249">
        <ele>26</ele>
        <time>2017-03-14T15:19:47Z</time>
      </trkpt>
      <trkpt lat="49.33113" lon="1.2326">
        <ele>26</ele>
        <time>2017-03-14T15:19:47Z</time>
      </trkpt>
      <trkpt lat="49.33113" lon="1.23265">
        <ele>26</ele>
        <time>2017-03-14T15:20:03Z</time>
      </trkpt>
      <trkpt lat="49.33113" lon="1.23271">
        <ele>26</ele>
        <time>2017-03-14T15:20:03Z</time>
      </trkpt>
      <trkpt lat="49.33115" lon="1.23278">
        <ele>26</ele>
        <time>2017-03-14T15:20:03Z</time>
      </trkpt>
      <trkpt lat="49.33115" lon="1.23285">
        <ele>26</ele>
        <time>2017-03-14T15:20:03Z</time>
      </trkpt>
      <trkpt lat="49.33115" lon="1.23292">
        <ele>27</ele>
        <time>2017-03-14T15:20:19Z</time>
      </trkpt>
      <trkpt lat="49.33118" lon="1.23301">
        <ele>27</ele>
        <time>2017-03-14T15:20:19Z</time>
      </trkpt>
      <trkpt lat="49.33118" lon="1.2331">
        <ele>27</ele>
        <time>2017-03-14T15:20:19Z</time>
      </trkpt>
      <trkpt lat="49.33119" lon="1.23316">
        <ele>27</ele>
        <time>2017-03-14T15:20:19Z</time>
      </trkpt>
      <trkpt lat="49.33123" lon="1.23321">
        <ele>27</ele>
        <time>2017-03-14T15:20:35Z</time>
      </trkpt>
      <trkpt lat="49.33124" lon="1.23327">
        <ele>27</ele>
        <time>2017-03-14T15:20:35Z</time>
      </trkpt>
      <trkpt lat="49.33125" lon="1.23334">
        <ele>27</ele>
        <time>2017-03-14T15:20:35Z</time>
      </trkpt>
      <trkpt lat="49.33127" lon="1.23343">
        <ele>33</ele>
        <time>2017-03-14T15:20:35Z</time>
      </trkpt>
      <trkpt lat="49.3313" lon="1.23347">
        <ele>33</ele>
        <time>2017-03-14T15:20:51Z</time>
      </trkpt>
      <trkpt lat="49.3313" lon="1.23355">
        <ele>33</ele>
        <time>2017-03-14T15:20:51Z</time>
      </trkpt>
      <trkpt lat="49.33132" lon="1.23361">
        <ele>33</ele>
        <time>2017-03-14T15:20:51Z</time>
      </trkpt>
      <trkpt lat="49.33135" lon="1.23368">
        <ele>33</ele>
        <time>2017-03-14T15:20:51Z</time>
      </trkpt>
      <trkpt lat="49.33135" lon="1.23378">
        <ele>32</ele>
        <time>2017-03-14T15:21:07Z</time>
      </trkpt>
      <trkpt lat="49.33136" lon="1.23385">
        <ele>32</ele>
        <time>2017-03-14T15:21:07Z</time>
      </trkpt>
      <trkpt lat="49.33137" lon="1.23393">
        <ele>32</ele>
        <time>2017-03-14T15:21:07Z</time>
      </trkpt>
      <trkpt lat="49.33139" lon="1.234">
        <ele>32</ele>
        <time>2017-03-14T15:21:07Z</time>
      </trkpt>
      <trkpt lat="49.33141" lon="1.23406">
        <ele>32</ele>
        <time>2017-03-14T15:21:23Z</time>
      </trkpt>
      <trkpt lat="49.33144" lon="1.23413">
        <ele>32</ele>
        <time>2017-03-14T15:21:23Z</time>
      </trkpt>
      <trkpt lat="49.33145" lon="1.23421">
        <ele>32</ele>
        <time>2017-03-14T15:21:23Z</time>
      </trkpt>
      <trkpt lat="49.33147" lon="1.23427">
        <ele>32</ele>
        <time>2017-03-14T15:21:23Z</time>
      </trkpt>
      <trkpt lat="49.33148" lon="1.23434">
        <ele>32</ele>
        <time>2017-03-14T15:21:39Z</time>
      </trkpt>
      <trkpt lat="49.33148" lon="1.2344">
        <ele>32</ele>
        <time>2017-03-14T15:21:39Z</time>
      </trkpt>
      <trkpt lat="49.33148" lon="1.23447">
        <ele>32</ele>
        <time>2017-03-14T15:21:39Z</time>
      </trkpt>
      <trkpt lat="49.33147" lon="1.23452">
        <ele>32</ele>
        <time>2017-03-14T15:21:39Z</time>
      </trkpt>
      <trkpt lat="49.33148" lon="1.23458">
        <ele>32</ele>
        <time>2017-03-14T15:21:55Z</time>
      </trkpt>
      <trkpt lat="49.33152" lon="1.23467">
        <ele>32</ele>
        <time>2017-03-14T15:21:55Z</time>
      </trkpt>
      <trkpt lat="49.33155" lon="1.23472">
        <ele>32</ele>
        <time>2017-03-14T15:21:55Z</time>
      </trkpt>
      <trkpt lat="49.33157" lon="1.23478">
        <ele>32</ele>
        <time>2017-03-14T15:21:55Z</time>
      </trkpt>
      <trkpt lat="49.3316" lon="1.23483">
        <ele>32</ele>
        <time>2017-03-14T15:22:11Z</time>
      </trkpt>
      <trkpt lat="49.33161" lon="1.23487">
        <ele>32</ele>
        <time>2017-03-14T15:22:11Z</time>
      </trkpt>
      <trkpt lat="49.33164" lon="1.23492">
        <ele>32</ele>
        <time>2017-03-14T15:22:11Z</time>
      </trkpt>
      <trkpt lat="49.33164" lon="1.23503">
        <ele>32</ele>
        <time>2017-03-14T15:22:11Z</time>
      </trkpt>
      <trkpt lat="49.33164" lon="1.2351">
        <ele>32</ele>
        <time>2017-03-14T15:22:27Z</time>
      </trkpt>
      <trkpt lat="49.33163" lon="1.23516">
        <ele>32</ele>
        <time>2017-03-14T15:22:27Z</time>
      </trkpt>
      <trkpt lat="49.33164" lon="1.23524">
        <ele>32</ele>
        <time>2017-03-14T15:22:27Z</time>
      </trkpt>
      <trkpt lat="49.33166" lon="1.23534">
        <ele>32</ele>
        <time>2017-03-14T15:22:27Z</time>
      </trkpt>
      <trkpt lat="49.33168" lon="1.23539">
        <ele>32</ele>
        <time>2017-03-14T15:22:47Z</time>
      </trkpt>
      <trkpt lat="49.33178" lon="1.23556">
        <ele>33</ele>
        <time>2017-03-14T15:22:47Z</time>
      </trkpt>
      <trkpt lat="49.33183" lon="1.23563">
        <ele>33</ele>
        <time>2017-03-14T15:22:47Z</time>
      </trkpt>
      <trkpt lat="49.33181" lon="1.23569">
        <ele>33</ele>
        <time>2017-03-14T15:22:47Z</time>
      </trkpt>
      <trkpt lat="49.33178" lon="1.23576">
        <ele>33</ele>
        <time>2017-03-14T15:23:03Z</time>
      </trkpt>
      <trkpt lat="49.33178" lon="1.23581">
        <ele>33</ele>
        <time>2017-03-14T15:23:03Z</time>
      </trkpt>
      <trkpt lat="49.3318" lon="1.23586">
        <ele>33</ele>
        <time>2017-03-14T15:23:03Z</time>
      </trkpt>
      <trkpt lat="49.33183" lon="1.23592">
        <ele>33</ele>
        <time>2017-03-14T15:23:03Z</time>
      </trkpt>
      <trkpt lat="49.33184" lon="1.23599">
        <ele>33</ele>
        <time>2017-03-14T15:23:19Z</time>
      </trkpt>
      <trkpt lat="49.33186" lon="1.23603">
        <ele>33</ele>
        <time>2017-03-14T15:23:19Z</time>
      </trkpt>
      <trkpt lat="49.33189" lon="1.23611">
        <ele>33</ele>
        <time>2017-03-14T15:23:19Z</time>
      </trkpt>
      <trkpt lat="49.33191" lon="1.23617">
        <ele>33</ele>
        <time>2017-03-14T15:23:19Z</time>
      </trkpt>
      <trkpt lat="49.33193" lon="1.23629">
        <ele>32</ele>
        <time>2017-03-14T15:23:35Z</time>
      </trkpt>
      <trkpt lat="49.33192" lon="1.23637">
        <ele>32</ele>
        <time>2017-03-14T15:23:35Z</time>
      </trkpt>
      <trkpt lat="49.33193" lon="1.23649">
        <ele>32</ele>
        <time>2017-03-14T15:23:35Z</time>
      </trkpt>
      <trkpt lat="49.33194" lon="1.23654">
        <ele>32</ele>
        <time>2017-03-14T15:23:35Z</time>
      </trkpt>
      <trkpt lat="49.33196" lon="1.23662">
        <ele>32</ele>
        <time>2017-03-14T15:23:51Z</time>
      </trkpt>
      <trkpt lat="49.33198" lon="1.23669">
        <ele>32</ele>
        <time>2017-03-14T15:23:51Z</time>
      </trkpt>
      <trkpt lat="49.33199" lon="1.23674">
        <ele>32</ele>
        <time>2017-03-14T15:23:51Z</time>
      </trkpt>
      <trkpt lat="49.33201" lon="1.23683">
        <ele>32</ele>
        <time>2017-03-14T15:23:51Z</time>
      </trkpt>
      <trkpt lat="49.33203" lon="1.23689">
        <ele>32</ele>
        <time>2017-03-14T15:24:07Z</time>
      </trkpt>
      <trkpt lat="49.33205" lon="1.23693">
        <ele>32</ele>
        <time>2017-03-14T15:24:07Z</time>
      </trkpt>
      <trkpt lat="49.33208" lon="1.237">
        <ele>32</ele>
        <time>2017-03-14T15:24:07Z</time>
      </trkpt>
      <trkpt lat="49.3321" lon="1.23708">
        <ele>35</ele>
        <time>2017-03-14T15:24:07Z</time>
      </trkpt>
      <trkpt lat="49.33212" lon="1.23713">
        <ele>33</ele>
        <time>2017-03-14T15:24:23Z</time>
      </trkpt>
      <trkpt lat="49.33215" lon="1.23723">
        <ele>33</ele>
        <time>2017-03-14T15:24:23Z</time>
      </trkpt>
      <trkpt lat="49.33217" lon="1.23727">
        <ele>33</ele>
        <time>2017-03-14T15:24:23Z</time>
      </trkpt>
      <trkpt lat="49.33218" lon="1.23737">
        <ele>33</ele>
        <time>2017-03-14T15:24:23Z</time>
      </trkpt>
      <trkpt lat="49.33219" lon="1.23745">
        <ele>33</ele>
        <time>2017-03-14T15:24:39Z</time>
      </trkpt>
      <trkpt lat="49.33221" lon="1.2375">
        <ele>33</ele>
        <time>2017-03-14T15:24:39Z</time>
      </trkpt>
      <trkpt lat="49.33223" lon="1.23756">
        <ele>33</ele>
        <time>2017-03-14T15:24:39Z</time>
      </trkpt>
      <trkpt lat="49.33224" lon="1.23765">
        <ele>33</ele>
        <time>2017-03-14T15:24:39Z</time>
      </trkpt>
      <trkpt lat="49.33225" lon="1.2377">
        <ele>33</ele>
        <time>2017-03-14T15:24:55Z</time>
      </trkpt>
      <trkpt lat="49.33226" lon="1.23777">
        <ele>33</ele>
        <time>2017-03-14T15:24:55Z</time>
      </trkpt>
      <trkpt lat="49.33225" lon="1.23786">
        <ele>33</ele>
        <time>2017-03-14T15:24:55Z</time>
      </trkpt>
      <trkpt lat="49.33227" lon="1.23796">
        <ele>30</ele>
        <time>2017-03-14T15:24:55Z</time>
      </trkpt>
      <trkpt lat="49.33229" lon="1.23802">
        <ele>30</ele>
        <time>2017-03-14T15:25:11Z</time>
      </trkpt>
      <trkpt lat="49.3323" lon="1.23806">
        <ele>30</ele>
        <time>2017-03-14T15:25:11Z</time>
      </trkpt>
      <trkpt lat="49.33232" lon="1.23812">
        <ele>30</ele>
        <time>2017-03-14T15:25:11Z</time>
      </trkpt>
      <trkpt lat="49.33235" lon="1.23819">
        <ele>30</ele>
        <time>2017-03-14T15:25:11Z</time>
      </trkpt>
      <trkpt lat="49.33236" lon="1.23829">
        <ele>30</ele>
        <time>2017-03-14T15:25:27Z</time>
      </trkpt>
      <trkpt lat="49.33236" lon="1.23835">
        <ele>30</ele>
        <time>2017-03-14T15:25:27Z</time>
      </trkpt>
      <trkpt lat="49.33238" lon="1.2384">
        <ele>30</ele>
        <time>2017-03-14T15:25:27Z</time>
      </trkpt>
      <trkpt lat="49.3324" lon="1.23848">
        <ele>30</ele>
        <time>2017-03-14T15:25:27Z</time>
      </trkpt>
      <trkpt lat="49.3324" lon="1.23858">
        <ele>30</ele>
        <time>2017-03-14T15:25:43Z</time>
      </trkpt>
      <trkpt lat="49.33241" lon="1.23866">
        <ele>30</ele>
        <time>2017-03-14T15:25:43Z</time>
      </trkpt>
      <trkpt lat="49.33244" lon="1.23872">
        <ele>30</ele>
        <time>2017-03-14T15:25:43Z</time>
      </trkpt>
      <trkpt lat="49.33245" lon="1.23878">
        <ele>28</ele>
        <time>2017-03-14T15:25:43Z</time>
      </trkpt>
      <trkpt lat="49.33248" lon="1.23885">
        <ele>28</ele>
        <time>2017-03-14T15:25:59Z</time>
      </trkpt>
      <trkpt lat="49.33248" lon="1.23893">
        <ele>28</ele>
        <time>2017-03-14T15:25:59Z</time>
      </trkpt>
      <trkpt lat="49.33248" lon="1.23901">
        <ele>28</ele>
        <time>2017-03-14T15:25:59Z</time>
      </trkpt>
      <trkpt lat="49.33251" lon="1.23908">
        <ele>28</ele>
        <time>2017-03-14T15:25:59Z</time>
      </trkpt>
      <trkpt lat="49.33254" lon="1.23916">
        <ele>28</ele>
        <time>2017-03-14T15:26:15Z</time>
      </trkpt>
      <trkpt lat="49.33257" lon="1.23923">
        <ele>28</ele>
        <time>2017-03-14T15:26:15Z</time>
      </trkpt>
      <trkpt lat="49.3326" lon="1.23931">
        <ele>28</ele>
        <time>2017-03-14T15:26:15Z</time>
      </trkpt>
      <trkpt lat="49.33261" lon="1.23939">
        <ele>28</ele>
        <time>2017-03-14T15:26:15Z</time>
      </trkpt>
      <trkpt lat="49.33263" lon="1.23946">
        <ele>28</ele>
        <time>2017-03-14T15:26:31Z</time>
      </trkpt>
      <trkpt lat="49.33264" lon="1.23954">
        <ele>28</ele>
        <time>2017-03-14T15:26:31Z</time>
      </trkpt>
      <trkpt lat="49.33267" lon="1.23962">
        <ele>25</ele>
        <time>2017-03-14T15:26:31Z</time>
      </trkpt>
      <trkpt lat="49.33269" lon="1.23969">
        <ele>25</ele>
        <time>2017-03-14T15:26:31Z</time>
      </trkpt>
      <trkpt lat="49.3327" lon="1.23975">
        <ele>25</ele>
        <time>2017-03-14T15:26:47Z</time>
      </trkpt>
      <trkpt lat="49.33273" lon="1.23979">
        <ele>25</ele>
        <time>2017-03-14T15:26:47Z</time>
      </trkpt>
      <trkpt lat="49.33275" lon="1.23987">
        <ele>25</ele>
        <time>2017-03-14T15:26:47Z</time>
      </trkpt>
      <trkpt lat="49.33277" lon="1.23993">
        <ele>25</ele>
        <time>2017-03-14T15:26:47Z</time>
      </trkpt>
      <trkpt lat="49.33279" lon="1.24">
        <ele>25</ele>
        <time>2017-03-14T15:27:03Z</time>
      </trkpt>
      <trkpt lat="49.3328" lon="1.24008">
        <ele>25</ele>
        <time>2017-03-14T15:27:03Z</time>
      </trkpt>
      <trkpt lat="49.33281" lon="1.24015">
        <ele>25</ele>
        <time>2017-03-14T15:27:03Z</time>
      </trkpt>
      <trkpt lat="49.33283" lon="1.24022">
        <ele>25</ele>
        <time>2017-03-14T15:27:03Z</time>
      </trkpt>
      <trkpt lat="49.33286" lon="1.24031">
        <ele>25</ele>
        <time>2017-03-14T15:27:19Z</time>
      </trkpt>
      <trkpt lat="49.33288" lon="1.24037">
        <ele>25</ele>
        <time>2017-03-14T15:27:19Z</time>
      </trkpt>
      <trkpt lat="49.3329" lon="1.24044">
        <ele>24</ele>
        <time>2017-03-14T15:27:19Z</time>
      </trkpt>
      <trkpt lat="49.33292" lon="1.2405">
        <ele>26</ele>
        <time>2017-03-14T15:27:19Z</time>
      </trkpt>
      <trkpt lat="49.33293" lon="1.24057">
        <ele>26</ele>
        <time>2017-03-14T15:27:35Z</time>
      </trkpt>
      <trkpt lat="49.33294" lon="1.24066">
        <ele>26</ele>
        <time>2017-03-14T15:27:35Z</time>
      </trkpt>
      <trkpt lat="49.33296" lon="1.24075">
        <ele>26</ele>
        <time>2017-03-14T15:27:35Z</time>
      </trkpt>
      <trkpt lat="49.33299" lon="1.24081">
        <ele>26</ele>
        <time>2017-03-14T15:27:35Z</time>
      </trkpt>
      <trkpt lat="49.33304" lon="1.24087">
        <ele>26</ele>
        <time>2017-03-14T15:27:51Z</time>
      </trkpt>
      <trkpt lat="49.33305" lon="1.24092">
        <ele>26</ele>
        <time>2017-03-14T15:27:51Z</time>
      </trkpt>
      <trkpt lat="49.33307" lon="1.24099">
        <ele>26</ele>
        <time>2017-03-14T15:27:51Z</time>
      </trkpt>
      <trkpt lat="49.33311" lon="1.24105">
        <ele>26</ele>
        <time>2017-03-14T15:27:51Z</time>
      </trkpt>
      <trkpt lat="49.33311" lon="1.24114">
        <ele>26</ele>
        <time>2017-03-14T15:28:07Z</time>
      </trkpt>
      <trkpt lat="49.33312" lon="1.24121">
        <ele>26</ele>
        <time>2017-03-14T15:28:07Z</time>
      </trkpt>
      <trkpt lat="49.33317" lon="1.24129">
        <ele>26</ele>
        <time>2017-03-14T15:28:07Z</time>
      </trkpt>
      <trkpt lat="49.3332" lon="1.24132">
        <ele>26</ele>
        <time>2017-03-14T15:28:07Z</time>
      </trkpt>
      <trkpt lat="49.33324" lon="1.24136">
        <ele>26</ele>
        <time>2017-03-14T15:28:23Z</time>
      </trkpt>
      <trkpt lat="49.33326" lon="1.24145">
        <ele>26</ele>
        <time>2017-03-14T15:28:23Z</time>
      </trkpt>
      <trkpt lat="49.33326" lon="1.24152">
        <ele>26</ele>
        <time>2017-03-14T15:28:23Z</time>
      </trkpt>
      <trkpt lat="49.33328" lon="1.2416">
        <ele>26</ele>
        <time>2017-03-14T15:28:23Z</time>
      </trkpt>
      <trkpt lat="49.33329" lon="1.24164">
        <ele>26</ele>
        <time>2017-03-14T15:28:51Z</time>
      </trkpt>
      <trkpt lat="49.33335" lon="1.24192">
        <ele>26</ele>
        <time>2017-03-14T15:28:51Z</time>
      </trkpt>
      <trkpt lat="49.33329" lon="1.24209">
        <ele>24</ele>
        <time>2017-03-14T15:28:51Z</time>
      </trkpt>
      <trkpt lat="49.33328" lon="1.24218">
        <ele>24</ele>
        <time>2017-03-14T15:28:51Z</time>
      </trkpt>
      <trkpt lat="49.33328" lon="1.24224">
        <ele>24</ele>
        <time>2017-03-14T15:29:07Z</time>
      </trkpt>
      <trkpt lat="49.33328" lon="1.2423">
        <ele>24</ele>
        <time>2017-03-14T15:29:07Z</time>
      </trkpt>
      <trkpt lat="49.33327" lon="1.24238">
        <ele>24</ele>
        <time>2017-03-14T15:29:07Z</time>
      </trkpt>
      <trkpt lat="49.33327" lon="1.24246">
        <ele>24</ele>
        <time>2017-03-14T15:29:07Z</time>
      </trkpt>
      <trkpt lat="49.33327" lon="1.24251">
        <ele>24</ele>
        <time>2017-03-14T15:29:23Z</time>
      </trkpt>
      <trkpt lat="49.33327" lon="1.24259">
        <ele>24</ele>
        <time>2017-03-14T15:29:23Z</time>
      </trkpt>
      <trkpt lat="49.33326" lon="1.24268">
        <ele>24</ele>
        <time>2017-03-14T15:29:23Z</time>
      </trkpt>
      <trkpt lat="49.33328" lon="1.24276">
        <ele>24</ele>
        <time>2017-03-14T15:29:23Z</time>
      </trkpt>
      <trkpt lat="49.33328" lon="1.24284">
        <ele>24</ele>
        <time>2017-03-14T15:29:39Z</time>
      </trkpt>
      <trkpt lat="49.33329" lon="1.24291">
        <ele>24</ele>
        <time>2017-03-14T15:29:39Z</time>
      </trkpt>
      <trkpt lat="49.33329" lon="1.24297">
        <ele>25</ele>
        <time>2017-03-14T15:29:39Z</time>
      </trkpt>
      <trkpt lat="49.33329" lon="1.24307">
        <ele>25</ele>
        <time>2017-03-14T15:29:39Z</time>
      </trkpt>
      <trkpt lat="49.33328" lon="1.24317">
        <ele>25</ele>
        <time>2017-03-14T15:29:55Z</time>
      </trkpt>
      <trkpt lat="49.33329" lon="1.24323">
        <ele>25</ele>
        <time>2017-03-14T15:29:55Z</time>
      </trkpt>
      <trkpt lat="49.33329" lon="1.24331">
        <ele>25</ele>
        <time>2017-03-14T15:29:55Z</time>
      </trkpt>
      <trkpt lat="49.33327" lon="1.24337">
        <ele>25</ele>
        <time>2017-03-14T15:29:55Z</time>
      </trkpt>
      <trkpt lat="49.33324" lon="1.24342">
        <ele>25</ele>
        <time>2017-03-14T15:30:11Z</time>
      </trkpt>
      <trkpt lat="49.33321" lon="1.2435">
        <ele>25</ele>
        <time>2017-03-14T15:30:11Z</time>
      </trkpt>
      <trkpt lat="49.3332" lon="1.24357">
        <ele>25</ele>
        <time>2017-03-14T15:30:11Z</time>
      </trkpt>
      <trkpt lat="49.3332" lon="1.24364">
        <ele>25</ele>
        <time>2017-03-14T15:30:11Z</time>
      </trkpt>
      <trkpt lat="49.33319" lon="1.24372">
        <ele>25</ele>
        <time>2017-03-14T15:30:27Z</time>
      </trkpt>
      <trkpt lat="49.33321" lon="1.2438">
        <ele>25</ele>
        <time>2017-03-14T15:30:27Z</time>
      </trkpt>
      <trkpt lat="49.33321" lon="1.24387">
        <ele>25</ele>
        <time>2017-03-14T15:30:27Z</time>
      </trkpt>
      <trkpt lat="49.3332" lon="1.24394">
        <ele>25</ele>
        <time>2017-03-14T15:30:27Z</time>
      </trkpt>
      <trkpt lat="49.3332" lon="1.24396">
        <ele>25</ele>
        <time>2017-03-14T15:32:23Z</time>
      </trkpt>
      <trkpt lat="49.33321" lon="1.24396">
        <ele>25</ele>
        <time>2017-03-14T15:32:23Z</time>
      </trkpt>
      <trkpt lat="49.33322" lon="1.244">
        <ele>25</ele>
        <time>2017-03-14T15:32:23Z</time>
      </trkpt>
      <trkpt lat="49.33322" lon="1.24407">
        <ele>25</ele>
        <time>2017-03-14T15:32:23Z</time>
      </trkpt>
      <trkpt lat="49.33324" lon="1.24412">
        <ele>25</ele>
        <time>2017-03-14T15:32:23Z</time>
      </trkpt>
      <trkpt lat="49.33327" lon="1.24417">
        <ele>25</ele>
        <time>2017-03-14T15:32:39Z</time>
      </trkpt>
      <trkpt lat="49.33328" lon="1.2442">
        <ele>25</ele>
        <time>2017-03-14T15:32:39Z</time>
      </trkpt>
      <trkpt lat="49.33329" lon="1.24427">
        <ele>25</ele>
        <time>2017-03-14T15:32:39Z</time>
      </trkpt>
      <trkpt lat="49.3333" lon="1.2443">
        <ele>25</ele>
        <time>2017-03-14T15:32:39Z</time>
      </trkpt>
      <trkpt lat="49.3333" lon="1.24439">
        <ele>25</ele>
        <time>2017-03-14T15:32:55Z</time>
      </trkpt>
      <trkpt lat="49.33332" lon="1.24443">
        <ele>25</ele>
        <time>2017-03-14T15:32:55Z</time>
      </trkpt>
      <trkpt lat="49.33334" lon="1.24449">
        <ele>25</ele>
        <time>2017-03-14T15:32:55Z</time>
      </trkpt>
      <trkpt lat="49.33333" lon="1.24457">
        <ele>25</ele>
        <time>2017-03-14T15:32:55Z</time>
      </trkpt>
      <trkpt lat="49.33336" lon="1.24465">
        <ele>25</ele>
        <time>2017-03-14T15:33:11Z</time>
      </trkpt>
      <trkpt lat="49.33339" lon="1.24471">
        <ele>25</ele>
        <time>2017-03-14T15:33:11Z</time>
      </trkpt>
      <trkpt lat="49.33343" lon="1.24477">
        <ele>25</ele>
        <time>2017-03-14T15:33:11Z</time>
      </trkpt>
      <trkpt lat="49.33344" lon="1.24483">
        <ele>25</ele>
        <time>2017-03-14T15:33:11Z</time>
      </trkpt>
      <trkpt lat="49.33345" lon="1.24487">
        <ele>25</ele>
        <time>2017-03-14T15:33:27Z</time>
      </trkpt>
      <trkpt lat="49.33348" lon="1.24491">
        <ele>25</ele>
        <time>2017-03-14T15:33:27Z</time>
      </trkpt>
      <trkpt lat="49.33351" lon="1.24496">
        <ele>25</ele>
        <time>2017-03-14T15:33:27Z</time>
      </trkpt>
      <trkpt lat="49.33354" lon="1.24502">
        <ele>25</ele>
        <time>2017-03-14T15:33:27Z</time>
      </trkpt>
      <trkpt lat="49.33356" lon="1.24508">
        <ele>25</ele>
        <time>2017-03-14T15:33:43Z</time>
      </trkpt>
      <trkpt lat="49.33359" lon="1.24516">
        <ele>25</ele>
        <time>2017-03-14T15:33:43Z</time>
      </trkpt>
      <trkpt lat="49.33363" lon="1.24523">
        <ele>25</ele>
        <time>2017-03-14T15:33:43Z</time>
      </trkpt>
      <trkpt lat="49.33365" lon="1.24531">
        <ele>25</ele>
        <time>2017-03-14T15:33:43Z</time>
      </trkpt>
      <trkpt lat="49.33366" lon="1.24539">
        <ele>25</ele>
        <time>2017-03-14T15:33:59Z</time>
      </trkpt>
      <trkpt lat="49.33368" lon="1.24544">
        <ele>23</ele>
        <time>2017-03-14T15:33:59Z</time>
      </trkpt>
      <trkpt lat="49.33372" lon="1.24548">
        <ele>23</ele>
        <time>2017-03-14T15:33:59Z</time>
      </trkpt>
      <trkpt lat="49.33374" lon="1.24555">
        <ele>23</ele>
        <time>2017-03-14T15:33:59Z</time>
      </trkpt>
      <trkpt lat="49.33376" lon="1.24562">
        <ele>28</ele>
        <time>2017-03-14T15:34:15Z</time>
      </trkpt>
      <trkpt lat="49.33379" lon="1.24569">
        <ele>28</ele>
        <time>2017-03-14T15:34:15Z</time>
      </trkpt>
      <trkpt lat="49.33381" lon="1.24574">
        <ele>28</ele>
        <time>2017-03-14T15:34:15Z</time>
      </trkpt>
      <trkpt lat="49.33384" lon="1.2458">
        <ele>28</ele>
        <time>2017-03-14T15:34:15Z</time>
      </trkpt>
      <trkpt lat="49.33388" lon="1.24585">
        <ele>28</ele>
        <time>2017-03-14T15:34:31Z</time>
      </trkpt>
      <trkpt lat="49.33391" lon="1.24593">
        <ele>28</ele>
        <time>2017-03-14T15:34:31Z</time>
      </trkpt>
      <trkpt lat="49.33394" lon="1.24601">
        <ele>28</ele>
        <time>2017-03-14T15:34:31Z</time>
      </trkpt>
      <trkpt lat="49.33395" lon="1.24608">
        <ele>28</ele>
        <time>2017-03-14T15:34:31Z</time>
      </trkpt>
      <trkpt lat="49.33398" lon="1.24614">
        <ele>28</ele>
        <time>2017-03-14T15:34:47Z</time>
      </trkpt>
      <trkpt lat="49.33401" lon="1.24621">
        <ele>28</ele>
        <time>2017-03-14T15:34:47Z</time>
      </trkpt>
      <trkpt lat="49.33403" lon="1.24627">
        <ele>26</ele>
        <time>2017-03-14T15:34:47Z</time>
      </trkpt>
      <trkpt lat="49.33405" lon="1.24634">
        <ele>26</ele>
        <time>2017-03-14T15:34:47Z</time>
      </trkpt>
      <trkpt lat="49.33406" lon="1.24639">
        <ele>26</ele>
        <time>2017-03-14T15:35:03Z</time>
      </trkpt>
      <trkpt lat="49.33408" lon="1.24646">
        <ele>26</ele>
        <time>2017-03-14T15:35:03Z</time>
      </trkpt>
      <trkpt lat="49.33409" lon="1.24652">
        <ele>26</ele>
        <time>2017-03-14T15:35:03Z</time>
      </trkpt>
      <trkpt lat="49.3341" lon="1.24659">
        <ele>26</ele>
        <time>2017-03-14T15:35:03Z</time>
      </trkpt>
      <trkpt lat="49.33413" lon="1.24668">
        <ele>26</ele>
        <time>2017-03-14T15:35:19Z</time>
      </trkpt>
      <trkpt lat="49.33417" lon="1.24673">
        <ele>26</ele>
        <time>2017-03-14T15:35:19Z</time>
      </trkpt>
      <trkpt lat="49.33419" lon="1.24679">
        <ele>26</ele>
        <time>2017-03-14T15:35:19Z</time>
      </trkpt>
      <trkpt lat="49.33422" lon="1.24684">
        <ele>26</ele>
        <time>2017-03-14T15:35:19Z</time>
      </trkpt>
      <trkpt lat="49.33425" lon="1.24693">
        <ele>26</ele>
        <time>2017-03-14T15:35:35Z</time>
      </trkpt>
      <trkpt lat="49.33427" lon="1.24699">
        <ele>26</ele>
        <time>2017-03-14T15:35:35Z</time>
      </trkpt>
      <trkpt lat="49.33429" lon="1.24705">
        <ele>26</ele>
        <time>2017-03-14T15:35:35Z</time>
      </trkpt>
      <trkpt lat="49.33431" lon="1.24712">
        <ele>22</ele>
        <time>2017-03-14T15:35:35Z</time>
      </trkpt>
      <trkpt lat="49.33433" lon="1.2472">
        <ele>22</ele>
        <time>2017-03-14T15:35:51Z</time>
      </trkpt>
      <trkpt lat="49.33434" lon="1.24727">
        <ele>22</ele>
        <time>2017-03-14T15:35:51Z</time>
      </trkpt>
      <trkpt lat="49.33436" lon="1.24734">
        <ele>22</ele>
        <time>2017-03-14T15:35:51Z</time>
      </trkpt>
      <trkpt lat="49.33438" lon="1.2474">
        <ele>22</ele>
        <time>2017-03-14T15:35:51Z</time>
      </trkpt>
      <trkpt lat="49.3344" lon="1.24746">
        <ele>22</ele>
        <time>2017-03-14T15:36:07Z</time>
      </trkpt>
      <trkpt lat="49.3344" lon="1.24753">
        <ele>22</ele>
        <time>2017-03-14T15:36:07Z</time>
      </trkpt>
      <trkpt lat="49.33441" lon="1.24759">
        <ele>22</ele>
        <time>2017-03-14T15:36:07Z</time>
      </trkpt>
      <trkpt lat="49.33443" lon="1.24766">
        <ele>22</ele>
        <time>2017-03-14T15:36:07Z</time>
      </trkpt>
      <trkpt lat="49.33448" lon="1.24772">
        <ele>22</ele>
        <time>2017-03-14T15:36:23Z</time>
      </trkpt>
      <trkpt lat="49.3345" lon="1.2478">
        <ele>22</ele>
        <time>2017-03-14T15:36:23Z</time>
      </trkpt>
      <trkpt lat="49.33451" lon="1.24788">
        <ele>22</ele>
        <time>2017-03-14T15:36:23Z</time>
      </trkpt>
      <trkpt lat="49.33452" lon="1.24796">
        <ele>21</ele>
        <time>2017-03-14T15:36:23Z</time>
      </trkpt>
      <trkpt lat="49.33454" lon="1.24802">
        <ele>21</ele>
        <time>2017-03-14T15:36:39Z</time>
      </trkpt>
      <trkpt lat="49.33458" lon="1.24808">
        <ele>21</ele>
        <time>2017-03-14T15:36:39Z</time>
      </trkpt>
      <trkpt lat="49.33458" lon="1.24816">
        <ele>21</ele>
        <time>2017-03-14T15:36:39Z</time>
      </trkpt>
      <trkpt lat="49.33459" lon="1.24824">
        <ele>26</ele>
        <time>2017-03-14T15:36:39Z</time>
      </trkpt>
      <trkpt lat="49.33461" lon="1.2483">
        <ele>26</ele>
        <time>2017-03-14T15:36:55Z</time>
      </trkpt>
      <trkpt lat="49.33463" lon="1.24838">
        <ele>26</ele>
        <time>2017-03-14T15:36:55Z</time>
      </trkpt>
      <trkpt lat="49.33465" lon="1.24843">
        <ele>26</ele>
        <time>2017-03-14T15:36:55Z</time>
      </trkpt>
      <trkpt lat="49.33468" lon="1.24849">
        <ele>26</ele>
        <time>2017-03-14T15:36:55Z</time>
      </trkpt>
      <trkpt lat="49.33469" lon="1.24854">
        <ele>26</ele>
        <time>2017-03-14T15:37:11Z</time>
      </trkpt>
      <trkpt lat="49.33471" lon="1.24862">
        <ele>26</ele>
        <time>2017-03-14T15:37:11Z</time>
      </trkpt>
      <trkpt lat="49.33473" lon="1.24865">
        <ele>26</ele>
        <time>2017-03-14T15:37:11Z</time>
      </trkpt>
      <trkpt lat="49.33474" lon="1.24871">
        <ele>26</ele>
        <time>2017-03-14T15:37:11Z</time>
      </trkpt>
      <trkpt lat="49.33473" lon="1.24878">
        <ele>24</ele>
        <time>2017-03-14T15:37:27Z</time>
      </trkpt>
      <trkpt lat="49.33476" lon="1.24885">
        <ele>24</ele>
        <time>2017-03-14T15:37:27Z</time>
      </trkpt>
      <trkpt lat="49.33483" lon="1.24891">
        <ele>24</ele>
        <time>2017-03-14T15:37:27Z</time>
      </trkpt>
      <trkpt lat="49.33485" lon="1.24899">
        <ele>24</ele>
        <time>2017-03-14T15:37:27Z</time>
      </trkpt>
      <trkpt lat="49.33487" lon="1.24908">
        <ele>24</ele>
        <time>2017-03-14T15:37:43Z</time>
      </trkpt>
      <trkpt lat="49.3349" lon="1.24915">
        <ele>24</ele>
        <time>2017-03-14T15:37:43Z</time>
      </trkpt>
      <trkpt lat="49.33495" lon="1.24919">
        <ele>24</ele>
        <time>2017-03-14T15:37:43Z</time>
      </trkpt>
      <trkpt lat="49.33499" lon="1.24922">
        <ele>24</ele>
        <time>2017-03-14T15:37:43Z</time>
      </trkpt>
      <trkpt lat="49.33502" lon="1.2493">
        <ele>24</ele>
        <time>2017-03-14T15:37:59Z</time>
      </trkpt>
      <trkpt lat="49.33506" lon="1.24935">
        <ele>24</ele>
        <time>2017-03-14T15:37:59Z</time>
      </trkpt>
      <trkpt lat="49.33508" lon="1.24941">
        <ele>24</ele>
        <time>2017-03-14T15:37:59Z</time>
      </trkpt>
      <trkpt lat="49.3351" lon="1.24945">
        <ele>24</ele>
        <time>2017-03-14T15:37:59Z</time>
      </trkpt>
      <trkpt lat="49.33511" lon="1.24951">
        <ele>24</ele>
        <time>2017-03-14T15:38:15Z</time>
      </trkpt>
      <trkpt lat="49.33512" lon="1.24958">
        <ele>24</ele>
        <time>2017-03-14T15:38:15Z</time>
      </trkpt>
      <trkpt lat="49.33513" lon="1.24966">
        <ele>23</ele>
        <time>2017-03-14T15:38:15Z</time>
      </trkpt>
      <trkpt lat="49.33514" lon="1.24972">
        <ele>23</ele>
        <time>2017-03-14T15:38:15Z</time>
      </trkpt>
      <trkpt lat="49.33515" lon="1.2498">
        <ele>23</ele>
        <time>2017-03-14T15:38:31Z</time>
      </trkpt>
      <trkpt lat="49.33519" lon="1.24985">
        <ele>23</ele>
        <time>2017-03-14T15:38:31Z</time>
      </trkpt>
      <trkpt lat="49.33521" lon="1.24988">
        <ele>23</ele>
        <time>2017-03-14T15:38:31Z</time>
      </trkpt>
      <trkpt lat="49.33525" lon="1.24993">
        <ele>23</ele>
        <time>2017-03-14T15:38:31Z</time>
      </trkpt>
      <trkpt lat="49.33528" lon="1.24998">
        <ele>23</ele>
        <time>2017-03-14T15:38:47Z</time>
      </trkpt>
      <trkpt lat="49.33533" lon="1.25002">
        <ele>23</ele>
        <time>2017-03-14T15:38:47Z</time>
      </trkpt>
      <trkpt lat="49.33538" lon="1.25005">
        <ele>23</ele>
        <time>2017-03-14T15:38:47Z</time>
      </trkpt>
      <trkpt lat="49.33541" lon="1.25011">
        <ele>23</ele>
        <time>2017-03-14T15:38:47Z</time>
      </trkpt>
      <trkpt lat="49.33542" lon="1.25022">
        <ele>32</ele>
        <time>2017-03-14T15:39:03Z</time>
      </trkpt>
      <trkpt lat="49.33545" lon="1.25025">
        <ele>32</ele>
        <time>2017-03-14T15:39:03Z</time>
      </trkpt>
      <trkpt lat="49.33549" lon="1.25032">
        <ele>32</ele>
        <time>2017-03-14T15:39:03Z</time>
      </trkpt>
      <trkpt lat="49.33554" lon="1.25036">
        <ele>32</ele>
        <time>2017-03-14T15:39:03Z</time>
      </trkpt>
      <trkpt lat="49.33557" lon="1.2504">
        <ele>32</ele>
        <time>2017-03-14T15:39:19Z</time>
      </trkpt>
      <trkpt lat="49.33559" lon="1.25045">
        <ele>30</ele>
        <time>2017-03-14T15:39:19Z</time>
      </trkpt>
      <trkpt lat="49.33562" lon="1.25051">
        <ele>30</ele>
        <time>2017-03-14T15:39:19Z</time>
      </trkpt>
      <trkpt lat="49.33564" lon="1.25057">
        <ele>30</ele>
        <time>2017-03-14T15:39:19Z</time>
      </trkpt>
      <trkpt lat="49.33567" lon="1.25062">
        <ele>30</ele>
        <time>2017-03-14T15:39:35Z</time>
      </trkpt>
      <trkpt lat="49.33569" lon="1.25067">
        <ele>30</ele>
        <time>2017-03-14T15:39:35Z</time>
      </trkpt>
      <trkpt lat="49.3357" lon="1.25075">
        <ele>30</ele>
        <time>2017-03-14T15:39:35Z</time>
      </trkpt>
      <trkpt lat="49.33572" lon="1.2508">
        <ele>30</ele>
        <time>2017-03-14T15:39:35Z</time>
      </trkpt>
      <trkpt lat="49.33575" lon="1.25087">
        <ele>30</ele>
        <time>2017-03-14T15:39:51Z</time>
      </trkpt>
      <trkpt lat="49.33576" lon="1.25095">
        <ele>30</ele>
        <time>2017-03-14T15:39:51Z</time>
      </trkpt>
      <trkpt lat="49.33579" lon="1.25101">
        <ele>30</ele>
        <time>2017-03-14T15:39:51Z</time>
      </trkpt>
      <trkpt lat="49.3358" lon="1.25109">
        <ele>30</ele>
        <time>2017-03-14T15:39:51Z</time>
      </trkpt>
      <trkpt lat="49.3358" lon="1.25118">
        <ele>30</ele>
        <time>2017-03-14T15:40:07Z</time>
      </trkpt>
      <trkpt lat="49.3358" lon="1.25125">
        <ele>28</ele>
        <time>2017-03-14T15:40:07Z</time>
      </trkpt>
      <trkpt lat="49.33582" lon="1.25129">
        <ele>28</ele>
        <time>2017-03-14T15:40:07Z</time>
      </trkpt>
      <trkpt lat="49.33586" lon="1.25135">
        <ele>28</ele>
        <time>2017-03-14T15:40:07Z</time>
      </trkpt>
      <trkpt lat="49.33591" lon="1.2514">
        <ele>28</ele>
        <time>2017-03-14T15:40:23Z</time>
      </trkpt>
      <trkpt lat="49.33595" lon="1.25143">
        <ele>28</ele>
        <time>2017-03-14T15:40:23Z</time>
      </trkpt>
      <trkpt lat="49.33595" lon="1.25151">
        <ele>28</ele>
        <time>2017-03-14T15:40:23Z</time>
      </trkpt>
      <trkpt lat="49.33592" lon="1.25163">
        <ele>28</ele>
        <time>2017-03-14T15:40:23Z</time>
      </trkpt>
      <trkpt lat="49.33595" lon="1.25171">
        <ele>28</ele>
        <time>2017-03-14T15:40:39Z</time>
      </trkpt>
      <trkpt lat="49.33599" lon="1.25178">
        <ele>28</ele>
        <time>2017-03-14T15:40:39Z</time>
      </trkpt>
      <trkpt lat="49.33601" lon="1.25185">
        <ele>28</ele>
        <time>2017-03-14T15:40:39Z</time>
      </trkpt>
      <trkpt lat="49.33603" lon="1.2519">
        <ele>28</ele>
        <time>2017-03-14T15:40:39Z</time>
      </trkpt>
      <trkpt lat="49.33606" lon="1.25194">
        <ele>28</ele>
        <time>2017-03-14T15:40:55Z</time>
      </trkpt>
      <trkpt lat="49.3361" lon="1.25196">
        <ele>28</ele>
        <time>2017-03-14T15:40:55Z</time>
      </trkpt>
      <trkpt lat="49.33613" lon="1.252">
        <ele>28</ele>
        <time>2017-03-14T15:40:55Z</time>
      </trkpt>
      <trkpt lat="49.33615" lon="1.25207">
        <ele>28</ele>
        <time>2017-03-14T15:40:55Z</time>
      </trkpt>
      <trkpt lat="49.33616" lon="1.25217">
        <ele>26</ele>
        <time>2017-03-14T15:41:11Z</time>
      </trkpt>
      <trkpt lat="49.33619" lon="1.25221">
        <ele>26</ele>
        <time>2017-03-14T15:41:11Z</time>
      </trkpt>
      <trkpt lat="49.33622" lon="1.25227">
        <ele>26</ele>
        <time>2017-03-14T15:41:11Z</time>
      </trkpt>
      <trkpt lat="49.33626" lon="1.25235">
        <ele>41</ele>
        <time>2017-03-14T15:41:11Z</time>
      </trkpt>
      <trkpt lat="49.33627" lon="1.25242">
        <ele>41</ele>
        <time>2017-03-14T15:41:27Z</time>
      </trkpt>
      <trkpt lat="49.3363" lon="1.25247">
        <ele>41</ele>
        <time>2017-03-14T15:41:27Z</time>
      </trkpt>
      <trkpt lat="49.33634" lon="1.2525">
        <ele>41</ele>
        <time>2017-03-14T15:41:27Z</time>
      </trkpt>
      <trkpt lat="49.33637" lon="1.25256">
        <ele>41</ele>
        <time>2017-03-14T15:41:27Z</time>
      </trkpt>
      <trkpt lat="49.33637" lon="1.25263">
        <ele>41</ele>
        <time>2017-03-14T15:41:43Z</time>
      </trkpt>
      <trkpt lat="49.33637" lon="1.25271">
        <ele>41</ele>
        <time>2017-03-14T15:41:43Z</time>
      </trkpt>
      <trkpt lat="49.3364" lon="1.25277">
        <ele>41</ele>
        <time>2017-03-14T15:41:43Z</time>
      </trkpt>
      <trkpt lat="49.33643" lon="1.25284">
        <ele>41</ele>
        <time>2017-03-14T15:41:43Z</time>
      </trkpt>
      <trkpt lat="49.33652" lon="1.25288">
        <ele>41</ele>
        <time>2017-03-14T15:48:31Z</time>
      </trkpt>
      <trkpt lat="49.33653" lon="1.25287">
        <ele>41</ele>
        <time>2017-03-14T15:48:31Z</time>
      </trkpt>
      <trkpt lat="49.33656" lon="1.25284">
        <ele>41</ele>
        <time>2017-03-14T15:48:31Z</time>
      </trkpt>
      <trkpt lat="49.33656" lon="1.25274">
        <ele>41</ele>
        <time>2017-03-14T15:48:31Z</time>
      </trkpt>
      <trkpt lat="49.33654" lon="1.25268">
        <ele>41</ele>
        <time>2017-03-14T15:48:31Z</time>
      </trkpt>
      <trkpt lat="49.33654" lon="1.25264">
        <ele>41</ele>
        <time>2017-03-14T15:48:47Z</time>
      </trkpt>
      <trkpt lat="49.33655" lon="1.25257">
        <ele>41</ele>
        <time>2017-03-14T15:48:47Z</time>
      </trkpt>
      <trkpt lat="49.33655" lon="1.25253">
        <ele>41</ele>
        <time>2017-03-14T15:48:47Z</time>
      </trkpt>
      <trkpt lat="49.33658" lon="1.25246">
        <ele>41</ele>
        <time>2017-03-14T15:48:47Z</time>
      </trkpt>
      <trkpt lat="49.33663" lon="1.25244">
        <ele>41</ele>
        <time>2017-03-14T15:49:07Z</time>
      </trkpt>
      <trkpt lat="49.33667" lon="1.25244">
        <ele>41</ele>
        <time>2017-03-14T15:49:07Z</time>
      </trkpt>
      <trkpt lat="49.33667" lon="1.25241">
        <ele>41</ele>
        <time>2017-03-14T15:49:07Z</time>
      </trkpt>
      <trkpt lat="49.33669" lon="1.2524">
        <ele>41</ele>
        <time>2017-03-14T15:49:07Z</time>
      </trkpt>
      <trkpt lat="49.33672" lon="1.25242">
        <ele>41</ele>
        <time>2017-03-14T15:49:07Z</time>
      </trkpt>
      <trkpt lat="49.33673" lon="1.25243">
        <ele>41</ele>
        <time>2017-03-14T15:50:07Z</time>
      </trkpt>
      <trkpt lat="49.33677" lon="1.25243">
        <ele>41</ele>
        <time>2017-03-14T15:50:07Z</time>
      </trkpt>
      <trkpt lat="49.33681" lon="1.25244">
        <ele>41</ele>
        <time>2017-03-14T15:50:07Z</time>
      </trkpt>
      <trkpt lat="49.33685" lon="1.25241">
        <ele>41</ele>
        <time>2017-03-14T15:50:07Z</time>
      </trkpt>
      <trkpt lat="49.33685" lon="1.25244">
        <ele>41</ele>
        <time>2017-03-14T15:50:07Z</time>
      </trkpt>
      <trkpt lat="49.33687" lon="1.25247">
        <ele>41</ele>
        <time>2017-03-14T15:50:23Z</time>
      </trkpt>
      <trkpt lat="49.33687" lon="1.25253">
        <ele>41</ele>
        <time>2017-03-14T15:50:23Z</time>
      </trkpt>
      <trkpt lat="49.33686" lon="1.25258">
        <ele>41</ele>
        <time>2017-03-14T15:50:23Z</time>
      </trkpt>
      <trkpt lat="49.33688" lon="1.25263">
        <ele>41</ele>
        <time>2017-03-14T15:50:23Z</time>
      </trkpt>
      <trkpt lat="49.33691" lon="1.2527">
        <ele>41</ele>
        <time>2017-03-14T15:50:39Z</time>
      </trkpt>
      <trkpt lat="49.33693" lon="1.25275">
        <ele>41</ele>
        <time>2017-03-14T15:50:39Z</time>
      </trkpt>
      <trkpt lat="49.33692" lon="1.2528">
        <ele>41</ele>
        <time>2017-03-14T15:50:39Z</time>
      </trkpt>
      <trkpt lat="49.33691" lon="1.25284">
        <ele>41</ele>
        <time>2017-03-14T15:50:39Z</time>
      </trkpt>
      <trkpt lat="49.33692" lon="1.25293">
        <ele>42</ele>
        <time>2017-03-14T15:50:55Z</time>
      </trkpt>
      <trkpt lat="49.33693" lon="1.25302">
        <ele>42</ele>
        <time>2017-03-14T15:50:55Z</time>
      </trkpt>
      <trkpt lat="49.33695" lon="1.25309">
        <ele>42</ele>
        <time>2017-03-14T15:50:55Z</time>
      </trkpt>
      <trkpt lat="49.33699" lon="1.25312">
        <ele>42</ele>
        <time>2017-03-14T15:50:55Z</time>
      </trkpt>
      <trkpt lat="49.33702" lon="1.25315">
        <ele>42</ele>
        <time>2017-03-14T15:51:11Z</time>
      </trkpt>
      <trkpt lat="49.33701" lon="1.2532">
        <ele>42</ele>
        <time>2017-03-14T15:51:11Z</time>
      </trkpt>
      <trkpt lat="49.33699" lon="1.25325">
        <ele>42</ele>
        <time>2017-03-14T15:51:11Z</time>
      </trkpt>
      <trkpt lat="49.33696" lon="1.25329">
        <ele>42</ele>
        <time>2017-03-14T15:51:11Z</time>
      </trkpt>
      <trkpt lat="49.33693" lon="1.25335">
        <ele>42</ele>
        <time>2017-03-14T15:51:27Z</time>
      </trkpt>
      <trkpt lat="49.33694" lon="1.25344">
        <ele>42</ele>
        <time>2017-03-14T15:51:27Z</time>
      </trkpt>
      <trkpt lat="49.33694" lon="1.2535">
        <ele>42</ele>
        <time>2017-03-14T15:51:27Z</time>
      </trkpt>
      <trkpt lat="49.33698" lon="1.25359">
        <ele>42</ele>
        <time>2017-03-14T15:51:27Z</time>
      </trkpt>
      <trkpt lat="49.33702" lon="1.25364">
        <ele>42</ele>
        <time>2017-03-14T15:51:43Z</time>
      </trkpt>
      <trkpt lat="49.33704" lon="1.25367">
        <ele>42</ele>
        <time>2017-03-14T15:51:43Z</time>
      </trkpt>
      <trkpt lat="49.33708" lon="1.2537">
        <ele>58</ele>
        <time>2017-03-14T15:51:43Z</time>
      </trkpt>
      <trkpt lat="49.33707" lon="1.25379">
        <ele>41</ele>
        <time>2017-03-14T15:51:43Z</time>
      </trkpt>
      <trkpt lat="49.3371" lon="1.25392">
        <ele>62</ele>
        <time>2017-03-14T15:52:07Z</time>
      </trkpt>
      <trkpt lat="49.33711" lon="1.2539">
        <ele>62</ele>
        <time>2017-03-14T15:52:07Z</time>
      </trkpt>
      <trkpt lat="49.33712" lon="1.25391">
        <ele>62</ele>
        <time>2017-03-14T15:52:07Z</time>
      </trkpt>
      <trkpt lat="49.33714" lon="1.25391">
        <ele>62</ele>
        <time>2017-03-14T15:52:07Z</time>
      </trkpt>
      <trkpt lat="49.33714" lon="1.25391">
        <ele>62</ele>
        <time>2017-03-14T15:52:07Z</time>
      </trkpt>
      <trkpt lat="49.33715" lon="1.25393">
        <ele>62</ele>
        <time>2017-03-14T15:53:19Z</time>
      </trkpt>
      <trkpt lat="49.33714" lon="1.25394">
        <ele>62</ele>
        <time>2017-03-14T15:53:19Z</time>
      </trkpt>
      <trkpt lat="49.33717" lon="1.25397">
        <ele>62</ele>
        <time>2017-03-14T15:53:19Z</time>
      </trkpt>
      <trkpt lat="49.33722" lon="1.25398">
        <ele>62</ele>
        <time>2017-03-14T15:53:19Z</time>
      </trkpt>
      <trkpt lat="49.3373" lon="1.25394">
        <ele>62</ele>
        <time>2017-03-14T15:53:19Z</time>
      </trkpt>
      <trkpt lat="49.33736" lon="1.25391">
        <ele>62</ele>
        <time>2017-03-14T15:53:35Z</time>
      </trkpt>
      <trkpt lat="49.33738" lon="1.2539">
        <ele>62</ele>
        <time>2017-03-14T15:53:35Z</time>
      </trkpt>
      <trkpt lat="49.33745" lon="1.25388">
        <ele>62</ele>
        <time>2017-03-14T15:53:35Z</time>
      </trkpt>
      <trkpt lat="49.33742" lon="1.25377">
        <ele>62</ele>
        <time>2017-03-14T15:53:35Z</time>
      </trkpt>
      <trkpt lat="49.3374" lon="1.25371">
        <ele>58</ele>
        <time>2017-03-14T15:53:55Z</time>
      </trkpt>
      <trkpt lat="49.33737" lon="1.25369">
        <ele>58</ele>
        <time>2017-03-14T15:53:55Z</time>
      </trkpt>
      <trkpt lat="49.33746" lon="1.25371">
        <ele>58</ele>
        <time>2017-03-14T15:53:55Z</time>
      </trkpt>
      <trkpt lat="49.33745" lon="1.25384">
        <ele>62</ele>
        <time>2017-03-14T15:53:55Z</time>
      </trkpt>
      <trkpt lat="49.33745" lon="1.2539">
        <ele>62</ele>
        <time>2017-03-14T15:54:11Z</time>
      </trkpt>
      <trkpt lat="49.33745" lon="1.25396">
        <ele>62</ele>
        <time>2017-03-14T15:54:11Z</time>
      </trkpt>
      <trkpt lat="49.33747" lon="1.25408">
        <ele>62</ele>
        <time>2017-03-14T15:54:11Z</time>
      </trkpt>
      <trkpt lat="49.33741" lon="1.25421">
        <ele>62</ele>
        <time>2017-03-14T15:54:11Z</time>
      </trkpt>
      <trkpt lat="49.33739" lon="1.25429">
        <ele>62</ele>
        <time>2017-03-14T15:54:27Z</time>
      </trkpt>
      <trkpt lat="49.33738" lon="1.25436">
        <ele>62</ele>
        <time>2017-03-14T15:54:27Z</time>
      </trkpt>
      <trkpt lat="49.33741" lon="1.25441">
        <ele>62</ele>
        <time>2017-03-14T15:54:27Z</time>
      </trkpt>
      <trkpt lat="49.33746" lon="1.25444">
        <ele>62</ele>
        <time>2017-03-14T15:54:27Z</time>
      </trkpt>
      <trkpt lat="49.33751" lon="1.25449">
        <ele>62</ele>
        <time>2017-03-14T15:54:43Z</time>
      </trkpt>
      <trkpt lat="49.33754" lon="1.25454">
        <ele>62</ele>
        <time>2017-03-14T15:54:43Z</time>
      </trkpt>
      <trkpt lat="49.33756" lon="1.2546">
        <ele>62</ele>
        <time>2017-03-14T15:54:43Z</time>
      </trkpt>
      <trkpt lat="49.33756" lon="1.25465">
        <ele>62</ele>
        <time>2017-03-14T15:54:43Z</time>
      </trkpt>
      <trkpt lat="49.33754" lon="1.2547">
        <ele>62</ele>
        <time>2017-03-14T15:54:59Z</time>
      </trkpt>
      <trkpt lat="49.33754" lon="1.25476">
        <ele>62</ele>
        <time>2017-03-14T15:54:59Z</time>
      </trkpt>
      <trkpt lat="49.33754" lon="1.25482">
        <ele>62</ele>
        <time>2017-03-14T15:54:59Z</time>
      </trkpt>
      <trkpt lat="49.33755" lon="1.25489">
        <ele>62</ele>
        <time>2017-03-14T15:54:59Z</time>
      </trkpt>
      <trkpt lat="49.33757" lon="1.25493">
        <ele>62</ele>
        <time>2017-03-14T15:55:15Z</time>
      </trkpt>
      <trkpt lat="49.33762" lon="1.25498">
        <ele>62</ele>
        <time>2017-03-14T15:55:15Z</time>
      </trkpt>
      <trkpt lat="49.33768" lon="1.25497">
        <ele>62</ele>
        <time>2017-03-14T15:55:15Z</time>
      </trkpt>
      <trkpt lat="49.33776" lon="1.25497">
        <ele>62</ele>
        <time>2017-03-14T15:55:15Z</time>
      </trkpt>
      <trkpt lat="49.33783" lon="1.25501">
        <ele>62</ele>
        <time>2017-03-14T15:56:47Z</time>
      </trkpt>
      <trkpt lat="49.33783" lon="1.25501">
        <ele>62</ele>
        <time>2017-03-14T15:56:47Z</time>
      </trkpt>
      <trkpt lat="49.33784" lon="1.25501">
        <ele>62</ele>
        <time>2017-03-14T15:56:47Z</time>
      </trkpt>
      <trkpt lat="49.33785" lon="1.25501">
        <ele>62</ele>
        <time>2017-03-14T15:56:47Z</time>
      </trkpt>
      <trkpt lat="49.33798" lon="1.25512">
        <ele>79</ele>
        <time>2017-03-14T15:56:47Z</time>
      </trkpt>
      <trkpt lat="49.33802" lon="1.25536">
        <ele>79</ele>
        <time>2017-03-14T15:57:03Z</time>
      </trkpt>
      <trkpt lat="49.33803" lon="1.25551">
        <ele>76</ele>
        <time>2017-03-14T15:57:03Z</time>
      </trkpt>
      <trkpt lat="49.33804" lon="1.25567">
        <ele>76</ele>
        <time>2017-03-14T15:57:03Z</time>
      </trkpt>
      <trkpt lat="49.33807" lon="1.25568">
        <ele>76</ele>
        <time>2017-03-14T15:57:03Z</time>
      </trkpt>
      <trkpt lat="49.33813" lon="1.25563">
        <ele>76</ele>
        <time>2017-03-14T15:57:19Z</time>
      </trkpt>
      <trkpt lat="49.33819" lon="1.25561">
        <ele>76</ele>
        <time>2017-03-14T15:57:19Z</time>
      </trkpt>
      <trkpt lat="49.33826" lon="1.25562">
        <ele>76</ele>
        <time>2017-03-14T15:57:19Z</time>
      </trkpt>
      <trkpt lat="49.33827" lon="1.25562">
        <ele>76</ele>
        <time>2017-03-14T15:57:19Z</time>
      </trkpt>
      <trkpt lat="49.33827" lon="1.25566">
        <ele>76</ele>
        <time>2017-03-14T15:57:59Z</time>
      </trkpt>
      <trkpt lat="49.33826" lon="1.25573">
        <ele>76</ele>
        <time>2017-03-14T15:57:59Z</time>
      </trkpt>
      <trkpt lat="49.33825" lon="1.25581">
        <ele>76</ele>
        <time>2017-03-14T15:57:59Z</time>
      </trkpt>
      <trkpt lat="49.33825" lon="1.25587">
        <ele>76</ele>
        <time>2017-03-14T15:57:59Z</time>
      </trkpt>
      <trkpt lat="49.33828" lon="1.25592">
        <ele>76</ele>
        <time>2017-03-14T15:57:59Z</time>
      </trkpt>
      <trkpt lat="49.33834" lon="1.25598">
        <ele>76</ele>
        <time>2017-03-14T15:58:15Z</time>
      </trkpt>
      <trkpt lat="49.33837" lon="1.25606">
        <ele>76</ele>
        <time>2017-03-14T15:58:15Z</time>
      </trkpt>
      <trkpt lat="49.33839" lon="1.25612">
        <ele>76</ele>
        <time>2017-03-14T15:58:15Z</time>
      </trkpt>
      <trkpt lat="49.33841" lon="1.25619">
        <ele>76</ele>
        <time>2017-03-14T15:58:15Z</time>
      </trkpt>
      <trkpt lat="49.33844" lon="1.25624">
        <ele>76</ele>
        <time>2017-03-14T15:58:31Z</time>
      </trkpt>
      <trkpt lat="49.33848" lon="1.25628">
        <ele>70</ele>
        <time>2017-03-14T15:58:31Z</time>
      </trkpt>
      <trkpt lat="49.33851" lon="1.2563">
        <ele>70</ele>
        <time>2017-03-14T15:58:31Z</time>
      </trkpt>
      <trkpt lat="49.33854" lon="1.25632">
        <ele>70</ele>
        <time>2017-03-14T15:58:31Z</time>
      </trkpt>
      <trkpt lat="49.33856" lon="1.25639">
        <ele>70</ele>
        <time>2017-03-14T15:58:47Z</time>
      </trkpt>
      <trkpt lat="49.33858" lon="1.25644">
        <ele>70</ele>
        <time>2017-03-14T15:58:47Z</time>
      </trkpt>
      <trkpt lat="49.33862" lon="1.25647">
        <ele>70</ele>
        <time>2017-03-14T15:58:47Z</time>
      </trkpt>
      <trkpt lat="49.33864" lon="1.25651">
        <ele>70</ele>
        <time>2017-03-14T15:58:47Z</time>
      </trkpt>
      <trkpt lat="49.33866" lon="1.25659">
        <ele>70</ele>
        <time>2017-03-14T15:59:03Z</time>
      </trkpt>
      <trkpt lat="49.33869" lon="1.25665">
        <ele>70</ele>
        <time>2017-03-14T15:59:03Z</time>
      </trkpt>
      <trkpt lat="49.33873" lon="1.2567">
        <ele>70</ele>
        <time>2017-03-14T15:59:03Z</time>
      </trkpt>
      <trkpt lat="49.33873" lon="1.25678">
        <ele>70</ele>
        <time>2017-03-14T15:59:03Z</time>
      </trkpt>
      <trkpt lat="49.33871" lon="1.25685">
        <ele>70</ele>
        <time>2017-03-14T15:59:19Z</time>
      </trkpt>
      <trkpt lat="49.33869" lon="1.25692">
        <ele>70</ele>
        <time>2017-03-14T15:59:19Z</time>
      </trkpt>
      <trkpt lat="49.33861" lon="1.25696">
        <ele>70</ele>
        <time>2017-03-14T15:59:19Z</time>
      </trkpt>
      <trkpt lat="49.33857" lon="1.257">
        <ele>70</ele>
        <time>2017-03-14T15:59:19Z</time>
      </trkpt>
      <trkpt lat="49.33853" lon="1.25703">
        <ele>70</ele>
        <time>2017-03-14T15:59:35Z</time>
      </trkpt>
      <trkpt lat="49.33849" lon="1.25703">
        <ele>70</ele>
        <time>2017-03-14T15:59:35Z</time>
      </trkpt>
      <trkpt lat="49.33846" lon="1.25706">
        <ele>70</ele>
        <time>2017-03-14T15:59:35Z</time>
      </trkpt>
      <trkpt lat="49.33843" lon="1.2571">
        <ele>77</ele>
        <time>2017-03-14T15:59:35Z</time>
      </trkpt>
      <trkpt lat="49.33839" lon="1.2571">
        <ele>77</ele>
        <time>2017-03-14T15:59:51Z</time>
      </trkpt>
      <trkpt lat="49.33835" lon="1.25708">
        <ele>70</ele>
        <time>2017-03-14T15:59:51Z</time>
      </trkpt>
      <trkpt lat="49.33832" lon="1.25709">
        <ele>77</ele>
        <time>2017-03-14T15:59:51Z</time>
      </trkpt>
      <trkpt lat="49.3383" lon="1.2571">
        <ele>77</ele>
        <time>2017-03-14T15:59:51Z</time>
      </trkpt>
      <trkpt lat="49.33827" lon="1.25712">
        <ele>77</ele>
        <time>2017-03-14T16:00:07Z</time>
      </trkpt>
      <trkpt lat="49.33824" lon="1.25711">
        <ele>77</ele>
        <time>2017-03-14T16:00:07Z</time>
      </trkpt>
      <trkpt lat="49.33819" lon="1.25712">
        <ele>77</ele>
        <time>2017-03-14T16:00:07Z</time>
      </trkpt>
      <trkpt lat="49.33813" lon="1.25711">
        <ele>77</ele>
        <time>2017-03-14T16:00:07Z</time>
      </trkpt>
      <trkpt lat="49.33811" lon="1.25719">
        <ele>77</ele>
        <time>2017-03-14T16:00:23Z</time>
      </trkpt>
      <trkpt lat="49.3381" lon="1.25729">
        <ele>77</ele>
        <time>2017-03-14T16:00:23Z</time>
      </trkpt>
      <trkpt lat="49.33808" lon="1.25737">
        <ele>77</ele>
        <time>2017-03-14T16:00:23Z</time>
      </trkpt>
      <trkpt lat="49.33804" lon="1.25739">
        <ele>77</ele>
        <time>2017-03-14T16:00:23Z</time>
      </trkpt>
      <trkpt lat="49.338" lon="1.25742">
        <ele>77</ele>
        <time>2017-03-14T16:00:39Z</time>
      </trkpt>
      <trkpt lat="49.33795" lon="1.25743">
        <ele>77</ele>
        <time>2017-03-14T16:00:39Z</time>
      </trkpt>
      <trkpt lat="49.33791" lon="1.25747">
        <ele>52</ele>
        <time>2017-03-14T16:00:39Z</time>
      </trkpt>
      <trkpt lat="49.33787" lon="1.25752">
        <ele>52</ele>
        <time>2017-03-14T16:00:39Z</time>
      </trkpt>
      <trkpt lat="49.33785" lon="1.25758">
        <ele>52</ele>
        <time>2017-03-14T16:00:55Z</time>
      </trkpt>
      <trkpt lat="49.33781" lon="1.25762">
        <ele>52</ele>
        <time>2017-03-14T16:00:55Z</time>
      </trkpt>
      <trkpt lat="49.33779" lon="1.25768">
        <ele>52</ele>
        <time>2017-03-14T16:00:55Z</time>
      </trkpt>
      <trkpt lat="49.33776" lon="1.25773">
        <ele>52</ele>
        <time>2017-03-14T16:00:55Z</time>
      </trkpt>
      <trkpt lat="49.33773" lon="1.25777">
        <ele>52</ele>
        <time>2017-03-14T16:01:11Z</time>
      </trkpt>
      <trkpt lat="49.33772" lon="1.25785">
        <ele>52</ele>
        <time>2017-03-14T16:01:11Z</time>
      </trkpt>
      <trkpt lat="49.33769" lon="1.25792">
        <ele>52</ele>
        <time>2017-03-14T16:01:11Z</time>
      </trkpt>
      <trkpt lat="49.33766" lon="1.25798">
        <ele>52</ele>
        <time>2017-03-14T16:01:11Z</time>
      </trkpt>
      <trkpt lat="49.33765" lon="1.25804">
        <ele>52</ele>
        <time>2017-03-14T16:01:27Z</time>
      </trkpt>
      <trkpt lat="49.33767" lon="1.25812">
        <ele>52</ele>
        <time>2017-03-14T16:01:27Z</time>
      </trkpt>
      <trkpt lat="49.33768" lon="1.25821">
        <ele>52</ele>
        <time>2017-03-14T16:01:27Z</time>
      </trkpt>
      <trkpt lat="49.33769" lon="1.25829">
        <ele>52</ele>
        <time>2017-03-14T16:01:27Z</time>
      </trkpt>
      <trkpt lat="49.33769" lon="1.25836">
        <ele>52</ele>
        <time>2017-03-14T16:01:43Z</time>
      </trkpt>
      <trkpt lat="49.33768" lon="1.25844">
        <ele>52</ele>
        <time>2017-03-14T16:01:43Z</time>
      </trkpt>
      <trkpt lat="49.33769" lon="1.25851">
        <ele>52</ele>
        <time>2017-03-14T16:01:43Z</time>
      </trkpt>
      <trkpt lat="49.3377" lon="1.25859">
        <ele>52</ele>
        <time>2017-03-14T16:01:43Z</time>
      </trkpt>
      <trkpt lat="49.33774" lon="1.25864">
        <ele>52</ele>
        <time>2017-03-14T16:01:59Z</time>
      </trkpt>
      <trkpt lat="49.33775" lon="1.25871">
        <ele>52</ele>
        <time>2017-03-14T16:01:59Z</time>
      </trkpt>
      <trkpt lat="49.33776" lon="1.25879">
        <ele>42</ele>
        <time>2017-03-14T16:01:59Z</time>
      </trkpt>
      <trkpt lat="49.3378" lon="1.25881">
        <ele>42</ele>
        <time>2017-03-14T16:01:59Z</time>
      </trkpt>
      <trkpt lat="49.33785" lon="1.25882">
        <ele>42</ele>
        <time>2017-03-14T16:02:15Z</time>
      </trkpt>
      <trkpt lat="49.3379" lon="1.25883">
        <ele>42</ele>
        <time>2017-03-14T16:02:15Z</time>
      </trkpt>
      <trkpt lat="49.33793" lon="1.2589">
        <ele>72</ele>
        <time>2017-03-14T16:02:15Z</time>
      </trkpt>
      <trkpt lat="49.33795" lon="1.25899">
        <ele>72</ele>
        <time>2017-03-14T16:02:15Z</time>
      </trkpt>
      <trkpt lat="49.33794" lon="1.25908">
        <ele>72</ele>
        <time>2017-03-14T16:03:43Z</time>
      </trkpt>
      <trkpt lat="49.33799" lon="1.2591">
        <ele>72</ele>
        <time>2017-03-14T16:03:43Z</time>
      </trkpt>
      <trkpt lat="49.33805" lon="1.25913">
        <ele>72</ele>
        <time>2017-03-14T16:03:43Z</time>
      </trkpt>
      <trkpt lat="49.33806" lon="1.25912">
        <ele>72</ele>
        <time>2017-03-14T16:03:43Z</time>
      </trkpt>
      <trkpt lat="49.33806" lon="1.25931">
        <ele>72</ele>
        <time>2017-03-14T16:03:43Z</time>
      </trkpt>
      <trkpt lat="49.33806" lon="1.25944">
        <ele>72</ele>
        <time>2017-03-14T16:03:59Z</time>
      </trkpt>
      <trkpt lat="49.3381" lon="1.25953">
        <ele>72</ele>
        <time>2017-03-14T16:03:59Z</time>
      </trkpt>
      <trkpt lat="49.33813" lon="1.25958">
        <ele>72</ele>
        <time>2017-03-14T16:03:59Z</time>
      </trkpt>
      <trkpt lat="49.33815" lon="1.25958">
        <ele>72</ele>
        <time>2017-03-14T16:03:59Z</time>
      </trkpt>
      <trkpt lat="49.33815" lon="1.25958">
        <ele>72</ele>
        <time>2017-03-14T16:04:15Z</time>
      </trkpt>
      <trkpt lat="49.3382" lon="1.25961">
        <ele>50</ele>
        <time>2017-03-14T16:04:15Z</time>
      </trkpt>
      <trkpt lat="49.33825" lon="1.25965">
        <ele>50</ele>
        <time>2017-03-14T16:04:15Z</time>
      </trkpt>
      <trkpt lat="49.33828" lon="1.2597">
        <ele>50</ele>
        <time>2017-03-14T16:04:15Z</time>
      </trkpt>
      <trkpt lat="49.33826" lon="1.25965">
        <ele>50</ele>
        <time>2017-03-14T16:05:19Z</time>
      </trkpt>
      <trkpt lat="49.33819" lon="1.25961">
        <ele>50</ele>
        <time>2017-03-14T16:05:19Z</time>
      </trkpt>
      <trkpt lat="49.33811" lon="1.25963">
        <ele>50</ele>
        <time>2017-03-14T16:05:19Z</time>
      </trkpt>
      <trkpt lat="49.33805" lon="1.25965">
        <ele>50</ele>
        <time>2017-03-14T16:05:19Z</time>
      </trkpt>
      <trkpt lat="49.33801" lon="1.25964">
        <ele>50</ele>
        <time>2017-03-14T16:05:19Z</time>
      </trkpt>
      <trkpt lat="49.33797" lon="1.25963">
        <ele>50</ele>
        <time>2017-03-14T16:05:35Z</time>
      </trkpt>
      <trkpt lat="49.33793" lon="1.25963">
        <ele>50</ele>
        <time>2017-03-14T16:05:35Z</time>
      </trkpt>
      <trkpt lat="49.33789" lon="1.25962">
        <ele>30</ele>
        <time>2017-03-14T16:05:35Z</time>
      </trkpt>
      <trkpt lat="49.33784" lon="1.25961">
        <ele>30</ele>
        <time>2017-03-14T16:05:35Z</time>
      </trkpt>
      <trkpt lat="49.33779" lon="1.25955">
        <ele>42</ele>
        <time>2017-03-14T16:05:51Z</time>
      </trkpt>
      <trkpt lat="49.33775" lon="1.25951">
        <ele>42</ele>
        <time>2017-03-14T16:05:51Z</time>
      </trkpt>
      <trkpt lat="49.33773" lon="1.25951">
        <ele>42</ele>
        <time>2017-03-14T16:05:51Z</time>
      </trkpt>
      <trkpt lat="49.33767" lon="1.25949">
        <ele>42</ele>
        <time>2017-03-14T16:05:51Z</time>
      </trkpt>
      <trkpt lat="49.33763" lon="1.25949">
        <ele>42</ele>
        <time>2017-03-14T16:06:07Z</time>
      </trkpt>
      <trkpt lat="49.3376" lon="1.2595">
        <ele>42</ele>
        <time>2017-03-14T16:06:07Z</time>
      </trkpt>
      <trkpt lat="49.33755" lon="1.25949">
        <ele>42</ele>
        <time>2017-03-14T16:06:07Z</time>
      </trkpt>
      <trkpt lat="49.33752" lon="1.2595">
        <ele>42</ele>
        <time>2017-03-14T16:06:07Z</time>
      </trkpt>
      <trkpt lat="49.33748" lon="1.2595">
        <ele>42</ele>
        <time>2017-03-14T16:06:43Z</time>
      </trkpt>
      <trkpt lat="49.33745" lon="1.25949">
        <ele>42</ele>
        <time>2017-03-14T16:06:43Z</time>
      </trkpt>
      <trkpt lat="49.33741" lon="1.25947">
        <ele>42</ele>
        <time>2017-03-14T16:06:43Z</time>
      </trkpt>
      <trkpt lat="49.33734" lon="1.25941">
        <ele>42</ele>
        <time>2017-03-14T16:06:43Z</time>
      </trkpt>
      <trkpt lat="49.33726" lon="1.25929">
        <ele>42</ele>
        <time>2017-03-14T16:06:43Z</time>
      </trkpt>
      <trkpt lat="49.33724" lon="1.25923">
        <ele>42</ele>
        <time>2017-03-14T16:07:03Z</time>
      </trkpt>
      <trkpt lat="49.33723" lon="1.2592">
        <ele>42</ele>
        <time>2017-03-14T16:07:03Z</time>
      </trkpt>
      <trkpt lat="49.33721" lon="1.25918">
        <ele>42</ele>
        <time>2017-03-14T16:07:03Z</time>
      </trkpt>
      <trkpt lat="49.33717" lon="1.25919">
        <ele>42</ele>
        <time>2017-03-14T16:07:03Z</time>
      </trkpt>
      <trkpt lat="49.33713" lon="1.25921">
        <ele>42</ele>
        <time>2017-03-14T16:07:03Z</time>
      </trkpt>
      <trkpt lat="49.33711" lon="1.2592">
        <ele>42</ele>
        <time>2017-03-14T16:07:23Z</time>
      </trkpt>
      <trkpt lat="49.33709" lon="1.25918">
        <ele>42</ele>
        <time>2017-03-14T16:07:23Z</time>
      </trkpt>
      <trkpt lat="49.33705" lon="1.25922">
        <ele>21</ele>
        <time>2017-03-14T16:07:23Z</time>
      </trkpt>
      <trkpt lat="49.33703" lon="1.25923">
        <ele>21</ele>
        <time>2017-03-14T16:07:23Z</time>
      </trkpt>
      <trkpt lat="49.33701" lon="1.25928">
        <ele>21</ele>
        <time>2017-03-14T16:07:23Z</time>
      </trkpt>
      <trkpt lat="49.3371" lon="1.25929">
        <ele>42</ele>
        <time>2017-03-14T16:09:35Z</time>
      </trkpt>
      <trkpt lat="49.3371" lon="1.25929">
        <ele>42</ele>
        <time>2017-03-14T16:09:35Z</time>
      </trkpt>
      <trkpt lat="49.3371" lon="1.25929">
        <ele>42</ele>
        <time>2017-03-14T16:09:35Z</time>
      </trkpt>
      <trkpt lat="49.3371" lon="1.25929">
        <ele>42</ele>
        <time>2017-03-14T16:09:35Z</time>
      </trkpt>
      <trkpt lat="49.33715" lon="1.25922">
        <ele>42</ele>
        <time>2017-03-14T16:09:35Z</time>
      </trkpt>
      <trkpt lat="49.33715" lon="1.25922">
        <ele>42</ele>
        <time>2017-03-14T16:26:23Z</time>
      </trkpt>
      <trkpt lat="49.33713" lon="1.25927">
        <ele>42</ele>
        <time>2017-03-14T16:26:23Z</time>
      </trkpt>
      <trkpt lat="49.33712" lon="1.25931">
        <ele>42</ele>
        <time>2017-03-14T16:26:23Z</time>
      </trkpt>
      <trkpt lat="49.3371" lon="1.25937">
        <ele>42</ele>
        <time>2017-03-14T16:26:23Z</time>
      </trkpt>
      <trkpt lat="49.33706" lon="1.25941">
        <ele>21</ele>
        <time>2017-03-14T16:26:23Z</time>
      </trkpt>
      <trkpt lat="49.33701" lon="1.25947">
        <ele>21</ele>
        <time>2017-03-14T16:26:51Z</time>
      </trkpt>
      <trkpt lat="49.33698" lon="1.2595">
        <ele>21</ele>
        <time>2017-03-14T16:26:51Z</time>
      </trkpt>
      <trkpt lat="49.33698" lon="1.25958">
        <ele>21</ele>
        <time>2017-03-14T16:26:51Z</time>
      </trkpt>
      <trkpt lat="49.337" lon="1.25963">
        <ele>22</ele>
        <time>2017-03-14T16:26:51Z</time>
      </trkpt>
      <trkpt lat="49.33702" lon="1.25967">
        <ele>22</ele>
        <time>2017-03-14T16:26:51Z</time>
      </trkpt>
      <trkpt lat="49.33704" lon="1.2597">
        <ele>22</ele>
        <time>2017-03-14T16:27:07Z</time>
      </trkpt>
      <trkpt lat="49.33709" lon="1.25975">
        <ele>30</ele>
        <time>2017-03-14T16:27:07Z</time>
      </trkpt>
      <trkpt lat="49.33714" lon="1.25981">
        <ele>30</ele>
        <time>2017-03-14T16:27:07Z</time>
      </trkpt>
      <trkpt lat="49.33718" lon="1.25984">
        <ele>30</ele>
        <time>2017-03-14T16:27:07Z</time>
      </trkpt>
      <trkpt lat="49.33722" lon="1.25988">
        <ele>30</ele>
        <time>2017-03-14T16:27:23Z</time>
      </trkpt>
      <trkpt lat="49.33726" lon="1.25991">
        <ele>30</ele>
        <time>2017-03-14T16:27:23Z</time>
      </trkpt>
      <trkpt lat="49.3373" lon="1.25996">
        <ele>30</ele>
        <time>2017-03-14T16:27:23Z</time>
      </trkpt>
      <trkpt lat="49.33734" lon="1.26001">
        <ele>30</ele>
        <time>2017-03-14T16:27:23Z</time>
      </trkpt>
      <trkpt lat="49.33741" lon="1.26006">
        <ele>30</ele>
        <time>2017-03-14T16:27:51Z</time>
      </trkpt>
      <trkpt lat="49.33745" lon="1.26013">
        <ele>30</ele>
        <time>2017-03-14T16:27:51Z</time>
      </trkpt>
      <trkpt lat="49.33751" lon="1.26013">
        <ele>30</ele>
        <time>2017-03-14T16:27:51Z</time>
      </trkpt>
      <trkpt lat="49.33756" lon="1.26017">
        <ele>30</ele>
        <time>2017-03-14T16:27:51Z</time>
      </trkpt>
      <trkpt lat="49.3376" lon="1.26021">
        <ele>30</ele>
        <time>2017-03-14T16:27:51Z</time>
      </trkpt>
      <trkpt lat="49.33765" lon="1.26027">
        <ele>30</ele>
        <time>2017-03-14T16:28:07Z</time>
      </trkpt>
      <trkpt lat="49.33769" lon="1.26031">
        <ele>30</ele>
        <time>2017-03-14T16:28:07Z</time>
      </trkpt>
      <trkpt lat="49.33773" lon="1.26035">
        <ele>30</ele>
        <time>2017-03-14T16:28:07Z</time>
      </trkpt>
      <trkpt lat="49.33775" lon="1.26036">
        <ele>30</ele>
        <time>2017-03-14T16:28:07Z</time>
      </trkpt>
      <trkpt lat="49.33775" lon="1.26034">
        <ele>30</ele>
        <time>2017-03-14T16:28:43Z</time>
      </trkpt>
      <trkpt lat="49.33779" lon="1.26035">
        <ele>30</ele>
        <time>2017-03-14T16:28:43Z</time>
      </trkpt>
      <trkpt lat="49.33781" lon="1.26045">
        <ele>26</ele>
        <time>2017-03-14T16:28:43Z</time>
      </trkpt>
      <trkpt lat="49.33786" lon="1.26049">
        <ele>26</ele>
        <time>2017-03-14T16:28:43Z</time>
      </trkpt>
      <trkpt lat="49.33789" lon="1.26053">
        <ele>26</ele>
        <time>2017-03-14T16:28:43Z</time>
      </trkpt>
      <trkpt lat="49.33793" lon="1.26054">
        <ele>35</ele>
        <time>2017-03-14T16:28:59Z</time>
      </trkpt>
      <trkpt lat="49.33797" lon="1.26056">
        <ele>35</ele>
        <time>2017-03-14T16:28:59Z</time>
      </trkpt>
      <trkpt lat="49.33801" lon="1.26058">
        <ele>35</ele>
        <time>2017-03-14T16:28:59Z</time>
      </trkpt>
      <trkpt lat="49.33805" lon="1.26062">
        <ele>35</ele>
        <time>2017-03-14T16:28:59Z</time>
      </trkpt>
      <trkpt lat="49.33809" lon="1.26065">
        <ele>35</ele>
        <time>2017-03-14T16:29:15Z</time>
      </trkpt>
      <trkpt lat="49.33813" lon="1.26069">
        <ele>35</ele>
        <time>2017-03-14T16:29:15Z</time>
      </trkpt>
      <trkpt lat="49.33818" lon="1.26071">
        <ele>35</ele>
        <time>2017-03-14T16:29:15Z</time>
      </trkpt>
      <trkpt lat="49.33821" lon="1.26075">
        <ele>35</ele>
        <time>2017-03-14T16:29:15Z</time>
      </trkpt>
      <trkpt lat="49.33826" lon="1.26077">
        <ele>35</ele>
        <time>2017-03-14T16:29:31Z</time>
      </trkpt>
      <trkpt lat="49.33832" lon="1.26079">
        <ele>35</ele>
        <time>2017-03-14T16:29:31Z</time>
      </trkpt>
      <trkpt lat="49.33834" lon="1.2608">
        <ele>35</ele>
        <time>2017-03-14T16:29:31Z</time>
      </trkpt>
      <trkpt lat="49.33841" lon="1.26083">
        <ele>35</ele>
        <time>2017-03-14T16:29:31Z</time>
      </trkpt>
      <trkpt lat="49.33846" lon="1.26085">
        <ele>35</ele>
        <time>2017-03-14T16:29:47Z</time>
      </trkpt>
      <trkpt lat="49.3385" lon="1.26086">
        <ele>35</ele>
        <time>2017-03-14T16:29:47Z</time>
      </trkpt>
      <trkpt lat="49.33855" lon="1.26088">
        <ele>35</ele>
        <time>2017-03-14T16:29:47Z</time>
      </trkpt>
      <trkpt lat="49.33861" lon="1.2609">
        <ele>35</ele>
        <time>2017-03-14T16:29:47Z</time>
      </trkpt>
      <trkpt lat="49.33864" lon="1.26092">
        <ele>35</ele>
        <time>2017-03-14T16:30:03Z</time>
      </trkpt>
      <trkpt lat="49.33866" lon="1.26095">
        <ele>35</ele>
        <time>2017-03-14T16:30:03Z</time>
      </trkpt>
      <trkpt lat="49.33868" lon="1.261">
        <ele>35</ele>
        <time>2017-03-14T16:30:03Z</time>
      </trkpt>
      <trkpt lat="49.33872" lon="1.26105">
        <ele>35</ele>
        <time>2017-03-14T16:30:03Z</time>
      </trkpt>
      <trkpt lat="49.33876" lon="1.2611">
        <ele>53</ele>
        <time>2017-03-14T16:30:19Z</time>
      </trkpt>
      <trkpt lat="49.33881" lon="1.26114">
        <ele>53</ele>
        <time>2017-03-14T16:30:19Z</time>
      </trkpt>
      <trkpt lat="49.33886" lon="1.26117">
        <ele>53</ele>
        <time>2017-03-14T16:30:19Z</time>
      </trkpt>
      <trkpt lat="49.3389" lon="1.2612">
        <ele>53</ele>
        <time>2017-03-14T16:30:19Z</time>
      </trkpt>
      <trkpt lat="49.33894" lon="1.26124">
        <ele>53</ele>
        <time>2017-03-14T16:30:35Z</time>
      </trkpt>
      <trkpt lat="49.33898" lon="1.26126">
        <ele>47</ele>
        <time>2017-03-14T16:30:35Z</time>
      </trkpt>
      <trkpt lat="49.33904" lon="1.2613">
        <ele>47</ele>
        <time>2017-03-14T16:30:35Z</time>
      </trkpt>
      <trkpt lat="49.33909" lon="1.26131">
        <ele>47</ele>
        <time>2017-03-14T16:30:35Z</time>
      </trkpt>
      <trkpt lat="49.33913" lon="1.26133">
        <ele>47</ele>
        <time>2017-03-14T16:30:51Z</time>
      </trkpt>
      <trkpt lat="49.33918" lon="1.26134">
        <ele>47</ele>
        <time>2017-03-14T16:30:51Z</time>
      </trkpt>
      <trkpt lat="49.33922" lon="1.26137">
        <ele>47</ele>
        <time>2017-03-14T16:30:51Z</time>
      </trkpt>
      <trkpt lat="49.33925" lon="1.26143">
        <ele>47</ele>
        <time>2017-03-14T16:30:51Z</time>
      </trkpt>
      <trkpt lat="49.33929" lon="1.26145">
        <ele>47</ele>
        <time>2017-03-14T16:31:07Z</time>
      </trkpt>
      <trkpt lat="49.33933" lon="1.26147">
        <ele>47</ele>
        <time>2017-03-14T16:31:07Z</time>
      </trkpt>
      <trkpt lat="49.33937" lon="1.2615">
        <ele>47</ele>
        <time>2017-03-14T16:31:07Z</time>
      </trkpt>
      <trkpt lat="49.33943" lon="1.26155">
        <ele>47</ele>
        <time>2017-03-14T16:31:07Z</time>
      </trkpt>
      <trkpt lat="49.33946" lon="1.2616">
        <ele>47</ele>
        <time>2017-03-14T16:31:23Z</time>
      </trkpt>
      <trkpt lat="49.3395" lon="1.26165">
        <ele>47</ele>
        <time>2017-03-14T16:31:23Z</time>
      </trkpt>
      <trkpt lat="49.33953" lon="1.26171">
        <ele>47</ele>
        <time>2017-03-14T16:31:23Z</time>
      </trkpt>
      <trkpt lat="49.33955" lon="1.26174">
        <ele>47</ele>
        <time>2017-03-14T16:31:23Z</time>
      </trkpt>
      <trkpt lat="49.33958" lon="1.26178">
        <ele>47</ele>
        <time>2017-03-14T16:31:39Z</time>
      </trkpt>
      <trkpt lat="49.33961" lon="1.26186">
        <ele>61</ele>
        <time>2017-03-14T16:31:39Z</time>
      </trkpt>
      <trkpt lat="49.33964" lon="1.26193">
        <ele>61</ele>
        <time>2017-03-14T16:31:39Z</time>
      </trkpt>
      <trkpt lat="49.33966" lon="1.26199">
        <ele>61</ele>
        <time>2017-03-14T16:31:39Z</time>
      </trkpt>
      <trkpt lat="49.33967" lon="1.26202">
        <ele>61</ele>
        <time>2017-03-14T16:31:55Z</time>
      </trkpt>
      <trkpt lat="49.33969" lon="1.26206">
        <ele>61</ele>
        <time>2017-03-14T16:31:55Z</time>
      </trkpt>
      <trkpt lat="49.33973" lon="1.26212">
        <ele>58</ele>
        <time>2017-03-14T16:31:55Z</time>
      </trkpt>
      <trkpt lat="49.33974" lon="1.26217">
        <ele>58</ele>
        <time>2017-03-14T16:31:55Z</time>
      </trkpt>
      <trkpt lat="49.33976" lon="1.26223">
        <ele>58</ele>
        <time>2017-03-14T16:32:11Z</time>
      </trkpt>
      <trkpt lat="49.3398" lon="1.26231">
        <ele>58</ele>
        <time>2017-03-14T16:32:11Z</time>
      </trkpt>
      <trkpt lat="49.33986" lon="1.26234">
        <ele>58</ele>
        <time>2017-03-14T16:32:11Z</time>
      </trkpt>
      <trkpt lat="49.33989" lon="1.26238">
        <ele>58</ele>
        <time>2017-03-14T16:32:11Z</time>
      </trkpt>
      <trkpt lat="49.33993" lon="1.26244">
        <ele>58</ele>
        <time>2017-03-14T16:32:27Z</time>
      </trkpt>
      <trkpt lat="49.33996" lon="1.26247">
        <ele>58</ele>
        <time>2017-03-14T16:32:27Z</time>
      </trkpt>
      <trkpt lat="49.34001" lon="1.26254">
        <ele>58</ele>
        <time>2017-03-14T16:32:27Z</time>
      </trkpt>
      <trkpt lat="49.34003" lon="1.26257">
        <ele>58</ele>
        <time>2017-03-14T16:32:27Z</time>
      </trkpt>
      <trkpt lat="49.34004" lon="1.26267">
        <ele>58</ele>
        <time>2017-03-14T16:33:07Z</time>
      </trkpt>
      <trkpt lat="49.34005" lon="1.26268">
        <ele>58</ele>
        <time>2017-03-14T16:33:07Z</time>
      </trkpt>
      <trkpt lat="49.34008" lon="1.26271">
        <ele>58</ele>
        <time>2017-03-14T16:33:07Z</time>
      </trkpt>
      <trkpt lat="49.34008" lon="1.26278">
        <ele>58</ele>
        <time>2017-03-14T16:33:07Z</time>
      </trkpt>
      <trkpt lat="49.3401" lon="1.26286">
        <ele>58</ele>
        <time>2017-03-14T16:33:07Z</time>
      </trkpt>
      <trkpt lat="49.34008" lon="1.26283">
        <ele>58</ele>
        <time>2017-03-14T16:33:23Z</time>
      </trkpt>
      <trkpt lat="49.34008" lon="1.26273">
        <ele>58</ele>
        <time>2017-03-14T16:33:23Z</time>
      </trkpt>
      <trkpt lat="49.34012" lon="1.26266">
        <ele>58</ele>
        <time>2017-03-14T16:33:23Z</time>
      </trkpt>
      <trkpt lat="49.34018" lon="1.26263">
        <ele>58</ele>
        <time>2017-03-14T16:33:23Z</time>
      </trkpt>
      <trkpt lat="49.34023" lon="1.26265">
        <ele>58</ele>
        <time>2017-03-14T16:33:39Z</time>
      </trkpt>
      <trkpt lat="49.34028" lon="1.26266">
        <ele>58</ele>
        <time>2017-03-14T16:33:39Z</time>
      </trkpt>
      <trkpt lat="49.34032" lon="1.2627">
        <ele>58</ele>
        <time>2017-03-14T16:33:39Z</time>
      </trkpt>
      <trkpt lat="49.34035" lon="1.2627">
        <ele>58</ele>
        <time>2017-03-14T16:33:39Z</time>
      </trkpt>
      <trkpt lat="49.34039" lon="1.26271">
        <ele>58</ele>
        <time>2017-03-14T16:33:55Z</time>
      </trkpt>
      <trkpt lat="49.34043" lon="1.26274">
        <ele>72</ele>
        <time>2017-03-14T16:33:55Z</time>
      </trkpt>
      <trkpt lat="49.34046" lon="1.2627">
        <ele>72</ele>
        <time>2017-03-14T16:33:55Z</time>
      </trkpt>
      <trkpt lat="49.34049" lon="1.26263">
        <ele>72</ele>
        <time>2017-03-14T16:33:55Z</time>
      </trkpt>
      <trkpt lat="49.34049" lon="1.26258">
        <ele>72</ele>
        <time>2017-03-14T16:34:11Z</time>
      </trkpt>
      <trkpt lat="49.34046" lon="1.2625">
        <ele>72</ele>
        <time>2017-03-14T16:34:11Z</time>
      </trkpt>
      <trkpt lat="49.34041" lon="1.26244">
        <ele>58</ele>
        <time>2017-03-14T16:34:11Z</time>
      </trkpt>
      <trkpt lat="49.34037" lon="1.26241">
        <ele>58</ele>
        <time>2017-03-14T16:34:11Z</time>
      </trkpt>
      <trkpt lat="49.34034" lon="1.26234">
        <ele>58</ele>
        <time>2017-03-14T16:34:27Z</time>
      </trkpt>
      <trkpt lat="49.34032" lon="1.2623">
        <ele>58</ele>
        <time>2017-03-14T16:34:27Z</time>
      </trkpt>
      <trkpt lat="49.34029" lon="1.26224">
        <ele>58</ele>
        <time>2017-03-14T16:34:27Z</time>
      </trkpt>
      <trkpt lat="49.34027" lon="1.26219">
        <ele>58</ele>
        <time>2017-03-14T16:34:27Z</time>
      </trkpt>
      <trkpt lat="49.34025" lon="1.26214">
        <ele>58</ele>
        <time>2017-03-14T16:34:43Z</time>
      </trkpt>
      <trkpt lat="49.34019" lon="1.26207">
        <ele>61</ele>
        <time>2017-03-14T16:34:43Z</time>
      </trkpt>
      <trkpt lat="49.34017" lon="1.26203">
        <ele>61</ele>
        <time>2017-03-14T16:34:43Z</time>
      </trkpt>
      <trkpt lat="49.34014" lon="1.26197">
        <ele>61</ele>
        <time>2017-03-14T16:34:43Z</time>
      </trkpt>
      <trkpt lat="49.34011" lon="1.26191">
        <ele>61</ele>
        <time>2017-03-14T16:34:59Z</time>
      </trkpt>
      <trkpt lat="49.34009" lon="1.26187">
        <ele>61</ele>
        <time>2017-03-14T16:34:59Z</time>
      </trkpt>
      <trkpt lat="49.34006" lon="1.26181">
        <ele>61</ele>
        <time>2017-03-14T16:34:59Z</time>
      </trkpt>
      <trkpt lat="49.34004" lon="1.26176">
        <ele>61</ele>
        <time>2017-03-14T16:34:59Z</time>
      </trkpt>
      <trkpt lat="49.34001" lon="1.26169">
        <ele>61</ele>
        <time>2017-03-14T16:35:15Z</time>
      </trkpt>
      <trkpt lat="49.33998" lon="1.26164">
        <ele>61</ele>
        <time>2017-03-14T16:35:15Z</time>
      </trkpt>
      <trkpt lat="49.33998" lon="1.26153">
        <ele>61</ele>
        <time>2017-03-14T16:35:15Z</time>
      </trkpt>
      <trkpt lat="49.33996" lon="1.26147">
        <ele>61</ele>
        <time>2017-03-14T16:35:15Z</time>
      </trkpt>
      <trkpt lat="49.33994" lon="1.26143">
        <ele>61</ele>
        <time>2017-03-14T16:35:31Z</time>
      </trkpt>
      <trkpt lat="49.33992" lon="1.26137">
        <ele>61</ele>
        <time>2017-03-14T16:35:31Z</time>
      </trkpt>
      <trkpt lat="49.33989" lon="1.26132">
        <ele>61</ele>
        <time>2017-03-14T16:35:31Z</time>
      </trkpt>
      <trkpt lat="49.33987" lon="1.26126">
        <ele>61</ele>
        <time>2017-03-14T16:35:31Z</time>
      </trkpt>
      <trkpt lat="49.33983" lon="1.2612">
        <ele>78</ele>
        <time>2017-03-14T16:35:47Z</time>
      </trkpt>
      <trkpt lat="49.3398" lon="1.26115">
        <ele>78</ele>
        <time>2017-03-14T16:35:47Z</time>
      </trkpt>
      <trkpt lat="49.33977" lon="1.26111">
        <ele>78</ele>
        <time>2017-03-14T16:35:47Z</time>
      </trkpt>
      <trkpt lat="49.33975" lon="1.26107">
        <ele>78</ele>
        <time>2017-03-14T16:35:47Z</time>
      </trkpt>
      <trkpt lat="49.33971" lon="1.26101">
        <ele>78</ele>
        <time>2017-03-14T16:36:03Z</time>
      </trkpt>
      <trkpt lat="49.33968" lon="1.26096">
        <ele>78</ele>
        <time>2017-03-14T16:36:03Z</time>
      </trkpt>
      <trkpt lat="49.33965" lon="1.26092">
        <ele>78</ele>
        <time>2017-03-14T16:36:03Z</time>
      </trkpt>
      <trkpt lat="49.33961" lon="1.26088">
        <ele>78</ele>
        <time>2017-03-14T16:36:03Z</time>
      </trkpt>
      <trkpt lat="49.33958" lon="1.26083">
        <ele>53</ele>
        <time>2017-03-14T16:36:19Z</time>
      </trkpt>
      <trkpt lat="49.33955" lon="1.26079">
        <ele>53</ele>
        <time>2017-03-14T16:36:19Z</time>
      </trkpt>
      <trkpt lat="49.33952" lon="1.26076">
        <ele>53</ele>
        <time>2017-03-14T16:36:19Z</time>
      </trkpt>
      <trkpt lat="49.33949" lon="1.26071">
        <ele>53</ele>
        <time>2017-03-14T16:36:19Z</time>
      </trkpt>
      <trkpt lat="49.33946" lon="1.26067">
        <ele>53</ele>
        <time>2017-03-14T16:36:35Z</time>
      </trkpt>
      <trkpt lat="49.33943" lon="1.26062">
        <ele>53</ele>
        <time>2017-03-14T16:36:35Z</time>
      </trkpt>
      <trkpt lat="49.33939" lon="1.26056">
        <ele>53</ele>
        <time>2017-03-14T16:36:35Z</time>
      </trkpt>
      <trkpt lat="49.33937" lon="1.26053">
        <ele>53</ele>
        <time>2017-03-14T16:36:35Z</time>
      </trkpt>
      <trkpt lat="49.33941" lon="1.26041">
        <ele>73</ele>
        <time>2017-03-14T16:36:51Z</time>
      </trkpt>
      <trkpt lat="49.33949" lon="1.26037">
        <ele>73</ele>
        <time>2017-03-14T16:36:51Z</time>
      </trkpt>
      <trkpt lat="49.33957" lon="1.26034">
        <ele>73</ele>
        <time>2017-03-14T16:36:51Z</time>
      </trkpt>
      <trkpt lat="49.33962" lon="1.26035">
        <ele>97</ele>
        <time>2017-03-14T16:36:51Z</time>
      </trkpt>
      <trkpt lat="49.33966" lon="1.26038">
        <ele>97</ele>
        <time>2017-03-14T16:37:07Z</time>
      </trkpt>
      <trkpt lat="49.33971" lon="1.26036">
        <ele>97</ele>
        <time>2017-03-14T16:37:07Z</time>
      </trkpt>
      <trkpt lat="49.33975" lon="1.26037">
        <ele>97</ele>
        <time>2017-03-14T16:37:07Z</time>
      </trkpt>
      <trkpt lat="49.33978" lon="1.26042">
        <ele>97</ele>
        <time>2017-03-14T16:37:07Z</time>
      </trkpt>
      <trkpt lat="49.33982" lon="1.26045">
        <ele>78</ele>
        <time>2017-03-14T16:37:23Z</time>
      </trkpt>
      <trkpt lat="49.33985" lon="1.26049">
        <ele>78</ele>
        <time>2017-03-14T16:37:23Z</time>
      </trkpt>
      <trkpt lat="49.33988" lon="1.26052">
        <ele>78</ele>
        <time>2017-03-14T16:37:23Z</time>
      </trkpt>
      <trkpt lat="49.33991" lon="1.26055">
        <ele>78</ele>
        <time>2017-03-14T16:37:23Z</time>
      </trkpt>
      <trkpt lat="49.33995" lon="1.26059">
        <ele>78</ele>
        <time>2017-03-14T16:37:39Z</time>
      </trkpt>
      <trkpt lat="49.33998" lon="1.26062">
        <ele>78</ele>
        <time>2017-03-14T16:37:39Z</time>
      </trkpt>
      <trkpt lat="49.34001" lon="1.26066">
        <ele>78</ele>
        <time>2017-03-14T16:37:39Z</time>
      </trkpt>
      <trkpt lat="49.34004" lon="1.2607">
        <ele>78</ele>
        <time>2017-03-14T16:37:39Z</time>
      </trkpt>
      <trkpt lat="49.34008" lon="1.26074">
        <ele>78</ele>
        <time>2017-03-14T16:37:55Z</time>
      </trkpt>
      <trkpt lat="49.34011" lon="1.26078">
        <ele>78</ele>
        <time>2017-03-14T16:37:55Z</time>
      </trkpt>
      <trkpt lat="49.34016" lon="1.2608">
        <ele>78</ele>
        <time>2017-03-14T16:37:55Z</time>
      </trkpt>
      <trkpt lat="49.34021" lon="1.26086">
        <ele>78</ele>
        <time>2017-03-14T16:37:55Z</time>
      </trkpt>
      <trkpt lat="49.34026" lon="1.26093">
        <ele>78</ele>
        <time>2017-03-14T16:38:11Z</time>
      </trkpt>
      <trkpt lat="49.3403" lon="1.26098">
        <ele>78</ele>
        <time>2017-03-14T16:38:11Z</time>
      </trkpt>
      <trkpt lat="49.34033" lon="1.26101">
        <ele>78</ele>
        <time>2017-03-14T16:38:11Z</time>
      </trkpt>
      <trkpt lat="49.34037" lon="1.26106">
        <ele>78</ele>
        <time>2017-03-14T16:38:11Z</time>
      </trkpt>
      <trkpt lat="49.34041" lon="1.26109">
        <ele>78</ele>
        <time>2017-03-14T16:38:27Z</time>
      </trkpt>
      <trkpt lat="49.34044" lon="1.26112">
        <ele>105</ele>
        <time>2017-03-14T16:38:27Z</time>
      </trkpt>
      <trkpt lat="49.34048" lon="1.26116">
        <ele>105</ele>
        <time>2017-03-14T16:38:27Z</time>
      </trkpt>
      <trkpt lat="49.34052" lon="1.26118">
        <ele>105</ele>
        <time>2017-03-14T16:38:27Z</time>
      </trkpt>
      <trkpt lat="49.34057" lon="1.26119">
        <ele>105</ele>
        <time>2017-03-14T16:38:55Z</time>
      </trkpt>
      <trkpt lat="49.34061" lon="1.26124">
        <ele>105</ele>
        <time>2017-03-14T16:38:55Z</time>
      </trkpt>
      <trkpt lat="49.34065" lon="1.26127">
        <ele>89</ele>
        <time>2017-03-14T16:38:55Z</time>
      </trkpt>
      <trkpt lat="49.34068" lon="1.2613">
        <ele>89</ele>
        <time>2017-03-14T16:38:55Z</time>
      </trkpt>
      <trkpt lat="49.34071" lon="1.26133">
        <ele>89</ele>
        <time>2017-03-14T16:38:55Z</time>
      </trkpt>
      <trkpt lat="49.34078" lon="1.2614">
        <ele>89</ele>
        <time>2017-03-14T16:39:19Z</time>
      </trkpt>
      <trkpt lat="49.3408" lon="1.26143">
        <ele>89</ele>
        <time>2017-03-14T16:39:19Z</time>
      </trkpt>
      <trkpt lat="49.34081" lon="1.2614">
        <ele>89</ele>
        <time>2017-03-14T16:39:19Z</time>
      </trkpt>
      <trkpt lat="49.34082" lon="1.26142">
        <ele>89</ele>
        <time>2017-03-14T16:39:19Z</time>
      </trkpt>
      <trkpt lat="49.34085" lon="1.26143">
        <ele>89</ele>
        <time>2017-03-14T16:39:19Z</time>
      </trkpt>
      <trkpt lat="49.34089" lon="1.26145">
        <ele>89</ele>
        <time>2017-03-14T16:39:35Z</time>
      </trkpt>
      <trkpt lat="49.34091" lon="1.26145">
        <ele>89</ele>
        <time>2017-03-14T16:39:35Z</time>
      </trkpt>
      <trkpt lat="49.34095" lon="1.26148">
        <ele>89</ele>
        <time>2017-03-14T16:39:35Z</time>
      </trkpt>
      <trkpt lat="49.34098" lon="1.26151">
        <ele>89</ele>
        <time>2017-03-14T16:39:35Z</time>
      </trkpt>
      <trkpt lat="49.34101" lon="1.26154">
        <ele>89</ele>
        <time>2017-03-14T16:39:51Z</time>
      </trkpt>
      <trkpt lat="49.34105" lon="1.26157">
        <ele>89</ele>
        <time>2017-03-14T16:39:51Z</time>
      </trkpt>
      <trkpt lat="49.34107" lon="1.26159">
        <ele>89</ele>
        <time>2017-03-14T16:39:51Z</time>
      </trkpt>
      <trkpt lat="49.34112" lon="1.26163">
        <ele>89</ele>
        <time>2017-03-14T16:39:51Z</time>
      </trkpt>
      <trkpt lat="49.34115" lon="1.26164">
        <ele>89</ele>
        <time>2017-03-14T16:40:07Z</time>
      </trkpt>
      <trkpt lat="49.34119" lon="1.26167">
        <ele>89</ele>
        <time>2017-03-14T16:40:07Z</time>
      </trkpt>
      <trkpt lat="49.34122" lon="1.26169">
        <ele>89</ele>
        <time>2017-03-14T16:40:07Z</time>
      </trkpt>
      <trkpt lat="49.34126" lon="1.26171">
        <ele>109</ele>
        <time>2017-03-14T16:40:07Z</time>
      </trkpt>
      <trkpt lat="49.3413" lon="1.26174">
        <ele>109</ele>
        <time>2017-03-14T16:40:23Z</time>
      </trkpt>
      <trkpt lat="49.34134" lon="1.26177">
        <ele>109</ele>
        <time>2017-03-14T16:40:23Z</time>
      </trkpt>
      <trkpt lat="49.34136" lon="1.2618">
        <ele>109</ele>
        <time>2017-03-14T16:40:23Z</time>
      </trkpt>
      <trkpt lat="49.3414" lon="1.26183">
        <ele>109</ele>
        <time>2017-03-14T16:40:23Z</time>
      </trkpt>
      <trkpt lat="49.34143" lon="1.26186">
        <ele>109</ele>
        <time>2017-03-14T16:40:39Z</time>
      </trkpt>
      <trkpt lat="49.34146" lon="1.26189">
        <ele>109</ele>
        <time>2017-03-14T16:40:39Z</time>
      </trkpt>
      <trkpt lat="49.3415" lon="1.26192">
        <ele>109</ele>
        <time>2017-03-14T16:40:39Z</time>
      </trkpt>
      <trkpt lat="49.34154" lon="1.26196">
        <ele>109</ele>
        <time>2017-03-14T16:40:39Z</time>
      </trkpt>
      <trkpt lat="49.34156" lon="1.26199">
        <ele>109</ele>
        <time>2017-03-14T16:40:55Z</time>
      </trkpt>
      <trkpt lat="49.34161" lon="1.26202">
        <ele>109</ele>
        <time>2017-03-14T16:40:55Z</time>
      </trkpt>
      <trkpt lat="49.34164" lon="1.26204">
        <ele>109</ele>
        <time>2017-03-14T16:40:55Z</time>
      </trkpt>
      <trkpt lat="49.34168" lon="1.26207">
        <ele>109</ele>
        <time>2017-03-14T16:40:55Z</time>
      </trkpt>
      <trkpt lat="49.34172" lon="1.26209">
        <ele>92</ele>
        <time>2017-03-14T16:41:11Z</time>
      </trkpt>
      <trkpt lat="49.34175" lon="1.26211">
        <ele>92</ele>
        <time>2017-03-14T16:41:11Z</time>
      </trkpt>
      <trkpt lat="49.34179" lon="1.26211">
        <ele>92</ele>
        <time>2017-03-14T16:41:11Z</time>
      </trkpt>
      <trkpt lat="49.34184" lon="1.26212">
        <ele>92</ele>
        <time>2017-03-14T16:41:11Z</time>
      </trkpt>
      <trkpt lat="49.34189" lon="1.2621">
        <ele>92</ele>
        <time>2017-03-14T16:41:27Z</time>
      </trkpt>
      <trkpt lat="49.34192" lon="1.26211">
        <ele>92</ele>
        <time>2017-03-14T16:41:27Z</time>
      </trkpt>
      <trkpt lat="49.34196" lon="1.26212">
        <ele>92</ele>
        <time>2017-03-14T16:41:27Z</time>
      </trkpt>
      <trkpt lat="49.34201" lon="1.26213">
        <ele>92</ele>
        <time>2017-03-14T16:41:27Z</time>
      </trkpt>
      <trkpt lat="49.34204" lon="1.26214">
        <ele>92</ele>
        <time>2017-03-14T16:41:43Z</time>
      </trkpt>
      <trkpt lat="49.34209" lon="1.26215">
        <ele>100</ele>
        <time>2017-03-14T16:41:43Z</time>
      </trkpt>
      <trkpt lat="49.34212" lon="1.26215">
        <ele>100</ele>
        <time>2017-03-14T16:41:43Z</time>
      </trkpt>
      <trkpt lat="49.34217" lon="1.26215">
        <ele>100</ele>
        <time>2017-03-14T16:41:43Z</time>
      </trkpt>
      <trkpt lat="49.34221" lon="1.26215">
        <ele>100</ele>
        <time>2017-03-14T16:41:59Z</time>
      </trkpt>
      <trkpt lat="49.34224" lon="1.26215">
        <ele>100</ele>
        <time>2017-03-14T16:41:59Z</time>
      </trkpt>
      <trkpt lat="49.34228" lon="1.26215">
        <ele>100</ele>
        <time>2017-03-14T16:41:59Z</time>
      </trkpt>
      <trkpt lat="49.34233" lon="1.26215">
        <ele>100</ele>
        <time>2017-03-14T16:41:59Z</time>
      </trkpt>
      <trkpt lat="49.34237" lon="1.26215">
        <ele>100</ele>
        <time>2017-03-14T16:42:15Z</time>
      </trkpt>
      <trkpt lat="49.3424" lon="1.26215">
        <ele>100</ele>
        <time>2017-03-14T16:42:15Z</time>
      </trkpt>
      <trkpt lat="49.34245" lon="1.26215">
        <ele>100</ele>
        <time>2017-03-14T16:42:15Z</time>
      </trkpt>
      <trkpt lat="49.34248" lon="1.26212">
        <ele>100</ele>
        <time>2017-03-14T16:42:15Z</time>
      </trkpt>
      <trkpt lat="49.34249" lon="1.26209">
        <ele>100</ele>
        <time>2017-03-14T16:42:31Z</time>
      </trkpt>
      <trkpt lat="49.34253" lon="1.2621">
        <ele>100</ele>
        <time>2017-03-14T16:42:31Z</time>
      </trkpt>
      <trkpt lat="49.34256" lon="1.2621">
        <ele>100</ele>
        <time>2017-03-14T16:42:31Z</time>
      </trkpt>
      <trkpt lat="49.34261" lon="1.26211">
        <ele>100</ele>
        <time>2017-03-14T16:42:31Z</time>
      </trkpt>
      <trkpt lat="49.34265" lon="1.26211">
        <ele>100</ele>
        <time>2017-03-14T16:42:47Z</time>
      </trkpt>
      <trkpt lat="49.34269" lon="1.26211">
        <ele>100</ele>
        <time>2017-03-14T16:42:47Z</time>
      </trkpt>
      <trkpt lat="49.34273" lon="1.26211">
        <ele>100</ele>
        <time>2017-03-14T16:42:47Z</time>
      </trkpt>
      <trkpt lat="49.34276" lon="1.26211">
        <ele>100</ele>
        <time>2017-03-14T16:42:47Z</time>
      </trkpt>
      <trkpt lat="49.34281" lon="1.26212">
        <ele>100</ele>
        <time>2017-03-14T16:43:03Z</time>
      </trkpt>
      <trkpt lat="49.34284" lon="1.26213">
        <ele>100</ele>
        <time>2017-03-14T16:43:03Z</time>
      </trkpt>
      <trkpt lat="49.34289" lon="1.26213">
        <ele>100</ele>
        <time>2017-03-14T16:43:03Z</time>
      </trkpt>
      <trkpt lat="49.34294" lon="1.26213">
        <ele>109</ele>
        <time>2017-03-14T16:43:03Z</time>
      </trkpt>
      <trkpt lat="49.34297" lon="1.26213">
        <ele>109</ele>
        <time>2017-03-14T16:43:19Z</time>
      </trkpt>
      <trkpt lat="49.34302" lon="1.26214">
        <ele>109</ele>
        <time>2017-03-14T16:43:19Z</time>
      </trkpt>
      <trkpt lat="49.34305" lon="1.26214">
        <ele>109</ele>
        <time>2017-03-14T16:43:19Z</time>
      </trkpt>
      <trkpt lat="49.34309" lon="1.26214">
        <ele>109</ele>
        <time>2017-03-14T16:43:19Z</time>
      </trkpt>
      <trkpt lat="49.34313" lon="1.26214">
        <ele>109</ele>
        <time>2017-03-14T16:43:35Z</time>
      </trkpt>
      <trkpt lat="49.34318" lon="1.26213">
        <ele>109</ele>
        <time>2017-03-14T16:43:35Z</time>
      </trkpt>
      <trkpt lat="49.34323" lon="1.26213">
        <ele>109</ele>
        <time>2017-03-14T16:43:35Z</time>
      </trkpt>
      <trkpt lat="49.34326" lon="1.26213">
        <ele>109</ele>
        <time>2017-03-14T16:43:35Z</time>
      </trkpt>
      <trkpt lat="49.3433" lon="1.26213">
        <ele>109</ele>
        <time>2017-03-14T16:43:51Z</time>
      </trkpt>
      <trkpt lat="49.34334" lon="1.26213">
        <ele>109</ele>
        <time>2017-03-14T16:43:51Z</time>
      </trkpt>
      <trkpt lat="49.34339" lon="1.26213">
        <ele>109</ele>
        <time>2017-03-14T16:43:51Z</time>
      </trkpt>
      <trkpt lat="49.34345" lon="1.26206">
        <ele>125</ele>
        <time>2017-03-14T16:43:51Z</time>
      </trkpt>
      <trkpt lat="49.34348" lon="1.26206">
        <ele>125</ele>
        <time>2017-03-14T16:44:07Z</time>
      </trkpt>
      <trkpt lat="49.34351" lon="1.26206">
        <ele>125</ele>
        <time>2017-03-14T16:44:07Z</time>
      </trkpt>
      <trkpt lat="49.34355" lon="1.26207">
        <ele>125</ele>
        <time>2017-03-14T16:44:07Z</time>
      </trkpt>
      <trkpt lat="49.34359" lon="1.26208">
        <ele>125</ele>
        <time>2017-03-14T16:44:07Z</time>
      </trkpt>
      <trkpt lat="49.34364" lon="1.26209">
        <ele>109</ele>
        <time>2017-03-14T16:44:23Z</time>
      </trkpt>
      <trkpt lat="49.34368" lon="1.26209">
        <ele>109</ele>
        <time>2017-03-14T16:44:23Z</time>
      </trkpt>
      <trkpt lat="49.34372" lon="1.26208">
        <ele>109</ele>
        <time>2017-03-14T16:44:23Z</time>
      </trkpt>
      <trkpt lat="49.34376" lon="1.26208">
        <ele>131</ele>
        <time>2017-03-14T16:44:23Z</time>
      </trkpt>
      <trkpt lat="49.34379" lon="1.26208">
        <ele>131</ele>
        <time>2017-03-14T16:44:39Z</time>
      </trkpt>
      <trkpt lat="49.34383" lon="1.26207">
        <ele>131</ele>
        <time>2017-03-14T16:44:39Z</time>
      </trkpt>
      <trkpt lat="49.34387" lon="1.26208">
        <ele>131</ele>
        <time>2017-03-14T16:44:39Z</time>
      </trkpt>
      <trkpt lat="49.34391" lon="1.26207">
        <ele>131</ele>
        <time>2017-03-14T16:44:39Z</time>
      </trkpt>
      <trkpt lat="49.34395" lon="1.26207">
        <ele>131</ele>
        <time>2017-03-14T16:44:55Z</time>
      </trkpt>
      <trkpt lat="49.34399" lon="1.26206">
        <ele>131</ele>
        <time>2017-03-14T16:44:55Z</time>
      </trkpt>
      <trkpt lat="49.34404" lon="1.26206">
        <ele>131</ele>
        <time>2017-03-14T16:44:55Z</time>
      </trkpt>
      <trkpt lat="49.34408" lon="1.26205">
        <ele>131</ele>
        <time>2017-03-14T16:44:55Z</time>
      </trkpt>
      <trkpt lat="49.34412" lon="1.26205">
        <ele>131</ele>
        <time>2017-03-14T16:45:11Z</time>
      </trkpt>
      <trkpt lat="49.34416" lon="1.26204">
        <ele>131</ele>
        <time>2017-03-14T16:45:11Z</time>
      </trkpt>
      <trkpt lat="49.3442" lon="1.26204">
        <ele>131</ele>
        <time>2017-03-14T16:45:11Z</time>
      </trkpt>
      <trkpt lat="49.34426" lon="1.262">
        <ele>131</ele>
        <time>2017-03-14T16:45:11Z</time>
      </trkpt>
      <trkpt lat="49.34431" lon="1.26192">
        <ele>131</ele>
        <time>2017-03-14T16:45:27Z</time>
      </trkpt>
      <trkpt lat="49.34436" lon="1.26184">
        <ele>131</ele>
        <time>2017-03-14T16:45:27Z</time>
      </trkpt>
      <trkpt lat="49.3444" lon="1.26181">
        <ele>131</ele>
        <time>2017-03-14T16:45:27Z</time>
      </trkpt>
      <trkpt lat="49.34445" lon="1.26178">
        <ele>131</ele>
        <time>2017-03-14T16:45:27Z</time>
      </trkpt>
      <trkpt lat="49.3445" lon="1.26175">
        <ele>131</ele>
        <time>2017-03-14T16:45:43Z</time>
      </trkpt>
      <trkpt lat="49.34453" lon="1.26173">
        <ele>131</ele>
        <time>2017-03-14T16:45:43Z</time>
      </trkpt>
      <trkpt lat="49.34457" lon="1.26172">
        <ele>131</ele>
        <time>2017-03-14T16:45:43Z</time>
      </trkpt>
      <trkpt lat="49.34461" lon="1.2617">
        <ele>139</ele>
        <time>2017-03-14T16:45:43Z</time>
      </trkpt>
      <trkpt lat="49.34464" lon="1.26167">
        <ele>139</ele>
        <time>2017-03-14T16:45:59Z</time>
      </trkpt>
      <trkpt lat="49.34468" lon="1.26163">
        <ele>139</ele>
        <time>2017-03-14T16:45:59Z</time>
      </trkpt>
      <trkpt lat="49.34472" lon="1.26161">
        <ele>139</ele>
        <time>2017-03-14T16:45:59Z</time>
      </trkpt>
      <trkpt lat="49.34476" lon="1.26159">
        <ele>139</ele>
        <time>2017-03-14T16:45:59Z</time>
      </trkpt>
      <trkpt lat="49.3448" lon="1.26155">
        <ele>139</ele>
        <time>2017-03-14T16:46:15Z</time>
      </trkpt>
      <trkpt lat="49.34484" lon="1.26153">
        <ele>139</ele>
        <time>2017-03-14T16:46:15Z</time>
      </trkpt>
      <trkpt lat="49.34487" lon="1.26151">
        <ele>139</ele>
        <time>2017-03-14T16:46:15Z</time>
      </trkpt>
      <trkpt lat="49.34491" lon="1.2615">
        <ele>139</ele>
        <time>2017-03-14T16:46:15Z</time>
      </trkpt>
      <trkpt lat="49.34496" lon="1.26151">
        <ele>139</ele>
        <time>2017-03-14T16:46:31Z</time>
      </trkpt>
      <trkpt lat="49.34499" lon="1.2615">
        <ele>139</ele>
        <time>2017-03-14T16:46:31Z</time>
      </trkpt>
      <trkpt lat="49.34503" lon="1.26149">
        <ele>139</ele>
        <time>2017-03-14T16:46:31Z</time>
      </trkpt>
      <trkpt lat="49.34507" lon="1.26148">
        <ele>139</ele>
        <time>2017-03-14T16:46:31Z</time>
      </trkpt>
      <trkpt lat="49.34511" lon="1.26147">
        <ele>139</ele>
        <time>2017-03-14T16:46:47Z</time>
      </trkpt>
      <trkpt lat="49.34515" lon="1.26147">
        <ele>139</ele>
        <time>2017-03-14T16:46:47Z</time>
      </trkpt>
      <trkpt lat="49.34518" lon="1.26147">
        <ele>139</ele>
        <time>2017-03-14T16:46:47Z</time>
      </trkpt>
      <trkpt lat="49.34523" lon="1.26147">
        <ele>139</ele>
        <time>2017-03-14T16:46:47Z</time>
      </trkpt>
      <trkpt lat="49.34527" lon="1.26148">
        <ele>139</ele>
        <time>2017-03-14T16:47:03Z</time>
      </trkpt>
      <trkpt lat="49.34531" lon="1.26149">
        <ele>139</ele>
        <time>2017-03-14T16:47:03Z</time>
      </trkpt>
      <trkpt lat="49.34534" lon="1.2615">
        <ele>139</ele>
        <time>2017-03-14T16:47:03Z</time>
      </trkpt>
      <trkpt lat="49.34538" lon="1.26152">
        <ele>139</ele>
        <time>2017-03-14T16:47:03Z</time>
      </trkpt>
      <trkpt lat="49.34542" lon="1.26153">
        <ele>144</ele>
        <time>2017-03-14T16:47:19Z</time>
      </trkpt>
      <trkpt lat="49.34546" lon="1.26156">
        <ele>144</ele>
        <time>2017-03-14T16:47:19Z</time>
      </trkpt>
      <trkpt lat="49.34549" lon="1.26159">
        <ele>144</ele>
        <time>2017-03-14T16:47:19Z</time>
      </trkpt>
      <trkpt lat="49.34553" lon="1.26161">
        <ele>144</ele>
        <time>2017-03-14T16:47:19Z</time>
      </trkpt>
      <trkpt lat="49.34557" lon="1.26163">
        <ele>144</ele>
        <time>2017-03-14T16:47:35Z</time>
      </trkpt>
      <trkpt lat="49.34561" lon="1.26165">
        <ele>144</ele>
        <time>2017-03-14T16:47:35Z</time>
      </trkpt>
      <trkpt lat="49.34565" lon="1.26168">
        <ele>144</ele>
        <time>2017-03-14T16:47:35Z</time>
      </trkpt>
      <trkpt lat="49.34569" lon="1.2617">
        <ele>144</ele>
        <time>2017-03-14T16:47:35Z</time>
      </trkpt>
      <trkpt lat="49.34572" lon="1.26173">
        <ele>144</ele>
        <time>2017-03-14T16:47:51Z</time>
      </trkpt>
      <trkpt lat="49.34576" lon="1.26176">
        <ele>144</ele>
        <time>2017-03-14T16:47:51Z</time>
      </trkpt>
      <trkpt lat="49.34579" lon="1.26179">
        <ele>144</ele>
        <time>2017-03-14T16:47:51Z</time>
      </trkpt>
      <trkpt lat="49.34583" lon="1.26182">
        <ele>144</ele>
        <time>2017-03-14T16:47:51Z</time>
      </trkpt>
      <trkpt lat="49.34586" lon="1.26184">
        <ele>144</ele>
        <time>2017-03-14T16:48:07Z</time>
      </trkpt>
      <trkpt lat="49.3459" lon="1.26186">
        <ele>144</ele>
        <time>2017-03-14T16:48:07Z</time>
      </trkpt>
      <trkpt lat="49.34593" lon="1.26188">
        <ele>144</ele>
        <time>2017-03-14T16:48:07Z</time>
      </trkpt>
      <trkpt lat="49.34598" lon="1.26186">
        <ele>144</ele>
        <time>2017-03-14T16:48:07Z</time>
      </trkpt>
      <trkpt lat="49.34598" lon="1.26174">
        <ele>144</ele>
        <time>2017-03-14T16:49:31Z</time>
      </trkpt>
      <trkpt lat="49.34598" lon="1.26174">
        <ele>144</ele>
        <time>2017-03-14T16:49:31Z</time>
      </trkpt>
      <trkpt lat="49.34598" lon="1.26174">
        <ele>144</ele>
        <time>2017-03-14T16:49:31Z</time>
      </trkpt>
      <trkpt lat="49.34598" lon="1.26174">
        <ele>144</ele>
        <time>2017-03-14T16:49:31Z</time>
      </trkpt>
      <trkpt lat="49.34594" lon="1.26155">
        <ele>144</ele>
        <time>2017-03-14T16:49:31Z</time>
      </trkpt>
      <trkpt lat="49.34594" lon="1.26156">
        <ele>144</ele>
        <time>2017-03-14T16:50:03Z</time>
      </trkpt>
      <trkpt lat="49.34595" lon="1.26158">
        <ele>144</ele>
        <time>2017-03-14T16:50:03Z</time>
      </trkpt>
      <trkpt lat="49.34625" lon="1.26183">
        <ele>144</ele>
        <time>2017-03-14T16:50:03Z</time>
      </trkpt>
      <trkpt lat="49.34634" lon="1.26186">
        <ele>144</ele>
        <time>2017-03-14T16:50:03Z</time>
      </trkpt>
      <trkpt lat="49.34635" lon="1.26191">
        <ele>144</ele>
        <time>2017-03-14T16:50:19Z</time>
      </trkpt>
      <trkpt lat="49.34639" lon="1.26192">
        <ele>144</ele>
        <time>2017-03-14T16:50:19Z</time>
      </trkpt>
      <trkpt lat="49.34642" lon="1.26197">
        <ele>144</ele>
        <time>2017-03-14T16:50:19Z</time>
      </trkpt>
      <trkpt lat="49.34644" lon="1.26201">
        <ele>144</ele>
        <time>2017-03-14T16:50:19Z</time>
      </trkpt>
      <trkpt lat="49.34648" lon="1.26206">
        <ele>144</ele>
        <time>2017-03-14T16:50:35Z</time>
      </trkpt>
      <trkpt lat="49.34651" lon="1.2621">
        <ele>146</ele>
        <time>2017-03-14T16:50:35Z</time>
      </trkpt>
      <trkpt lat="49.34655" lon="1.26214">
        <ele>146</ele>
        <time>2017-03-14T16:50:35Z</time>
      </trkpt>
      <trkpt lat="49.34658" lon="1.26216">
        <ele>146</ele>
        <time>2017-03-14T16:50:35Z</time>
      </trkpt>
      <trkpt lat="49.34662" lon="1.26219">
        <ele>146</ele>
        <time>2017-03-14T16:50:51Z</time>
      </trkpt>
      <trkpt lat="49.34666" lon="1.26222">
        <ele>146</ele>
        <time>2017-03-14T16:50:51Z</time>
      </trkpt>
      <trkpt lat="49.3467" lon="1.26224">
        <ele>146</ele>
        <time>2017-03-14T16:50:51Z</time>
      </trkpt>
      <trkpt lat="49.34674" lon="1.26227">
        <ele>146</ele>
        <time>2017-03-14T16:50:51Z</time>
      </trkpt>
      <trkpt lat="49.34679" lon="1.2623">
        <ele>146</ele>
        <time>2017-03-14T16:51:07Z</time>
      </trkpt>
      <trkpt lat="49.34683" lon="1.26233">
        <ele>146</ele>
        <time>2017-03-14T16:51:07Z</time>
      </trkpt>
      <trkpt lat="49.34688" lon="1.26236">
        <ele>146</ele>
        <time>2017-03-14T16:51:07Z</time>
      </trkpt>
      <trkpt lat="49.34694" lon="1.2624">
        <ele>146</ele>
        <time>2017-03-14T16:51:07Z</time>
      </trkpt>
      <trkpt lat="49.34699" lon="1.26242">
        <ele>146</ele>
        <time>2017-03-14T16:51:23Z</time>
      </trkpt>
      <trkpt lat="49.34702" lon="1.26245">
        <ele>146</ele>
        <time>2017-03-14T16:51:23Z</time>
      </trkpt>
      <trkpt lat="49.34706" lon="1.26249">
        <ele>146</ele>
        <time>2017-03-14T16:51:23Z</time>
      </trkpt>
      <trkpt lat="49.3471" lon="1.26251">
        <ele>143</ele>
        <time>2017-03-14T16:51:23Z</time>
      </trkpt>
      <trkpt lat="49.34714" lon="1.26255">
        <ele>143</ele>
        <time>2017-03-14T16:51:39Z</time>
      </trkpt>
      <trkpt lat="49.34718" lon="1.26257">
        <ele>143</ele>
        <time>2017-03-14T16:51:39Z</time>
      </trkpt>
      <trkpt lat="49.34723" lon="1.26261">
        <ele>143</ele>
        <time>2017-03-14T16:51:39Z</time>
      </trkpt>
      <trkpt lat="49.34727" lon="1.26264">
        <ele>143</ele>
        <time>2017-03-14T16:51:39Z</time>
      </trkpt>
      <trkpt lat="49.34729" lon="1.26267">
        <ele>143</ele>
        <time>2017-03-14T16:51:55Z</time>
      </trkpt>
      <trkpt lat="49.34735" lon="1.2627">
        <ele>143</ele>
        <time>2017-03-14T16:51:55Z</time>
      </trkpt>
      <trkpt lat="49.3474" lon="1.26274">
        <ele>143</ele>
        <time>2017-03-14T16:51:55Z</time>
      </trkpt>
      <trkpt lat="49.34744" lon="1.26277">
        <ele>143</ele>
        <time>2017-03-14T16:51:55Z</time>
      </trkpt>
      <trkpt lat="49.34748" lon="1.26281">
        <ele>143</ele>
        <time>2017-03-14T16:52:11Z</time>
      </trkpt>
      <trkpt lat="49.34755" lon="1.26283">
        <ele>143</ele>
        <time>2017-03-14T16:52:11Z</time>
      </trkpt>
      <trkpt lat="49.3476" lon="1.26288">
        <ele>143</ele>
        <time>2017-03-14T16:52:11Z</time>
      </trkpt>
      <trkpt lat="49.34763" lon="1.26291">
        <ele>143</ele>
        <time>2017-03-14T16:52:11Z</time>
      </trkpt>
      <trkpt lat="49.34767" lon="1.26292">
        <ele>144</ele>
        <time>2017-03-14T16:52:27Z</time>
      </trkpt>
      <trkpt lat="49.34772" lon="1.26294">
        <ele>144</ele>
        <time>2017-03-14T16:52:27Z</time>
      </trkpt>
      <trkpt lat="49.34777" lon="1.26296">
        <ele>144</ele>
        <time>2017-03-14T16:52:27Z</time>
      </trkpt>
      <trkpt lat="49.34783" lon="1.263">
        <ele>144</ele>
        <time>2017-03-14T16:52:27Z</time>
      </trkpt>
      <trkpt lat="49.34787" lon="1.26304">
        <ele>144</ele>
        <time>2017-03-14T16:52:43Z</time>
      </trkpt>
      <trkpt lat="49.34791" lon="1.26306">
        <ele>144</ele>
        <time>2017-03-14T16:52:43Z</time>
      </trkpt>
      <trkpt lat="49.34796" lon="1.26307">
        <ele>143</ele>
        <time>2017-03-14T16:52:43Z</time>
      </trkpt>
      <trkpt lat="49.34801" lon="1.26309">
        <ele>143</ele>
        <time>2017-03-14T16:52:43Z</time>
      </trkpt>
      <trkpt lat="49.34803" lon="1.26311">
        <ele>143</ele>
        <time>2017-03-14T16:52:59Z</time>
      </trkpt>
      <trkpt lat="49.34807" lon="1.26312">
        <ele>143</ele>
        <time>2017-03-14T16:52:59Z</time>
      </trkpt>
      <trkpt lat="49.34812" lon="1.26314">
        <ele>143</ele>
        <time>2017-03-14T16:52:59Z</time>
      </trkpt>
      <trkpt lat="49.34817" lon="1.26316">
        <ele>143</ele>
        <time>2017-03-14T16:52:59Z</time>
      </trkpt>
      <trkpt lat="49.34822" lon="1.26317">
        <ele>143</ele>
        <time>2017-03-14T16:53:15Z</time>
      </trkpt>
      <trkpt lat="49.34826" lon="1.2632">
        <ele>143</ele>
        <time>2017-03-14T16:53:15Z</time>
      </trkpt>
      <trkpt lat="49.34831" lon="1.26322">
        <ele>143</ele>
        <time>2017-03-14T16:53:15Z</time>
      </trkpt>
      <trkpt lat="49.34835" lon="1.26323">
        <ele>143</ele>
        <time>2017-03-14T16:53:15Z</time>
      </trkpt>
      <trkpt lat="49.34839" lon="1.26323">
        <ele>143</ele>
        <time>2017-03-14T16:53:31Z</time>
      </trkpt>
      <trkpt lat="49.34844" lon="1.26325">
        <ele>143</ele>
        <time>2017-03-14T16:53:31Z</time>
      </trkpt>
      <trkpt lat="49.34848" lon="1.26326">
        <ele>143</ele>
        <time>2017-03-14T16:53:32Z</time>
      </trkpt>
      <trkpt lat="49.34855" lon="1.26326">
        <ele>143</ele>
        <time>2017-03-14T16:53:32Z</time>
      </trkpt>
      <trkpt lat="49.34858" lon="1.26327">
        <ele>143</ele>
        <time>2017-03-14T16:53:47Z</time>
      </trkpt>
      <trkpt lat="49.34863" lon="1.26328">
        <ele>143</ele>
        <time>2017-03-14T16:53:47Z</time>
      </trkpt>
      <trkpt lat="49.34867" lon="1.26328">
        <ele>143</ele>
        <time>2017-03-14T16:53:47Z</time>
      </trkpt>
      <trkpt lat="49.34873" lon="1.26328">
        <ele>143</ele>
        <time>2017-03-14T16:53:47Z</time>
      </trkpt>
      <trkpt lat="49.34876" lon="1.26328">
        <ele>141</ele>
        <time>2017-03-14T16:54:03Z</time>
      </trkpt>
      <trkpt lat="49.3488" lon="1.26329">
        <ele>141</ele>
        <time>2017-03-14T16:54:03Z</time>
      </trkpt>
      <trkpt lat="49.34885" lon="1.26329">
        <ele>141</ele>
        <time>2017-03-14T16:54:03Z</time>
      </trkpt>
      <trkpt lat="49.3489" lon="1.26328">
        <ele>141</ele>
        <time>2017-03-14T16:54:03Z</time>
      </trkpt>
      <trkpt lat="49.34896" lon="1.26329">
        <ele>141</ele>
        <time>2017-03-14T16:54:19Z</time>
      </trkpt>
      <trkpt lat="49.34902" lon="1.26332">
        <ele>141</ele>
        <time>2017-03-14T16:54:19Z</time>
      </trkpt>
      <trkpt lat="49.34907" lon="1.26334">
        <ele>141</ele>
        <time>2017-03-14T16:54:19Z</time>
      </trkpt>
      <trkpt lat="49.34912" lon="1.26335">
        <ele>141</ele>
        <time>2017-03-14T16:54:19Z</time>
      </trkpt>
      <trkpt lat="49.34917" lon="1.26336">
        <ele>141</ele>
        <time>2017-03-14T16:54:35Z</time>
      </trkpt>
      <trkpt lat="49.34922" lon="1.26337">
        <ele>141</ele>
        <time>2017-03-14T16:54:35Z</time>
      </trkpt>
      <trkpt lat="49.34927" lon="1.26337">
        <ele>141</ele>
        <time>2017-03-14T16:54:35Z</time>
      </trkpt>
      <trkpt lat="49.34931" lon="1.26339">
        <ele>141</ele>
        <time>2017-03-14T16:54:35Z</time>
      </trkpt>
      <trkpt lat="49.34936" lon="1.26335">
        <ele>141</ele>
        <time>2017-03-14T16:54:51Z</time>
      </trkpt>
      <trkpt lat="49.34942" lon="1.26337">
        <ele>141</ele>
        <time>2017-03-14T16:54:51Z</time>
      </trkpt>
      <trkpt lat="49.34947" lon="1.26336">
        <ele>141</ele>
        <time>2017-03-14T16:54:51Z</time>
      </trkpt>
      <trkpt lat="49.34952" lon="1.26335">
        <ele>141</ele>
        <time>2017-03-14T16:54:51Z</time>
      </trkpt>
      <trkpt lat="49.34957" lon="1.26338">
        <ele>141</ele>
        <time>2017-03-14T16:55:07Z</time>
      </trkpt>
      <trkpt lat="49.34961" lon="1.26339">
        <ele>139</ele>
        <time>2017-03-14T16:55:07Z</time>
      </trkpt>
      <trkpt lat="49.34968" lon="1.26341">
        <ele>139</ele>
        <time>2017-03-14T16:55:07Z</time>
      </trkpt>
      <trkpt lat="49.34973" lon="1.26342">
        <ele>139</ele>
        <time>2017-03-14T16:55:07Z</time>
      </trkpt>
      <trkpt lat="49.34978" lon="1.26341">
        <ele>139</ele>
        <time>2017-03-14T16:55:23Z</time>
      </trkpt>
      <trkpt lat="49.34983" lon="1.26341">
        <ele>139</ele>
        <time>2017-03-14T16:55:23Z</time>
      </trkpt>
      <trkpt lat="49.34987" lon="1.26342">
        <ele>139</ele>
        <time>2017-03-14T16:55:23Z</time>
      </trkpt>
      <trkpt lat="49.3499" lon="1.26343">
        <ele>139</ele>
        <time>2017-03-14T16:55:23Z</time>
      </trkpt>
      <trkpt lat="49.34993" lon="1.26346">
        <ele>139</ele>
        <time>2017-03-14T16:55:39Z</time>
      </trkpt>
      <trkpt lat="49.34997" lon="1.26348">
        <ele>139</ele>
        <time>2017-03-14T16:55:39Z</time>
      </trkpt>
      <trkpt lat="49.35003" lon="1.26349">
        <ele>139</ele>
        <time>2017-03-14T16:55:39Z</time>
      </trkpt>
      <trkpt lat="49.35007" lon="1.2635">
        <ele>139</ele>
        <time>2017-03-14T16:55:39Z</time>
      </trkpt>
      <trkpt lat="49.35012" lon="1.26351">
        <ele>139</ele>
        <time>2017-03-14T16:55:55Z</time>
      </trkpt>
      <trkpt lat="49.35018" lon="1.26351">
        <ele>139</ele>
        <time>2017-03-14T16:55:55Z</time>
      </trkpt>
      <trkpt lat="49.35022" lon="1.26352">
        <ele>139</ele>
        <time>2017-03-14T16:55:55Z</time>
      </trkpt>
      <trkpt lat="49.35027" lon="1.26352">
        <ele>139</ele>
        <time>2017-03-14T16:55:55Z</time>
      </trkpt>
      <trkpt lat="49.35033" lon="1.26353">
        <ele>139</ele>
        <time>2017-03-14T16:56:11Z</time>
      </trkpt>
      <trkpt lat="49.35037" lon="1.26352">
        <ele>139</ele>
        <time>2017-03-14T16:56:11Z</time>
      </trkpt>
      <trkpt lat="49.35042" lon="1.26352">
        <ele>139</ele>
        <time>2017-03-14T16:56:11Z</time>
      </trkpt>
      <trkpt lat="49.35046" lon="1.26351">
        <ele>136</ele>
        <time>2017-03-14T16:56:11Z</time>
      </trkpt>
      <trkpt lat="49.35052" lon="1.2635">
        <ele>136</ele>
        <time>2017-03-14T16:56:27Z</time>
      </trkpt>
      <trkpt lat="49.35056" lon="1.26352">
        <ele>136</ele>
        <time>2017-03-14T16:56:27Z</time>
      </trkpt>
      <trkpt lat="49.35061" lon="1.26353">
        <ele>136</ele>
        <time>2017-03-14T16:56:27Z</time>
      </trkpt>
      <trkpt lat="49.35067" lon="1.26353">
        <ele>136</ele>
        <time>2017-03-14T16:56:27Z</time>
      </trkpt>
      <trkpt lat="49.35073" lon="1.26355">
        <ele>136</ele>
        <time>2017-03-14T16:56:43Z</time>
      </trkpt>
      <trkpt lat="49.35077" lon="1.26356">
        <ele>136</ele>
        <time>2017-03-14T16:56:43Z</time>
      </trkpt>
      <trkpt lat="49.35082" lon="1.26357">
        <ele>136</ele>
        <time>2017-03-14T16:56:43Z</time>
      </trkpt>
      <trkpt lat="49.35087" lon="1.26357">
        <ele>136</ele>
        <time>2017-03-14T16:56:43Z</time>
      </trkpt>
      <trkpt lat="49.35095" lon="1.26359">
        <ele>136</ele>
        <time>2017-03-14T16:56:59Z</time>
      </trkpt>
      <trkpt lat="49.35098" lon="1.26359">
        <ele>136</ele>
        <time>2017-03-14T16:56:59Z</time>
      </trkpt>
      <trkpt lat="49.35103" lon="1.26359">
        <ele>136</ele>
        <time>2017-03-14T16:56:59Z</time>
      </trkpt>
      <trkpt lat="49.35107" lon="1.26361">
        <ele>136</ele>
        <time>2017-03-14T16:56:59Z</time>
      </trkpt>
      <trkpt lat="49.3511" lon="1.26364">
        <ele>136</ele>
        <time>2017-03-14T16:57:15Z</time>
      </trkpt>
      <trkpt lat="49.35115" lon="1.26365">
        <ele>136</ele>
        <time>2017-03-14T16:57:15Z</time>
      </trkpt>
      <trkpt lat="49.3512" lon="1.26366">
        <ele>136</ele>
        <time>2017-03-14T16:57:15Z</time>
      </trkpt>
      <trkpt lat="49.35125" lon="1.26366">
        <ele>136</ele>
        <time>2017-03-14T16:57:15Z</time>
      </trkpt>
      <trkpt lat="49.35129" lon="1.26367">
        <ele>136</ele>
        <time>2017-03-14T16:57:31Z</time>
      </trkpt>
      <trkpt lat="49.35135" lon="1.26369">
        <ele>136</ele>
        <time>2017-03-14T16:57:31Z</time>
      </trkpt>
      <trkpt lat="49.3514" lon="1.26371">
        <ele>136</ele>
        <time>2017-03-14T16:57:31Z</time>
      </trkpt>
      <trkpt lat="49.35144" lon="1.2637">
        <ele>136</ele>
        <time>2017-03-14T16:57:31Z</time>
      </trkpt>
      <trkpt lat="49.3515" lon="1.2637">
        <ele>136</ele>
        <time>2017-03-14T16:57:47Z</time>
      </trkpt>
      <trkpt lat="49.35156" lon="1.26371">
        <ele>136</ele>
        <time>2017-03-14T16:57:47Z</time>
      </trkpt>
      <trkpt lat="49.35161" lon="1.26371">
        <ele>136</ele>
        <time>2017-03-14T16:57:47Z</time>
      </trkpt>
      <trkpt lat="49.35166" lon="1.26371">
        <ele>136</ele>
        <time>2017-03-14T16:57:47Z</time>
      </trkpt>
      <trkpt lat="49.3517" lon="1.26372">
        <ele>136</ele>
        <time>2017-03-14T16:58:03Z</time>
      </trkpt>
      <trkpt lat="49.35174" lon="1.26373">
        <ele>136</ele>
        <time>2017-03-14T16:58:03Z</time>
      </trkpt>
      <trkpt lat="49.35178" lon="1.26373">
        <ele>136</ele>
        <time>2017-03-14T16:58:03Z</time>
      </trkpt>
      <trkpt lat="49.35184" lon="1.26373">
        <ele>136</ele>
        <time>2017-03-14T16:58:03Z</time>
      </trkpt>
      <trkpt lat="49.35188" lon="1.26374">
        <ele>136</ele>
        <time>2017-03-14T16:58:19Z</time>
      </trkpt>
      <trkpt lat="49.35195" lon="1.26375">
        <ele>136</ele>
        <time>2017-03-14T16:58:19Z</time>
      </trkpt>
      <trkpt lat="49.35199" lon="1.26376">
        <ele>136</ele>
        <time>2017-03-14T16:58:19Z</time>
      </trkpt>
      <trkpt lat="49.35205" lon="1.26377">
        <ele>136</ele>
        <time>2017-03-14T16:58:19Z</time>
      </trkpt>
      <trkpt lat="49.3521" lon="1.26378">
        <ele>138</ele>
        <time>2017-03-14T16:58:35Z</time>
      </trkpt>
      <trkpt lat="49.35215" lon="1.26377">
        <ele>138</ele>
        <time>2017-03-14T16:58:35Z</time>
      </trkpt>
      <trkpt lat="49.35221" lon="1.26379">
        <ele>138</ele>
        <time>2017-03-14T16:58:35Z</time>
      </trkpt>
      <trkpt lat="49.35225" lon="1.2638">
        <ele>138</ele>
        <time>2017-03-14T16:58:35Z</time>
      </trkpt>
      <trkpt lat="49.35229" lon="1.26381">
        <ele>138</ele>
        <time>2017-03-14T16:58:51Z</time>
      </trkpt>
      <trkpt lat="49.35233" lon="1.26382">
        <ele>138</ele>
        <time>2017-03-14T16:58:51Z</time>
      </trkpt>
      <trkpt lat="49.3524" lon="1.26383">
        <ele>138</ele>
        <time>2017-03-14T16:58:51Z</time>
      </trkpt>
      <trkpt lat="49.35244" lon="1.26384">
        <ele>138</ele>
        <time>2017-03-14T16:58:51Z</time>
      </trkpt>
      <trkpt lat="49.35249" lon="1.26383">
        <ele>138</ele>
        <time>2017-03-14T16:59:07Z</time>
      </trkpt>
      <trkpt lat="49.35252" lon="1.26382">
        <ele>138</ele>
        <time>2017-03-14T16:59:07Z</time>
      </trkpt>
      <trkpt lat="49.35258" lon="1.26379">
        <ele>138</ele>
        <time>2017-03-14T16:59:07Z</time>
      </trkpt>
      <trkpt lat="49.35262" lon="1.26376">
        <ele>138</ele>
        <time>2017-03-14T16:59:07Z</time>
      </trkpt>
      <trkpt lat="49.35269" lon="1.26374">
        <ele>139</ele>
        <time>2017-03-14T16:59:23Z</time>
      </trkpt>
      <trkpt lat="49.35273" lon="1.26371">
        <ele>139</ele>
        <time>2017-03-14T16:59:23Z</time>
      </trkpt>
      <trkpt lat="49.35277" lon="1.26367">
        <ele>139</ele>
        <time>2017-03-14T16:59:23Z</time>
      </trkpt>
      <trkpt lat="49.35282" lon="1.26362">
        <ele>139</ele>
        <time>2017-03-14T16:59:23Z</time>
      </trkpt>
      <trkpt lat="49.35287" lon="1.26357">
        <ele>139</ele>
        <time>2017-03-14T16:59:40Z</time>
      </trkpt>
      <trkpt lat="49.35292" lon="1.26349">
        <ele>142</ele>
        <time>2017-03-14T16:59:40Z</time>
      </trkpt>
      <trkpt lat="49.35294" lon="1.26346">
        <ele>142</ele>
        <time>2017-03-14T16:59:40Z</time>
      </trkpt>
      <trkpt lat="49.35297" lon="1.26338">
        <ele>142</ele>
        <time>2017-03-14T16:59:40Z</time>
      </trkpt>
      <trkpt lat="49.35298" lon="1.26333">
        <ele>142</ele>
        <time>2017-03-14T16:59:55Z</time>
      </trkpt>
      <trkpt lat="49.35303" lon="1.2633">
        <ele>142</ele>
        <time>2017-03-14T16:59:55Z</time>
      </trkpt>
      <trkpt lat="49.35308" lon="1.26325">
        <ele>142</ele>
        <time>2017-03-14T16:59:55Z</time>
      </trkpt>
      <trkpt lat="49.35313" lon="1.26319">
        <ele>142</ele>
        <time>2017-03-14T16:59:55Z</time>
      </trkpt>
      <trkpt lat="49.35315" lon="1.26313">
        <ele>142</ele>
        <time>2017-03-14T17:00:11Z</time>
      </trkpt>
      <trkpt lat="49.35316" lon="1.26305">
        <ele>142</ele>
        <time>2017-03-14T17:00:11Z</time>
      </trkpt>
      <trkpt lat="49.35317" lon="1.26299">
        <ele>142</ele>
        <time>2017-03-14T17:00:11Z</time>
      </trkpt>
      <trkpt lat="49.35319" lon="1.26292">
        <ele>142</ele>
        <time>2017-03-14T17:00:11Z</time>
      </trkpt>
      <trkpt lat="49.35324" lon="1.26287">
        <ele>142</ele>
        <time>2017-03-14T17:00:27Z</time>
      </trkpt>
      <trkpt lat="49.35328" lon="1.2628">
        <ele>142</ele>
        <time>2017-03-14T17:00:27Z</time>
      </trkpt>
      <trkpt lat="49.3533" lon="1.26271">
        <ele>142</ele>
        <time>2017-03-14T17:00:27Z</time>
      </trkpt>
      <trkpt lat="49.35333" lon="1.26265">
        <ele>142</ele>
        <time>2017-03-14T17:00:27Z</time>
      </trkpt>
      <trkpt lat="49.35339" lon="1.26248">
        <ele>142</ele>
        <time>2017-03-14T17:00:59Z</time>
      </trkpt>
      <trkpt lat="49.35341" lon="1.26242">
        <ele>142</ele>
        <time>2017-03-14T17:00:59Z</time>
      </trkpt>
      <trkpt lat="49.35342" lon="1.26237">
        <ele>142</ele>
        <time>2017-03-14T17:00:59Z</time>
      </trkpt>
      <trkpt lat="49.35345" lon="1.2623">
        <ele>142</ele>
        <time>2017-03-14T17:00:59Z</time>
      </trkpt>
      <trkpt lat="49.35346" lon="1.26223">
        <ele>142</ele>
        <time>2017-03-14T17:00:59Z</time>
      </trkpt>
      <trkpt lat="49.35349" lon="1.26216">
        <ele>142</ele>
        <time>2017-03-14T17:01:15Z</time>
      </trkpt>
      <trkpt lat="49.35352" lon="1.26211">
        <ele>142</ele>
        <time>2017-03-14T17:01:15Z</time>
      </trkpt>
      <trkpt lat="49.35355" lon="1.26205">
        <ele>145</ele>
        <time>2017-03-14T17:01:15Z</time>
      </trkpt>
      <trkpt lat="49.35357" lon="1.26197">
        <ele>145</ele>
        <time>2017-03-14T17:01:15Z</time>
      </trkpt>
      <trkpt lat="49.35361" lon="1.26188">
        <ele>145</ele>
        <time>2017-03-14T17:01:31Z</time>
      </trkpt>
      <trkpt lat="49.35363" lon="1.26184">
        <ele>145</ele>
        <time>2017-03-14T17:01:31Z</time>
      </trkpt>
      <trkpt lat="49.35366" lon="1.26177">
        <ele>145</ele>
        <time>2017-03-14T17:01:31Z</time>
      </trkpt>
      <trkpt lat="49.3537" lon="1.26171">
        <ele>145</ele>
        <time>2017-03-14T17:01:31Z</time>
      </trkpt>
      <trkpt lat="49.35373" lon="1.26165">
        <ele>145</ele>
        <time>2017-03-14T17:01:47Z</time>
      </trkpt>
      <trkpt lat="49.35377" lon="1.26158">
        <ele>145</ele>
        <time>2017-03-14T17:01:47Z</time>
      </trkpt>
      <trkpt lat="49.35381" lon="1.26152">
        <ele>145</ele>
        <time>2017-03-14T17:01:47Z</time>
      </trkpt>
      <trkpt lat="49.35383" lon="1.26147">
        <ele>145</ele>
        <time>2017-03-14T17:01:47Z</time>
      </trkpt>
      <trkpt lat="49.35385" lon="1.26141">
        <ele>145</ele>
        <time>2017-03-14T17:02:03Z</time>
      </trkpt>
      <trkpt lat="49.35389" lon="1.26135">
        <ele>145</ele>
        <time>2017-03-14T17:02:03Z</time>
      </trkpt>
      <trkpt lat="49.35391" lon="1.2613">
        <ele>145</ele>
        <time>2017-03-14T17:02:03Z</time>
      </trkpt>
      <trkpt lat="49.35393" lon="1.26125">
        <ele>147</ele>
        <time>2017-03-14T17:02:03Z</time>
      </trkpt>
      <trkpt lat="49.35396" lon="1.26118">
        <ele>147</ele>
        <time>2017-03-14T17:02:19Z</time>
      </trkpt>
      <trkpt lat="49.354" lon="1.26112">
        <ele>147</ele>
        <time>2017-03-14T17:02:19Z</time>
      </trkpt>
      <trkpt lat="49.35402" lon="1.26104">
        <ele>147</ele>
        <time>2017-03-14T17:02:19Z</time>
      </trkpt>
      <trkpt lat="49.35405" lon="1.26097">
        <ele>147</ele>
        <time>2017-03-14T17:02:19Z</time>
      </trkpt>
      <trkpt lat="49.35407" lon="1.26092">
        <ele>147</ele>
        <time>2017-03-14T17:02:35Z</time>
      </trkpt>
      <trkpt lat="49.35409" lon="1.26087">
        <ele>147</ele>
        <time>2017-03-14T17:02:35Z</time>
      </trkpt>
      <trkpt lat="49.35412" lon="1.26083">
        <ele>147</ele>
        <time>2017-03-14T17:02:35Z</time>
      </trkpt>
      <trkpt lat="49.35416" lon="1.26078">
        <ele>147</ele>
        <time>2017-03-14T17:02:35Z</time>
      </trkpt>
      <trkpt lat="49.35421" lon="1.26072">
        <ele>147</ele>
        <time>2017-03-14T17:02:51Z</time>
      </trkpt>
      <trkpt lat="49.35425" lon="1.26067">
        <ele>147</ele>
        <time>2017-03-14T17:02:51Z</time>
      </trkpt>
      <trkpt lat="49.35429" lon="1.26063">
        <ele>147</ele>
        <time>2017-03-14T17:02:51Z</time>
      </trkpt>
      <trkpt lat="49.35431" lon="1.2606">
        <ele>147</ele>
        <time>2017-03-14T17:02:51Z</time>
      </trkpt>
      <trkpt lat="49.35435" lon="1.26054">
        <ele>147</ele>
        <time>2017-03-14T17:03:07Z</time>
      </trkpt>
      <trkpt lat="49.35439" lon="1.26049">
        <ele>147</ele>
        <time>2017-03-14T17:03:07Z</time>
      </trkpt>
      <trkpt lat="49.35443" lon="1.26044">
        <ele>147</ele>
        <time>2017-03-14T17:03:07Z</time>
      </trkpt>
      <trkpt lat="49.35447" lon="1.26039">
        <ele>149</ele>
        <time>2017-03-14T17:03:07Z</time>
      </trkpt>
      <trkpt lat="49.3545" lon="1.26036">
        <ele>149</ele>
        <time>2017-03-14T17:03:23Z</time>
      </trkpt>
      <trkpt lat="49.35453" lon="1.26032">
        <ele>149</ele>
        <time>2017-03-14T17:03:23Z</time>
      </trkpt>
      <trkpt lat="49.35456" lon="1.26026">
        <ele>149</ele>
        <time>2017-03-14T17:03:23Z</time>
      </trkpt>
      <trkpt lat="49.3546" lon="1.26021">
        <ele>148</ele>
        <time>2017-03-14T17:03:23Z</time>
      </trkpt>
      <trkpt lat="49.35465" lon="1.26017">
        <ele>148</ele>
        <time>2017-03-14T17:03:39Z</time>
      </trkpt>
      <trkpt lat="49.35469" lon="1.26013">
        <ele>148</ele>
        <time>2017-03-14T17:03:39Z</time>
      </trkpt>
      <trkpt lat="49.35473" lon="1.26009">
        <ele>148</ele>
        <time>2017-03-14T17:03:39Z</time>
      </trkpt>
      <trkpt lat="49.35477" lon="1.26005">
        <ele>148</ele>
        <time>2017-03-14T17:03:39Z</time>
      </trkpt>
      <trkpt lat="49.3548" lon="1.26001">
        <ele>148</ele>
        <time>2017-03-14T17:03:55Z</time>
      </trkpt>
      <trkpt lat="49.35484" lon="1.25998">
        <ele>148</ele>
        <time>2017-03-14T17:03:55Z</time>
      </trkpt>
      <trkpt lat="49.35488" lon="1.25994">
        <ele>148</ele>
        <time>2017-03-14T17:03:55Z</time>
      </trkpt>
      <trkpt lat="49.35491" lon="1.25988">
        <ele>148</ele>
        <time>2017-03-14T17:03:55Z</time>
      </trkpt>
      <trkpt lat="49.35494" lon="1.25984">
        <ele>148</ele>
        <time>2017-03-14T17:04:11Z</time>
      </trkpt>
      <trkpt lat="49.35498" lon="1.25979">
        <ele>148</ele>
        <time>2017-03-14T17:04:11Z</time>
      </trkpt>
      <trkpt lat="49.35502" lon="1.25973">
        <ele>148</ele>
        <time>2017-03-14T17:04:11Z</time>
      </trkpt>
      <trkpt lat="49.35506" lon="1.25966">
        <ele>148</ele>
        <time>2017-03-14T17:04:11Z</time>
      </trkpt>
      <trkpt lat="49.35504" lon="1.25956">
        <ele>149</ele>
        <time>2017-03-14T17:05:35Z</time>
      </trkpt>
      <trkpt lat="49.35503" lon="1.25955">
        <ele>149</ele>
        <time>2017-03-14T17:05:35Z</time>
      </trkpt>
      <trkpt lat="49.35501" lon="1.25952">
        <ele>149</ele>
        <time>2017-03-14T17:05:35Z</time>
      </trkpt>
      <trkpt lat="49.35496" lon="1.25943">
        <ele>149</ele>
        <time>2017-03-14T17:05:35Z</time>
      </trkpt>
      <trkpt lat="49.35491" lon="1.2594">
        <ele>149</ele>
        <time>2017-03-14T17:05:35Z</time>
      </trkpt>
      <trkpt lat="49.35487" lon="1.25939">
        <ele>149</ele>
        <time>2017-03-14T17:05:52Z</time>
      </trkpt>
      <trkpt lat="49.35482" lon="1.25935">
        <ele>149</ele>
        <time>2017-03-14T17:05:52Z</time>
      </trkpt>
      <trkpt lat="49.3548" lon="1.25931">
        <ele>149</ele>
        <time>2017-03-14T17:05:52Z</time>
      </trkpt>
      <trkpt lat="49.35476" lon="1.25926">
        <ele>149</ele>
        <time>2017-03-14T17:05:52Z</time>
      </trkpt>
      <trkpt lat="49.35474" lon="1.25921">
        <ele>149</ele>
        <time>2017-03-14T17:06:07Z</time>
      </trkpt>
      <trkpt lat="49.35471" lon="1.25919">
        <ele>149</ele>
        <time>2017-03-14T17:06:07Z</time>
      </trkpt>
      <trkpt lat="49.3547" lon="1.25912">
        <ele>149</ele>
        <time>2017-03-14T17:06:07Z</time>
      </trkpt>
      <trkpt lat="49.35469" lon="1.25904">
        <ele>149</ele>
        <time>2017-03-14T17:06:07Z</time>
      </trkpt>
      <trkpt lat="49.35468" lon="1.25896">
        <ele>149</ele>
        <time>2017-03-14T17:06:23Z</time>
      </trkpt>
      <trkpt lat="49.35468" lon="1.2589">
        <ele>149</ele>
        <time>2017-03-14T17:06:23Z</time>
      </trkpt>
      <trkpt lat="49.35467" lon="1.25884">
        <ele>149</ele>
        <time>2017-03-14T17:06:23Z</time>
      </trkpt>
      <trkpt lat="49.35468" lon="1.2587">
        <ele>148</ele>
        <time>2017-03-14T17:06:23Z</time>
      </trkpt>
      <trkpt lat="49.35469" lon="1.25866">
        <ele>148</ele>
        <time>2017-03-14T17:06:39Z</time>
      </trkpt>
      <trkpt lat="49.35469" lon="1.2586">
        <ele>148</ele>
        <time>2017-03-14T17:06:39Z</time>
      </trkpt>
      <trkpt lat="49.35469" lon="1.25852">
        <ele>148</ele>
        <time>2017-03-14T17:06:39Z</time>
      </trkpt>
      <trkpt lat="49.35471" lon="1.25847">
        <ele>148</ele>
        <time>2017-03-14T17:06:39Z</time>
      </trkpt>
      <trkpt lat="49.35473" lon="1.2584">
        <ele>148</ele>
        <time>2017-03-14T17:06:55Z</time>
      </trkpt>
      <trkpt lat="49.35477" lon="1.25834">
        <ele>148</ele>
        <time>2017-03-14T17:06:55Z</time>
      </trkpt>
      <trkpt lat="49.35481" lon="1.25829">
        <ele>148</ele>
        <time>2017-03-14T17:06:55Z</time>
      </trkpt>
      <trkpt lat="49.35485" lon="1.25824">
        <ele>148</ele>
        <time>2017-03-14T17:06:55Z</time>
      </trkpt>
      <trkpt lat="49.35488" lon="1.25818">
        <ele>148</ele>
        <time>2017-03-14T17:07:11Z</time>
      </trkpt>
      <trkpt lat="49.35491" lon="1.25813">
        <ele>148</ele>
        <time>2017-03-14T17:07:11Z</time>
      </trkpt>
      <trkpt lat="49.35495" lon="1.25808">
        <ele>148</ele>
        <time>2017-03-14T17:07:11Z</time>
      </trkpt>
      <trkpt lat="49.35498" lon="1.25804">
        <ele>148</ele>
        <time>2017-03-14T17:07:11Z</time>
      </trkpt>
      <trkpt lat="49.35502" lon="1.25801">
        <ele>148</ele>
        <time>2017-03-14T17:07:27Z</time>
      </trkpt>
      <trkpt lat="49.35505" lon="1.25796">
        <ele>148</ele>
        <time>2017-03-14T17:07:27Z</time>
      </trkpt>
      <trkpt lat="49.35509" lon="1.25791">
        <ele>148</ele>
        <time>2017-03-14T17:07:27Z</time>
      </trkpt>
      <trkpt lat="49.35515" lon="1.25789">
        <ele>148</ele>
        <time>2017-03-14T17:07:27Z</time>
      </trkpt>
      <trkpt lat="49.35519" lon="1.25785">
        <ele>148</ele>
        <time>2017-03-14T17:07:43Z</time>
      </trkpt>
      <trkpt lat="49.35524" lon="1.25781">
        <ele>148</ele>
        <time>2017-03-14T17:07:43Z</time>
      </trkpt>
      <trkpt lat="49.35528" lon="1.25776">
        <ele>148</ele>
        <time>2017-03-14T17:07:43Z</time>
      </trkpt>
      <trkpt lat="49.35531" lon="1.25771">
        <ele>148</ele>
        <time>2017-03-14T17:07:43Z</time>
      </trkpt>
      <trkpt lat="49.35534" lon="1.25766">
        <ele>148</ele>
        <time>2017-03-14T17:07:59Z</time>
      </trkpt>
      <trkpt lat="49.35538" lon="1.25762">
        <ele>148</ele>
        <time>2017-03-14T17:07:59Z</time>
      </trkpt>
      <trkpt lat="49.35541" lon="1.25757">
        <ele>148</ele>
        <time>2017-03-14T17:07:59Z</time>
      </trkpt>
      <trkpt lat="49.35544" lon="1.25754">
        <ele>150</ele>
        <time>2017-03-14T17:07:59Z</time>
      </trkpt>
      <trkpt lat="49.35548" lon="1.25752">
        <ele>150</ele>
        <time>2017-03-14T17:08:15Z</time>
      </trkpt>
      <trkpt lat="49.35554" lon="1.25746">
        <ele>150</ele>
        <time>2017-03-14T17:08:15Z</time>
      </trkpt>
      <trkpt lat="49.35559" lon="1.25741">
        <ele>150</ele>
        <time>2017-03-14T17:08:15Z</time>
      </trkpt>
      <trkpt lat="49.35561" lon="1.25737">
        <ele>150</ele>
        <time>2017-03-14T17:08:15Z</time>
      </trkpt>
      <trkpt lat="49.35565" lon="1.25733">
        <ele>150</ele>
        <time>2017-03-14T17:08:32Z</time>
      </trkpt>
      <trkpt lat="49.35569" lon="1.25729">
        <ele>150</ele>
        <time>2017-03-14T17:08:32Z</time>
      </trkpt>
      <trkpt lat="49.35571" lon="1.25725">
        <ele>150</ele>
        <time>2017-03-14T17:08:32Z</time>
      </trkpt>
      <trkpt lat="49.35576" lon="1.2572">
        <ele>150</ele>
        <time>2017-03-14T17:08:32Z</time>
      </trkpt>
      <trkpt lat="49.35579" lon="1.25716">
        <ele>150</ele>
        <time>2017-03-14T17:08:47Z</time>
      </trkpt>
      <trkpt lat="49.35582" lon="1.25713">
        <ele>150</ele>
        <time>2017-03-14T17:08:47Z</time>
      </trkpt>
      <trkpt lat="49.35584" lon="1.25711">
        <ele>150</ele>
        <time>2017-03-14T17:08:47Z</time>
      </trkpt>
      <trkpt lat="49.35588" lon="1.25708">
        <ele>149</ele>
        <time>2017-03-14T17:08:47Z</time>
      </trkpt>
      <trkpt lat="49.35591" lon="1.25703">
        <ele>149</ele>
        <time>2017-03-14T17:09:03Z</time>
      </trkpt>
      <trkpt lat="49.35593" lon="1.25697">
        <ele>149</ele>
        <time>2017-03-14T17:09:03Z</time>
      </trkpt>
      <trkpt lat="49.35598" lon="1.2569">
        <ele>149</ele>
        <time>2017-03-14T17:09:03Z</time>
      </trkpt>
      <trkpt lat="49.35603" lon="1.25684">
        <ele>149</ele>
        <time>2017-03-14T17:09:03Z</time>
      </trkpt>
      <trkpt lat="49.35609" lon="1.25679">
        <ele>149</ele>
        <time>2017-03-14T17:09:19Z</time>
      </trkpt>
      <trkpt lat="49.35613" lon="1.25675">
        <ele>149</ele>
        <time>2017-03-14T17:09:19Z</time>
      </trkpt>
      <trkpt lat="49.35616" lon="1.25673">
        <ele>149</ele>
        <time>2017-03-14T17:09:19Z</time>
      </trkpt>
      <trkpt lat="49.3562" lon="1.25669">
        <ele>149</ele>
        <time>2017-03-14T17:09:19Z</time>
      </trkpt>
      <trkpt lat="49.35623" lon="1.25663">
        <ele>149</ele>
        <time>2017-03-14T17:09:35Z</time>
      </trkpt>
      <trkpt lat="49.35628" lon="1.25659">
        <ele>150</ele>
        <time>2017-03-14T17:09:35Z</time>
      </trkpt>
      <trkpt lat="49.35632" lon="1.25655">
        <ele>150</ele>
        <time>2017-03-14T17:09:35Z</time>
      </trkpt>
      <trkpt lat="49.35635" lon="1.2565">
        <ele>150</ele>
        <time>2017-03-14T17:09:35Z</time>
      </trkpt>
      <trkpt lat="49.3564" lon="1.25644">
        <ele>150</ele>
        <time>2017-03-14T17:09:51Z</time>
      </trkpt>
      <trkpt lat="49.35643" lon="1.25644">
        <ele>150</ele>
        <time>2017-03-14T17:09:51Z</time>
      </trkpt>
      <trkpt lat="49.35648" lon="1.25642">
        <ele>150</ele>
        <time>2017-03-14T17:09:51Z</time>
      </trkpt>
      <trkpt lat="49.35653" lon="1.25639">
        <ele>150</ele>
        <time>2017-03-14T17:09:51Z</time>
      </trkpt>
      <trkpt lat="49.35658" lon="1.25635">
        <ele>150</ele>
        <time>2017-03-14T17:10:07Z</time>
      </trkpt>
      <trkpt lat="49.35663" lon="1.25633">
        <ele>150</ele>
        <time>2017-03-14T17:10:07Z</time>
      </trkpt>
      <trkpt lat="49.35667" lon="1.2563">
        <ele>150</ele>
        <time>2017-03-14T17:10:07Z</time>
      </trkpt>
      <trkpt lat="49.3567" lon="1.25626">
        <ele>150</ele>
        <time>2017-03-14T17:10:07Z</time>
      </trkpt>
      <trkpt lat="49.35676" lon="1.25619">
        <ele>150</ele>
        <time>2017-03-14T17:10:23Z</time>
      </trkpt>
      <trkpt lat="49.35678" lon="1.25617">
        <ele>150</ele>
        <time>2017-03-14T17:10:23Z</time>
      </trkpt>
      <trkpt lat="49.3568" lon="1.25609">
        <ele>150</ele>
        <time>2017-03-14T17:10:23Z</time>
      </trkpt>
      <trkpt lat="49.35682" lon="1.25606">
        <ele>150</ele>
        <time>2017-03-14T17:10:23Z</time>
      </trkpt>
      <trkpt lat="49.35688" lon="1.25602">
        <ele>150</ele>
        <time>2017-03-14T17:10:39Z</time>
      </trkpt>
      <trkpt lat="49.35691" lon="1.25598">
        <ele>150</ele>
        <time>2017-03-14T17:10:39Z</time>
      </trkpt>
      <trkpt lat="49.35695" lon="1.25595">
        <ele>150</ele>
        <time>2017-03-14T17:10:39Z</time>
      </trkpt>
      <trkpt lat="49.35699" lon="1.25592">
        <ele>150</ele>
        <time>2017-03-14T17:10:39Z</time>
      </trkpt>
      <trkpt lat="49.35703" lon="1.25587">
        <ele>150</ele>
        <time>2017-03-14T17:10:55Z</time>
      </trkpt>
      <trkpt lat="49.35707" lon="1.25581">
        <ele>150</ele>
        <time>2017-03-14T17:10:55Z</time>
      </trkpt>
      <trkpt lat="49.35712" lon="1.25576">
        <ele>152</ele>
        <time>2017-03-14T17:10:55Z</time>
      </trkpt>
      <trkpt lat="49.35716" lon="1.25572">
        <ele>152</ele>
        <time>2017-03-14T17:10:55Z</time>
      </trkpt>
      <trkpt lat="49.3572" lon="1.25568">
        <ele>152</ele>
        <time>2017-03-14T17:11:11Z</time>
      </trkpt>
      <trkpt lat="49.35724" lon="1.25564">
        <ele>152</ele>
        <time>2017-03-14T17:11:11Z</time>
      </trkpt>
      <trkpt lat="49.35728" lon="1.25559">
        <ele>152</ele>
        <time>2017-03-14T17:11:11Z</time>
      </trkpt>
      <trkpt lat="49.35731" lon="1.25553">
        <ele>152</ele>
        <time>2017-03-14T17:11:11Z</time>
      </trkpt>
      <trkpt lat="49.35733" lon="1.25547">
        <ele>152</ele>
        <time>2017-03-14T17:11:27Z</time>
      </trkpt>
      <trkpt lat="49.35736" lon="1.25541">
        <ele>152</ele>
        <time>2017-03-14T17:11:27Z</time>
      </trkpt>
      <trkpt lat="49.3574" lon="1.25537">
        <ele>152</ele>
        <time>2017-03-14T17:11:27Z</time>
      </trkpt>
      <trkpt lat="49.35744" lon="1.2553">
        <ele>152</ele>
        <time>2017-03-14T17:11:27Z</time>
      </trkpt>
      <trkpt lat="49.35747" lon="1.25527">
        <ele>152</ele>
        <time>2017-03-14T17:11:43Z</time>
      </trkpt>
      <trkpt lat="49.35752" lon="1.25521">
        <ele>152</ele>
        <time>2017-03-14T17:11:43Z</time>
      </trkpt>
      <trkpt lat="49.35756" lon="1.25516">
        <ele>152</ele>
        <time>2017-03-14T17:11:43Z</time>
      </trkpt>
      <trkpt lat="49.35759" lon="1.25511">
        <ele>152</ele>
        <time>2017-03-14T17:11:43Z</time>
      </trkpt>
      <trkpt lat="49.35762" lon="1.25505">
        <ele>152</ele>
        <time>2017-03-14T17:11:59Z</time>
      </trkpt>
      <trkpt lat="49.35765" lon="1.25498">
        <ele>152</ele>
        <time>2017-03-14T17:11:59Z</time>
      </trkpt>
      <trkpt lat="49.35769" lon="1.25493">
        <ele>152</ele>
        <time>2017-03-14T17:11:59Z</time>
      </trkpt>
      <trkpt lat="49.35772" lon="1.25488">
        <ele>152</ele>
        <time>2017-03-14T17:11:59Z</time>
      </trkpt>
      <trkpt lat="49.35774" lon="1.25483">
        <ele>152</ele>
        <time>2017-03-14T17:12:15Z</time>
      </trkpt>
      <trkpt lat="49.35778" lon="1.25478">
        <ele>152</ele>
        <time>2017-03-14T17:12:15Z</time>
      </trkpt>
      <trkpt lat="49.35781" lon="1.25473">
        <ele>152</ele>
        <time>2017-03-14T17:12:15Z</time>
      </trkpt>
      <trkpt lat="49.35786" lon="1.25467">
        <ele>152</ele>
        <time>2017-03-14T17:12:15Z</time>
      </trkpt>
      <trkpt lat="49.3579" lon="1.25463">
        <ele>152</ele>
        <time>2017-03-14T17:12:31Z</time>
      </trkpt>
      <trkpt lat="49.35795" lon="1.25456">
        <ele>155</ele>
        <time>2017-03-14T17:12:31Z</time>
      </trkpt>
      <trkpt lat="49.35797" lon="1.25452">
        <ele>155</ele>
        <time>2017-03-14T17:12:31Z</time>
      </trkpt>
      <trkpt lat="49.35801" lon="1.25446">
        <ele>155</ele>
        <time>2017-03-14T17:12:31Z</time>
      </trkpt>
      <trkpt lat="49.35804" lon="1.25441">
        <ele>155</ele>
        <time>2017-03-14T17:12:47Z</time>
      </trkpt>
      <trkpt lat="49.35807" lon="1.25434">
        <ele>155</ele>
        <time>2017-03-14T17:12:47Z</time>
      </trkpt>
      <trkpt lat="49.3581" lon="1.25431">
        <ele>155</ele>
        <time>2017-03-14T17:12:47Z</time>
      </trkpt>
      <trkpt lat="49.35813" lon="1.25425">
        <ele>155</ele>
        <time>2017-03-14T17:12:47Z</time>
      </trkpt>
      <trkpt lat="49.35816" lon="1.2542">
        <ele>155</ele>
        <time>2017-03-14T17:13:03Z</time>
      </trkpt>
      <trkpt lat="49.35819" lon="1.25416">
        <ele>155</ele>
        <time>2017-03-14T17:13:03Z</time>
      </trkpt>
      <trkpt lat="49.35822" lon="1.25411">
        <ele>155</ele>
        <time>2017-03-14T17:13:03Z</time>
      </trkpt>
      <trkpt lat="49.35825" lon="1.25406">
        <ele>155</ele>
        <time>2017-03-14T17:13:03Z</time>
      </trkpt>
      <trkpt lat="49.35829" lon="1.25401">
        <ele>155</ele>
        <time>2017-03-14T17:13:19Z</time>
      </trkpt>
      <trkpt lat="49.35833" lon="1.25396">
        <ele>155</ele>
        <time>2017-03-14T17:13:19Z</time>
      </trkpt>
      <trkpt lat="49.35836" lon="1.25391">
        <ele>155</ele>
        <time>2017-03-14T17:13:19Z</time>
      </trkpt>
      <trkpt lat="49.3584" lon="1.25387">
        <ele>155</ele>
        <time>2017-03-14T17:13:19Z</time>
      </trkpt>
      <trkpt lat="49.35844" lon="1.25382">
        <ele>155</ele>
        <time>2017-03-14T17:13:35Z</time>
      </trkpt>
      <trkpt lat="49.35849" lon="1.25377">
        <ele>155</ele>
        <time>2017-03-14T17:13:35Z</time>
      </trkpt>
      <trkpt lat="49.35853" lon="1.25375">
        <ele>153</ele>
        <time>2017-03-14T17:13:35Z</time>
      </trkpt>
      <trkpt lat="49.35857" lon="1.25371">
        <ele>153</ele>
        <time>2017-03-14T17:13:35Z</time>
      </trkpt>
      <trkpt lat="49.3586" lon="1.25366">
        <ele>153</ele>
        <time>2017-03-14T17:13:51Z</time>
      </trkpt>
      <trkpt lat="49.35864" lon="1.25361">
        <ele>153</ele>
        <time>2017-03-14T17:13:51Z</time>
      </trkpt>
      <trkpt lat="49.35866" lon="1.25357">
        <ele>153</ele>
        <time>2017-03-14T17:13:51Z</time>
      </trkpt>
      <trkpt lat="49.35871" lon="1.25354">
        <ele>153</ele>
        <time>2017-03-14T17:13:51Z</time>
      </trkpt>
      <trkpt lat="49.35877" lon="1.25348">
        <ele>158</ele>
        <time>2017-03-14T17:14:07Z</time>
      </trkpt>
      <trkpt lat="49.35881" lon="1.25345">
        <ele>158</ele>
        <time>2017-03-14T17:14:07Z</time>
      </trkpt>
      <trkpt lat="49.35885" lon="1.2534">
        <ele>158</ele>
        <time>2017-03-14T17:14:07Z</time>
      </trkpt>
      <trkpt lat="49.35888" lon="1.25337">
        <ele>158</ele>
        <time>2017-03-14T17:14:07Z</time>
      </trkpt>
      <trkpt lat="49.35892" lon="1.25332">
        <ele>158</ele>
        <time>2017-03-14T17:14:23Z</time>
      </trkpt>
      <trkpt lat="49.35896" lon="1.25327">
        <ele>158</ele>
        <time>2017-03-14T17:14:23Z</time>
      </trkpt>
      <trkpt lat="49.359" lon="1.25321">
        <ele>158</ele>
        <time>2017-03-14T17:14:23Z</time>
      </trkpt>
      <trkpt lat="49.35902" lon="1.25317">
        <ele>158</ele>
        <time>2017-03-14T17:14:23Z</time>
      </trkpt>
      <trkpt lat="49.35906" lon="1.25313">
        <ele>158</ele>
        <time>2017-03-14T17:14:39Z</time>
      </trkpt>
      <trkpt lat="49.35909" lon="1.25307">
        <ele>158</ele>
        <time>2017-03-14T17:14:39Z</time>
      </trkpt>
      <trkpt lat="49.35913" lon="1.25304">
        <ele>158</ele>
        <time>2017-03-14T17:14:39Z</time>
      </trkpt>
      <trkpt lat="49.35915" lon="1.25301">
        <ele>158</ele>
        <time>2017-03-14T17:14:39Z</time>
      </trkpt>
      <trkpt lat="49.35918" lon="1.25297">
        <ele>158</ele>
        <time>2017-03-14T17:14:55Z</time>
      </trkpt>
      <trkpt lat="49.35921" lon="1.25292">
        <ele>158</ele>
        <time>2017-03-14T17:14:55Z</time>
      </trkpt>
      <trkpt lat="49.35924" lon="1.25287">
        <ele>156</ele>
        <time>2017-03-14T17:14:55Z</time>
      </trkpt>
      <trkpt lat="49.35928" lon="1.25282">
        <ele>156</ele>
        <time>2017-03-14T17:14:55Z</time>
      </trkpt>
      <trkpt lat="49.3593" lon="1.25276">
        <ele>156</ele>
        <time>2017-03-14T17:15:11Z</time>
      </trkpt>
      <trkpt lat="49.35935" lon="1.2527">
        <ele>156</ele>
        <time>2017-03-14T17:15:11Z</time>
      </trkpt>
      <trkpt lat="49.35938" lon="1.25265">
        <ele>156</ele>
        <time>2017-03-14T17:15:11Z</time>
      </trkpt>
      <trkpt lat="49.3594" lon="1.25258">
        <ele>156</ele>
        <time>2017-03-14T17:15:11Z</time>
      </trkpt>
      <trkpt lat="49.35944" lon="1.25251">
        <ele>156</ele>
        <time>2017-03-14T17:15:27Z</time>
      </trkpt>
      <trkpt lat="49.35947" lon="1.25246">
        <ele>156</ele>
        <time>2017-03-14T17:15:27Z</time>
      </trkpt>
      <trkpt lat="49.35951" lon="1.25242">
        <ele>156</ele>
        <time>2017-03-14T17:15:27Z</time>
      </trkpt>
      <trkpt lat="49.35954" lon="1.25236">
        <ele>156</ele>
        <time>2017-03-14T17:15:27Z</time>
      </trkpt>
      <trkpt lat="49.35959" lon="1.25229">
        <ele>157</ele>
        <time>2017-03-14T17:15:43Z</time>
      </trkpt>
      <trkpt lat="49.35964" lon="1.25222">
        <ele>157</ele>
        <time>2017-03-14T17:15:43Z</time>
      </trkpt>
      <trkpt lat="49.35967" lon="1.25217">
        <ele>157</ele>
        <time>2017-03-14T17:15:43Z</time>
      </trkpt>
      <trkpt lat="49.3597" lon="1.2521">
        <ele>157</ele>
        <time>2017-03-14T17:15:43Z</time>
      </trkpt>
      <trkpt lat="49.35972" lon="1.25205">
        <ele>157</ele>
        <time>2017-03-14T17:15:59Z</time>
      </trkpt>
      <trkpt lat="49.35975" lon="1.252">
        <ele>157</ele>
        <time>2017-03-14T17:15:59Z</time>
      </trkpt>
      <trkpt lat="49.35978" lon="1.25196">
        <ele>157</ele>
        <time>2017-03-14T17:15:59Z</time>
      </trkpt>
      <trkpt lat="49.35981" lon="1.25191">
        <ele>157</ele>
        <time>2017-03-14T17:15:59Z</time>
      </trkpt>
      <trkpt lat="49.35985" lon="1.25185">
        <ele>157</ele>
        <time>2017-03-14T17:16:15Z</time>
      </trkpt>
      <trkpt lat="49.35988" lon="1.25178">
        <ele>157</ele>
        <time>2017-03-14T17:16:15Z</time>
      </trkpt>
      <trkpt lat="49.35989" lon="1.25174">
        <ele>157</ele>
        <time>2017-03-14T17:16:15Z</time>
      </trkpt>
      <trkpt lat="49.35991" lon="1.25169">
        <ele>157</ele>
        <time>2017-03-14T17:16:15Z</time>
      </trkpt>
      <trkpt lat="49.35995" lon="1.25165">
        <ele>157</ele>
        <time>2017-03-14T17:16:31Z</time>
      </trkpt>
      <trkpt lat="49.35997" lon="1.25156">
        <ele>157</ele>
        <time>2017-03-14T17:16:31Z</time>
      </trkpt>
      <trkpt lat="49.36001" lon="1.25149">
        <ele>157</ele>
        <time>2017-03-14T17:16:31Z</time>
      </trkpt>
      <trkpt lat="49.36004" lon="1.25144">
        <ele>157</ele>
        <time>2017-03-14T17:16:31Z</time>
      </trkpt>
      <trkpt lat="49.36008" lon="1.25139">
        <ele>157</ele>
        <time>2017-03-14T17:16:47Z</time>
      </trkpt>
      <trkpt lat="49.36012" lon="1.25135">
        <ele>157</ele>
        <time>2017-03-14T17:16:47Z</time>
      </trkpt>
      <trkpt lat="49.36017" lon="1.25129">
        <ele>157</ele>
        <time>2017-03-14T17:16:47Z</time>
      </trkpt>
      <trkpt lat="49.3602" lon="1.25124">
        <ele>156</ele>
        <time>2017-03-14T17:16:47Z</time>
      </trkpt>
      <trkpt lat="49.36024" lon="1.25122">
        <ele>156</ele>
        <time>2017-03-14T17:17:03Z</time>
      </trkpt>
      <trkpt lat="49.36028" lon="1.25119">
        <ele>156</ele>
        <time>2017-03-14T17:17:03Z</time>
      </trkpt>
      <trkpt lat="49.36032" lon="1.25115">
        <ele>156</ele>
        <time>2017-03-14T17:17:03Z</time>
      </trkpt>
      <trkpt lat="49.36036" lon="1.25111">
        <ele>156</ele>
        <time>2017-03-14T17:17:03Z</time>
      </trkpt>
      <trkpt lat="49.3604" lon="1.25107">
        <ele>156</ele>
        <time>2017-03-14T17:17:19Z</time>
      </trkpt>
      <trkpt lat="49.36045" lon="1.25103">
        <ele>158</ele>
        <time>2017-03-14T17:17:19Z</time>
      </trkpt>
      <trkpt lat="49.36049" lon="1.251">
        <ele>158</ele>
        <time>2017-03-14T17:17:19Z</time>
      </trkpt>
      <trkpt lat="49.36053" lon="1.25097">
        <ele>158</ele>
        <time>2017-03-14T17:17:19Z</time>
      </trkpt>
      <trkpt lat="49.36058" lon="1.25094">
        <ele>158</ele>
        <time>2017-03-14T17:17:35Z</time>
      </trkpt>
      <trkpt lat="49.36062" lon="1.25091">
        <ele>158</ele>
        <time>2017-03-14T17:17:35Z</time>
      </trkpt>
      <trkpt lat="49.36067" lon="1.25088">
        <ele>158</ele>
        <time>2017-03-14T17:17:35Z</time>
      </trkpt>
      <trkpt lat="49.36071" lon="1.25085">
        <ele>158</ele>
        <time>2017-03-14T17:17:35Z</time>
      </trkpt>
      <trkpt lat="49.36075" lon="1.25082">
        <ele>158</ele>
        <time>2017-03-14T17:17:51Z</time>
      </trkpt>
      <trkpt lat="49.3608" lon="1.25079">
        <ele>158</ele>
        <time>2017-03-14T17:17:51Z</time>
      </trkpt>
      <trkpt lat="49.36084" lon="1.25075">
        <ele>158</ele>
        <time>2017-03-14T17:17:51Z</time>
      </trkpt>
      <trkpt lat="49.36086" lon="1.25068">
        <ele>158</ele>
        <time>2017-03-14T17:17:51Z</time>
      </trkpt>
      <trkpt lat="49.36089" lon="1.25064">
        <ele>158</ele>
        <time>2017-03-14T17:18:07Z</time>
      </trkpt>
      <trkpt lat="49.36094" lon="1.25061">
        <ele>158</ele>
        <time>2017-03-14T17:18:07Z</time>
      </trkpt>
      <trkpt lat="49.36098" lon="1.25057">
        <ele>158</ele>
        <time>2017-03-14T17:18:07Z</time>
      </trkpt>
      <trkpt lat="49.36104" lon="1.25054">
        <ele>158</ele>
        <time>2017-03-14T17:18:07Z</time>
      </trkpt>
      <trkpt lat="49.3611" lon="1.25048">
        <ele>158</ele>
        <time>2017-03-14T17:18:23Z</time>
      </trkpt>
      <trkpt lat="49.36115" lon="1.25043">
        <ele>158</ele>
        <time>2017-03-14T17:18:23Z</time>
      </trkpt>
      <trkpt lat="49.3612" lon="1.2504">
        <ele>158</ele>
        <time>2017-03-14T17:18:23Z</time>
      </trkpt>
      <trkpt lat="49.36123" lon="1.25037">
        <ele>158</ele>
        <time>2017-03-14T17:18:23Z</time>
      </trkpt>
      <trkpt lat="49.36128" lon="1.25034">
        <ele>158</ele>
        <time>2017-03-14T17:18:39Z</time>
      </trkpt>
      <trkpt lat="49.36132" lon="1.25031">
        <ele>158</ele>
        <time>2017-03-14T17:18:39Z</time>
      </trkpt>
      <trkpt lat="49.36136" lon="1.25028">
        <ele>158</ele>
        <time>2017-03-14T17:18:39Z</time>
      </trkpt>
      <trkpt lat="49.36141" lon="1.25025">
        <ele>158</ele>
        <time>2017-03-14T17:18:39Z</time>
      </trkpt>
      <trkpt lat="49.36147" lon="1.2502">
        <ele>158</ele>
        <time>2017-03-14T17:18:55Z</time>
      </trkpt>
      <trkpt lat="49.36151" lon="1.25011">
        <ele>158</ele>
        <time>2017-03-14T17:18:55Z</time>
      </trkpt>
      <trkpt lat="49.36155" lon="1.25006">
        <ele>158</ele>
        <time>2017-03-14T17:18:55Z</time>
      </trkpt>
      <trkpt lat="49.36159" lon="1.24999">
        <ele>158</ele>
        <time>2017-03-14T17:18:55Z</time>
      </trkpt>
      <trkpt lat="49.36163" lon="1.24995">
        <ele>158</ele>
        <time>2017-03-14T17:19:11Z</time>
      </trkpt>
      <trkpt lat="49.36167" lon="1.24992">
        <ele>158</ele>
        <time>2017-03-14T17:19:11Z</time>
      </trkpt>
      <trkpt lat="49.36172" lon="1.24989">
        <ele>158</ele>
        <time>2017-03-14T17:19:11Z</time>
      </trkpt>
      <trkpt lat="49.36175" lon="1.24984">
        <ele>158</ele>
        <time>2017-03-14T17:19:11Z</time>
      </trkpt>
      <trkpt lat="49.36179" lon="1.2498">
        <ele>158</ele>
        <time>2017-03-14T17:19:27Z</time>
      </trkpt>
      <trkpt lat="49.36182" lon="1.24976">
        <ele>158</ele>
        <time>2017-03-14T17:19:27Z</time>
      </trkpt>
      <trkpt lat="49.36184" lon="1.24971">
        <ele>158</ele>
        <time>2017-03-14T17:19:27Z</time>
      </trkpt>
      <trkpt lat="49.36187" lon="1.24967">
        <ele>158</ele>
        <time>2017-03-14T17:19:27Z</time>
      </trkpt>
      <trkpt lat="49.36191" lon="1.24963">
        <ele>158</ele>
        <time>2017-03-14T17:19:43Z</time>
      </trkpt>
      <trkpt lat="49.36195" lon="1.24959">
        <ele>158</ele>
        <time>2017-03-14T17:19:43Z</time>
      </trkpt>
      <trkpt lat="49.36199" lon="1.24956">
        <ele>158</ele>
        <time>2017-03-14T17:19:43Z</time>
      </trkpt>
      <trkpt lat="49.36203" lon="1.24952">
        <ele>158</ele>
        <time>2017-03-14T17:19:43Z</time>
      </trkpt>
      <trkpt lat="49.36208" lon="1.24924">
        <ele>158</ele>
        <time>2017-03-14T17:20:15Z</time>
      </trkpt>
      <trkpt lat="49.36208" lon="1.24924">
        <ele>158</ele>
        <time>2017-03-14T17:20:15Z</time>
      </trkpt>
      <trkpt lat="49.36208" lon="1.24924">
        <ele>158</ele>
        <time>2017-03-14T17:20:15Z</time>
      </trkpt>
      <trkpt lat="49.36211" lon="1.24909">
        <ele>156</ele>
        <time>2017-03-14T17:20:15Z</time>
      </trkpt>
      <trkpt lat="49.36221" lon="1.24905">
        <ele>156</ele>
        <time>2017-03-14T17:20:15Z</time>
      </trkpt>
      <trkpt lat="49.36225" lon="1.24901">
        <ele>156</ele>
        <time>2017-03-14T17:20:31Z</time>
      </trkpt>
      <trkpt lat="49.36229" lon="1.24896">
        <ele>156</ele>
        <time>2017-03-14T17:20:31Z</time>
      </trkpt>
      <trkpt lat="49.36237" lon="1.24892">
        <ele>156</ele>
        <time>2017-03-14T17:20:31Z</time>
      </trkpt>
      <trkpt lat="49.36242" lon="1.24888">
        <ele>156</ele>
        <time>2017-03-14T17:20:31Z</time>
      </trkpt>
      <trkpt lat="49.36246" lon="1.24883">
        <ele>156</ele>
        <time>2017-03-14T17:20:47Z</time>
      </trkpt>
      <trkpt lat="49.3625" lon="1.24876">
        <ele>156</ele>
        <time>2017-03-14T17:20:47Z</time>
      </trkpt>
      <trkpt lat="49.36256" lon="1.24871">
        <ele>158</ele>
        <time>2017-03-14T17:20:47Z</time>
      </trkpt>
      <trkpt lat="49.36261" lon="1.24867">
        <ele>158</ele>
        <time>2017-03-14T17:20:47Z</time>
      </trkpt>
      <trkpt lat="49.36265" lon="1.24863">
        <ele>158</ele>
        <time>2017-03-14T17:21:03Z</time>
      </trkpt>
      <trkpt lat="49.36269" lon="1.24859">
        <ele>158</ele>
        <time>2017-03-14T17:21:03Z</time>
      </trkpt>
      <trkpt lat="49.36273" lon="1.24855">
        <ele>158</ele>
        <time>2017-03-14T17:21:03Z</time>
      </trkpt>
      <trkpt lat="49.36277" lon="1.24851">
        <ele>158</ele>
        <time>2017-03-14T17:21:03Z</time>
      </trkpt>
      <trkpt lat="49.36282" lon="1.24847">
        <ele>158</ele>
        <time>2017-03-14T17:21:19Z</time>
      </trkpt>
      <trkpt lat="49.36286" lon="1.24843">
        <ele>158</ele>
        <time>2017-03-14T17:21:19Z</time>
      </trkpt>
      <trkpt lat="49.3629" lon="1.2484">
        <ele>158</ele>
        <time>2017-03-14T17:21:19Z</time>
      </trkpt>
      <trkpt lat="49.36295" lon="1.24836">
        <ele>157</ele>
        <time>2017-03-14T17:21:19Z</time>
      </trkpt>
      <trkpt lat="49.36299" lon="1.24832">
        <ele>157</ele>
        <time>2017-03-14T17:21:35Z</time>
      </trkpt>
      <trkpt lat="49.36303" lon="1.2482">
        <ele>157</ele>
        <time>2017-03-14T17:21:35Z</time>
      </trkpt>
      <trkpt lat="49.36306" lon="1.24813">
        <ele>157</ele>
        <time>2017-03-14T17:21:35Z</time>
      </trkpt>
      <trkpt lat="49.3631" lon="1.24808">
        <ele>157</ele>
        <time>2017-03-14T17:21:35Z</time>
      </trkpt>
      <trkpt lat="49.36314" lon="1.24805">
        <ele>157</ele>
        <time>2017-03-14T17:21:51Z</time>
      </trkpt>
      <trkpt lat="49.36319" lon="1.24802">
        <ele>157</ele>
        <time>2017-03-14T17:21:51Z</time>
      </trkpt>
      <trkpt lat="49.36324" lon="1.24799">
        <ele>157</ele>
        <time>2017-03-14T17:21:51Z</time>
      </trkpt>
      <trkpt lat="49.36328" lon="1.24795">
        <ele>157</ele>
        <time>2017-03-14T17:21:51Z</time>
      </trkpt>
      <trkpt lat="49.36332" lon="1.24791">
        <ele>157</ele>
        <time>2017-03-14T17:22:07Z</time>
      </trkpt>
      <trkpt lat="49.36337" lon="1.24787">
        <ele>157</ele>
        <time>2017-03-14T17:22:07Z</time>
      </trkpt>
      <trkpt lat="49.36342" lon="1.24782">
        <ele>157</ele>
        <time>2017-03-14T17:22:07Z</time>
      </trkpt>
      <trkpt lat="49.36347" lon="1.24776">
        <ele>157</ele>
        <time>2017-03-14T17:22:07Z</time>
      </trkpt>
      <trkpt lat="49.3635" lon="1.24772">
        <ele>157</ele>
        <time>2017-03-14T17:22:23Z</time>
      </trkpt>
      <trkpt lat="49.36354" lon="1.24768">
        <ele>157</ele>
        <time>2017-03-14T17:22:23Z</time>
      </trkpt>
      <trkpt lat="49.36356" lon="1.24766">
        <ele>157</ele>
        <time>2017-03-14T17:22:23Z</time>
      </trkpt>
      <trkpt lat="49.3636" lon="1.24763">
        <ele>157</ele>
        <time>2017-03-14T17:22:23Z</time>
      </trkpt>
      <trkpt lat="49.36365" lon="1.2476">
        <ele>157</ele>
        <time>2017-03-14T17:22:39Z</time>
      </trkpt>
      <trkpt lat="49.36369" lon="1.24756">
        <ele>157</ele>
        <time>2017-03-14T17:22:39Z</time>
      </trkpt>
      <trkpt lat="49.36374" lon="1.24753">
        <ele>157</ele>
        <time>2017-03-14T17:22:39Z</time>
      </trkpt>
      <trkpt lat="49.36378" lon="1.2475">
        <ele>155</ele>
        <time>2017-03-14T17:22:39Z</time>
      </trkpt>
      <trkpt lat="49.36383" lon="1.24747">
        <ele>155</ele>
        <time>2017-03-14T17:22:55Z</time>
      </trkpt>
      <trkpt lat="49.36387" lon="1.24744">
        <ele>155</ele>
        <time>2017-03-14T17:22:55Z</time>
      </trkpt>
      <trkpt lat="49.36392" lon="1.24741">
        <ele>155</ele>
        <time>2017-03-14T17:22:55Z</time>
      </trkpt>
      <trkpt lat="49.36396" lon="1.24738">
        <ele>155</ele>
        <time>2017-03-14T17:22:55Z</time>
      </trkpt>
      <trkpt lat="49.36401" lon="1.24738">
        <ele>155</ele>
        <time>2017-03-14T17:23:11Z</time>
      </trkpt>
      <trkpt lat="49.36406" lon="1.24736">
        <ele>155</ele>
        <time>2017-03-14T17:23:11Z</time>
      </trkpt>
      <trkpt lat="49.36408" lon="1.24724">
        <ele>155</ele>
        <time>2017-03-14T17:23:11Z</time>
      </trkpt>
      <trkpt lat="49.3641" lon="1.24717">
        <ele>155</ele>
        <time>2017-03-14T17:23:11Z</time>
      </trkpt>
      <trkpt lat="49.36413" lon="1.24712">
        <ele>155</ele>
        <time>2017-03-14T17:23:27Z</time>
      </trkpt>
      <trkpt lat="49.36416" lon="1.24708">
        <ele>154</ele>
        <time>2017-03-14T17:23:27Z</time>
      </trkpt>
      <trkpt lat="49.3642" lon="1.24706">
        <ele>154</ele>
        <time>2017-03-14T17:23:27Z</time>
      </trkpt>
      <trkpt lat="49.36424" lon="1.24702">
        <ele>154</ele>
        <time>2017-03-14T17:23:27Z</time>
      </trkpt>
      <trkpt lat="49.36427" lon="1.24698">
        <ele>154</ele>
        <time>2017-03-14T17:23:43Z</time>
      </trkpt>
      <trkpt lat="49.3643" lon="1.24693">
        <ele>154</ele>
        <time>2017-03-14T17:23:43Z</time>
      </trkpt>
      <trkpt lat="49.36434" lon="1.24689">
        <ele>154</ele>
        <time>2017-03-14T17:23:43Z</time>
      </trkpt>
      <trkpt lat="49.36439" lon="1.24684">
        <ele>154</ele>
        <time>2017-03-14T17:23:43Z</time>
      </trkpt>
      <trkpt lat="49.36441" lon="1.24682">
        <ele>154</ele>
        <time>2017-03-14T17:23:59Z</time>
      </trkpt>
      <trkpt lat="49.36446" lon="1.24678">
        <ele>154</ele>
        <time>2017-03-14T17:23:59Z</time>
      </trkpt>
      <trkpt lat="49.3645" lon="1.24674">
        <ele>154</ele>
        <time>2017-03-14T17:23:59Z</time>
      </trkpt>
      <trkpt lat="49.36455" lon="1.2467">
        <ele>154</ele>
        <time>2017-03-14T17:23:59Z</time>
      </trkpt>
      <trkpt lat="49.36464" lon="1.24665">
        <ele>152</ele>
        <time>2017-03-14T17:25:15Z</time>
      </trkpt>
      <trkpt lat="49.36464" lon="1.24665">
        <ele>152</ele>
        <time>2017-03-14T17:25:15Z</time>
      </trkpt>
      <trkpt lat="49.36467" lon="1.24661">
        <ele>152</ele>
        <time>2017-03-14T17:25:15Z</time>
      </trkpt>
      <trkpt lat="49.36471" lon="1.24656">
        <ele>152</ele>
        <time>2017-03-14T17:25:15Z</time>
      </trkpt>
      <trkpt lat="49.36477" lon="1.24652">
        <ele>152</ele>
        <time>2017-03-14T17:25:15Z</time>
      </trkpt>
      <trkpt lat="49.3648" lon="1.24646">
        <ele>152</ele>
        <time>2017-03-14T17:25:31Z</time>
      </trkpt>
      <trkpt lat="49.36483" lon="1.24641">
        <ele>152</ele>
        <time>2017-03-14T17:25:31Z</time>
      </trkpt>
      <trkpt lat="49.36486" lon="1.24635">
        <ele>152</ele>
        <time>2017-03-14T17:25:31Z</time>
      </trkpt>
      <trkpt lat="49.3649" lon="1.2463">
        <ele>152</ele>
        <time>2017-03-14T17:25:31Z</time>
      </trkpt>
      <trkpt lat="49.36493" lon="1.24627">
        <ele>152</ele>
        <time>2017-03-14T17:25:47Z</time>
      </trkpt>
      <trkpt lat="49.36496" lon="1.24622">
        <ele>153</ele>
        <time>2017-03-14T17:25:47Z</time>
      </trkpt>
      <trkpt lat="49.365" lon="1.24616">
        <ele>153</ele>
        <time>2017-03-14T17:25:47Z</time>
      </trkpt>
      <trkpt lat="49.36503" lon="1.24609">
        <ele>153</ele>
        <time>2017-03-14T17:25:47Z</time>
      </trkpt>
      <trkpt lat="49.36506" lon="1.24601">
        <ele>153</ele>
        <time>2017-03-14T17:26:07Z</time>
      </trkpt>
      <trkpt lat="49.36508" lon="1.24597">
        <ele>153</ele>
        <time>2017-03-14T17:26:07Z</time>
      </trkpt>
      <trkpt lat="49.36508" lon="1.24591">
        <ele>153</ele>
        <time>2017-03-14T17:26:07Z</time>
      </trkpt>
      <trkpt lat="49.36507" lon="1.24591">
        <ele>153</ele>
        <time>2017-03-14T17:26:07Z</time>
      </trkpt>
      <trkpt lat="49.36513" lon="1.24587">
        <ele>153</ele>
        <time>2017-03-14T17:26:07Z</time>
      </trkpt>
      <trkpt lat="49.36517" lon="1.24583">
        <ele>153</ele>
        <time>2017-03-14T17:26:23Z</time>
      </trkpt>
      <trkpt lat="49.36521" lon="1.24578">
        <ele>153</ele>
        <time>2017-03-14T17:26:23Z</time>
      </trkpt>
      <trkpt lat="49.36526" lon="1.24574">
        <ele>153</ele>
        <time>2017-03-14T17:26:23Z</time>
      </trkpt>
      <trkpt lat="49.36531" lon="1.24569">
        <ele>153</ele>
        <time>2017-03-14T17:26:23Z</time>
      </trkpt>
      <trkpt lat="49.36533" lon="1.24565">
        <ele>153</ele>
        <time>2017-03-14T17:26:39Z</time>
      </trkpt>
      <trkpt lat="49.36534" lon="1.24558">
        <ele>153</ele>
        <time>2017-03-14T17:26:39Z</time>
      </trkpt>
      <trkpt lat="49.36537" lon="1.24553">
        <ele>153</ele>
        <time>2017-03-14T17:26:39Z</time>
      </trkpt>
      <trkpt lat="49.3654" lon="1.24549">
        <ele>153</ele>
        <time>2017-03-14T17:26:39Z</time>
      </trkpt>
      <trkpt lat="49.36542" lon="1.24544">
        <ele>156</ele>
        <time>2017-03-14T17:26:55Z</time>
      </trkpt>
      <trkpt lat="49.36545" lon="1.24541">
        <ele>157</ele>
        <time>2017-03-14T17:26:55Z</time>
      </trkpt>
      <trkpt lat="49.36548" lon="1.24538">
        <ele>157</ele>
        <time>2017-03-14T17:26:55Z</time>
      </trkpt>
      <trkpt lat="49.36552" lon="1.24535">
        <ele>157</ele>
        <time>2017-03-14T17:26:55Z</time>
      </trkpt>
      <trkpt lat="49.36555" lon="1.24532">
        <ele>157</ele>
        <time>2017-03-14T17:27:11Z</time>
      </trkpt>
      <trkpt lat="49.36557" lon="1.24527">
        <ele>157</ele>
        <time>2017-03-14T17:27:11Z</time>
      </trkpt>
      <trkpt lat="49.3656" lon="1.24521">
        <ele>157</ele>
        <time>2017-03-14T17:27:11Z</time>
      </trkpt>
      <trkpt lat="49.36562" lon="1.24516">
        <ele>157</ele>
        <time>2017-03-14T17:27:11Z</time>
      </trkpt>
      <trkpt lat="49.36567" lon="1.24512">
        <ele>157</ele>
        <time>2017-03-14T17:27:27Z</time>
      </trkpt>
      <trkpt lat="49.36571" lon="1.24507">
        <ele>157</ele>
        <time>2017-03-14T17:27:27Z</time>
      </trkpt>
      <trkpt lat="49.36573" lon="1.24503">
        <ele>157</ele>
        <time>2017-03-14T17:27:27Z</time>
      </trkpt>
      <trkpt lat="49.36574" lon="1.24498">
        <ele>157</ele>
        <time>2017-03-14T17:27:27Z</time>
      </trkpt>
      <trkpt lat="49.36576" lon="1.24494">
        <ele>157</ele>
        <time>2017-03-14T17:27:43Z</time>
      </trkpt>
      <trkpt lat="49.36579" lon="1.24489">
        <ele>157</ele>
        <time>2017-03-14T17:27:43Z</time>
      </trkpt>
      <trkpt lat="49.36582" lon="1.24485">
        <ele>157</ele>
        <time>2017-03-14T17:27:43Z</time>
      </trkpt>
      <trkpt lat="49.36585" lon="1.24481">
        <ele>157</ele>
        <time>2017-03-14T17:27:43Z</time>
      </trkpt>
      <trkpt lat="49.36587" lon="1.24476">
        <ele>157</ele>
        <time>2017-03-14T17:27:59Z</time>
      </trkpt>
      <trkpt lat="49.36591" lon="1.24471">
        <ele>157</ele>
        <time>2017-03-14T17:27:59Z</time>
      </trkpt>
      <trkpt lat="49.36596" lon="1.24467">
        <ele>157</ele>
        <time>2017-03-14T17:27:59Z</time>
      </trkpt>
      <trkpt lat="49.36599" lon="1.24464">
        <ele>157</ele>
        <time>2017-03-14T17:27:59Z</time>
      </trkpt>
      <trkpt lat="49.36602" lon="1.2446">
        <ele>157</ele>
        <time>2017-03-14T17:28:15Z</time>
      </trkpt>
      <trkpt lat="49.36604" lon="1.24454">
        <ele>156</ele>
        <time>2017-03-14T17:28:15Z</time>
      </trkpt>
      <trkpt lat="49.36606" lon="1.2445">
        <ele>156</ele>
        <time>2017-03-14T17:28:15Z</time>
      </trkpt>
      <trkpt lat="49.36609" lon="1.24447">
        <ele>156</ele>
        <time>2017-03-14T17:28:15Z</time>
      </trkpt>
      <trkpt lat="49.36612" lon="1.24444">
        <ele>156</ele>
        <time>2017-03-14T17:28:31Z</time>
      </trkpt>
      <trkpt lat="49.36614" lon="1.2444">
        <ele>156</ele>
        <time>2017-03-14T17:28:31Z</time>
      </trkpt>
      <trkpt lat="49.36617" lon="1.24433">
        <ele>156</ele>
        <time>2017-03-14T17:28:31Z</time>
      </trkpt>
      <trkpt lat="49.3662" lon="1.24428">
        <ele>156</ele>
        <time>2017-03-14T17:28:31Z</time>
      </trkpt>
      <trkpt lat="49.3662" lon="1.24421">
        <ele>156</ele>
        <time>2017-03-14T17:28:47Z</time>
      </trkpt>
      <trkpt lat="49.36623" lon="1.24418">
        <ele>156</ele>
        <time>2017-03-14T17:28:47Z</time>
      </trkpt>
      <trkpt lat="49.36625" lon="1.24412">
        <ele>158</ele>
        <time>2017-03-14T17:28:47Z</time>
      </trkpt>
      <trkpt lat="49.36628" lon="1.24407">
        <ele>158</ele>
        <time>2017-03-14T17:28:47Z</time>
      </trkpt>
      <trkpt lat="49.3663" lon="1.24402">
        <ele>158</ele>
        <time>2017-03-14T17:29:03Z</time>
      </trkpt>
      <trkpt lat="49.36631" lon="1.24397">
        <ele>158</ele>
        <time>2017-03-14T17:29:03Z</time>
      </trkpt>
      <trkpt lat="49.36632" lon="1.24391">
        <ele>158</ele>
        <time>2017-03-14T17:29:03Z</time>
      </trkpt>
      <trkpt lat="49.36635" lon="1.24385">
        <ele>158</ele>
        <time>2017-03-14T17:29:03Z</time>
      </trkpt>
      <trkpt lat="49.36639" lon="1.24381">
        <ele>158</ele>
        <time>2017-03-14T17:29:19Z</time>
      </trkpt>
      <trkpt lat="49.36643" lon="1.24376">
        <ele>158</ele>
        <time>2017-03-14T17:29:19Z</time>
      </trkpt>
      <trkpt lat="49.36645" lon="1.24371">
        <ele>157</ele>
        <time>2017-03-14T17:29:19Z</time>
      </trkpt>
      <trkpt lat="49.36649" lon="1.24368">
        <ele>157</ele>
        <time>2017-03-14T17:29:19Z</time>
      </trkpt>
      <trkpt lat="49.36655" lon="1.24361">
        <ele>157</ele>
        <time>2017-03-14T17:29:35Z</time>
      </trkpt>
      <trkpt lat="49.36657" lon="1.24357">
        <ele>157</ele>
        <time>2017-03-14T17:29:35Z</time>
      </trkpt>
      <trkpt lat="49.3666" lon="1.24353">
        <ele>157</ele>
        <time>2017-03-14T17:29:35Z</time>
      </trkpt>
      <trkpt lat="49.36664" lon="1.24348">
        <ele>157</ele>
        <time>2017-03-14T17:29:35Z</time>
      </trkpt>
      <trkpt lat="49.36667" lon="1.24344">
        <ele>157</ele>
        <time>2017-03-14T17:29:51Z</time>
      </trkpt>
      <trkpt lat="49.36671" lon="1.24337">
        <ele>157</ele>
        <time>2017-03-14T17:29:51Z</time>
      </trkpt>
      <trkpt lat="49.36675" lon="1.24331">
        <ele>157</ele>
        <time>2017-03-14T17:29:51Z</time>
      </trkpt>
      <trkpt lat="49.36679" lon="1.24326">
        <ele>157</ele>
        <time>2017-03-14T17:29:51Z</time>
      </trkpt>
      <trkpt lat="49.36681" lon="1.24322">
        <ele>157</ele>
        <time>2017-03-14T17:30:07Z</time>
      </trkpt>
      <trkpt lat="49.36684" lon="1.24315">
        <ele>157</ele>
        <time>2017-03-14T17:30:07Z</time>
      </trkpt>
      <trkpt lat="49.36688" lon="1.2431">
        <ele>157</ele>
        <time>2017-03-14T17:30:07Z</time>
      </trkpt>
      <trkpt lat="49.36691" lon="1.24305">
        <ele>157</ele>
        <time>2017-03-14T17:30:07Z</time>
      </trkpt>
      <trkpt lat="49.36694" lon="1.24301">
        <ele>157</ele>
        <time>2017-03-14T17:30:23Z</time>
      </trkpt>
      <trkpt lat="49.36698" lon="1.24297">
        <ele>157</ele>
        <time>2017-03-14T17:30:23Z</time>
      </trkpt>
      <trkpt lat="49.36702" lon="1.2429">
        <ele>155</ele>
        <time>2017-03-14T17:30:23Z</time>
      </trkpt>
      <trkpt lat="49.36705" lon="1.24285">
        <ele>155</ele>
        <time>2017-03-14T17:30:23Z</time>
      </trkpt>
      <trkpt lat="49.36708" lon="1.24281">
        <ele>158</ele>
        <time>2017-03-14T17:30:39Z</time>
      </trkpt>
      <trkpt lat="49.36712" lon="1.24279">
        <ele>158</ele>
        <time>2017-03-14T17:30:39Z</time>
      </trkpt>
      <trkpt lat="49.36716" lon="1.24276">
        <ele>158</ele>
        <time>2017-03-14T17:30:39Z</time>
      </trkpt>
      <trkpt lat="49.3672" lon="1.24273">
        <ele>158</ele>
        <time>2017-03-14T17:30:39Z</time>
      </trkpt>
      <trkpt lat="49.36723" lon="1.24269">
        <ele>158</ele>
        <time>2017-03-14T17:30:55Z</time>
      </trkpt>
      <trkpt lat="49.36727" lon="1.24263">
        <ele>158</ele>
        <time>2017-03-14T17:30:55Z</time>
      </trkpt>
      <trkpt lat="49.3673" lon="1.24258">
        <ele>158</ele>
        <time>2017-03-14T17:30:55Z</time>
      </trkpt>
      <trkpt lat="49.36733" lon="1.24252">
        <ele>158</ele>
        <time>2017-03-14T17:30:55Z</time>
      </trkpt>
      <trkpt lat="49.3674" lon="1.24246">
        <ele>158</ele>
        <time>2017-03-14T17:32:11Z</time>
      </trkpt>
      <trkpt lat="49.3674" lon="1.24244">
        <ele>158</ele>
        <time>2017-03-14T17:32:11Z</time>
      </trkpt>
      <trkpt lat="49.36745" lon="1.2424">
        <ele>158</ele>
        <time>2017-03-14T17:32:11Z</time>
      </trkpt>
      <trkpt lat="49.36747" lon="1.24235">
        <ele>158</ele>
        <time>2017-03-14T17:32:11Z</time>
      </trkpt>
      <trkpt lat="49.36751" lon="1.24229">
        <ele>158</ele>
        <time>2017-03-14T17:32:11Z</time>
      </trkpt>
      <trkpt lat="49.36753" lon="1.2422">
        <ele>158</ele>
        <time>2017-03-14T17:32:27Z</time>
      </trkpt>
      <trkpt lat="49.36754" lon="1.24214">
        <ele>158</ele>
        <time>2017-03-14T17:32:27Z</time>
      </trkpt>
      <trkpt lat="49.36757" lon="1.2421">
        <ele>158</ele>
        <time>2017-03-14T17:32:27Z</time>
      </trkpt>
      <trkpt lat="49.36759" lon="1.24205">
        <ele>155</ele>
        <time>2017-03-14T17:32:27Z</time>
      </trkpt>
      <trkpt lat="49.36762" lon="1.242">
        <ele>155</ele>
        <time>2017-03-14T17:32:43Z</time>
      </trkpt>
      <trkpt lat="49.36764" lon="1.24195">
        <ele>155</ele>
        <time>2017-03-14T17:32:43Z</time>
      </trkpt>
      <trkpt lat="49.36766" lon="1.24189">
        <ele>155</ele>
        <time>2017-03-14T17:32:43Z</time>
      </trkpt>
      <trkpt lat="49.36768" lon="1.24183">
        <ele>155</ele>
        <time>2017-03-14T17:32:43Z</time>
      </trkpt>
      <trkpt lat="49.3677" lon="1.24177">
        <ele>155</ele>
        <time>2017-03-14T17:32:59Z</time>
      </trkpt>
      <trkpt lat="49.36773" lon="1.24172">
        <ele>155</ele>
        <time>2017-03-14T17:32:59Z</time>
      </trkpt>
      <trkpt lat="49.36775" lon="1.2417">
        <ele>155</ele>
        <time>2017-03-14T17:32:59Z</time>
      </trkpt>
      <trkpt lat="49.36778" lon="1.24164">
        <ele>155</ele>
        <time>2017-03-14T17:32:59Z</time>
      </trkpt>
      <trkpt lat="49.36779" lon="1.24158">
        <ele>155</ele>
        <time>2017-03-14T17:33:15Z</time>
      </trkpt>
      <trkpt lat="49.36782" lon="1.24152">
        <ele>155</ele>
        <time>2017-03-14T17:33:15Z</time>
      </trkpt>
      <trkpt lat="49.36786" lon="1.24147">
        <ele>155</ele>
        <time>2017-03-14T17:33:15Z</time>
      </trkpt>
      <trkpt lat="49.36788" lon="1.24142">
        <ele>155</ele>
        <time>2017-03-14T17:33:15Z</time>
      </trkpt>
      <trkpt lat="49.3679" lon="1.24134">
        <ele>155</ele>
        <time>2017-03-14T17:33:31Z</time>
      </trkpt>
      <trkpt lat="49.36792" lon="1.24127">
        <ele>154</ele>
        <time>2017-03-14T17:33:31Z</time>
      </trkpt>
      <trkpt lat="49.36794" lon="1.24121">
        <ele>154</ele>
        <time>2017-03-14T17:33:31Z</time>
      </trkpt>
      <trkpt lat="49.36796" lon="1.24114">
        <ele>154</ele>
        <time>2017-03-14T17:33:31Z</time>
      </trkpt>
      <trkpt lat="49.36798" lon="1.24107">
        <ele>154</ele>
        <time>2017-03-14T17:33:47Z</time>
      </trkpt>
      <trkpt lat="49.36799" lon="1.24101">
        <ele>154</ele>
        <time>2017-03-14T17:33:47Z</time>
      </trkpt>
      <trkpt lat="49.36802" lon="1.24094">
        <ele>154</ele>
        <time>2017-03-14T17:33:47Z</time>
      </trkpt>
      <trkpt lat="49.36804" lon="1.24086">
        <ele>154</ele>
        <time>2017-03-14T17:33:47Z</time>
      </trkpt>
      <trkpt lat="49.36806" lon="1.2408">
        <ele>154</ele>
        <time>2017-03-14T17:34:03Z</time>
      </trkpt>
      <trkpt lat="49.36808" lon="1.24073">
        <ele>154</ele>
        <time>2017-03-14T17:34:03Z</time>
      </trkpt>
      <trkpt lat="49.36811" lon="1.24068">
        <ele>154</ele>
        <time>2017-03-14T17:34:03Z</time>
      </trkpt>
      <trkpt lat="49.36813" lon="1.24062">
        <ele>154</ele>
        <time>2017-03-14T17:34:03Z</time>
      </trkpt>
      <trkpt lat="49.36814" lon="1.24058">
        <ele>154</ele>
        <time>2017-03-14T17:34:19Z</time>
      </trkpt>
      <trkpt lat="49.36816" lon="1.24053">
        <ele>154</ele>
        <time>2017-03-14T17:34:19Z</time>
      </trkpt>
      <trkpt lat="49.3682" lon="1.24044">
        <ele>154</ele>
        <time>2017-03-14T17:34:19Z</time>
      </trkpt>
      <trkpt lat="49.36822" lon="1.24039">
        <ele>156</ele>
        <time>2017-03-14T17:34:19Z</time>
      </trkpt>
      <trkpt lat="49.36824" lon="1.24033">
        <ele>156</ele>
        <time>2017-03-14T17:34:35Z</time>
      </trkpt>
      <trkpt lat="49.36827" lon="1.24027">
        <ele>156</ele>
        <time>2017-03-14T17:34:35Z</time>
      </trkpt>
      <trkpt lat="49.36829" lon="1.24021">
        <ele>156</ele>
        <time>2017-03-14T17:34:35Z</time>
      </trkpt>
      <trkpt lat="49.36832" lon="1.24014">
        <ele>156</ele>
        <time>2017-03-14T17:34:35Z</time>
      </trkpt>
      <trkpt lat="49.36835" lon="1.24007">
        <ele>156</ele>
        <time>2017-03-14T17:34:51Z</time>
      </trkpt>
      <trkpt lat="49.36836" lon="1.24001">
        <ele>156</ele>
        <time>2017-03-14T17:34:51Z</time>
      </trkpt>
      <trkpt lat="49.36838" lon="1.23994">
        <ele>156</ele>
        <time>2017-03-14T17:34:51Z</time>
      </trkpt>
      <trkpt lat="49.3684" lon="1.23989">
        <ele>156</ele>
        <time>2017-03-14T17:34:51Z</time>
      </trkpt>
      <trkpt lat="49.36843" lon="1.23983">
        <ele>156</ele>
        <time>2017-03-14T17:35:07Z</time>
      </trkpt>
      <trkpt lat="49.36844" lon="1.23978">
        <ele>156</ele>
        <time>2017-03-14T17:35:07Z</time>
      </trkpt>
      <trkpt lat="49.36847" lon="1.23972">
        <ele>156</ele>
        <time>2017-03-14T17:35:07Z</time>
      </trkpt>
      <trkpt lat="49.3685" lon="1.23966">
        <ele>156</ele>
        <time>2017-03-14T17:35:07Z</time>
      </trkpt>
      <trkpt lat="49.36853" lon="1.23959">
        <ele>156</ele>
        <time>2017-03-14T17:35:23Z</time>
      </trkpt>
      <trkpt lat="49.36858" lon="1.23953">
        <ele>156</ele>
        <time>2017-03-14T17:35:23Z</time>
      </trkpt>
      <trkpt lat="49.36861" lon="1.23947">
        <ele>156</ele>
        <time>2017-03-14T17:35:23Z</time>
      </trkpt>
      <trkpt lat="49.36864" lon="1.2394">
        <ele>156</ele>
        <time>2017-03-14T17:35:23Z</time>
      </trkpt>
      <trkpt lat="49.36865" lon="1.23934">
        <ele>156</ele>
        <time>2017-03-14T17:35:39Z</time>
      </trkpt>
      <trkpt lat="49.36868" lon="1.23928">
        <ele>156</ele>
        <time>2017-03-14T17:35:39Z</time>
      </trkpt>
      <trkpt lat="49.36871" lon="1.23922">
        <ele>156</ele>
        <time>2017-03-14T17:35:39Z</time>
      </trkpt>
      <trkpt lat="49.36874" lon="1.23916">
        <ele>156</ele>
        <time>2017-03-14T17:35:39Z</time>
      </trkpt>
      <trkpt lat="49.36876" lon="1.23912">
        <ele>158</ele>
        <time>2017-03-14T17:35:55Z</time>
      </trkpt>
      <trkpt lat="49.36878" lon="1.23908">
        <ele>158</ele>
        <time>2017-03-14T17:35:55Z</time>
      </trkpt>
      <trkpt lat="49.36881" lon="1.23899">
        <ele>158</ele>
        <time>2017-03-14T17:35:55Z</time>
      </trkpt>
      <trkpt lat="49.36885" lon="1.23891">
        <ele>158</ele>
        <time>2017-03-14T17:35:55Z</time>
      </trkpt>
      <trkpt lat="49.36888" lon="1.23884">
        <ele>158</ele>
        <time>2017-03-14T17:36:11Z</time>
      </trkpt>
      <trkpt lat="49.3689" lon="1.23879">
        <ele>158</ele>
        <time>2017-03-14T17:36:11Z</time>
      </trkpt>
      <trkpt lat="49.36893" lon="1.23873">
        <ele>158</ele>
        <time>2017-03-14T17:36:11Z</time>
      </trkpt>
      <trkpt lat="49.36895" lon="1.23867">
        <ele>158</ele>
        <time>2017-03-14T17:36:11Z</time>
      </trkpt>
      <trkpt lat="49.36899" lon="1.23858">
        <ele>158</ele>
        <time>2017-03-14T17:36:27Z</time>
      </trkpt>
      <trkpt lat="49.36902" lon="1.23852">
        <ele>158</ele>
        <time>2017-03-14T17:36:27Z</time>
      </trkpt>
      <trkpt lat="49.36904" lon="1.23847">
        <ele>158</ele>
        <time>2017-03-14T17:36:27Z</time>
      </trkpt>
      <trkpt lat="49.36906" lon="1.23842">
        <ele>158</ele>
        <time>2017-03-14T17:36:27Z</time>
      </trkpt>
      <trkpt lat="49.3691" lon="1.23836">
        <ele>158</ele>
        <time>2017-03-14T17:36:43Z</time>
      </trkpt>
      <trkpt lat="49.36913" lon="1.2383">
        <ele>158</ele>
        <time>2017-03-14T17:36:43Z</time>
      </trkpt>
      <trkpt lat="49.36915" lon="1.23827">
        <ele>158</ele>
        <time>2017-03-14T17:36:43Z</time>
      </trkpt>
      <trkpt lat="49.36919" lon="1.2382">
        <ele>158</ele>
        <time>2017-03-14T17:36:43Z</time>
      </trkpt>
      <trkpt lat="49.36922" lon="1.23812">
        <ele>158</ele>
        <time>2017-03-14T17:36:59Z</time>
      </trkpt>
      <trkpt lat="49.36925" lon="1.23805">
        <ele>158</ele>
        <time>2017-03-14T17:36:59Z</time>
      </trkpt>
      <trkpt lat="49.36928" lon="1.23798">
        <ele>158</ele>
        <time>2017-03-14T17:36:59Z</time>
      </trkpt>
      <trkpt lat="49.36931" lon="1.23789">
        <ele>157</ele>
        <time>2017-03-14T17:36:59Z</time>
      </trkpt>
      <trkpt lat="49.36934" lon="1.23783">
        <ele>157</ele>
        <time>2017-03-14T17:37:15Z</time>
      </trkpt>
      <trkpt lat="49.36936" lon="1.23779">
        <ele>157</ele>
        <time>2017-03-14T17:37:15Z</time>
      </trkpt>
      <trkpt lat="49.36938" lon="1.23775">
        <ele>157</ele>
        <time>2017-03-14T17:37:15Z</time>
      </trkpt>
      <trkpt lat="49.3694" lon="1.23769">
        <ele>157</ele>
        <time>2017-03-14T17:37:15Z</time>
      </trkpt>
      <trkpt lat="49.36942" lon="1.23764">
        <ele>157</ele>
        <time>2017-03-14T17:37:31Z</time>
      </trkpt>
      <trkpt lat="49.36944" lon="1.2376">
        <ele>157</ele>
        <time>2017-03-14T17:37:31Z</time>
      </trkpt>
      <trkpt lat="49.36947" lon="1.23753">
        <ele>157</ele>
        <time>2017-03-14T17:37:31Z</time>
      </trkpt>
      <trkpt lat="49.3695" lon="1.23747">
        <ele>157</ele>
        <time>2017-03-14T17:37:31Z</time>
      </trkpt>
      <trkpt lat="49.36952" lon="1.2374">
        <ele>157</ele>
        <time>2017-03-14T17:37:47Z</time>
      </trkpt>
      <trkpt lat="49.36955" lon="1.23735">
        <ele>157</ele>
        <time>2017-03-14T17:37:47Z</time>
      </trkpt>
      <trkpt lat="49.36958" lon="1.23728">
        <ele>157</ele>
        <time>2017-03-14T17:37:47Z</time>
      </trkpt>
      <trkpt lat="49.3696" lon="1.23722">
        <ele>159</ele>
        <time>2017-03-14T17:37:47Z</time>
      </trkpt>
      <trkpt lat="49.36962" lon="1.23719">
        <ele>159</ele>
        <time>2017-03-14T17:38:03Z</time>
      </trkpt>
      <trkpt lat="49.36965" lon="1.23714">
        <ele>159</ele>
        <time>2017-03-14T17:38:03Z</time>
      </trkpt>
      <trkpt lat="49.36966" lon="1.23708">
        <ele>160</ele>
        <time>2017-03-14T17:38:03Z</time>
      </trkpt>
      <trkpt lat="49.36969" lon="1.23702">
        <ele>160</ele>
        <time>2017-03-14T17:38:03Z</time>
      </trkpt>
      <trkpt lat="49.36972" lon="1.23696">
        <ele>160</ele>
        <time>2017-03-14T17:38:19Z</time>
      </trkpt>
      <trkpt lat="49.36975" lon="1.23688">
        <ele>160</ele>
        <time>2017-03-14T17:38:19Z</time>
      </trkpt>
      <trkpt lat="49.36977" lon="1.2368">
        <ele>160</ele>
        <time>2017-03-14T17:38:19Z</time>
      </trkpt>
      <trkpt lat="49.3698" lon="1.23671">
        <ele>160</ele>
        <time>2017-03-14T17:38:19Z</time>
      </trkpt>
      <trkpt lat="49.36982" lon="1.23665">
        <ele>160</ele>
        <time>2017-03-14T17:38:35Z</time>
      </trkpt>
      <trkpt lat="49.36984" lon="1.23659">
        <ele>160</ele>
        <time>2017-03-14T17:38:35Z</time>
      </trkpt>
      <trkpt lat="49.36987" lon="1.23649">
        <ele>160</ele>
        <time>2017-03-14T17:38:35Z</time>
      </trkpt>
      <trkpt lat="49.36991" lon="1.23642">
        <ele>160</ele>
        <time>2017-03-14T17:38:35Z</time>
      </trkpt>
      <trkpt lat="49.36994" lon="1.23635">
        <ele>160</ele>
        <time>2017-03-14T17:38:51Z</time>
      </trkpt>
      <trkpt lat="49.36997" lon="1.23628">
        <ele>160</ele>
        <time>2017-03-14T17:38:51Z</time>
      </trkpt>
      <trkpt lat="49.36999" lon="1.23619">
        <ele>158</ele>
        <time>2017-03-14T17:38:51Z</time>
      </trkpt>
      <trkpt lat="49.37003" lon="1.2361">
        <ele>158</ele>
        <time>2017-03-14T17:38:51Z</time>
      </trkpt>
      <trkpt lat="49.37005" lon="1.23604">
        <ele>158</ele>
        <time>2017-03-14T17:39:07Z</time>
      </trkpt>
      <trkpt lat="49.37008" lon="1.23598">
        <ele>158</ele>
        <time>2017-03-14T17:39:07Z</time>
      </trkpt>
      <trkpt lat="49.3701" lon="1.23592">
        <ele>158</ele>
        <time>2017-03-14T17:39:07Z</time>
      </trkpt>
      <trkpt lat="49.37011" lon="1.23588">
        <ele>158</ele>
        <time>2017-03-14T17:39:07Z</time>
      </trkpt>
      <trkpt lat="49.37013" lon="1.23582">
        <ele>158</ele>
        <time>2017-03-14T17:39:23Z</time>
      </trkpt>
      <trkpt lat="49.37014" lon="1.23577">
        <ele>158</ele>
        <time>2017-03-14T17:39:23Z</time>
      </trkpt>
      <trkpt lat="49.37017" lon="1.2357">
        <ele>158</ele>
        <time>2017-03-14T17:39:23Z</time>
      </trkpt>
      <trkpt lat="49.37018" lon="1.23564">
        <ele>158</ele>
        <time>2017-03-14T17:39:23Z</time>
      </trkpt>
      <trkpt lat="49.3702" lon="1.23559">
        <ele>158</ele>
        <time>2017-03-14T17:39:39Z</time>
      </trkpt>
      <trkpt lat="49.37021" lon="1.23554">
        <ele>158</ele>
        <time>2017-03-14T17:39:39Z</time>
      </trkpt>
      <trkpt lat="49.37024" lon="1.23546">
        <ele>158</ele>
        <time>2017-03-14T17:39:39Z</time>
      </trkpt>
      <trkpt lat="49.37027" lon="1.23537">
        <ele>157</ele>
        <time>2017-03-14T17:39:39Z</time>
      </trkpt>
      <trkpt lat="49.37029" lon="1.2353">
        <ele>157</ele>
        <time>2017-03-14T17:39:55Z</time>
      </trkpt>
      <trkpt lat="49.37031" lon="1.23523">
        <ele>157</ele>
        <time>2017-03-14T17:39:55Z</time>
      </trkpt>
      <trkpt lat="49.37033" lon="1.23516">
        <ele>157</ele>
        <time>2017-03-14T17:39:55Z</time>
      </trkpt>
      <trkpt lat="49.37034" lon="1.23511">
        <ele>157</ele>
        <time>2017-03-14T17:39:55Z</time>
      </trkpt>
      <trkpt lat="49.37036" lon="1.23503">
        <ele>157</ele>
        <time>2017-03-14T17:40:11Z</time>
      </trkpt>
      <trkpt lat="49.37039" lon="1.23495">
        <ele>157</ele>
        <time>2017-03-14T17:40:11Z</time>
      </trkpt>
      <trkpt lat="49.37043" lon="1.23487">
        <ele>156</ele>
        <time>2017-03-14T17:40:11Z</time>
      </trkpt>
      <trkpt lat="49.37045" lon="1.2348">
        <ele>156</ele>
        <time>2017-03-14T17:40:11Z</time>
      </trkpt>
      <trkpt lat="49.37047" lon="1.23473">
        <ele>156</ele>
        <time>2017-03-14T17:40:27Z</time>
      </trkpt>
      <trkpt lat="49.3705" lon="1.23465">
        <ele>156</ele>
        <time>2017-03-14T17:40:27Z</time>
      </trkpt>
      <trkpt lat="49.37052" lon="1.2346">
        <ele>156</ele>
        <time>2017-03-14T17:40:27Z</time>
      </trkpt>
      <trkpt lat="49.37054" lon="1.23452">
        <ele>153</ele>
        <time>2017-03-14T17:40:27Z</time>
      </trkpt>
      <trkpt lat="49.37057" lon="1.23445">
        <ele>153</ele>
        <time>2017-03-14T17:40:43Z</time>
      </trkpt>
      <trkpt lat="49.37059" lon="1.23441">
        <ele>153</ele>
        <time>2017-03-14T17:40:43Z</time>
      </trkpt>
      <trkpt lat="49.37061" lon="1.23436">
        <ele>153</ele>
        <time>2017-03-14T17:40:43Z</time>
      </trkpt>
      <trkpt lat="49.37063" lon="1.2343">
        <ele>153</ele>
        <time>2017-03-14T17:40:43Z</time>
      </trkpt>
      <trkpt lat="49.37064" lon="1.23422">
        <ele>153</ele>
        <time>2017-03-14T17:40:59Z</time>
      </trkpt>
      <trkpt lat="49.37066" lon="1.23416">
        <ele>153</ele>
        <time>2017-03-14T17:40:59Z</time>
      </trkpt>
      <trkpt lat="49.37068" lon="1.23407">
        <ele>153</ele>
        <time>2017-03-14T17:40:59Z</time>
      </trkpt>
      <trkpt lat="49.37071" lon="1.234">
        <ele>153</ele>
        <time>2017-03-14T17:40:59Z</time>
      </trkpt>
      <trkpt lat="49.37075" lon="1.23395">
        <ele>153</ele>
        <time>2017-03-14T17:41:15Z</time>
      </trkpt>
      <trkpt lat="49.37078" lon="1.23389">
        <ele>153</ele>
        <time>2017-03-14T17:41:15Z</time>
      </trkpt>
      <trkpt lat="49.37081" lon="1.23381">
        <ele>153</ele>
        <time>2017-03-14T17:41:15Z</time>
      </trkpt>
      <trkpt lat="49.37083" lon="1.23375">
        <ele>151</ele>
        <time>2017-03-14T17:41:15Z</time>
      </trkpt>
      <trkpt lat="49.37085" lon="1.23368">
        <ele>151</ele>
        <time>2017-03-14T17:41:31Z</time>
      </trkpt>
      <trkpt lat="49.37088" lon="1.23359">
        <ele>151</ele>
        <time>2017-03-14T17:41:31Z</time>
      </trkpt>
      <trkpt lat="49.37089" lon="1.23355">
        <ele>151</ele>
        <time>2017-03-14T17:41:31Z</time>
      </trkpt>
      <trkpt lat="49.37091" lon="1.23347">
        <ele>151</ele>
        <time>2017-03-14T17:41:31Z</time>
      </trkpt>
      <trkpt lat="49.37091" lon="1.23341">
        <ele>151</ele>
        <time>2017-03-14T17:41:47Z</time>
      </trkpt>
      <trkpt lat="49.37092" lon="1.23333">
        <ele>151</ele>
        <time>2017-03-14T17:41:47Z</time>
      </trkpt>
      <trkpt lat="49.37093" lon="1.23326">
        <ele>151</ele>
        <time>2017-03-14T17:41:47Z</time>
      </trkpt>
      <trkpt lat="49.37095" lon="1.23319">
        <ele>151</ele>
        <time>2017-03-14T17:41:47Z</time>
      </trkpt>
      <trkpt lat="49.37097" lon="1.23311">
        <ele>151</ele>
        <time>2017-03-14T17:42:03Z</time>
      </trkpt>
      <trkpt lat="49.37098" lon="1.23305">
        <ele>151</ele>
        <time>2017-03-14T17:42:03Z</time>
      </trkpt>
      <trkpt lat="49.37101" lon="1.23296">
        <ele>151</ele>
        <time>2017-03-14T17:42:03Z</time>
      </trkpt>
      <trkpt lat="49.37102" lon="1.23292">
        <ele>151</ele>
        <time>2017-03-14T17:42:03Z</time>
      </trkpt>
      <trkpt lat="49.37104" lon="1.23285">
        <ele>151</ele>
        <time>2017-03-14T17:42:19Z</time>
      </trkpt>
      <trkpt lat="49.37104" lon="1.23279">
        <ele>151</ele>
        <time>2017-03-14T17:42:19Z</time>
      </trkpt>
      <trkpt lat="49.37105" lon="1.23271">
        <ele>151</ele>
        <time>2017-03-14T17:42:19Z</time>
      </trkpt>
      <trkpt lat="49.37107" lon="1.23262">
        <ele>151</ele>
        <time>2017-03-14T17:42:19Z</time>
      </trkpt>
      <trkpt lat="49.37109" lon="1.23254">
        <ele>151</ele>
        <time>2017-03-14T17:42:35Z</time>
      </trkpt>
      <trkpt lat="49.3711" lon="1.23246">
        <ele>151</ele>
        <time>2017-03-14T17:42:35Z</time>
      </trkpt>
      <trkpt lat="49.37111" lon="1.23238">
        <ele>151</ele>
        <time>2017-03-14T17:42:35Z</time>
      </trkpt>
      <trkpt lat="49.37113" lon="1.2323">
        <ele>151</ele>
        <time>2017-03-14T17:42:35Z</time>
      </trkpt>
      <trkpt lat="49.37114" lon="1.23227">
        <ele>151</ele>
        <time>2017-03-14T17:42:51Z</time>
      </trkpt>
      <trkpt lat="49.37115" lon="1.23222">
        <ele>151</ele>
        <time>2017-03-14T17:42:51Z</time>
      </trkpt>
      <trkpt lat="49.37116" lon="1.23216">
        <ele>151</ele>
        <time>2017-03-14T17:42:51Z</time>
      </trkpt>
      <trkpt lat="49.37119" lon="1.2321">
        <ele>151</ele>
        <time>2017-03-14T17:42:51Z</time>
      </trkpt>
      <trkpt lat="49.3712" lon="1.23203">
        <ele>152</ele>
        <time>2017-03-14T17:43:07Z</time>
      </trkpt>
      <trkpt lat="49.37122" lon="1.23196">
        <ele>152</ele>
        <time>2017-03-14T17:43:07Z</time>
      </trkpt>
      <trkpt lat="49.37125" lon="1.23188">
        <ele>154</ele>
        <time>2017-03-14T17:43:07Z</time>
      </trkpt>
      <trkpt lat="49.37127" lon="1.23181">
        <ele>154</ele>
        <time>2017-03-14T17:43:07Z</time>
      </trkpt>
      <trkpt lat="49.37129" lon="1.23175">
        <ele>154</ele>
        <time>2017-03-14T17:43:23Z</time>
      </trkpt>
      <trkpt lat="49.37131" lon="1.23168">
        <ele>154</ele>
        <time>2017-03-14T17:43:23Z</time>
      </trkpt>
      <trkpt lat="49.37134" lon="1.23162">
        <ele>154</ele>
        <time>2017-03-14T17:43:23Z</time>
      </trkpt>
      <trkpt lat="49.37135" lon="1.23156">
        <ele>154</ele>
        <time>2017-03-14T17:43:23Z</time>
      </trkpt>
      <trkpt lat="49.37137" lon="1.2315">
        <ele>154</ele>
        <time>2017-03-14T17:43:39Z</time>
      </trkpt>
      <trkpt lat="49.37138" lon="1.23145">
        <ele>154</ele>
        <time>2017-03-14T17:43:39Z</time>
      </trkpt>
      <trkpt lat="49.37139" lon="1.23138">
        <ele>154</ele>
        <time>2017-03-14T17:43:39Z</time>
      </trkpt>
      <trkpt lat="49.37142" lon="1.23132">
        <ele>154</ele>
        <time>2017-03-14T17:43:39Z</time>
      </trkpt>
      <trkpt lat="49.37144" lon="1.23127">
        <ele>154</ele>
        <time>2017-03-14T17:43:55Z</time>
      </trkpt>
      <trkpt lat="49.37145" lon="1.23121">
        <ele>154</ele>
        <time>2017-03-14T17:43:55Z</time>
      </trkpt>
      <trkpt lat="49.37146" lon="1.23115">
        <ele>154</ele>
        <time>2017-03-14T17:43:55Z</time>
      </trkpt>
      <trkpt lat="49.3715" lon="1.23109">
        <ele>154</ele>
        <time>2017-03-14T17:43:55Z</time>
      </trkpt>
      <trkpt lat="49.37153" lon="1.23102">
        <ele>154</ele>
        <time>2017-03-14T17:44:11Z</time>
      </trkpt>
      <trkpt lat="49.37157" lon="1.23097">
        <ele>154</ele>
        <time>2017-03-14T17:44:11Z</time>
      </trkpt>
      <trkpt lat="49.37161" lon="1.23092">
        <ele>154</ele>
        <time>2017-03-14T17:44:11Z</time>
      </trkpt>
      <trkpt lat="49.37165" lon="1.23087">
        <ele>154</ele>
        <time>2017-03-14T17:44:11Z</time>
      </trkpt>
      <trkpt lat="49.3717" lon="1.23083">
        <ele>154</ele>
        <time>2017-03-14T17:44:27Z</time>
      </trkpt>
      <trkpt lat="49.37174" lon="1.2308">
        <ele>154</ele>
        <time>2017-03-14T17:44:27Z</time>
      </trkpt>
      <trkpt lat="49.37181" lon="1.23078">
        <ele>154</ele>
        <time>2017-03-14T17:44:27Z</time>
      </trkpt>
      <trkpt lat="49.37186" lon="1.2308">
        <ele>154</ele>
        <time>2017-03-14T17:44:27Z</time>
      </trkpt>
      <trkpt lat="49.3719" lon="1.23084">
        <ele>154</ele>
        <time>2017-03-14T17:44:43Z</time>
      </trkpt>
      <trkpt lat="49.37193" lon="1.23089">
        <ele>154</ele>
        <time>2017-03-14T17:44:43Z</time>
      </trkpt>
      <trkpt lat="49.37195" lon="1.23095">
        <ele>154</ele>
        <time>2017-03-14T17:44:43Z</time>
      </trkpt>
      <trkpt lat="49.37196" lon="1.231">
        <ele>154</ele>
        <time>2017-03-14T17:44:43Z</time>
      </trkpt>
      <trkpt lat="49.37199" lon="1.23105">
        <ele>154</ele>
        <time>2017-03-14T17:44:59Z</time>
      </trkpt>
      <trkpt lat="49.37203" lon="1.23108">
        <ele>154</ele>
        <time>2017-03-14T17:44:59Z</time>
      </trkpt>
      <trkpt lat="49.37206" lon="1.23113">
        <ele>154</ele>
        <time>2017-03-14T17:44:59Z</time>
      </trkpt>
      <trkpt lat="49.37209" lon="1.23119">
        <ele>157</ele>
        <time>2017-03-14T17:44:59Z</time>
      </trkpt>
      <trkpt lat="49.37212" lon="1.23124">
        <ele>157</ele>
        <time>2017-03-14T17:45:15Z</time>
      </trkpt>
      <trkpt lat="49.37215" lon="1.23127">
        <ele>156</ele>
        <time>2017-03-14T17:45:15Z</time>
      </trkpt>
      <trkpt lat="49.37219" lon="1.23133">
        <ele>156</ele>
        <time>2017-03-14T17:45:15Z</time>
      </trkpt>
      <trkpt lat="49.37223" lon="1.23139">
        <ele>156</ele>
        <time>2017-03-14T17:45:15Z</time>
      </trkpt>
      <trkpt lat="49.37225" lon="1.23144">
        <ele>156</ele>
        <time>2017-03-14T17:45:31Z</time>
      </trkpt>
      <trkpt lat="49.37227" lon="1.23147">
        <ele>156</ele>
        <time>2017-03-14T17:45:31Z</time>
      </trkpt>
      <trkpt lat="49.37231" lon="1.23151">
        <ele>156</ele>
        <time>2017-03-14T17:45:31Z</time>
      </trkpt>
      <trkpt lat="49.37232" lon="1.23156">
        <ele>156</ele>
        <time>2017-03-14T17:45:31Z</time>
      </trkpt>
      <trkpt lat="49.37235" lon="1.23161">
        <ele>156</ele>
        <time>2017-03-14T17:45:47Z</time>
      </trkpt>
      <trkpt lat="49.37238" lon="1.23166">
        <ele>156</ele>
        <time>2017-03-14T17:45:47Z</time>
      </trkpt>
      <trkpt lat="49.37242" lon="1.23168">
        <ele>156</ele>
        <time>2017-03-14T17:45:47Z</time>
      </trkpt>
      <trkpt lat="49.37249" lon="1.23168">
        <ele>156</ele>
        <time>2017-03-14T17:45:47Z</time>
      </trkpt>
      <trkpt lat="49.37253" lon="1.23172">
        <ele>156</ele>
        <time>2017-03-14T17:46:03Z</time>
      </trkpt>
      <trkpt lat="49.37255" lon="1.23179">
        <ele>156</ele>
        <time>2017-03-14T17:46:03Z</time>
      </trkpt>
      <trkpt lat="49.37256" lon="1.23186">
        <ele>156</ele>
        <time>2017-03-14T17:46:03Z</time>
      </trkpt>
      <trkpt lat="49.37258" lon="1.23193">
        <ele>156</ele>
        <time>2017-03-14T17:46:03Z</time>
      </trkpt>
      <trkpt lat="49.37261" lon="1.23199">
        <ele>156</ele>
        <time>2017-03-14T17:46:19Z</time>
      </trkpt>
      <trkpt lat="49.37264" lon="1.23206">
        <ele>156</ele>
        <time>2017-03-14T17:46:19Z</time>
      </trkpt>
      <trkpt lat="49.37265" lon="1.23213">
        <ele>156</ele>
        <time>2017-03-14T17:46:19Z</time>
      </trkpt>
      <trkpt lat="49.37268" lon="1.23217">
        <ele>156</ele>
        <time>2017-03-14T17:46:19Z</time>
      </trkpt>
    </trkseg>
  </trk>
</gpx>